# Wetter Temperatur Luftdruck Luftfeuchtigkeit Sichtweite Windgeschwindigkeit Windrichtung Zeit
1 Clouds 17 998 93 10000 10.8 210 23:54 04.08.2020
2 Clouds 17 998 93 10000 8.2 220 23:31 04.08.2020
3 Rain 17 998 93 10000 8.2 230 22:47 04.08.2020
4 Rain 17 998 93 10000 8.2 230 22:47 04.08.2020
5 Drizzle 17 998 100 3800 9.3 230 22:27 04.08.2020
6 Drizzle 17 999 93 4200 9.3 220 20:56 04.08.2020
7 Rain 17 998 93 4900 9.3 200 19:34 04.08.2020
8 Rain 17 999 88 6000 10.8 200 18:33 04.08.2020
9 Rain 17 1000 88 5000 10.8 200 17:31 04.08.2020
10 Rain 17 1000 88 6000 9.8 200 16:35 04.08.2020
11 Rain 16 1001 93 8000 9.3 200 15:43 04.08.2020
12 Rain 16 1001 87 6000 8.7 190 15:19 04.08.2020
13 Rain 14 1003 87 7000 7.2 180 13:47 04.08.2020
14 Rain 13 1006 93 10000 3.6 180 11:36 04.08.2020
15 Rain 12 1007 93 10000 3.1 120 10:57 04.08.2020
16 Rain 12 1007 93 10000 3.1 120 10:35 04.08.2020
17 Rain 12 1008 93 10000 4.1 150 09:56 04.08.2020
18 Rain 12 1011 87 10000 3.1 160 07:32 04.08.2020
19 Rain 12 1011 87 10000 2.1 150 06:54 04.08.2020
20 Clouds 12 1015 81 10000 1.5 240 23:23 03.08.2020
21 Clouds 13 1015 76 10000 2.6 250 22:26 03.08.2020
22 Clouds 14 1015 71 10000 4.1 250 21:28 03.08.2020
23 Clouds 15 1015 67 10000 5.7 250 20:59 03.08.2020
24 Clouds 15 1015 62 10000 5.7 250 20:22 03.08.2020
25 Clouds 15 1015 62 10000 6.2 280 19:41 03.08.2020
26 Clouds 16 1015 63 10000 5.7 260 18:34 03.08.2020
27 Clouds 16 1015 63 10000 5.1 240 17:57 03.08.2020
28 Clouds 15 1016 58 10000 5.7 260 16:43 03.08.2020
29 Clouds 16 1015 59 10000 6.2 250 15:47 03.08.2020
30 Clouds 16 1015 59 10000 5.7 270 14:29 03.08.2020
31 Clouds 16 1015 63 10000 3.6 260 13:36 03.08.2020
32 Clouds 15 1015 67 10000 5.7 260 12:39 03.08.2020
33 Rain 14 1015 71 10000 4.6 260 11:34 03.08.2020
34 Clouds 13 1015 82 10000 1.5 0 10:20 03.08.2020
35 Clouds 12 1015 81 10000 1.5 230 09:26 03.08.2020
36 Clouds 9 1015 93 10000 1.5 280 02:55 03.08.2020
37 Clouds 9 1015 87 10000 3.6 230 02:23 03.08.2020
38 Clear 10 1015 87 10000 1 0 00:55 03.08.2020
39 Clear 10 1015 87 10000 1 0 00:33 03.08.2020
40 Clouds 13 1014 66 10000 3.6 270 21:44 02.08.2020
41 Clear 14 1014 67 10000 3.6 270 21:20 02.08.2020
42 Clear 15 1014 58 10000 5.1 270 20:36 02.08.2020
43 Clouds 14 1014 62 10000 5.7 250 19:55 02.08.2020
44 Clouds 16 1014 67 10000 4.6 300 19:23 02.08.2020
45 Rain 15 1013 67 10000 4.6 250 18:45 02.08.2020
46 Rain 15 1014 82 10000 5.7 240 17:32 02.08.2020
47 Rain 15 1014 72 10000 4.6 290 15:50 02.08.2020
48 Clouds 17 1013 59 10000 6.7 250 14:56 02.08.2020
49 Clouds 16 1013 59 10000 6.7 250 14:33 02.08.2020
50 Clouds 16 1013 63 10000 5.1 250 13:50 02.08.2020
51 Clouds 15 1013 71 10000 4.1 300 12:54 02.08.2020
52 Rain 15 1013 72 10000 4.6 250 12:27 02.08.2020
53 Clouds 15 1013 77 10000 5.7 240 11:23 02.08.2020
54 Clouds 14 1013 82 10000 5.1 260 10:36 02.08.2020
55 Clouds 14 1013 87 10000 3.1 250 09:44 02.08.2020
56 Rain 12 1012 93 10000 1 200 08:47 02.08.2020
57 Clouds 12 1012 93 10000 1.5 250 08:20 02.08.2020
58 Rain 12 1012 93 10000 1 270 04:53 02.08.2020
59 Clouds 12 1013 93 10000 3.1 240 02:48 02.08.2020
60 Rain 13 1013 87 10000 3.1 240 00:28 02.08.2020
61 Clouds 14 1013 76 10000 3.6 240 22:54 01.08.2020
62 Clouds 15 1013 72 10000 2.6 250 21:31 01.08.2020
63 Clouds 16 1013 63 10000 5.7 240 20:25 01.08.2020
64 Clouds 17 1013 63 10000 4.1 260 19:28 01.08.2020
65 Clouds 16 1013 63 10000 4.6 260 18:41 01.08.2020
66 Clouds 16 1013 72 10000 2.6 300 17:48 01.08.2020
67 Clouds 16 1013 63 10000 5.1 270 16:38 01.08.2020
68 Clouds 16 1013 67 10000 6.2 260 15:53 01.08.2020
69 Clouds 17 1013 67 10000 5.1 250 15:23 01.08.2020
70 Clouds 17 1013 67 10000 5.7 230 14:44 01.08.2020
71 Clouds 16 1012 67 10000 4.6 250 13:21 01.08.2020
72 Clouds 15 1012 77 10000 4.1 250 11:45 01.08.2020
73 Clouds 15 1012 77 10000 4.1 260 10:56 01.08.2020
74 Rain 13 1010 87 10000 1.5 0 07:27 01.08.2020
75 Clouds 15 1008 100 8000 3.1 240 03:19 01.08.2020
76 Clouds 16 1008 100 6000 2.1 240 01:53 01.08.2020
77 Clouds 16 1008 100 6000 2.1 240 01:32 01.08.2020
78 Clouds 17 1007 93 10000 1.5 210 23:36 31.07.2020
79 Rain 18 1007 93 6000 1.5 240 21:59 31.07.2020
80 Rain 19 1006 82 10000 3.1 250 20:44 31.07.2020
81 Thunderstorm 19 1007 77 5000 4.6 190 20:24 31.07.2020
82 Rain 20 1006 77 10000 5.1 240 19:49 31.07.2020
83 Clouds 26 1006 47 10000 5.1 180 17:55 31.07.2020
84 Clouds 25 1006 44 10000 6.7 180 16:43 31.07.2020
85 Clouds 25 1006 57 10000 2.1 80 15:51 31.07.2020
86 Clear 24 1007 69 10000 3.6 20 14:43 31.07.2020
87 Clear 23 1006 68 10000 3.6 60 13:41 31.07.2020
88 Clear 21 1007 68 10000 5.7 60 12:40 31.07.2020
89 Clouds 18 1009 88 10000 1.5 240 11:39 31.07.2020
90 Clear 17 1009 93 10000 0.5 0 11:19 31.07.2020
91 Clear 15 1009 87 10000 0.5 0 10:25 31.07.2020
92 Clear 15 1010 93 10000 1 0 09:36 31.07.2020
93 Clouds 14 1010 93 9000 0.5 0 08:53 31.07.2020
94 Clouds 12 1010 100 7000 3.6 90 07:35 31.07.2020
95 Clouds 13 1011 93 10000 3.1 90 04:39 31.07.2020
96 Clouds 13 1013 93 10000 2.1 60 02:24 31.07.2020
97 Clouds 14 1013 93 10000 3.1 60 00:53 31.07.2020
98 Clouds 14 1013 93 10000 3.1 60 00:25 31.07.2020
99 Clouds 15 1014 93 10000 3.1 60 22:53 30.07.2020
100 Clouds 16 1013 87 10000 4.1 60 22:30 30.07.2020
101 Rain 16 1013 93 10000 2.6 70 21:19 30.07.2020
102 Rain 16 1014 93 10000 2.6 80 20:56 30.07.2020
103 Rain 16 1014 87 10000 2.1 90 19:54 30.07.2020
104 Rain 16 1014 93 10000 2.1 160 18:59 30.07.2020
105 Rain 16 1014 93 8000 1.5 0 17:55 30.07.2020
106 Drizzle 15 1014 100 4300 2.6 50 16:58 30.07.2020
107 Drizzle 15 1014 100 4300 2.6 50 16:36 30.07.2020
108 Drizzle 15 1014 93 2400 3.6 60 15:58 30.07.2020
109 Drizzle 15 1014 93 2400 3.6 60 15:38 30.07.2020
110 Rain 14 1014 93 2300 1 0 14:57 30.07.2020
111 Drizzle 14 1014 93 5000 5.1 70 14:38 30.07.2020
112 Drizzle 14 1014 93 5000 5.1 70 14:20 30.07.2020
113 Drizzle 13 1014 100 2600 4.6 60 13:39 30.07.2020
114 Drizzle 13 1015 100 1800 4.6 60 13:19 30.07.2020
115 Drizzle 12 1015 100 1700 5.7 70 12:38 30.07.2020
116 Drizzle 12 1015 93 2700 6.2 70 11:29 30.07.2020
117 Rain 12 1015 93 10000 5.7 70 10:26 30.07.2020
118 Rain 11 1016 93 10000 4.6 70 09:23 30.07.2020
119 Drizzle 11 1016 100 5000 4.6 60 08:59 30.07.2020
120 Drizzle 11 1016 100 5000 4.6 60 08:38 30.07.2020
121 Rain 11 1016 93 10000 2.6 40 05:23 30.07.2020
122 Clouds 10 1017 87 10000 1 100 01:52 30.07.2020
123 Clouds 11 1017 81 10000 0.5 270 00:21 30.07.2020
124 Clouds 12 1018 76 10000 4.1 220 22:57 29.07.2020
125 Clouds 13 1017 66 10000 4.1 210 22:21 29.07.2020
126 Clouds 13 1017 71 10000 3.6 220 21:46 29.07.2020
127 Clouds 15 1017 58 10000 4.1 240 20:53 29.07.2020
128 Clouds 15 1017 58 10000 4.6 250 20:34 29.07.2020
129 Clouds 15 1017 58 10000 4.6 240 19:51 29.07.2020
130 Clouds 16 1017 55 10000 4.6 240 19:26 29.07.2020
131 Clouds 16 1017 55 10000 3.6 270 18:55 29.07.2020
132 Clouds 16 1017 55 10000 4.6 260 18:31 29.07.2020
133 Clouds 16 1017 58 10000 6.2 240 17:54 29.07.2020
134 Clouds 16 1017 51 10000 5.7 270 16:51 29.07.2020
135 Clouds 16 1017 55 10000 6.2 240 16:22 29.07.2020
136 Clouds 16 1017 55 10000 5.1 260 15:42 29.07.2020
137 Clouds 15 1017 58 10000 6.2 260 15:19 29.07.2020
138 Clouds 16 1017 63 10000 5.7 260 14:22 29.07.2020
139 Clouds 14 1017 67 10000 7.2 260 13:45 29.07.2020
140 Clouds 14 1017 67 10000 6.2 260 13:18 29.07.2020
141 Clouds 14 1017 67 10000 5.1 270 12:23 29.07.2020
142 Clouds 14 1017 67 10000 5.7 270 11:46 29.07.2020
143 Clouds 13 1016 71 10000 5.1 270 11:20 29.07.2020
144 Clouds 13 1016 71 10000 5.1 250 10:35 29.07.2020
145 Clouds 13 1016 71 10000 5.7 230 09:35 29.07.2020
146 Clouds 12 1015 76 10000 5.7 230 08:24 29.07.2020
147 Clouds 11 1015 81 10000 3.6 250 07:30 29.07.2020
148 Clouds 11 1015 76 10000 4.6 260 05:46 29.07.2020
149 Clouds 10 1014 87 10000 4.1 250 02:27 29.07.2020
150 Clouds 12 1014 76 10000 6.2 260 00:36 29.07.2020
151 Clouds 12 1013 76 10000 5.7 260 22:44 28.07.2020
152 Clouds 13 1013 71 10000 5.1 250 22:19 28.07.2020
153 Clouds 14 1013 67 10000 5.7 270 21:35 28.07.2020
154 Clouds 14 1013 67 10000 6.2 290 20:57 28.07.2020
155 Clouds 14 1013 67 10000 6.2 290 20:38 28.07.2020
156 Clouds 15 1012 62 10000 8.2 270 19:57 28.07.2020
157 Clouds 15 1012 62 10000 7.2 280 19:25 28.07.2020
158 Clouds 16 1012 59 10000 9.3 280 18:59 28.07.2020
159 Clouds 15 1011 67 10000 8.7 280 18:36 28.07.2020
160 Clouds 16 1011 63 10000 9.3 280 17:52 28.07.2020
161 Clouds 15 1011 72 10000 7.7 280 17:20 28.07.2020
162 Clouds 15 1010 67 10000 8.2 280 16:26 28.07.2020
163 Clouds 15 1010 67 10000 8.2 280 16:26 28.07.2020
164 Clouds 15 1009 62 10000 7.7 280 15:29 28.07.2020
165 Clouds 15 1009 62 10000 7.7 280 14:50 28.07.2020
166 Clouds 15 1009 62 10000 7.7 280 14:31 28.07.2020
167 Clouds 15 1008 67 10000 8.2 270 13:40 28.07.2020
168 Clouds 14 1008 67 10000 7.2 280 12:42 28.07.2020
169 Clouds 13 1007 71 10000 7.7 270 12:21 28.07.2020
170 Clouds 14 1007 67 10000 6.7 280 11:54 28.07.2020
171 Clouds 13 1006 71 10000 7.2 280 10:55 28.07.2020
172 Clouds 13 1006 71 10000 6.7 280 10:24 28.07.2020
173 Clouds 12 1006 76 10000 4.6 250 09:58 28.07.2020
174 Clouds 12 1005 76 10000 4.6 240 09:31 28.07.2020
175 Clouds 11 1005 76 10000 5.7 270 08:58 28.07.2020
176 Clouds 11 1005 76 10000 5.7 240 08:37 28.07.2020
177 Clouds 11 1004 76 10000 5.1 260 07:50 28.07.2020
178 Clouds 11 1004 81 10000 6.2 270 06:42 28.07.2020
179 Clouds 12 1002 81 10000 5.7 270 02:20 28.07.2020
180 Clouds 12 1002 81 10000 5.7 270 02:20 28.07.2020
181 Clouds 12 1002 81 10000 5.7 270 02:20 28.07.2020
182 Clouds 12 1001 81 10000 4.6 250 01:50 28.07.2020
183 Clouds 12 1001 87 10000 4.1 240 00:48 28.07.2020
184 Rain 12 1000 87 10000 5.1 250 23:44 27.07.2020
185 Clouds 12 1000 81 10000 4.6 260 23:24 27.07.2020
186 Clouds 12 999 81 10000 5.1 270 22:23 27.07.2020
187 Clouds 12 999 81 10000 6.7 260 21:50 27.07.2020
188 Clouds 12 999 81 10000 6.7 260 21:32 27.07.2020
189 Clouds 13 998 71 10000 7.2 270 20:48 27.07.2020
190 Clouds 13 998 76 10000 6.7 270 20:22 27.07.2020
191 Clouds 13 997 76 10000 7.2 280 19:51 27.07.2020
192 Clouds 13 997 82 10000 7.7 280 19:32 27.07.2020
193 Rain 13 995 87 10000 8.2 270 18:40 27.07.2020
194 Rain 14 995 87 10000 7.7 280 17:47 27.07.2020
195 Rain 15 994 87 8000 5.1 280 17:27 27.07.2020
196 Drizzle 14 994 100 3800 4.6 310 16:39 27.07.2020
197 Rain 14 993 100 10000 6.2 300 16:39 27.07.2020
198 Rain 14 993 100 10000 6.2 300 16:18 27.07.2020
199 Rain 14 993 93 4400 4.6 310 15:46 27.07.2020
200 Rain 15 993 93 4100 3.6 330 15:28 27.07.2020
201 Rain 15 993 93 6000 4.6 30 14:43 27.07.2020
202 Rain 14 994 100 5000 4.1 30 14:23 27.07.2020
203 Rain 14 995 100 9000 4.6 40 13:31 27.07.2020
204 Rain 14 995 93 5000 3.6 40 12:55 27.07.2020
205 Rain 13 996 93 4800 3.1 40 12:36 27.07.2020
206 Rain 13 997 93 5000 3.1 80 11:58 27.07.2020
207 Rain 13 997 93 7000 2.6 90 11:22 27.07.2020
208 Rain 13 998 93 5000 3.6 70 10:41 27.07.2020
209 Drizzle 12 998 93 3400 4.6 60 09:43 27.07.2020
210 Rain 12 999 93 7000 4.1 50 09:21 27.07.2020
211 Rain 12 1000 93 6000 3.6 50 08:59 27.07.2020
212 Rain 12 1000 93 6000 3.6 50 08:40 27.07.2020
213 Rain 11 1001 100 5000 2.6 60 07:49 27.07.2020
214 Rain 11 1002 93 8000 2.1 40 06:46 27.07.2020
215 Rain 11 1002 93 10000 2.1 50 06:24 27.07.2020
216 Clouds 12 1004 87 10000 0.5 250 02:19 27.07.2020
217 Clouds 11 1004 81 10000 1.5 250 00:41 27.07.2020
218 Clouds 12 1004 81 10000 1.5 290 23:34 26.07.2020
219 Clouds 13 1005 71 10000 3.1 270 22:57 26.07.2020
220 Clouds 13 1005 71 10000 3.1 270 22:36 26.07.2020
221 Clouds 15 1004 67 10000 3.1 260 21:55 26.07.2020
222 Clear 15 1004 67 10000 3.1 260 21:37 26.07.2020
223 Clear 16 1004 63 10000 4.1 240 21:18 26.07.2020
224 Clouds 16 1004 63 10000 4.6 240 20:48 26.07.2020
225 Clouds 16 1004 67 10000 4.6 230 20:20 26.07.2020
226 Clouds 16 1004 63 10000 5.7 240 19:44 26.07.2020
227 Clouds 16 1004 59 10000 6.2 250 19:21 26.07.2020
228 Clouds 17 1004 51 10000 6.2 260 18:45 26.07.2020
229 Clouds 18 1004 55 10000 5.7 240 18:26 26.07.2020
230 Clouds 18 1004 51 10000 6.7 240 17:49 26.07.2020
231 Clouds 18 1004 51 10000 7.7 250 17:24 26.07.2020
232 Clouds 17 1004 55 10000 7.2 250 16:52 26.07.2020
233 Rain 17 1004 55 10000 7.2 250 16:26 26.07.2020
234 Rain 17 1004 55 10000 8.2 240 15:42 26.07.2020
235 Clouds 16 1004 59 10000 7.7 250 15:24 26.07.2020
236 Clouds 16 1003 59 10000 8.7 240 14:57 26.07.2020
237 Clouds 16 1003 63 10000 8.7 240 14:33 26.07.2020
238 Clouds 15 1003 72 10000 5.7 270 13:50 26.07.2020
239 Rain 15 1003 87 10000 4.6 220 13:18 26.07.2020
240 Rain 14 1003 87 6000 6.2 220 12:39 26.07.2020
241 Drizzle 13 1002 87 4300 7.7 220 12:20 26.07.2020
242 Rain 14 1002 82 10000 9.3 210 11:41 26.07.2020
243 Clouds 15 1002 82 10000 8.7 210 11:22 26.07.2020
244 Clouds 14 1002 87 10000 9.3 220 10:42 26.07.2020
245 Clouds 14 1002 82 10000 5.7 230 09:58 26.07.2020
246 Clouds 14 1002 82 10000 5.7 230 09:38 26.07.2020
247 Clouds 13 1001 93 10000 5.1 210 08:56 26.07.2020
248 Clouds 13 1001 87 10000 2.6 240 07:57 26.07.2020
249 Clouds 13 1001 93 10000 3.1 220 06:29 26.07.2020
250 Clouds 12 1001 93 10000 2.1 230 03:51 26.07.2020
251 Rain 14 1001 93 10000 2.1 250 01:19 26.07.2020
252 Clouds 15 1001 87 10000 1 280 00:18 26.07.2020
253 Clouds 14 1001 87 10000 1.5 290 23:30 25.07.2020
254 Rain 15 1001 87 10000 2.1 270 22:40 25.07.2020
255 Clouds 15 1001 87 10000 3.1 230 21:59 25.07.2020
256 Clouds 15 1001 82 10000 4.6 210 21:21 25.07.2020
257 Clouds 15 1001 82 10000 4.1 220 20:43 25.07.2020
258 Clouds 16 1001 82 10000 4.6 220 20:21 25.07.2020
259 Clouds 17 1001 82 10000 4.1 230 19:37 25.07.2020
260 Rain 17 1001 82 10000 3.6 230 19:19 25.07.2020
261 Clouds 17 1001 77 10000 4.1 240 18:36 25.07.2020
262 Clouds 17 1001 77 10000 5.1 260 17:59 25.07.2020
263 Clouds 17 1001 77 10000 5.1 260 17:40 25.07.2020
264 Clouds 17 1001 72 10000 5.7 260 17:21 25.07.2020
265 Clouds 18 1001 67 10000 6.2 250 16:51 25.07.2020
266 Clouds 17 1001 72 10000 5.7 250 16:28 25.07.2020
267 Clouds 17 1001 77 10000 7.2 240 15:47 25.07.2020
268 Haze 17 1001 82 4600 6.7 260 15:21 25.07.2020
269 Clouds 16 1001 77 10000 7.2 250 14:46 25.07.2020
270 Clouds 16 1001 82 10000 6.2 250 14:28 25.07.2020
271 Clouds 16 1001 77 10000 4.6 260 13:42 25.07.2020
272 Clouds 16 1001 77 10000 6.2 280 13:22 25.07.2020
273 Clouds 16 1001 82 10000 7.2 260 12:56 25.07.2020
274 Clouds 16 1001 82 10000 6.2 250 12:22 25.07.2020
275 Clouds 15 1000 87 10000 4.1 250 11:44 25.07.2020
276 Clouds 15 1000 93 10000 4.1 260 11:23 25.07.2020
277 Rain 15 999 93 10000 4.6 250 10:45 25.07.2020
278 Rain 15 999 87 10000 4.1 240 10:25 25.07.2020
279 Rain 15 999 93 10000 2.1 230 09:52 25.07.2020
280 Rain 15 999 93 10000 2.1 230 09:27 25.07.2020
281 Rain 15 999 93 10000 2.1 260 08:59 25.07.2020
282 Rain 15 998 100 9000 2.6 220 08:25 25.07.2020
283 Rain 15 998 100 10000 2.6 250 07:54 25.07.2020
284 Rain 15 998 100 10000 2.6 250 07:34 25.07.2020
285 Rain 15 999 100 4800 2.6 230 06:37 25.07.2020
286 Drizzle 14 1001 100 2900 2.6 60 03:23 25.07.2020
287 Drizzle 14 1001 93 2700 2.1 60 02:34 25.07.2020
288 Drizzle 14 1002 93 2800 2.1 60 01:38 25.07.2020
289 Drizzle 13 1002 100 2900 3.6 60 01:18 25.07.2020
290 Rain 14 1003 100 3900 4.6 70 00:45 25.07.2020
291 Rain 13 1003 93 3800 4.1 70 00:22 25.07.2020
292 Rain 14 1004 87 4300 4.1 80 23:49 24.07.2020
293 Rain 14 1004 87 4300 4.1 80 23:30 24.07.2020
294 Rain 14 1005 87 10000 4.1 90 22:57 24.07.2020
295 Rain 14 1005 87 10000 4.1 90 22:39 24.07.2020
296 Rain 15 1005 82 10000 3.1 100 22:20 24.07.2020
297 Rain 15 1006 82 10000 3.1 130 21:43 24.07.2020
298 Rain 16 1006 72 10000 2.6 150 21:24 24.07.2020
299 Clouds 16 1006 72 10000 3.6 140 20:43 24.07.2020
300 Clouds 16 1007 77 10000 2.6 170 20:23 24.07.2020
301 Clouds 16 1007 82 10000 3.1 230 19:44 24.07.2020
302 Clouds 16 1007 77 10000 2.6 230 19:24 24.07.2020
303 Clouds 17 1008 77 10000 2.6 260 18:34 24.07.2020
304 Clouds 17 1008 77 10000 3.1 240 17:54 24.07.2020
305 Clouds 17 1009 77 10000 2.6 240 17:20 24.07.2020
306 Clouds 17 1009 77 10000 3.1 220 16:52 24.07.2020
307 Clouds 16 1010 72 10000 3.1 210 16:28 24.07.2020
308 Clouds 16 1010 72 10000 3.1 200 15:51 24.07.2020
309 Clouds 16 1010 77 10000 3.1 190 15:32 24.07.2020
310 Clouds 16 1010 77 10000 3.1 190 14:47 24.07.2020
311 Clouds 15 1010 77 10000 3.6 200 14:29 24.07.2020
312 Clouds 15 1010 77 10000 4.1 210 13:52 24.07.2020
313 Clouds 15 1010 77 10000 4.6 220 13:22 24.07.2020
314 Clouds 15 1011 72 10000 3.6 200 12:52 24.07.2020
315 Clouds 15 1010 72 10000 3.1 170 12:28 24.07.2020
316 Clouds 15 1010 77 10000 3.6 190 11:57 24.07.2020
317 Clouds 15 1011 77 10000 1 0 11:22 24.07.2020
318 Clouds 15 1011 82 10000 1 0 10:49 24.07.2020
319 Clouds 15 1011 82 10000 1 0 10:20 24.07.2020
320 Clouds 14 1011 82 10000 1 0 09:57 24.07.2020
321 Clouds 14 1011 82 10000 1 0 09:39 24.07.2020
322 Clouds 13 1011 87 10000 2.1 200 09:19 24.07.2020
323 Clouds 12 1011 93 10000 2.6 220 08:46 24.07.2020
324 Clouds 11 1011 93 10000 2.1 260 08:27 24.07.2020
325 Clouds 10 1010 93 10000 1 270 07:40 24.07.2020
326 Clouds 9 1010 100 10000 2.1 250 07:21 24.07.2020
327 Clouds 10 1010 93 10000 2.6 240 06:36 24.07.2020
328 Clouds 10 1010 93 10000 2.1 260 05:54 24.07.2020
329 Clouds 10 1011 93 10000 2.6 220 05:30 24.07.2020
330 Clouds 11 1011 93 10000 2.1 210 03:32 24.07.2020
331 Clouds 12 1011 93 10000 4.1 230 01:34 24.07.2020
332 Clouds 12 1010 93 10000 2.6 220 00:29 24.07.2020
333 Clouds 14 1010 87 10000 3.1 250 23:48 23.07.2020
334 Clouds 13 1010 93 10000 3.1 230 23:28 23.07.2020
335 Clouds 14 1010 82 10000 2.6 260 22:59 23.07.2020
336 Clouds 15 1010 82 10000 2.6 260 22:40 23.07.2020
337 Clouds 15 1010 82 10000 4.1 250 22:20 23.07.2020
338 Clouds 16 1010 77 10000 4.6 260 21:40 23.07.2020
339 Clouds 17 1010 72 10000 4.6 260 21:21 23.07.2020
340 Clouds 17 1010 77 10000 4.6 260 20:59 23.07.2020
341 Clouds 17 1010 77 10000 4.6 260 20:40 23.07.2020
342 Clouds 17 1010 72 10000 4.6 270 20:19 23.07.2020
343 Clouds 17 1010 77 10000 5.1 270 19:58 23.07.2020
344 Clouds 17 1010 77 10000 5.1 270 19:37 23.07.2020
345 Clouds 17 1010 77 10000 5.1 270 19:37 23.07.2020
346 Clouds 18 1010 77 10000 5.7 260 19:18 23.07.2020
347 Clouds 17 1010 77 10000 6.2 260 18:41 23.07.2020
348 Clouds 18 1010 77 10000 4.6 280 18:20 23.07.2020
349 Clouds 18 1010 77 10000 4.6 260 17:43 23.07.2020
350 Clouds 17 1010 82 10000 4.6 260 17:24 23.07.2020
351 Clouds 17 1010 77 10000 5.1 260 16:48 23.07.2020
352 Clouds 17 1010 77 10000 5.1 250 16:25 23.07.2020
353 Clouds 17 1010 77 10000 5.1 270 15:54 23.07.2020
354 Clouds 18 1010 72 10000 4.6 260 15:25 23.07.2020
355 Clouds 18 1010 82 10000 4.1 270 14:57 23.07.2020
356 Clouds 17 1010 82 10000 4.1 270 14:36 23.07.2020
357 Clouds 17 1010 82 10000 3.1 270 14:18 23.07.2020
358 Clouds 17 1010 82 10000 3.6 260 13:47 23.07.2020
359 Clouds 17 1010 93 10000 2.6 300 13:27 23.07.2020
360 Rain 16 1010 93 10000 3.1 310 12:57 23.07.2020
361 Rain 16 1010 93 10000 3.1 310 12:37 23.07.2020
362 Rain 16 1010 93 9000 2.6 290 12:18 23.07.2020
363 Rain 16 1010 93 10000 3.6 240 11:38 23.07.2020
364 Rain 16 1010 93 10000 3.6 230 11:20 23.07.2020
365 Rain 15 1010 100 10000 3.1 240 10:44 23.07.2020
366 Rain 15 1010 93 10000 3.1 240 10:24 23.07.2020
367 Rain 15 1010 93 10000 2.6 240 09:55 23.07.2020
368 Rain 15 1010 93 10000 2.6 240 09:36 23.07.2020
369 Rain 15 1010 93 10000 1.5 0 09:18 23.07.2020
370 Drizzle 14 1011 100 4500 1.51 230 08:41 23.07.2020
371 Drizzle 14 1011 100 4500 1.19 212 08:21 23.07.2020
372 Rain 14 1011 100 7000 0.5 0 07:39 23.07.2020
373 Rain 14 1011 100 3700 1.13 201 07:18 23.07.2020
374 Rain 14 1011 100 7000 1 0 06:34 23.07.2020
375 Drizzle 14 1012 93 2200 1 60 05:46 23.07.2020
376 Rain 14 1013 93 1700 1.5 30 04:58 23.07.2020
377 Drizzle 14 1013 93 1700 1.5 30 04:33 23.07.2020
378 Clouds 14 1014 93 10000 1.5 220 03:20 23.07.2020
379 Clouds 15 1015 87 10000 3.6 220 00:37 23.07.2020
380 Clouds 15 1015 87 10000 3.6 230 23:59 22.07.2020
381 Clouds 15 1015 87 10000 3.6 230 23:40 22.07.2020
382 Clouds 15 1015 87 10000 3.6 240 23:21 22.07.2020
383 Clouds 15 1015 87 10000 2.6 240 22:41 22.07.2020
384 Clouds 15 1015 87 10000 2.6 240 22:23 22.07.2020
385 Clouds 15 1015 87 10000 3.1 240 21:56 22.07.2020
386 Clouds 15 1015 87 10000 3.1 240 21:56 22.07.2020
387 Clouds 15 1015 87 10000 3.1 240 21:56 22.07.2020
388 Clouds 15 1015 87 10000 3.1 240 21:38 22.07.2020
389 Clouds 15 1015 87 10000 3.6 230 21:18 22.07.2020
390 Clouds 15 1015 93 10000 3.6 220 20:56 22.07.2020
391 Clouds 15 1015 93 10000 3.6 220 20:37 22.07.2020
392 Clouds 15 1015 93 10000 3.1 220 20:19 22.07.2020
393 Haze 15 1016 93 4100 4.6 230 19:45 22.07.2020
394 Clouds 16 1016 87 10000 3.6 220 19:27 22.07.2020
395 Clouds 16 1016 87 10000 4.1 220 18:55 22.07.2020
396 Clouds 15 1016 93 10000 5.1 210 18:32 22.07.2020
397 Clouds 15 1016 93 10000 5.7 210 17:56 22.07.2020
398 Clouds 15 1016 93 10000 5.7 210 17:38 22.07.2020
399 Clouds 15 1017 93 10000 4.6 210 17:19 22.07.2020
400 Clouds 15 1017 87 10000 5.1 220 16:54 22.07.2020
401 Clouds 15 1017 87 10000 5.1 220 16:36 22.07.2020
402 Rain 15 1017 87 9000 5.7 210 16:18 22.07.2020
403 Rain 14 1017 93 9000 4.6 210 15:42 22.07.2020
404 Rain 14 1017 93 6000 4.6 200 15:42 22.07.2020
405 Rain 14 1017 93 9000 4.6 210 15:22 22.07.2020
406 Rain 14 1017 93 10000 3.6 210 14:48 22.07.2020
407 Rain 14 1018 93 4600 3.6 200 14:20 22.07.2020
408 Rain 14 1018 87 7000 2.6 180 13:57 22.07.2020
409 Rain 14 1018 87 7000 2.6 180 13:37 22.07.2020
410 Rain 14 1018 87 6000 3.1 200 13:18 22.07.2020
411 Rain 13 1018 93 4600 2.1 160 12:41 22.07.2020
412 Rain 13 1018 93 3200 3.6 190 12:21 22.07.2020
413 Rain 13 1018 93 7000 2.1 160 11:56 22.07.2020
414 Rain 13 1019 93 3800 2.1 120 11:37 22.07.2020
415 Rain 13 1019 93 3800 2.1 120 11:18 22.07.2020
416 Rain 13 1019 93 3800 2.1 120 11:18 22.07.2020
417 Rain 12 1019 93 5000 3.1 110 10:41 22.07.2020
418 Rain 12 1019 93 5000 3.6 60 10:22 22.07.2020
419 Rain 12 1019 93 10000 3.1 60 09:50 22.07.2020
420 Rain 12 1019 93 10000 3.6 50 09:23 22.07.2020
421 Rain 12 1020 93 8000 2.1 60 08:50 22.07.2020
422 Rain 12 1020 93 8000 1.5 0 08:29 22.07.2020
423 Rain 12 1020 87 9000 2.6 90 07:59 22.07.2020
424 Rain 12 1021 87 10000 2.6 70 07:20 22.07.2020
425 Rain 12 1021 93 10000 2.6 110 06:35 22.07.2020
426 Rain 12 1017 98 10000 2.23 183 05:57 22.07.2020
427 Rain 12 1022 93 10000 1.5 130 05:37 22.07.2020
428 Rain 12 1022 93 10000 1.5 120 04:48 22.07.2020
429 Rain 12 1023 93 10000 1 0 04:21 22.07.2020
430 Rain 12 1024 87 10000 1 80 02:19 22.07.2020
431 Rain 12 1024 87 10000 0.5 10 01:20 22.07.2020
432 Rain 12 1024 87 10000 1 0 00:20 22.07.2020
433 Rain 13 1024 87 10000 3.1 230 23:42 21.07.2020
434 Rain 13 1024 76 10000 5.1 230 23:21 21.07.2020
435 Clouds 14 1024 67 10000 4.1 230 22:57 21.07.2020
436 Clouds 14 1024 67 10000 4.1 230 22:39 21.07.2020
437 Clouds 15 1024 67 10000 3.6 230 22:21 21.07.2020
438 Clouds 15 1024 62 10000 3.1 230 21:58 21.07.2020
439 Clouds 15 1024 62 10000 3.1 230 21:39 21.07.2020
440 Clouds 16 1024 62 10000 4.1 230 21:21 21.07.2020
441 Clouds 16 1024 59 10000 4.1 230 20:48 21.07.2020
442 Clouds 16 1024 59 10000 4.1 240 20:28 21.07.2020
443 Clouds 17 1024 48 10000 5.1 240 19:59 21.07.2020
444 Clouds 17 1024 48 10000 5.1 240 19:39 21.07.2020
445 Clouds 18 1024 45 10000 5.1 240 19:19 21.07.2020
446 Clouds 18 1024 45 10000 4.6 240 18:43 21.07.2020
447 Clouds 18 1024 48 10000 3.6 250 18:23 21.07.2020
448 Clouds 18 1024 52 10000 2.6 190 17:43 21.07.2020
449 Clouds 18 1024 55 10000 2.1 320 17:24 21.07.2020
450 Clouds 17 1025 55 10000 1 0 16:48 21.07.2020
451 Clouds 17 1025 55 10000 2.1 270 16:24 21.07.2020
452 Clouds 16 1025 59 10000 2.1 220 15:59 21.07.2020
453 Clouds 16 1025 59 10000 2.1 220 15:41 21.07.2020
454 Clouds 16 1025 59 10000 2.1 250 15:22 21.07.2020
455 Clouds 17 1025 55 10000 2.6 240 14:40 21.07.2020
456 Clouds 16 1025 59 10000 3.1 260 14:19 21.07.2020
457 Clouds 17 1025 55 10000 3.1 270 13:59 21.07.2020
458 Clouds 17 1025 55 10000 3.1 270 13:38 21.07.2020
459 Clouds 16 1025 59 10000 2.1 280 13:20 21.07.2020
460 Clouds 16 1025 55 10000 3.1 290 12:42 21.07.2020
461 Clouds 15 1025 62 10000 3.1 280 12:23 21.07.2020
462 Clouds 15 1025 62 10000 1.5 0 11:59 21.07.2020
463 Clouds 15 1025 62 10000 1.5 0 11:39 21.07.2020
464 Clouds 15 1025 62 10000 2.1 260 11:20 21.07.2020
465 Clouds 14 1025 67 10000 2.6 300 10:44 21.07.2020
466 Clouds 14 1025 76 10000 2.1 280 10:23 21.07.2020
467 Clouds 14 1025 81 10000 2.1 250 09:51 21.07.2020
468 Clouds 13 1025 81 10000 2.1 250 09:33 21.07.2020
469 Clouds 11 1025 81 10000 2.1 270 08:58 21.07.2020
470 Clouds 11 1025 81 10000 2.1 270 08:40 21.07.2020
471 Clouds 10 1025 81 10000 2.1 260 08:20 21.07.2020
472 Clouds 10 1025 81 10000 1.5 250 07:46 21.07.2020
473 Clouds 10 1025 87 10000 1.5 260 07:25 21.07.2020
474 Clouds 10 1024 87 10000 1 0 06:51 21.07.2020
475 Clouds 10 1024 76 10000 4.1 260 05:30 21.07.2020
476 Clouds 10 1025 81 10000 1 0 04:22 21.07.2020
477 Clouds 11 1025 76 10000 4.1 250 02:37 21.07.2020
478 Clouds 11 1025 76 10000 2.6 260 01:32 21.07.2020
479 Clouds 11 1024 76 10000 3.1 270 00:43 21.07.2020
480 Clouds 12 1024 71 10000 5.1 260 00:24 21.07.2020
481 Clouds 12 1024 76 10000 4.1 260 23:55 20.07.2020
482 Clouds 12 1024 76 10000 4.1 260 23:36 20.07.2020
483 Clouds 12 1024 71 10000 5.7 260 23:18 20.07.2020
484 Clouds 12 1024 71 10000 5.1 270 22:39 20.07.2020
485 Clouds 13 1024 66 10000 7.2 280 22:19 20.07.2020
486 Clouds 13 1024 66 10000 6.2 280 21:55 20.07.2020
487 Clear 14 1024 66 10000 6.2 280 21:37 20.07.2020
488 Clouds 14 1023 62 10000 4.1 280 21:18 20.07.2020
489 Clouds 15 1023 62 10000 2.6 280 20:41 20.07.2020
490 Clouds 15 1023 62 10000 2.6 280 20:41 20.07.2020
491 Clouds 14 1023 62 10000 5.7 270 20:20 20.07.2020
492 Clouds 14 1023 62 10000 6.7 280 19:39 20.07.2020
493 Clouds 15 1023 62 10000 5.1 280 19:19 20.07.2020
494 Clouds 16 1023 59 10000 5.7 270 18:59 20.07.2020
495 Clouds 16 1023 59 10000 5.7 270 18:40 20.07.2020
496 Clouds 16 1023 59 10000 6.7 270 18:19 20.07.2020
497 Clouds 16 1023 59 10000 7.7 270 17:44 20.07.2020
498 Clouds 16 1023 63 10000 7.2 260 17:24 20.07.2020
499 Clouds 16 1023 59 10000 7.2 260 16:50 20.07.2020
500 Clouds 16 1022 63 10000 6.7 270 16:21 20.07.2020
501 Clouds 16 1022 63 10000 6.7 270 15:46 20.07.2020
502 Clouds 15 1022 67 10000 5.7 280 15:20 20.07.2020
503 Rain 14 1022 76 10000 4.1 300 14:56 20.07.2020
504 Rain 14 1022 76 10000 4.1 300 14:38 20.07.2020
505 Rain 15 1023 82 10000 3.1 320 14:18 20.07.2020
506 Rain 15 1023 67 10000 3.6 290 13:55 20.07.2020
507 Rain 15 1023 67 10000 3.6 290 13:37 20.07.2020
508 Rain 15 1023 67 10000 3.6 290 13:37 20.07.2020
509 Clouds 15 1023 71 10000 5.1 270 13:18 20.07.2020
510 Clouds 14 1023 67 10000 6.2 280 12:42 20.07.2020
511 Clouds 14 1023 67 10000 6.7 270 12:21 20.07.2020
512 Clouds 14 1022 67 10000 5.1 260 11:59 20.07.2020
513 Clouds 14 1022 67 10000 5.1 260 11:40 20.07.2020
514 Clouds 14 1022 67 10000 5.1 260 11:40 20.07.2020
515 Clouds 14 1022 82 10000 3.6 290 11:22 20.07.2020
516 Clouds 14 1022 71 10000 5.7 250 10:45 20.07.2020
517 Clouds 13 1022 76 10000 4.1 260 10:27 20.07.2020
518 Clouds 13 1022 76 10000 4.1 280 09:59 20.07.2020
519 Clouds 13 1022 76 10000 4.1 280 09:40 20.07.2020
520 Clouds 12 1022 81 10000 3.6 260 09:21 20.07.2020
521 Clouds 12 1022 81 10000 3.1 260 08:46 20.07.2020
522 Clouds 11 1021 87 10000 2.1 280 08:26 20.07.2020
523 Clouds 11 1021 87 10000 3.1 250 07:43 20.07.2020
524 Clouds 11 1021 87 10000 1.5 240 07:21 20.07.2020
525 Clouds 10 1021 87 10000 2.1 240 06:44 20.07.2020
526 Clouds 10 1021 87 10000 2.1 240 06:44 20.07.2020
527 Clouds 10 1021 87 10000 2.6 210 05:54 20.07.2020
528 Clouds 10 1021 87 10000 2.6 230 03:37 20.07.2020
529 Clouds 11 1021 87 10000 3.1 250 01:20 20.07.2020
530 Clouds 11 1021 87 10000 2.6 240 00:21 20.07.2020
531 Clouds 11 1021 87 10000 3.1 260 23:49 19.07.2020
532 Clouds 11 1021 87 10000 4.1 260 23:27 19.07.2020
533 Clouds 12 1020 76 10000 4.6 250 22:58 19.07.2020
534 Clouds 12 1020 76 10000 4.6 250 22:38 19.07.2020
535 Clouds 13 1020 76 10000 6.2 260 22:18 19.07.2020
536 Clouds 13 1020 71 10000 4.6 270 21:55 19.07.2020
537 Clouds 13 1020 71 10000 4.6 270 21:36 19.07.2020
538 Clouds 13 1020 71 10000 4.6 270 21:36 19.07.2020
539 Clouds 14 1020 71 10000 4.1 270 21:18 19.07.2020
540 Clouds 14 1020 67 10000 5.1 270 20:41 19.07.2020
541 Clouds 14 1020 67 10000 5.1 270 20:41 19.07.2020
542 Rain 14 1019 76 10000 6.2 260 20:20 19.07.2020
543 Clouds 15 1019 62 10000 7.2 260 19:58 19.07.2020
544 Clouds 15 1019 59 10000 7.2 260 19:38 19.07.2020
545 Clouds 16 1019 59 10000 7.2 260 19:19 19.07.2020
546 Clouds 15 1019 62 10000 7.2 260 18:42 19.07.2020
547 Clouds 15 1019 62 10000 6.7 270 18:41 19.07.2020
548 Clouds 15 1019 62 10000 6.7 270 18:23 19.07.2020
549 Clouds 16 1019 55 10000 8.7 270 17:49 19.07.2020
550 Clouds 16 1019 59 10000 6.7 270 17:30 19.07.2020
551 Clouds 16 1019 55 10000 7.2 290 16:59 19.07.2020
552 Clouds 16 1019 55 10000 7.2 290 16:39 19.07.2020
553 Clouds 16 1019 55 10000 7.2 290 16:39 19.07.2020
554 Clouds 16 1019 54 10000 7.7 290 16:21 19.07.2020
555 Clouds 15 1019 67 10000 7.7 280 15:51 19.07.2020
556 Clouds 16 1018 59 10000 6.7 260 15:32 19.07.2020
557 Clouds 16 1018 59 10000 6.7 280 14:48 19.07.2020
558 Rain 14 1018 66 10000 8.2 280 14:27 19.07.2020
559 Rain 15 1018 58 10000 6.2 270 13:59 19.07.2020
560 Rain 15 1018 58 10000 6.2 270 13:40 19.07.2020
561 Rain 15 1018 58 10000 5.1 300 13:22 19.07.2020
562 Clouds 15 1018 62 10000 6.2 280 12:48 19.07.2020
563 Clouds 16 1018 59 10000 6.2 260 12:25 19.07.2020
564 Clouds 16 1017 59 10000 6.2 260 11:55 19.07.2020
565 Clouds 15 1017 59 10000 6.2 260 11:36 19.07.2020
566 Clouds 15 1017 58 10000 5.7 270 11:18 19.07.2020
567 Clouds 14 1017 67 10000 6.2 260 10:41 19.07.2020
568 Clouds 14 1017 67 10000 6.7 260 10:21 19.07.2020
569 Clouds 14 1017 67 10000 5.7 260 09:45 19.07.2020
570 Clouds 13 1017 71 10000 4.6 260 09:22 19.07.2020
571 Clouds 12 1017 76 10000 4.6 250 08:48 19.07.2020
572 Clouds 11 1017 81 10000 4.6 260 08:27 19.07.2020
573 Clouds 11 1017 81 10000 5.1 260 07:54 19.07.2020
574 Clouds 11 1017 81 10000 5.1 260 07:28 19.07.2020
575 Clouds 10 1017 81 10000 5.7 260 06:49 19.07.2020
576 Clouds 10 1017 87 10000 4.6 260 06:21 19.07.2020
577 Clouds 10 1017 87 10000 4.6 250 05:51 19.07.2020
578 Clouds 10 1017 87 10000 5.1 240 04:45 19.07.2020
579 Clouds 11 1017 81 10000 3.6 260 02:47 19.07.2020
580 Clouds 11 1017 87 10000 3.1 260 02:23 19.07.2020
581 Clouds 10 1017 87 10000 4.6 260 01:44 19.07.2020
582 Clouds 10 1017 87 10000 3.1 250 00:59 19.07.2020
583 Clouds 11 1017 81 10000 3.6 250 00:23 19.07.2020
584 Clouds 11 1017 81 10000 3.6 250 00:23 19.07.2020
585 Clouds 11 1017 76 10000 4.6 260 23:55 18.07.2020
586 Clouds 11 1017 76 10000 4.6 260 23:55 18.07.2020
587 Clouds 12 1017 76 10000 4.6 260 23:37 18.07.2020
588 Clouds 12 1017 76 10000 4.6 260 23:37 18.07.2020
589 Clouds 12 1016 71 10000 5.1 270 23:18 18.07.2020
590 Clouds 13 1016 76 10000 4.6 260 22:40 18.07.2020
591 Clouds 13 1016 76 10000 5.1 260 22:19 18.07.2020
592 Clouds 13 1016 71 10000 5.1 260 21:47 18.07.2020
593 Clouds 14 1015 67 10000 5.7 260 21:28 18.07.2020
594 Clouds 15 1015 54 10000 7.7 270 20:58 18.07.2020
595 Clouds 15 1015 62 10000 6.2 250 20:40 18.07.2020
596 Clouds 15 1015 62 10000 6.2 250 20:20 18.07.2020
597 Clouds 16 1015 55 10000 6.2 260 19:41 18.07.2020
598 Clouds 16 1015 51 10000 7.7 260 19:21 18.07.2020
599 Clouds 16 1015 59 10000 7.2 260 18:46 18.07.2020
600 Clouds 16 1015 63 10000 6.2 270 18:21 18.07.2020
601 Clouds 15 1015 67 10000 7.2 260 17:47 18.07.2020
602 Rain 16 1014 62 10000 6.2 270 17:23 18.07.2020
603 Clouds 17 1014 59 10000 6.7 260 16:59 18.07.2020
604 Clouds 17 1014 59 10000 6.7 260 16:38 18.07.2020
605 Clouds 16 1014 59 10000 7.7 250 16:20 18.07.2020
606 Clouds 17 1014 55 10000 7.7 260 15:46 18.07.2020
607 Clouds 17 1014 55 10000 7.7 260 15:46 18.07.2020
608 Clouds 16 1014 59 10000 7.2 250 15:27 18.07.2020
609 Clouds 16 1014 67 10000 8.2 260 14:57 18.07.2020
610 Clouds 16 1014 67 10000 8.2 260 14:39 18.07.2020
611 Clouds 15 1014 63 10000 8.7 240 14:20 18.07.2020
612 Clouds 15 1014 76 10000 5.7 250 13:43 18.07.2020
613 Clouds 14 1014 82 6000 7.7 240 13:23 18.07.2020
614 Clouds 15 1014 67 10000 5.1 250 12:56 18.07.2020
615 Clouds 15 1014 67 10000 5.7 250 12:38 18.07.2020
616 Clouds 14 1014 67 10000 5.7 250 12:18 18.07.2020
617 Clouds 14 1013 67 10000 6.2 250 11:55 18.07.2020
618 Clouds 14 1013 67 10000 6.2 250 11:36 18.07.2020
619 Clouds 15 1013 62 10000 6.2 250 11:18 18.07.2020
620 Clouds 14 1013 71 10000 6.2 250 10:42 18.07.2020
621 Clouds 15 1013 67 10000 6.7 250 10:23 18.07.2020
622 Clouds 14 1013 71 10000 5.7 240 09:46 18.07.2020
623 Clouds 14 1013 82 10000 4.1 220 09:25 18.07.2020
624 Clouds 13 1013 87 10000 3.1 230 08:53 18.07.2020
625 Clouds 12 1013 87 10000 2.1 230 08:34 18.07.2020
626 Clouds 12 1013 87 10000 2.1 260 07:58 18.07.2020
627 Clouds 12 1013 87 10000 2.1 240 07:39 18.07.2020
628 Clouds 12 1013 87 10000 2.1 240 07:20 18.07.2020
629 Clouds 12 1013 87 10000 2.6 240 06:45 18.07.2020
630 Clouds 12 1014 87 10000 2.6 240 04:29 18.07.2020
631 Clouds 12 1014 87 10000 3.1 240 03:51 18.07.2020
632 Clouds 13 1014 87 10000 3.6 240 01:52 18.07.2020
633 Clouds 13 1014 87 10000 2.6 240 01:20 18.07.2020
634 Clouds 13 1015 87 10000 3.1 230 00:36 18.07.2020
635 Clouds 13 1015 87 10000 2.6 260 23:57 17.07.2020
636 Clouds 13 1015 87 10000 2.6 260 23:38 17.07.2020
637 Clouds 14 1015 87 10000 3.1 240 23:18 17.07.2020
638 Clouds 14 1014 87 10000 4.1 230 22:41 17.07.2020
639 Clouds 14 1014 82 10000 3.6 240 22:20 17.07.2020
640 Clouds 15 1014 77 10000 3.6 240 21:58 17.07.2020
641 Clouds 15 1014 77 10000 3.6 240 21:39 17.07.2020
642 Clouds 15 1014 77 10000 3.1 230 21:19 17.07.2020
643 Clouds 15 1014 77 10000 4.1 230 20:44 17.07.2020
644 Clouds 15 1015 77 10000 4.6 230 20:26 17.07.2020
645 Clouds 15 1015 77 10000 5.1 250 19:56 17.07.2020
646 Clouds 15 1015 77 10000 5.1 250 19:38 17.07.2020
647 Clouds 15 1015 82 10000 5.1 250 19:19 17.07.2020
648 Clouds 15 1015 82 10000 5.1 250 19:19 17.07.2020
649 Clouds 16 1015 77 10000 4.1 250 18:45 17.07.2020
650 Clouds 16 1015 82 10000 4.1 230 18:25 17.07.2020
651 Clouds 16 1015 82 10000 4.6 220 17:45 17.07.2020
652 Clouds 16 1015 87 10000 3.6 230 17:25 17.07.2020
653 Clouds 16 1015 87 10000 3.6 230 17:25 17.07.2020
654 Haze 15 1016 87 4200 4.1 240 16:45 17.07.2020
655 Clouds 15 1016 87 10000 3.6 230 16:23 17.07.2020
656 Rain 15 1016 82 10000 3.1 250 15:56 17.07.2020
657 Rain 15 1016 82 10000 3.1 250 15:37 17.07.2020
658 Haze 15 1016 82 5000 5.1 220 15:18 17.07.2020
659 Clouds 16 1016 72 10000 4.6 240 14:40 17.07.2020
660 Clouds 16 1016 72 10000 4.6 240 14:21 17.07.2020
661 Clouds 16 1016 72 10000 5.7 230 13:55 17.07.2020
662 Clouds 16 1016 72 10000 5.7 230 13:36 17.07.2020
663 Clouds 16 1016 72 10000 5.1 240 13:18 17.07.2020
664 Clouds 15 1016 82 10000 3.1 270 12:39 17.07.2020
665 Clouds 15 1016 82 10000 3.1 270 12:20 17.07.2020
666 Clouds 15 1016 82 10000 3.1 260 11:54 17.07.2020
667 Clouds 15 1016 82 10000 3.1 260 11:36 17.07.2020
668 Clouds 15 1016 82 10000 4.1 250 11:18 17.07.2020
669 Clouds 15 1015 82 10000 4.1 250 10:41 17.07.2020
670 Rain 15 1015 82 10000 3.6 240 10:23 17.07.2020
671 Rain 15 1015 87 10000 3.6 230 09:58 17.07.2020
672 Rain 15 1015 87 10000 3.6 230 09:40 17.07.2020
673 Rain 14 1015 93 10000 4.1 230 09:20 17.07.2020
674 Rain 15 1015 87 10000 3.6 240 08:47 17.07.2020
675 Rain 15 1015 93 10000 4.6 220 08:29 17.07.2020
676 Rain 15 1015 93 10000 5.7 230 07:55 17.07.2020
677 Drizzle 15 1014 93 4900 6.7 220 07:29 17.07.2020
678 Rain 15 1014 93 10000 6.7 220 06:57 17.07.2020
679 Rain 15 1014 93 8000 6.2 220 06:22 17.07.2020
680 Rain 15 1014 93 10000 5.1 230 05:30 17.07.2020
681 Clouds 16 1015 87 10000 4.6 240 02:58 17.07.2020
682 Clouds 16 1016 87 10000 5.7 240 01:49 17.07.2020
683 Clouds 16 1016 87 10000 5.1 240 00:52 17.07.2020
684 Clouds 16 1016 93 10000 6.2 240 00:23 17.07.2020
685 Clouds 16 1017 93 7000 5.7 230 23:55 16.07.2020
686 Clouds 16 1017 93 7000 5.7 230 23:37 16.07.2020
687 Haze 16 1017 87 5000 6.7 230 23:18 16.07.2020
688 Clouds 17 1017 77 10000 6.2 220 22:44 16.07.2020
689 Clouds 16 1017 82 10000 5.1 240 22:23 16.07.2020
690 Clouds 17 1017 77 10000 6.7 240 21:56 16.07.2020
691 Clouds 17 1017 77 10000 6.7 240 21:37 16.07.2020
692 Clouds 18 1017 72 10000 5.1 240 21:19 16.07.2020
693 Clouds 18 1017 72 10000 5.1 240 21:19 16.07.2020
694 Clouds 19 1017 68 10000 4.6 220 20:57 16.07.2020
695 Clouds 19 1017 68 10000 4.6 220 20:38 16.07.2020
696 Clouds 19 1017 63 10000 5.1 260 20:20 16.07.2020
697 Clouds 19 1017 63 10000 5.1 270 19:47 16.07.2020
698 Rain 20 1017 60 10000 7.7 270 19:28 16.07.2020
699 Rain 19 1017 63 10000 7.7 260 18:56 16.07.2020
700 Rain 19 1017 63 10000 7.7 260 18:38 16.07.2020
701 Rain 19 1018 68 10000 8.2 260 18:18 16.07.2020
702 Rain 19 1018 77 10000 6.7 250 17:38 16.07.2020
703 Clouds 18 1018 88 10000 6.2 230 17:19 16.07.2020
704 Clouds 18 1018 82 9000 7.7 220 16:57 16.07.2020
705 Clouds 18 1018 82 9000 7.7 220 16:39 16.07.2020
706 Clouds 19 1018 77 10000 6.7 230 16:20 16.07.2020
707 Clouds 19 1018 77 10000 6.7 250 15:45 16.07.2020
708 Clouds 18 1018 82 10000 6.7 230 15:27 16.07.2020
709 Clouds 18 1018 82 10000 6.7 230 15:27 16.07.2020
710 Clouds 17 1018 88 10000 6.2 240 14:58 16.07.2020
711 Clouds 17 1018 88 10000 6.2 240 14:37 16.07.2020
712 Clouds 17 1018 88 10000 7.7 230 14:19 16.07.2020
713 Clouds 17 1018 93 10000 7.2 220 13:56 16.07.2020
714 Clouds 17 1018 93 10000 7.2 220 13:36 16.07.2020
715 Clouds 16 1018 93 10000 5.7 230 13:18 16.07.2020
716 Clouds 16 1018 87 10000 5.1 240 12:41 16.07.2020
717 Clouds 16 1018 87 10000 3.6 240 12:19 16.07.2020
718 Rain 16 1018 93 9000 2.6 210 11:39 16.07.2020
719 Haze 16 1017 82 3100 2.6 210 11:20 16.07.2020
720 Rain 15 1018 87 10000 4.1 220 10:59 16.07.2020
721 Rain 15 1018 87 10000 4.1 220 10:40 16.07.2020
722 Clouds 15 1018 87 10000 5.7 240 10:20 16.07.2020
723 Clouds 14 1018 93 10000 4.1 230 09:55 16.07.2020
724 Clouds 14 1018 93 10000 4.1 230 09:37 16.07.2020
725 Clouds 14 1017 93 10000 4.1 240 09:18 16.07.2020
726 Clouds 14 1017 93 10000 4.1 240 09:18 16.07.2020
727 Clouds 14 1017 87 10000 4.1 230 08:39 16.07.2020
728 Clouds 14 1017 87 10000 4.1 230 08:21 16.07.2020
729 Clouds 14 1017 87 10000 4.1 230 08:21 16.07.2020
730 Clouds 14 1017 87 10000 4.1 240 07:46 16.07.2020
731 Clouds 14 1017 87 10000 4.1 240 07:25 16.07.2020
732 Clouds 13 1017 93 10000 4.6 240 06:49 16.07.2020
733 Clouds 13 1017 93 10000 4.1 250 06:20 16.07.2020
734 Clouds 13 1017 93 10000 4.1 250 05:54 16.07.2020
735 Clouds 13 1017 87 10000 4.1 250 05:22 16.07.2020
736 Clouds 13 1017 87 10000 4.6 250 04:18 16.07.2020
737 Clouds 13 1017 87 10000 6.2 260 03:35 16.07.2020
738 Clouds 13 1016 87 10000 4.6 250 02:38 16.07.2020
739 Clouds 13 1016 87 10000 4.6 250 02:19 16.07.2020
740 Clouds 14 1016 82 10000 4.1 260 01:40 16.07.2020
741 Clouds 14 1016 82 10000 2.6 250 00:50 16.07.2020
742 Clouds 14 1015 87 10000 4.6 250 00:32 16.07.2020
743 Clouds 14 1015 87 10000 5.7 250 23:57 15.07.2020
744 Clouds 14 1015 87 10000 5.7 250 23:38 15.07.2020
745 Clouds 14 1015 87 10000 4.6 250 23:20 15.07.2020
746 Clouds 14 1015 87 10000 5.7 260 22:54 15.07.2020
747 Clouds 14 1015 87 10000 5.7 260 22:36 15.07.2020
748 Clouds 14 1015 82 10000 6.2 260 22:18 15.07.2020
749 Clouds 14 1015 87 10000 5.1 260 21:54 15.07.2020
750 Clouds 14 1015 87 10000 5.1 260 21:36 15.07.2020
751 Clouds 14 1014 82 10000 4.6 260 21:18 15.07.2020
752 Clouds 14 1014 87 10000 4.6 260 20:39 15.07.2020
753 Clouds 15 1014 77 10000 4.1 250 20:21 15.07.2020
754 Clouds 15 1014 77 10000 3.1 270 19:58 15.07.2020
755 Clouds 15 1014 82 10000 5.1 270 19:39 15.07.2020
756 Clouds 15 1014 82 10000 5.1 270 19:20 15.07.2020
757 Clouds 15 1013 82 10000 5.7 260 18:58 15.07.2020
758 Clouds 15 1013 82 10000 5.7 260 18:38 15.07.2020
759 Clouds 16 1013 77 10000 5.7 260 18:19 15.07.2020
760 Clouds 16 1013 77 10000 6.2 270 17:54 15.07.2020
761 Clouds 16 1013 77 10000 6.2 270 17:36 15.07.2020
762 Clouds 16 1013 77 10000 5.7 260 17:18 15.07.2020
763 Clouds 16 1013 77 10000 5.1 250 16:41 15.07.2020
764 Clouds 16 1013 82 10000 5.1 270 16:22 15.07.2020
765 Rain 16 1013 82 7000 5.7 300 15:57 15.07.2020
766 Rain 16 1013 82 7000 5.7 300 15:39 15.07.2020
767 Clouds 16 1013 77 10000 5.7 270 15:21 15.07.2020
768 Clouds 16 1012 77 10000 5.7 270 14:43 15.07.2020
769 Clouds 16 1012 77 10000 6.2 260 14:21 15.07.2020
770 Clouds 16 1012 77 10000 6.7 260 13:59 15.07.2020
771 Clouds 16 1012 77 10000 6.7 260 13:41 15.07.2020
772 Clouds 16 1012 77 10000 5.7 250 13:21 15.07.2020
773 Clouds 15 1012 82 10000 4.6 250 12:42 15.07.2020
774 Clouds 15 1012 82 10000 5.1 260 12:22 15.07.2020
775 Clouds 15 1012 82 10000 5.1 250 11:58 15.07.2020
776 Clouds 15 1012 82 10000 5.1 250 11:39 15.07.2020
777 Clouds 14 1012 87 10000 4.6 260 11:20 15.07.2020
778 Clouds 14 1012 87 10000 3.6 260 10:56 15.07.2020
779 Clouds 14 1012 87 10000 3.6 260 10:56 15.07.2020
780 Clouds 14 1012 87 10000 3.6 260 10:37 15.07.2020
781 Clouds 14 1012 87 10000 3.6 250 10:19 15.07.2020
782 Clouds 13 1012 93 10000 2.6 230 09:43 15.07.2020
783 Clouds 13 1011 93 10000 3.1 220 09:25 15.07.2020
784 Rain 13 1011 93 10000 3.1 220 08:47 15.07.2020
785 Rain 12 1011 100 7000 2.6 230 08:28 15.07.2020
786 Rain 12 1011 100 8000 3.1 230 07:50 15.07.2020
787 Rain 12 1011 100 7000 2.6 230 07:27 15.07.2020
788 Rain 12 1011 93 10000 2.6 230 06:45 15.07.2020
789 Rain 12 1011 100 10000 2.6 220 06:21 15.07.2020
790 Rain 12 1011 100 10000 3.1 230 05:44 15.07.2020
791 Rain 12 1012 93 10000 3.6 240 04:29 15.07.2020
792 Clouds 13 1012 87 10000 3.1 240 03:41 15.07.2020
793 Clouds 13 1013 87 10000 2.6 240 01:55 15.07.2020
794 Clouds 13 1013 87 10000 3.1 240 01:35 15.07.2020
795 Clouds 13 1013 87 10000 3.6 240 00:57 15.07.2020
796 Clouds 13 1013 87 10000 4.1 240 00:29 15.07.2020
797 Clouds 13 1013 87 10000 3.6 230 23:51 14.07.2020
798 Clouds 13 1013 93 10000 2.6 240 23:28 14.07.2020
799 Clouds 13 1013 93 10000 3.1 220 22:55 14.07.2020
800 Clouds 13 1013 93 10000 3.1 220 22:37 14.07.2020
801 Clouds 13 1013 93 10000 3.6 210 22:18 14.07.2020
802 Rain 13 1013 87 10000 5.1 230 21:54 14.07.2020
803 Rain 14 1013 87 10000 5.1 230 21:36 14.07.2020
804 Rain 14 1013 82 10000 5.1 220 21:18 14.07.2020
805 Rain 15 1013 77 10000 4.6 230 20:42 14.07.2020
806 Rain 15 1013 77 10000 4.6 250 20:21 14.07.2020
807 Clouds 15 1013 77 10000 4.6 250 19:56 14.07.2020
808 Clouds 15 1013 82 10000 5.7 220 19:37 14.07.2020
809 Clouds 15 1013 82 10000 5.7 220 19:19 14.07.2020
810 Rain 15 1013 82 10000 6.2 230 18:42 14.07.2020
811 Rain 15 1013 72 10000 6.7 240 18:20 14.07.2020
812 Clouds 15 1014 77 10000 6.2 240 17:56 14.07.2020
813 Clouds 15 1014 77 10000 6.2 240 17:38 14.07.2020
814 Clouds 15 1014 77 10000 4.6 260 17:20 14.07.2020
815 Clouds 15 1014 87 10000 3.6 270 16:44 14.07.2020
816 Clouds 14 1015 87 10000 5.1 260 16:26 14.07.2020
817 Clouds 14 1015 82 10000 6.2 240 15:59 14.07.2020
818 Clouds 14 1015 82 10000 6.2 240 15:39 14.07.2020
819 Clouds 15 1015 72 10000 5.7 250 15:21 14.07.2020
820 Clouds 15 1015 76 10000 4.1 260 14:47 14.07.2020
821 Clouds 15 1015 72 10000 4.6 250 14:28 14.07.2020
822 Clouds 15 1015 72 10000 5.7 250 13:56 14.07.2020
823 Clouds 15 1015 76 10000 6.2 250 13:38 14.07.2020
824 Clouds 15 1015 76 10000 6.2 250 13:20 14.07.2020
825 Clouds 15 1015 76 10000 6.2 250 12:40 14.07.2020
826 Clouds 15 1016 71 10000 4.6 270 12:21 14.07.2020
827 Clouds 14 1016 71 10000 4.6 260 11:58 14.07.2020
828 Clouds 14 1016 71 10000 4.6 260 11:38 14.07.2020
829 Clouds 14 1016 71 10000 3.6 280 11:18 14.07.2020
830 Clouds 14 1016 71 10000 5.1 270 10:42 14.07.2020
831 Clouds 14 1016 71 10000 3.6 270 10:24 14.07.2020
832 Clouds 13 1016 76 10000 3.1 260 09:42 14.07.2020
833 Clouds 13 1016 76 10000 3.6 260 09:23 14.07.2020
834 Clouds 12 1016 81 10000 3.6 240 08:58 14.07.2020
835 Clouds 12 1016 81 10000 3.6 240 08:58 14.07.2020
836 Clouds 12 1016 81 10000 3.6 240 08:40 14.07.2020
837 Clouds 12 1016 81 10000 3.1 250 08:20 14.07.2020
838 Clouds 12 1016 81 10000 4.1 240 07:45 14.07.2020
839 Clouds 12 1016 81 10000 3.6 250 07:19 14.07.2020
840 Clouds 12 1008 90 0 1.79 297 06:58 14.07.2020
841 Clouds 11 1016 87 10000 4.1 230 06:27 14.07.2020
842 Clouds 11 1016 81 10000 5.1 230 05:50 14.07.2020
843 Clouds 11 1016 87 10000 5.1 240 04:52 14.07.2020
844 Clouds 11 1016 87 10000 5.1 240 04:33 14.07.2020
845 Clouds 11 1017 87 10000 3.6 230 03:29 14.07.2020
846 Clouds 11 1017 87 10000 3.6 210 02:27 14.07.2020
847 Clouds 12 1008 91 0 1.79 276 01:41 14.07.2020
848 Clouds 12 1008 92 0 1.79 291 01:22 14.07.2020
849 Clouds 12 1017 81 10000 3.6 240 00:42 14.07.2020
850 Clouds 12 1017 81 10000 3.6 220 00:22 14.07.2020
851 Clouds 13 1017 76 10000 3.6 250 23:39 13.07.2020
852 Clouds 13 1017 76 10000 5.1 270 23:19 13.07.2020
853 Clouds 13 1017 76 10000 3.6 260 22:57 13.07.2020
854 Clouds 13 1017 76 10000 3.6 260 22:39 13.07.2020
855 Clouds 14 1017 71 10000 4.1 260 22:19 13.07.2020
856 Clouds 14 1017 71 10000 5.7 270 21:54 13.07.2020
857 Clouds 14 1017 71 10000 5.7 270 21:36 13.07.2020
858 Clouds 14 1017 71 10000 4.6 270 21:18 13.07.2020
859 Clouds 14 1017 71 10000 4.6 270 21:18 13.07.2020
860 Clouds 15 1016 77 10000 5.1 270 20:42 13.07.2020
861 Clouds 15 1016 72 10000 6.7 270 20:23 13.07.2020
862 Clouds 15 1016 67 10000 7.2 260 19:59 13.07.2020
863 Clouds 16 1016 67 10000 7.2 260 19:41 13.07.2020
864 Clouds 16 1016 72 10000 6.7 250 19:22 13.07.2020
865 Clouds 16 1016 72 10000 7.7 250 18:56 13.07.2020
866 Clouds 16 1016 72 10000 7.7 250 18:38 13.07.2020
867 Clouds 16 1016 72 10000 7.7 250 18:38 13.07.2020
868 Clouds 17 1016 67 10000 6.7 250 18:19 13.07.2020
869 Clouds 16 1017 72 10000 6.2 250 17:43 13.07.2020
870 Clouds 16 1017 72 10000 8.2 260 17:22 13.07.2020
871 Rain 16 1017 87 2900 7.2 260 16:59 13.07.2020
872 Clouds 17 1016 72 10000 8.2 270 16:41 13.07.2020
873 Clouds 17 1016 72 10000 8.2 270 16:20 13.07.2020
874 Clouds 18 1016 72 10000 7.7 260 15:58 13.07.2020
875 Clouds 18 1016 72 10000 7.7 260 15:38 13.07.2020
876 Clouds 18 1016 72 10000 8.2 270 15:20 13.07.2020
877 Clouds 18 1016 72 10000 8.2 270 15:20 13.07.2020
878 Clouds 18 1016 72 10000 7.7 270 14:57 13.07.2020
879 Clouds 18 1016 72 10000 7.7 270 14:57 13.07.2020
880 Clouds 17 1016 72 10000 7.7 270 14:39 13.07.2020
881 Clouds 18 1017 72 10000 8.2 240 14:20 13.07.2020
882 Clouds 17 1017 82 10000 7.2 250 13:43 13.07.2020
883 Clouds 16 1017 82 10000 7.2 240 13:22 13.07.2020
884 Clouds 16 1017 82 10000 5.7 250 12:57 13.07.2020
885 Clouds 16 1017 82 10000 5.7 250 12:39 13.07.2020
886 Rain 15 1017 87 6000 5.1 250 12:21 13.07.2020
887 Drizzle 15 1017 93 3500 6.2 260 11:46 13.07.2020
888 Drizzle 15 1017 93 5000 3.1 250 11:27 13.07.2020
889 Rain 16 1017 93 10000 4.1 250 10:59 13.07.2020
890 Rain 16 1017 93 10000 4.1 250 10:37 13.07.2020
891 Clouds 16 1017 87 10000 5.1 230 10:19 13.07.2020
892 Clouds 15 1017 93 10000 6.7 230 09:41 13.07.2020
893 Clouds 16 1017 87 10000 6.2 230 09:23 13.07.2020
894 Clouds 16 1017 87 10000 6.7 220 08:51 13.07.2020
895 Clouds 16 1017 87 10000 6.7 220 08:32 13.07.2020
896 Clouds 15 1018 93 10000 5.7 220 07:34 13.07.2020
897 Clouds 15 1018 93 10000 7.2 220 06:55 13.07.2020
898 Clouds 15 1018 93 10000 6.2 220 06:37 13.07.2020
899 Clouds 15 1018 93 10000 6.2 220 06:19 13.07.2020
900 Rain 15 1019 87 10000 6.7 220 04:34 13.07.2020
901 Rain 14 1020 93 3600 4.6 210 01:52 13.07.2020
902 Rain 15 1021 93 10000 3.6 200 01:26 13.07.2020
903 Rain 15 1021 82 10000 5.7 200 00:55 13.07.2020
904 Rain 15 1021 77 10000 6.2 200 00:25 13.07.2020
905 Rain 16 1021 72 10000 5.1 190 23:57 12.07.2020
906 Rain 16 1021 72 10000 5.1 190 23:39 12.07.2020
907 Rain 16 1022 72 10000 5.1 180 23:20 12.07.2020
908 Clouds 16 1022 72 10000 4.6 190 22:38 12.07.2020
909 Clouds 16 1022 72 10000 3.6 190 22:20 12.07.2020
910 Clouds 16 1022 67 10000 5.7 200 21:57 12.07.2020
911 Clouds 16 1022 67 10000 5.7 200 21:39 12.07.2020
912 Clouds 16 1022 67 10000 5.7 200 21:39 12.07.2020
913 Clouds 16 1022 67 10000 5.7 200 21:39 12.07.2020
914 Clouds 16 1022 67 10000 6.2 200 21:20 12.07.2020
915 Clouds 17 1023 63 10000 5.7 210 20:58 12.07.2020
916 Clouds 17 1023 63 10000 5.7 210 20:39 12.07.2020
917 Clouds 17 1023 63 10000 6.7 200 20:19 12.07.2020
918 Clouds 17 1023 59 10000 7.2 220 19:54 12.07.2020
919 Clouds 17 1023 59 10000 7.2 220 19:36 12.07.2020
920 Clouds 19 1023 52 10000 7.7 210 19:18 12.07.2020
921 Clouds 19 1023 52 10000 7.7 220 18:40 12.07.2020
922 Clouds 19 1023 55 10000 6.2 220 18:19 12.07.2020
923 Clouds 20 1024 52 10000 7.7 210 17:41 12.07.2020
924 Clouds 20 1024 52 10000 7.2 210 17:22 12.07.2020
925 Clouds 19 1024 55 10000 6.7 220 16:58 12.07.2020
926 Clouds 19 1024 55 10000 6.7 220 16:40 12.07.2020
927 Clouds 19 1025 55 10000 7.2 220 16:18 12.07.2020
928 Clouds 19 1025 55 10000 8.2 220 15:43 12.07.2020
929 Clouds 19 1025 59 10000 6.7 200 15:23 12.07.2020
930 Clouds 18 1025 63 10000 5.7 210 14:43 12.07.2020
931 Clouds 18 1025 59 10000 7.2 210 14:25 12.07.2020
932 Clouds 17 1025 63 10000 4.6 210 13:41 12.07.2020
933 Clouds 17 1025 67 10000 5.7 220 13:22 12.07.2020
934 Clouds 17 1025 59 10000 5.1 220 12:59 12.07.2020
935 Clouds 18 1025 59 10000 5.1 220 12:41 12.07.2020
936 Clouds 17 1026 67 10000 4.1 230 12:19 12.07.2020
937 Clouds 16 1026 67 10000 4.1 220 11:57 12.07.2020
938 Clouds 16 1026 67 10000 4.1 220 11:39 12.07.2020
939 Clouds 13 1026 72 10000 2.6 270 11:18 12.07.2020
940 Rain 13 1026 76 10000 1.5 0 10:41 12.07.2020
941 Rain 13 1026 76 10000 1.5 0 10:19 12.07.2020
942 Clouds 13 1026 71 10000 1 0 09:43 12.07.2020
943 Clouds 12 1026 81 10000 0.5 0 09:22 12.07.2020
944 Clouds 11 1026 87 10000 1 0 08:57 12.07.2020
945 Clouds 11 1026 87 10000 1 0 08:38 12.07.2020
946 Clouds 10 1026 87 10000 1 0 08:19 12.07.2020
947 Clouds 9 1026 93 10000 1 0 07:47 12.07.2020
948 Clouds 8 1026 93 10000 1 270 07:28 12.07.2020
949 Clouds 9 1026 87 10000 1 320 06:53 12.07.2020
950 Clouds 9 1026 87 10000 1 320 06:53 12.07.2020
951 Clouds 8 1026 87 10000 2.1 240 06:22 12.07.2020
952 Clouds 9 1026 87 10000 3.1 250 05:59 12.07.2020
953 Clouds 9 1026 87 10000 2.6 250 04:58 12.07.2020
954 Clouds 9 1027 87 10000 2.6 230 04:29 12.07.2020
955 Clouds 10 1027 81 10000 2.6 250 03:45 12.07.2020
956 Clouds 10 1027 93 10000 3.1 230 03:24 12.07.2020
957 Clouds 10 1027 93 10000 3.1 230 03:24 12.07.2020
958 Clouds 10 1027 81 10000 2.6 230 01:54 12.07.2020
959 Clouds 11 1027 76 10000 2.6 230 01:18 12.07.2020
960 Clouds 11 1027 81 10000 3.1 230 00:39 12.07.2020
961 Clouds 12 1027 76 10000 3.6 230 00:20 12.07.2020
962 Clouds 12 1027 76 10000 2.6 240 23:40 11.07.2020
963 Clouds 12 1027 76 10000 2.6 230 23:20 11.07.2020
964 Clouds 12 1027 76 10000 2.6 250 22:57 11.07.2020
965 Clouds 12 1027 76 10000 2.6 250 22:37 11.07.2020
966 Clouds 13 1027 71 10000 4.1 260 22:19 11.07.2020
967 Clouds 14 1027 67 10000 5.1 270 21:43 11.07.2020
968 Clouds 14 1027 71 10000 4.1 270 21:24 11.07.2020
969 Clouds 15 1027 71 10000 5.1 300 20:59 11.07.2020
970 Clouds 15 1027 71 10000 5.1 300 20:40 11.07.2020
971 Clouds 15 1026 67 10000 4.6 260 20:21 11.07.2020
972 Clouds 15 1026 67 10000 4.6 260 20:21 11.07.2020
973 Clouds 16 1026 59 10000 5.7 280 19:58 11.07.2020
974 Clouds 16 1026 59 10000 5.7 280 19:40 11.07.2020
975 Clouds 15 1026 62 10000 6.2 280 19:22 11.07.2020
976 Clouds 16 1026 67 10000 6.2 280 18:56 11.07.2020
977 Clouds 16 1026 67 10000 6.2 260 18:38 11.07.2020
978 Clouds 16 1026 67 10000 6.2 260 18:19 11.07.2020
979 Clouds 16 1026 63 10000 5.1 270 17:49 11.07.2020
980 Clouds 16 1026 59 10000 7.2 250 17:22 11.07.2020
981 Clouds 16 1026 59 10000 6.2 280 16:59 11.07.2020
982 Clouds 16 1026 59 10000 6.2 280 16:40 11.07.2020
983 Clouds 16 1026 59 10000 7.7 270 16:21 11.07.2020
984 Clouds 16 1026 67 10000 7.7 250 15:57 11.07.2020
985 Clouds 16 1026 67 10000 7.7 250 15:38 11.07.2020
986 Clouds 16 1026 67 10000 6.7 250 15:20 11.07.2020
987 Clouds 16 1025 67 10000 7.7 250 14:55 11.07.2020
988 Clouds 16 1025 63 10000 5.7 260 14:36 11.07.2020
989 Clouds 16 1025 63 10000 5.7 260 14:18 11.07.2020
990 Clouds 16 1025 67 10000 4.6 270 13:41 11.07.2020
991 Clouds 15 1025 71 10000 4.6 270 13:21 11.07.2020
992 Clouds 15 1025 62 10000 5.1 260 12:45 11.07.2020
993 Clouds 15 1025 71 10000 5.7 250 12:24 11.07.2020
994 Clouds 15 1025 71 10000 5.7 260 11:59 11.07.2020
995 Clouds 15 1025 71 10000 5.7 260 11:41 11.07.2020
996 Clouds 15 1025 71 10000 5.1 250 11:20 11.07.2020
997 Clouds 14 1024 76 10000 5.1 260 10:55 11.07.2020
998 Clouds 14 1024 71 10000 4.6 280 10:36 11.07.2020
999 Clouds 14 1024 71 10000 4.6 280 10:18 11.07.2020
1000 Clouds 14 1024 71 10000 3.6 270 09:39 11.07.2020
1001 Clouds 12 1024 76 10000 4.6 250 09:19 11.07.2020
1002 Clouds 12 1024 81 10000 4.6 250 08:46 11.07.2020
1003 Clouds 11 1023 81 10000 4.6 240 08:27 11.07.2020
1004 Clouds 11 1023 87 10000 1.5 260 07:55 11.07.2020
1005 Clouds 11 1023 93 10000 2.6 280 07:36 11.07.2020
1006 Clouds 10 1023 93 10000 2.6 280 07:18 11.07.2020
1007 Clouds 10 1023 87 10000 3.1 260 06:26 11.07.2020
1008 Clouds 9 1023 87 10000 2.6 230 05:54 11.07.2020
1009 Clouds 11 1023 81 10000 4.1 260 05:19 11.07.2020
1010 Clouds 10 1023 81 10000 4.1 220 04:44 11.07.2020
1011 Clouds 10 1023 87 10000 3.6 240 04:19 11.07.2020
1012 Clear 10 1022 87 10000 4.6 250 02:53 11.07.2020
1013 Clear 10 1022 87 10000 3.6 240 01:57 11.07.2020
1014 Clouds 11 1022 81 10000 3.6 250 01:22 11.07.2020
1015 Clouds 11 1022 76 10000 5.1 260 00:55 11.07.2020
1016 Clouds 11 1022 76 10000 5.1 260 00:36 11.07.2020
1017 Clear 11 1022 81 10000 4.1 260 00:18 11.07.2020
1018 Clouds 12 1021 76 10000 4.6 270 23:44 10.07.2020
1019 Clouds 13 1021 71 10000 5.1 280 23:26 10.07.2020
1020 Clouds 12 1021 76 10000 5.1 260 22:55 10.07.2020
1021 Clouds 12 1021 76 10000 5.1 260 22:36 10.07.2020
1022 Clouds 13 1020 71 10000 5.1 250 22:18 10.07.2020
1023 Clouds 14 1020 67 10000 5.1 270 21:38 10.07.2020
1024 Clear 15 1020 67 10000 5.1 270 21:20 10.07.2020
1025 Clouds 16 1020 62 10000 5.7 260 20:54 10.07.2020
1026 Clouds 16 1020 62 10000 5.7 260 20:54 10.07.2020
1027 Clouds 16 1019 58 10000 7.7 290 20:36 10.07.2020
1028 Clouds 16 1019 58 10000 7.7 290 20:36 10.07.2020
1029 Clouds 16 1019 58 10000 7.7 290 20:18 10.07.2020
1030 Clouds 15 1019 67 10000 5.7 270 19:42 10.07.2020
1031 Clouds 15 1019 62 10000 7.2 290 19:22 10.07.2020
1032 Clouds 15 1019 62 10000 6.2 280 18:55 10.07.2020
1033 Clouds 15 1019 67 10000 7.2 310 18:37 10.07.2020
1034 Clouds 15 1019 67 10000 7.2 310 18:18 10.07.2020
1035 Clouds 16 1018 63 10000 5.1 260 17:42 10.07.2020
1036 Clouds 15 1018 67 10000 5.1 280 17:23 10.07.2020
1037 Clouds 15 1018 62 10000 7.7 290 16:57 10.07.2020
1038 Clouds 15 1018 62 10000 7.7 290 16:39 10.07.2020
1039 Clouds 15 1018 59 10000 6.7 290 16:18 10.07.2020
1040 Clouds 16 1018 59 10000 6.7 290 15:43 10.07.2020
1041 Clouds 16 1018 63 10000 5.7 290 15:21 10.07.2020
1042 Rain 14 1018 71 10000 7.7 290 14:44 10.07.2020
1043 Clouds 16 1018 63 10000 4.1 280 14:24 10.07.2020
1044 Clouds 14 1018 67 10000 6.2 300 13:59 10.07.2020
1045 Clouds 15 1018 62 10000 3.1 280 13:40 10.07.2020
1046 Clouds 15 1018 62 10000 3.1 280 13:22 10.07.2020
1047 Clouds 14 1018 62 10000 5.1 290 13:00 10.07.2020
1048 Clouds 14 1018 62 10000 5.1 290 12:41 10.07.2020
1049 Clouds 14 1017 58 10000 5.7 290 12:22 10.07.2020
1050 Clouds 13 1017 62 10000 4.6 290 11:57 10.07.2020
1051 Clouds 14 1017 58 10000 4.6 290 11:38 10.07.2020
1052 Clouds 14 1017 62 10000 5.1 300 11:18 10.07.2020
1053 Clouds 13 1017 71 10000 6.2 290 10:41 10.07.2020
1054 Clouds 12 1017 71 10000 6.2 290 10:21 10.07.2020
1055 Clouds 12 1017 71 10000 6.2 290 09:55 10.07.2020
1056 Clouds 12 1017 71 10000 6.2 290 09:36 10.07.2020
1057 Clouds 12 1016 71 10000 4.6 290 09:18 10.07.2020
1058 Rain 12 1016 76 10000 4.6 300 08:46 10.07.2020
1059 Rain 11 1016 81 10000 4.1 300 08:28 10.07.2020
1060 Rain 11 1016 81 10000 5.1 300 07:59 10.07.2020
1061 Clouds 11 1016 81 10000 5.1 300 07:41 10.07.2020
1062 Clouds 11 1015 81 10000 3.1 290 07:20 10.07.2020
1063 Rain 11 1015 81 10000 4.6 300 06:45 10.07.2020
1064 Rain 11 1015 87 10000 3.6 300 05:53 10.07.2020
1065 Rain 11 1014 81 10000 2.6 310 04:31 10.07.2020
1066 Clouds 11 1014 87 10000 2.1 250 03:22 10.07.2020
1067 Clouds 11 1014 81 10000 2.6 250 02:41 10.07.2020
1068 Clouds 11 1014 81 10000 2.6 260 01:33 10.07.2020
1069 Clouds 11 1014 81 10000 3.6 230 00:40 10.07.2020
1070 Clouds 11 1014 81 10000 3.6 230 00:18 10.07.2020
1071 Clouds 10 1014 87 10000 2.6 230 23:39 09.07.2020
1072 Clouds 13 1014 76 10000 2.1 270 23:19 09.07.2020
1073 Clouds 13 1014 71 10000 4.6 270 22:57 09.07.2020
1074 Clouds 13 1014 71 10000 4.6 270 22:39 09.07.2020
1075 Clouds 14 1014 67 10000 4.6 290 22:20 09.07.2020
1076 Clouds 15 1014 58 10000 4.1 300 21:55 09.07.2020
1077 Clouds 15 1014 58 10000 4.1 300 21:36 09.07.2020
1078 Clouds 16 1013 62 10000 4.6 300 21:18 09.07.2020
1079 Clouds 16 1013 67 10000 4.1 260 20:41 09.07.2020
1080 Rain 16 1013 59 10000 4.6 280 20:23 09.07.2020
1081 Rain 16 1013 63 10000 5.1 290 19:55 09.07.2020
1082 Rain 16 1013 63 10000 5.1 290 19:37 09.07.2020
1083 Rain 17 1013 63 10000 4.6 270 19:18 09.07.2020
1084 Rain 17 1013 67 10000 4.6 260 18:41 09.07.2020
1085 Rain 16 1013 67 10000 1.5 0 18:19 09.07.2020
1086 Rain 15 1014 72 10000 3.1 0 17:43 09.07.2020
1087 Rain 17 1013 63 10000 3.1 260 17:25 09.07.2020
1088 Rain 17 1013 67 10000 3.6 250 16:59 09.07.2020
1089 Rain 17 1013 67 10000 3.6 250 16:41 09.07.2020
1090 Rain 17 1013 63 10000 4.1 250 16:19 09.07.2020
1091 Clouds 16 1013 63 10000 3.6 280 15:59 09.07.2020
1092 Clouds 16 1013 63 10000 3.6 280 15:40 09.07.2020
1093 Rain 18 1014 59 10000 3.1 240 15:21 09.07.2020
1094 Rain 18 1014 59 10000 1.5 0 14:58 09.07.2020
1095 Rain 18 1014 59 10000 1.5 0 14:40 09.07.2020
1096 Rain 18 1014 59 10000 2.1 240 14:22 09.07.2020
1097 Clouds 17 1014 67 10000 1.5 0 13:57 09.07.2020
1098 Clouds 17 1014 67 10000 1.5 0 13:38 09.07.2020
1099 Clouds 17 1014 63 10000 1 0 13:19 09.07.2020
1100 Clouds 16 1014 63 10000 1 0 12:42 09.07.2020
1101 Clouds 15 1014 67 10000 1.5 0 12:24 09.07.2020
1102 Clouds 14 1014 72 10000 1 0 11:59 09.07.2020
1103 Clouds 14 1014 72 10000 1 0 11:41 09.07.2020
1104 Clouds 14 1014 82 10000 2.6 300 11:21 09.07.2020
1105 Clouds 14 1014 77 10000 1.5 0 10:56 09.07.2020
1106 Clouds 14 1014 77 10000 1.5 0 10:38 09.07.2020
1107 Clouds 13 1014 76 10000 2.6 60 10:19 09.07.2020
1108 Clouds 13 1014 82 10000 2.6 50 09:43 09.07.2020
1109 Clouds 13 1014 76 10000 2.6 80 09:23 09.07.2020
1110 Clouds 13 1014 82 10000 3.1 70 08:52 09.07.2020
1111 Clouds 12 1013 82 10000 3.6 70 08:27 09.07.2020
1112 Clouds 12 1013 93 10000 1.5 80 07:56 09.07.2020
1113 Clouds 12 1013 93 10000 1.5 80 07:38 09.07.2020
1114 Clouds 12 1013 93 10000 1 80 07:20 09.07.2020
1115 Rain 11 1013 93 6000 2.1 80 06:21 09.07.2020
1116 Rain 12 1013 93 10000 2.6 40 05:53 09.07.2020
1117 Rain 12 1013 93 10000 3.1 70 04:29 09.07.2020
1118 Rain 12 1013 93 10000 2.6 50 03:19 09.07.2020
1119 Rain 12 1014 93 10000 2.6 40 01:56 09.07.2020
1120 Rain 12 1014 93 10000 0.5 0 00:59 09.07.2020
1121 Rain 12 1014 93 10000 0.5 0 00:40 09.07.2020
1122 Clouds 12 1014 93 10000 1.5 30 00:21 09.07.2020
1123 Rain 12 1014 93 10000 1.5 50 23:43 08.07.2020
1124 Rain 12 1014 93 10000 2.6 60 23:25 08.07.2020
1125 Rain 13 1014 87 10000 2.6 80 22:55 08.07.2020
1126 Rain 13 1014 87 10000 2.6 80 22:36 08.07.2020
1127 Rain 13 1014 87 10000 2.6 70 22:18 08.07.2020
1128 Rain 13 1014 87 10000 2.6 60 21:55 08.07.2020
1129 Rain 13 1014 87 10000 3.1 60 21:36 08.07.2020
1130 Rain 13 1014 87 10000 3.1 60 21:18 08.07.2020
1131 Rain 13 1014 87 10000 3.6 70 20:41 08.07.2020
1132 Rain 13 1014 87 10000 4.6 70 20:23 08.07.2020
1133 Rain 14 1014 82 10000 4.6 70 19:54 08.07.2020
1134 Rain 14 1014 82 10000 4.6 70 19:36 08.07.2020
1135 Rain 14 1014 82 10000 5.1 60 19:18 08.07.2020
1136 Rain 15 1015 77 10000 5.7 80 18:40 08.07.2020
1137 Rain 15 1015 72 10000 5.7 80 18:21 08.07.2020
1138 Rain 15 1015 67 10000 5.1 90 17:57 08.07.2020
1139 Rain 15 1015 67 10000 5.1 90 17:38 08.07.2020
1140 Rain 15 1015 67 10000 5.1 90 17:38 08.07.2020
1141 Clouds 16 1015 63 10000 4.6 90 17:20 08.07.2020
1142 Clouds 16 1015 63 10000 4.6 90 17:20 08.07.2020
1143 Clouds 16 1015 63 10000 4.6 90 17:20 08.07.2020
1144 Clouds 16 1015 59 10000 3.1 50 16:56 08.07.2020
1145 Clouds 17 1015 63 10000 3.6 60 16:37 08.07.2020
1146 Clouds 17 1015 63 10000 3.6 60 16:18 08.07.2020
1147 Clouds 17 1015 59 10000 3.1 70 15:56 08.07.2020
1148 Clouds 17 1015 59 10000 3.1 70 15:37 08.07.2020
1149 Clouds 17 1015 59 10000 3.1 70 15:18 08.07.2020
1150 Clouds 17 1015 63 10000 3.1 100 14:42 08.07.2020
1151 Clouds 17 1015 63 10000 3.1 110 14:20 08.07.2020
1152 Clouds 16 1016 63 10000 2.6 90 13:46 08.07.2020
1153 Clouds 16 1016 67 10000 3.1 100 13:27 08.07.2020
1154 Clouds 15 1016 72 10000 2.6 90 12:58 08.07.2020
1155 Clouds 15 1016 72 10000 2.6 90 12:40 08.07.2020
1156 Clouds 14 1016 71 10000 2.1 80 12:19 08.07.2020
1157 Clouds 14 1016 76 10000 2.6 50 11:39 08.07.2020
1158 Clouds 14 1016 76 10000 2.6 70 11:20 08.07.2020
1159 Clouds 13 1016 82 10000 2.6 70 10:56 08.07.2020
1160 Clouds 13 1016 82 10000 2.6 70 10:56 08.07.2020
1161 Clouds 13 1016 82 10000 2.6 70 10:38 08.07.2020
1162 Clouds 13 1016 82 10000 2.6 80 10:19 08.07.2020
1163 Clouds 13 1016 82 10000 3.6 50 09:43 08.07.2020
1164 Clouds 12 1016 81 10000 4.1 60 09:23 08.07.2020
1165 Clouds 12 1016 81 10000 4.6 60 08:43 08.07.2020
1166 Clouds 11 1016 87 10000 4.1 70 08:24 08.07.2020
1167 Clouds 11 1016 87 10000 4.1 60 07:48 08.07.2020
1168 Clouds 11 1015 87 10000 3.6 70 07:24 08.07.2020
1169 Clouds 11 1015 87 10000 3.1 60 06:55 08.07.2020
1170 Clouds 11 1015 87 10000 3.1 60 06:36 08.07.2020
1171 Clouds 11 1015 87 10000 2.1 60 05:55 08.07.2020
1172 Clouds 11 1015 87 10000 2.6 70 05:24 08.07.2020
1173 Clouds 10 1015 93 10000 2.1 60 04:36 08.07.2020
1174 Clouds 10 1015 87 10000 2.6 80 02:42 08.07.2020
1175 Clouds 11 1015 87 10000 3.6 70 01:46 08.07.2020
1176 Clouds 10 1015 93 10000 1.5 360 01:23 08.07.2020
1177 Clouds 11 1015 87 10000 2.6 220 00:26 08.07.2020
1178 Clouds 11 1015 87 10000 2.1 230 23:56 07.07.2020
1179 Clouds 12 1015 87 10000 2.1 230 23:37 07.07.2020
1180 Clouds 12 1014 81 10000 1.5 260 23:19 07.07.2020
1181 Clouds 13 1014 76 10000 2.6 270 22:43 07.07.2020
1182 Clouds 14 1014 82 10000 2.1 240 22:22 07.07.2020
1183 Clouds 14 1014 76 10000 3.6 230 21:59 07.07.2020
1184 Clouds 14 1014 76 10000 3.6 230 21:39 07.07.2020
1185 Clouds 15 1014 77 10000 3.6 230 21:21 07.07.2020
1186 Clouds 15 1014 72 10000 4.6 230 20:57 07.07.2020
1187 Clouds 15 1014 72 10000 4.6 230 20:38 07.07.2020
1188 Clouds 15 1014 77 10000 2.6 250 20:19 07.07.2020
1189 Clouds 15 1014 72 10000 2.6 200 19:40 07.07.2020
1190 Clouds 15 1015 72 10000 3.1 210 19:21 07.07.2020
1191 Clouds 14 1015 82 10000 4.6 200 18:56 07.07.2020
1192 Clouds 14 1015 82 10000 4.6 200 18:38 07.07.2020
1193 Rain 15 1015 72 10000 3.6 230 18:19 07.07.2020
1194 Rain 15 1015 62 10000 2.6 280 17:57 07.07.2020
1195 Rain 15 1015 62 10000 2.6 280 17:38 07.07.2020
1196 Rain 15 1015 67 10000 2.1 300 17:20 07.07.2020
1197 Rain 15 1015 72 10000 1.5 0 16:43 07.07.2020
1198 Rain 14 1016 82 10000 1.5 0 16:23 07.07.2020
1199 Rain 14 1016 82 10000 1.5 0 16:23 07.07.2020
1200 Rain 15 1016 72 10000 1.5 0 15:56 07.07.2020
1201 Rain 15 1016 72 10000 1.5 0 15:37 07.07.2020
1202 Rain 14 1016 76 10000 2.6 230 15:19 07.07.2020
1203 Rain 14 1016 82 10000 3.1 240 14:45 07.07.2020
1204 Rain 14 1016 82 10000 3.6 290 14:24 07.07.2020
1205 Rain 14 1016 71 10000 2.6 310 13:46 07.07.2020
1206 Rain 12 1016 81 10000 2.6 300 13:21 07.07.2020
1207 Rain 13 1016 82 10000 3.6 240 12:57 07.07.2020
1208 Rain 13 1016 82 10000 3.6 240 12:38 07.07.2020
1209 Clouds 13 1017 82 10000 3.6 230 12:20 07.07.2020
1210 Rain 12 1017 87 10000 4.1 220 11:44 07.07.2020
1211 Clouds 12 1017 87 10000 4.1 230 11:22 07.07.2020
1212 Rain 12 1019 97 0 0.45 264 10:58 07.07.2020
1213 Rain 12 1019 97 0 0.45 264 10:58 07.07.2020
1214 Rain 12 1019 98 0 0.89 244 10:40 07.07.2020
1215 Rain 12 1017 87 10000 3.6 240 10:21 07.07.2020
1216 Rain 11 1017 93 10000 2.6 240 09:43 07.07.2020
1217 Rain 11 1017 93 10000 1.5 240 09:22 07.07.2020
1218 Rain 11 1017 93 10000 1.5 240 08:57 07.07.2020
1219 Rain 11 1017 93 10000 1.5 240 08:39 07.07.2020
1220 Rain 11 1017 87 10000 2.6 240 08:19 07.07.2020
1221 Rain 11 1017 87 10000 0.5 0 07:38 07.07.2020
1222 Rain 11 1017 87 10000 0.5 0 07:19 07.07.2020
1223 Clouds 11 1018 87 10000 3.1 230 06:45 07.07.2020
1224 Clouds 11 1018 87 10000 2.1 240 06:26 07.07.2020
1225 Clouds 11 1018 93 10000 1.5 230 05:43 07.07.2020
1226 Rain 11 1018 93 10000 1.5 0 04:52 07.07.2020
1227 Clouds 11 1019 81 10000 5.1 240 03:49 07.07.2020
1228 Clouds 11 1019 81 10000 5.1 240 03:30 07.07.2020
1229 Clouds 11 1019 81 10000 4.6 250 01:55 07.07.2020
1230 Clouds 11 1019 81 10000 4.1 240 01:18 07.07.2020
1231 Clouds 11 1019 81 10000 3.6 250 00:41 07.07.2020
1232 Clouds 11 1019 81 10000 4.1 240 00:21 07.07.2020
1233 Clouds 11 1019 81 10000 3.6 260 23:44 06.07.2020
1234 Clouds 12 1020 76 10000 3.6 260 23:25 06.07.2020
1235 Clouds 12 1020 71 10000 3.1 250 22:57 06.07.2020
1236 Clouds 12 1020 71 10000 3.1 250 22:57 06.07.2020
1237 Clouds 12 1020 71 10000 3.1 250 22:39 06.07.2020
1238 Clouds 13 1020 66 10000 3.6 260 22:18 06.07.2020
1239 Clouds 13 1020 66 10000 3.6 260 22:18 06.07.2020
1240 Clouds 13 1020 62 10000 5.1 270 21:56 06.07.2020
1241 Clouds 13 1020 62 10000 5.1 270 21:36 06.07.2020
1242 Clouds 13 1020 58 10000 5.7 260 21:18 06.07.2020
1243 Clouds 14 1020 62 10000 4.6 270 20:40 06.07.2020
1244 Clouds 14 1020 58 10000 6.2 260 20:21 06.07.2020
1245 Clouds 14 1020 62 10000 5.7 270 19:59 06.07.2020
1246 Clouds 14 1020 58 10000 5.7 280 19:40 06.07.2020
1247 Clouds 14 1020 58 10000 5.7 280 19:22 06.07.2020
1248 Clouds 15 1020 62 10000 5.1 270 18:58 06.07.2020
1249 Clouds 14 1020 62 10000 5.7 270 18:39 06.07.2020
1250 Clouds 14 1020 62 10000 5.7 270 18:21 06.07.2020
1251 Clouds 15 1019 51 10000 7.7 260 17:54 06.07.2020
1252 Clouds 15 1019 51 10000 7.7 260 17:36 06.07.2020
1253 Clouds 16 1019 51 10000 7.7 260 17:18 06.07.2020
1254 Clouds 15 1019 58 10000 7.2 270 16:42 06.07.2020
1255 Clouds 15 1019 58 10000 6.7 290 16:22 06.07.2020
1256 Clouds 16 1019 59 10000 5.7 280 15:44 06.07.2020
1257 Clouds 16 1018 55 10000 8.7 290 15:26 06.07.2020
1258 Clouds 16 1018 55 10000 6.7 290 14:57 06.07.2020
1259 Clouds 16 1018 55 10000 6.7 290 14:57 06.07.2020
1260 Clouds 16 1018 55 10000 6.7 290 14:38 06.07.2020
1261 Clouds 15 1018 58 10000 7.2 290 14:20 06.07.2020
1262 Clouds 16 1017 55 10000 8.7 300 13:57 06.07.2020
1263 Clouds 16 1017 55 10000 8.7 300 13:38 06.07.2020
1264 Clear 15 1017 54 10000 8.7 290 13:19 06.07.2020
1265 Clouds 15 1017 58 10000 6.7 290 12:43 06.07.2020
1266 Clear 15 1016 62 10000 7.7 290 12:19 06.07.2020
1267 Clouds 14 1016 67 10000 7.2 290 11:58 06.07.2020
1268 Clouds 14 1016 67 10000 7.2 290 11:39 06.07.2020
1269 Clouds 15 1015 62 10000 6.7 310 11:20 06.07.2020
1270 Clear 15 1015 67 10000 7.2 290 10:56 06.07.2020
1271 Clear 14 1015 67 10000 7.2 290 10:38 06.07.2020
1272 Clear 14 1014 67 10000 7.7 290 10:18 06.07.2020
1273 Clear 13 1014 71 10000 8.7 300 09:42 06.07.2020
1274 Clear 13 1013 71 10000 8.2 300 09:21 06.07.2020
1275 Clear 13 1012 71 10000 8.2 300 08:56 06.07.2020
1276 Clouds 12 1012 76 10000 7.2 290 08:38 06.07.2020
1277 Clouds 12 1012 76 10000 7.2 290 08:19 06.07.2020
1278 Clouds 11 1011 81 10000 4.1 270 07:43 06.07.2020
1279 Clouds 11 1011 87 10000 4.1 230 07:23 06.07.2020
1280 Clouds 11 1009 81 10000 4.6 290 06:40 06.07.2020
1281 Clouds 11 1009 81 10000 4.6 290 06:21 06.07.2020
1282 Clouds 11 1008 87 10000 4.1 290 05:41 06.07.2020
1283 Rain 11 1007 87 10000 4.6 250 04:55 06.07.2020
1284 Clouds 11 1007 87 10000 5.1 240 03:42 06.07.2020
1285 Rain 11 1006 81 10000 4.6 240 02:23 06.07.2020
1286 Clouds 11 1006 81 10000 4.1 250 01:34 06.07.2020
1287 Rain 11 1005 81 10000 5.7 270 00:38 06.07.2020
1288 Rain 11 1005 81 10000 5.7 270 00:19 06.07.2020
1289 Clouds 11 1004 81 10000 5.1 250 23:42 05.07.2020
1290 Clouds 11 1004 81 10000 5.7 260 23:23 05.07.2020
1291 Clouds 11 1003 76 10000 7.7 270 22:59 05.07.2020
1292 Clouds 12 1005 92 0 1.34 307 22:40 05.07.2020
1293 Clouds 12 1003 76 10000 6.2 270 22:20 05.07.2020
1294 Clouds 12 1002 76 10000 5.7 270 21:57 05.07.2020
1295 Rain 12 1002 76 10000 5.7 270 21:38 05.07.2020
1296 Rain 13 1001 76 10000 5.7 260 21:18 05.07.2020
1297 Rain 12 1001 81 10000 6.7 260 20:57 05.07.2020
1298 Clouds 12 1001 81 10000 6.7 260 20:38 05.07.2020
1299 Rain 13 1000 76 10000 6.7 250 20:20 05.07.2020
1300 Rain 13 1000 82 10000 5.7 250 19:43 05.07.2020
1301 Rain 13 1000 82 10000 5.7 250 19:43 05.07.2020
1302 Rain 12 1000 87 10000 5.1 250 19:21 05.07.2020
1303 Rain 12 1000 81 5000 6.2 250 18:56 05.07.2020
1304 Rain 12 1000 81 5000 6.2 250 18:37 05.07.2020
1305 Rain 12 1000 81 5000 6.2 250 18:37 05.07.2020
1306 Rain 13 999 76 10000 7.2 250 18:19 05.07.2020
1307 Rain 12 1000 81 10000 8.2 260 17:43 05.07.2020
1308 Rain 12 999 71 10000 10.3 240 17:20 05.07.2020
1309 Rain 14 1000 76 10000 9.3 240 16:59 05.07.2020
1310 Rain 13 1000 71 10000 9.3 240 16:40 05.07.2020
1311 Rain 13 1000 71 10000 9.3 240 16:21 05.07.2020
1312 Rain 13 1000 71 10000 10.8 250 15:41 05.07.2020
1313 Rain 13 1000 76 10000 10.3 250 15:20 05.07.2020
1314 Rain 14 999 71 10000 8.7 240 14:57 05.07.2020
1315 Rain 14 999 71 10000 8.7 240 14:38 05.07.2020
1316 Rain 14 1000 76 10000 8.2 230 14:20 05.07.2020
1317 Rain 14 1000 76 10000 8.7 230 13:41 05.07.2020
1318 Rain 12 1000 81 10000 7.2 230 13:23 05.07.2020
1319 Rain 12 1000 87 10000 6.2 250 12:46 05.07.2020
1320 Rain 12 1000 87 10000 6.2 250 12:46 05.07.2020
1321 Rain 12 1000 87 10000 7.2 240 12:21 05.07.2020
1322 Rain 12 1000 81 10000 7.2 230 11:57 05.07.2020
1323 Rain 13 1000 81 10000 7.2 230 11:38 05.07.2020
1324 Rain 13 1000 81 10000 7.2 230 11:38 05.07.2020
1325 Rain 13 1000 82 10000 6.7 230 11:19 05.07.2020
1326 Rain 13 1000 76 10000 8.2 240 10:55 05.07.2020
1327 Rain 13 1000 76 10000 8.2 240 10:37 05.07.2020
1328 Rain 13 999 81 10000 6.2 250 10:18 05.07.2020
1329 Rain 12 999 81 10000 6.2 250 09:41 05.07.2020
1330 Rain 12 998 93 10000 6.7 240 09:20 05.07.2020
1331 Rain 12 998 87 10000 5.1 240 08:57 05.07.2020
1332 Rain 12 998 87 10000 5.1 240 08:38 05.07.2020
1333 Clouds 12 997 81 10000 6.7 250 08:18 05.07.2020
1334 Clouds 12 996 87 10000 7.2 250 07:39 05.07.2020
1335 Clouds 12 995 87 10000 6.7 250 07:21 05.07.2020
1336 Clouds 12 995 93 10000 9.3 240 06:45 05.07.2020
1337 Rain 13 993 87 10000 10.8 240 04:27 05.07.2020
1338 Rain 14 992 100 10000 8.2 230 03:18 05.07.2020
1339 Rain 15 991 93 4300 9.3 230 02:40 05.07.2020
1340 Rain 15 992 93 7000 8.7 220 01:59 05.07.2020
1341 Rain 15 992 93 9000 8.7 230 01:28 05.07.2020
1342 Rain 15 993 93 7000 11.3 210 00:51 05.07.2020
1343 Rain 14 993 100 7000 2.1 190 00:30 05.07.2020
1344 Rain 13 994 100 4200 3.6 100 23:56 04.07.2020
1345 Rain 13 994 100 4200 3.6 100 23:32 04.07.2020
1346 Rain 13 996 93 5000 3.1 90 22:59 04.07.2020
1347 Rain 13 996 93 5000 3.1 90 22:40 04.07.2020
1348 Rain 13 997 93 7000 1.5 120 22:22 04.07.2020
1349 Rain 14 998 82 10000 3.1 170 21:58 04.07.2020
1350 Rain 14 998 82 10000 3.1 170 21:40 04.07.2020
1351 Rain 14 999 76 10000 3.6 170 21:22 04.07.2020
1352 Clouds 14 1000 82 10000 3.1 200 20:42 04.07.2020
1353 Clouds 15 1001 72 10000 3.6 190 20:21 04.07.2020
1354 Clouds 15 1001 77 10000 4.6 210 19:56 04.07.2020
1355 Clouds 15 1001 77 10000 4.6 210 19:38 04.07.2020
1356 Clouds 16 1002 77 10000 4.6 220 19:20 04.07.2020
1357 Clouds 15 1002 77 10000 4.1 230 18:43 04.07.2020
1358 Clouds 15 1003 77 10000 4.6 230 18:23 04.07.2020
1359 Clouds 15 1003 77 10000 3.1 250 17:46 04.07.2020
1360 Clouds 14 1003 82 10000 4.1 230 17:28 04.07.2020
1361 Clouds 15 1003 82 10000 4.1 230 16:59 04.07.2020
1362 Clouds 14 1003 82 10000 4.1 230 16:40 04.07.2020
1363 Clouds 14 1004 82 10000 5.7 220 16:40 04.07.2020
1364 Clouds 14 1004 82 10000 5.7 220 16:21 04.07.2020
1365 Clouds 14 1004 82 10000 5.7 220 15:58 04.07.2020
1366 Clouds 14 1004 82 10000 5.7 220 15:40 04.07.2020
1367 Clouds 14 1004 82 10000 5.7 230 15:21 04.07.2020
1368 Clouds 14 1004 82 10000 5.7 230 14:56 04.07.2020
1369 Clouds 14 1004 82 10000 5.7 230 14:37 04.07.2020
1370 Clouds 14 1003 87 10000 4.6 220 14:18 04.07.2020
1371 Clouds 13 1004 93 10000 4.6 220 13:41 04.07.2020
1372 Rain 12 1004 93 10000 1 0 13:19 04.07.2020
1373 Rain 12 1004 93 10000 1.5 340 12:55 04.07.2020
1374 Rain 12 1004 93 10000 1.5 340 12:37 04.07.2020
1375 Rain 12 1004 87 4700 1 0 12:18 04.07.2020
1376 Rain 12 1004 87 3500 2.1 270 11:42 04.07.2020
1377 Rain 12 1004 81 10000 1 0 11:22 04.07.2020
1378 Clouds 12 1004 76 10000 1.5 0 10:55 04.07.2020
1379 Clouds 12 1004 76 10000 1.5 0 10:36 04.07.2020
1380 Clouds 12 1004 81 10000 1 0 10:18 04.07.2020
1381 Clouds 13 1003 76 10000 0.5 0 09:40 04.07.2020
1382 Clouds 12 1004 81 10000 1 0 09:21 04.07.2020
1383 Clouds 11 1004 87 10000 2.1 240 08:51 04.07.2020
1384 Clouds 11 1004 87 10000 2.1 230 08:32 04.07.2020
1385 Clouds 10 1003 93 10000 1.5 190 07:56 04.07.2020
1386 Clouds 10 1003 93 10000 1.5 190 07:38 04.07.2020
1387 Clouds 9 1004 100 10000 1.5 260 06:57 04.07.2020
1388 Clouds 9 1004 100 10000 1.5 240 06:23 04.07.2020
1389 Clouds 9 1004 93 10000 1.5 270 05:41 04.07.2020
1390 Clouds 9 1003 93 10000 1.5 270 05:19 04.07.2020
1391 Clouds 9 1004 93 10000 0.5 0 03:47 04.07.2020
1392 Clouds 9 1004 100 10000 0.5 0 02:39 04.07.2020
1393 Clouds 8 1004 100 10000 1.5 260 01:38 04.07.2020
1394 Clouds 9 1004 93 10000 1 0 00:47 04.07.2020
1395 Clouds 9 1004 93 10000 1.5 0 00:29 04.07.2020
1396 Clouds 10 1004 87 10000 2.1 230 23:41 03.07.2020
1397 Clouds 11 1004 87 10000 1 220 23:19 03.07.2020
1398 Clouds 11 1004 87 10000 2.1 240 22:59 03.07.2020
1399 Clouds 11 1004 87 10000 2.1 240 22:39 03.07.2020
1400 Clouds 12 1004 87 10000 2.6 240 22:39 03.07.2020
1401 Clouds 12 1004 87 10000 2.6 240 22:21 03.07.2020
1402 Clouds 12 1004 87 10000 3.6 250 21:54 03.07.2020
1403 Clouds 12 1004 87 10000 3.6 250 21:36 03.07.2020
1404 Clouds 12 1004 87 10000 3.1 250 21:18 03.07.2020
1405 Clouds 12 1004 87 10000 2.6 260 20:42 03.07.2020
1406 Clouds 12 1003 87 10000 1.5 0 20:23 03.07.2020
1407 Clouds 12 1003 93 10000 2.1 250 19:42 03.07.2020
1408 Rain 12 1003 87 10000 5.1 270 19:21 03.07.2020
1409 Rain 12 1003 87 10000 5.1 270 19:21 03.07.2020
1410 Rain 12 1003 93 10000 3.1 280 18:57 03.07.2020
1411 Rain 12 1003 93 10000 3.1 280 18:39 03.07.2020
1412 Rain 12 1003 93 10000 2.1 250 18:21 03.07.2020
1413 Rain 13 1003 93 5000 4.6 280 17:44 03.07.2020
1414 Rain 13 1003 93 8000 4.6 290 17:23 03.07.2020
1415 Rain 13 1002 93 10000 5.1 250 16:51 03.07.2020
1416 Rain 14 1002 87 10000 5.1 250 16:31 03.07.2020
1417 Rain 14 1002 93 6000 6.2 230 15:57 03.07.2020
1418 Rain 14 1002 93 6000 6.2 230 15:39 03.07.2020
1419 Rain 14 1002 93 4500 6.2 230 15:20 03.07.2020
1420 Rain 14 1002 93 3700 5.1 220 14:41 03.07.2020
1421 Rain 14 1003 93 10000 5.1 210 14:23 03.07.2020
1422 Rain 14 1003 93 5000 6.2 220 13:59 03.07.2020
1423 Rain 14 1003 93 5000 6.2 220 13:40 03.07.2020
1424 Rain 14 1002 93 7000 7.2 220 13:22 03.07.2020
1425 Rain 14 1002 93 5000 7.7 220 12:41 03.07.2020
1426 Rain 13 1002 93 10000 7.7 220 12:22 03.07.2020
1427 Rain 13 1003 93 3900 9.3 220 11:44 03.07.2020
1428 Rain 13 1003 93 10000 8.2 210 11:25 03.07.2020
1429 Rain 13 1003 93 6000 6.7 210 10:59 03.07.2020
1430 Rain 13 1003 93 6000 6.7 210 10:41 03.07.2020
1431 Rain 13 1003 87 6000 5.7 210 10:21 03.07.2020
1432 Rain 13 1003 87 6000 5.7 210 10:21 03.07.2020
1433 Rain 12 1003 93 7000 3.6 200 09:58 03.07.2020
1434 Rain 12 1003 93 7000 3.6 200 09:39 03.07.2020
1435 Rain 12 1004 93 4800 1 0 09:19 03.07.2020
1436 Rain 11 1004 93 10000 2.1 130 08:56 03.07.2020
1437 Rain 11 1004 93 10000 2.1 130 08:37 03.07.2020
1438 Rain 11 1005 93 10000 2.6 120 08:18 03.07.2020
1439 Rain 11 1005 93 10000 2.6 140 07:43 03.07.2020
1440 Rain 10 1006 93 10000 3.1 110 07:21 03.07.2020
1441 Rain 10 1007 93 10000 2.6 80 06:29 03.07.2020
1442 Rain 10 1007 87 10000 2.1 110 05:34 03.07.2020
1443 Rain 9 1009 93 10000 1 280 03:59 03.07.2020
1444 Rain 10 1010 81 10000 2.1 260 02:52 03.07.2020
1445 Clouds 11 1010 76 10000 2.1 240 02:30 03.07.2020
1446 Clouds 11 1011 76 10000 1.5 240 01:41 03.07.2020
1447 Clouds 11 1011 71 10000 2.1 260 01:20 03.07.2020
1448 Clouds 11 1011 76 10000 2.6 230 00:40 03.07.2020
1449 Clouds 11 1012 66 10000 3.6 230 23:54 02.07.2020
1450 Clouds 12 1012 66 10000 3.6 240 23:22 02.07.2020
1451 Clouds 12 1012 62 10000 2.6 260 22:59 02.07.2020
1452 Clouds 12 1012 62 10000 2.6 260 22:41 02.07.2020
1453 Clouds 13 1012 62 10000 4.1 260 22:21 02.07.2020
1454 Clouds 13 1012 62 10000 5.7 260 22:00 02.07.2020
1455 Clouds 13 1012 62 10000 5.7 260 21:41 02.07.2020
1456 Clouds 14 1011 62 10000 5.1 270 21:19 02.07.2020
1457 Clouds 15 1011 62 10000 5.1 270 20:58 02.07.2020
1458 Clouds 16 1011 63 10000 5.7 270 20:39 02.07.2020
1459 Clouds 16 1011 63 10000 5.7 270 20:19 02.07.2020
1460 Clouds 16 1011 63 10000 5.7 260 19:42 02.07.2020
1461 Clouds 17 1011 55 10000 5.1 240 19:24 02.07.2020
1462 Clouds 17 1011 59 10000 5.7 250 18:58 02.07.2020
1463 Clouds 17 1011 59 10000 5.7 250 18:40 02.07.2020
1464 Clouds 17 1011 55 10000 6.2 230 18:21 02.07.2020
1465 Clouds 16 1011 59 10000 2.1 260 17:57 02.07.2020
1466 Clouds 16 1011 59 10000 2.1 260 17:38 02.07.2020
1467 Clouds 16 1011 59 10000 2.6 260 17:18 02.07.2020
1468 Rain 17 1011 51 10000 2.6 250 16:42 02.07.2020
1469 Rain 16 1011 55 10000 1 0 16:20 02.07.2020
1470 Rain 16 1011 55 10000 1.5 0 15:57 02.07.2020
1471 Rain 16 1011 55 10000 1.5 0 15:38 02.07.2020
1472 Rain 16 1011 55 10000 1.5 0 15:38 02.07.2020
1473 Clouds 17 1011 51 10000 2.6 180 15:19 02.07.2020
1474 Clouds 17 1011 51 10000 1.5 0 14:44 02.07.2020
1475 Clouds 16 1011 51 10000 1.5 0 14:22 02.07.2020
1476 Rain 15 1011 54 10000 1.5 0 13:57 02.07.2020
1477 Rain 15 1011 54 10000 1.5 0 13:38 02.07.2020
1478 Clouds 15 1011 58 10000 1.5 0 13:18 02.07.2020
1479 Clouds 14 1011 67 10000 2.1 80 12:41 02.07.2020
1480 Clouds 13 1011 71 10000 1.5 0 12:22 02.07.2020
1481 Clouds 13 1011 71 10000 1.5 0 11:57 02.07.2020
1482 Clouds 13 1011 71 10000 1.5 0 11:39 02.07.2020
1483 Clouds 13 1011 71 10000 2.6 40 11:21 02.07.2020
1484 Clouds 13 1011 71 10000 2.6 60 10:42 02.07.2020
1485 Clouds 13 1011 71 10000 2.6 60 10:42 02.07.2020
1486 Clouds 13 1010 71 10000 3.1 70 10:24 02.07.2020
1487 Clouds 12 1010 76 10000 2.6 60 09:45 02.07.2020
1488 Clouds 12 1010 76 10000 2.6 50 09:23 02.07.2020
1489 Clouds 12 1010 76 10000 2.6 70 08:59 02.07.2020
1490 Clouds 11 1010 81 10000 1.5 50 08:40 02.07.2020
1491 Clouds 11 1010 81 10000 1.5 50 08:20 02.07.2020
1492 Clouds 11 1009 81 10000 1.5 60 07:42 02.07.2020
1493 Clouds 11 1009 81 10000 1 80 07:22 02.07.2020
1494 Clouds 10 1009 87 10000 1 40 06:50 02.07.2020
1495 Clouds 10 1009 87 10000 2.1 40 06:27 02.07.2020
1496 Clouds 10 1009 87 10000 1.5 60 05:50 02.07.2020
1497 Clouds 10 1009 87 10000 3.1 40 04:58 02.07.2020
1498 Clouds 10 1009 87 10000 2.1 40 03:34 02.07.2020
1499 Clouds 11 1008 76 10000 4.6 80 01:51 02.07.2020
1500 Clouds 11 1008 81 10000 5.7 50 00:45 02.07.2020
1501 Clouds 11 1008 81 10000 5.1 50 00:19 02.07.2020
1502 Clouds 11 1008 81 10000 5.7 50 23:43 01.07.2020
1503 Clouds 11 1007 81 10000 5.1 60 23:23 01.07.2020
1504 Clouds 11 1007 81 10000 4.6 60 22:55 01.07.2020
1505 Clouds 11 1007 81 10000 4.6 60 22:37 01.07.2020
1506 Clouds 12 1007 76 10000 5.1 50 22:18 01.07.2020
1507 Clouds 12 1007 76 10000 5.7 70 21:56 01.07.2020
1508 Clouds 12 1007 76 10000 5.7 70 21:38 01.07.2020
1509 Clouds 12 1007 76 10000 4.6 70 21:19 01.07.2020
1510 Clouds 12 1006 76 10000 5.1 70 20:46 01.07.2020
1511 Clouds 12 1006 76 10000 5.7 70 20:26 01.07.2020
1512 Clouds 13 1006 76 10000 5.7 70 19:57 01.07.2020
1513 Clouds 13 1006 76 10000 5.7 70 19:39 01.07.2020
1514 Clouds 13 1006 76 10000 5.7 80 19:20 01.07.2020
1515 Clouds 13 1006 76 10000 6.2 80 18:54 01.07.2020
1516 Clouds 13 1006 82 10000 6.7 70 18:36 01.07.2020
1517 Clouds 13 1006 82 10000 6.7 70 18:18 01.07.2020
1518 Clouds 13 1005 82 10000 5.1 70 17:41 01.07.2020
1519 Clouds 13 1005 87 10000 5.7 70 17:20 01.07.2020
1520 Rain 13 1005 87 10000 6.2 70 16:48 01.07.2020
1521 Rain 13 1005 87 10000 6.2 70 16:29 01.07.2020
1522 Rain 14 1005 82 10000 6.2 80 15:59 01.07.2020
1523 Rain 14 1005 82 10000 6.2 80 15:40 01.07.2020
1524 Rain 14 1004 82 10000 6.2 70 15:21 01.07.2020
1525 Rain 14 1004 82 10000 5.1 80 14:47 01.07.2020
1526 Clouds 14 1004 82 10000 5.1 80 14:22 01.07.2020
1527 Clouds 14 1004 82 10000 5.7 70 13:59 01.07.2020
1528 Clouds 14 1004 82 10000 5.7 70 13:40 01.07.2020
1529 Clouds 14 1003 82 10000 6.7 70 13:21 01.07.2020
1530 Clouds 14 1003 82 10000 5.7 80 12:58 01.07.2020
1531 Clouds 14 1003 82 10000 5.7 80 12:39 01.07.2020
1532 Rain 15 1003 77 10000 3.1 50 12:21 01.07.2020
1533 Rain 15 1003 77 10000 1 0 11:55 01.07.2020
1534 Rain 16 1003 77 10000 1 0 11:37 01.07.2020
1535 Rain 15 1003 77 10000 1 0 11:18 01.07.2020
1536 Rain 15 1002 77 10000 0.5 0 10:41 01.07.2020
1537 Clouds 14 1002 87 10000 1 0 10:23 01.07.2020
1538 Clouds 14 1002 87 10000 2.1 250 09:58 01.07.2020
1539 Clouds 14 1002 87 10000 2.1 250 09:37 01.07.2020
1540 Clouds 13 1002 93 10000 1 0 09:18 01.07.2020
1541 Clouds 13 1002 93 10000 1.5 0 08:41 01.07.2020
1542 Clouds 12 1002 100 10000 1 270 08:23 01.07.2020
1543 Clouds 12 1001 93 10000 1 260 07:58 01.07.2020
1544 Clouds 12 1001 93 10000 1 260 07:38 01.07.2020
1545 Clouds 11 1001 100 10000 1 240 07:20 01.07.2020
1546 Clouds 11 1001 93 10000 0.5 260 06:49 01.07.2020
1547 Clouds 11 1001 100 10000 0.85 276 06:27 01.07.2020
1548 Mist 11 1002 100 5000 1 240 04:32 01.07.2020
1549 Clouds 11 1002 93 6000 1 270 03:47 01.07.2020
1550 Mist 11 1002 100 3900 2.1 240 03:27 01.07.2020
1551 Clouds 11 1002 100 7000 1.5 260 02:41 01.07.2020
1552 Clouds 11 1002 93 7000 1.5 0 01:47 01.07.2020
1553 Clouds 12 1002 93 10000 2.6 230 00:42 01.07.2020
1554 Clouds 12 1002 93 10000 2.6 230 00:23 01.07.2020
1555 Clouds 13 1002 87 10000 2.6 220 23:41 30.06.2020
1556 Clouds 13 1002 87 10000 3.6 220 23:22 30.06.2020
1557 Clouds 14 1002 87 10000 2.1 240 22:43 30.06.2020
1558 Clouds 15 1002 82 10000 4.1 210 22:20 30.06.2020
1559 Clouds 15 1002 82 10000 4.1 220 21:59 30.06.2020
1560 Clouds 15 1002 82 10000 4.1 220 21:40 30.06.2020
1561 Clouds 15 1002 82 10000 4.1 230 21:19 30.06.2020
1562 Clouds 16 1001 77 10000 4.1 230 20:43 30.06.2020
1563 Clouds 16 1001 72 10000 5.1 220 20:21 30.06.2020
1564 Rain 16 1002 72 10000 4.6 230 19:47 30.06.2020
1565 Clouds 16 1002 72 10000 6.7 220 19:22 30.06.2020
1566 Clouds 17 1001 72 10000 5.1 220 18:59 30.06.2020
1567 Clouds 17 1001 72 10000 5.1 220 18:41 30.06.2020
1568 Clouds 17 1002 72 10000 5.1 230 18:20 30.06.2020
1569 Clouds 17 1002 72 10000 5.1 220 17:40 30.06.2020
1570 Clouds 17 1002 72 10000 4.6 230 17:21 30.06.2020
1571 Clouds 17 1002 68 10000 5.7 220 16:59 30.06.2020
1572 Clouds 17 1002 68 10000 5.7 220 16:40 30.06.2020
1573 Clouds 16 1002 77 10000 5.1 230 16:21 30.06.2020
1574 Clouds 17 1002 72 10000 5.7 230 15:56 30.06.2020
1575 Clouds 17 1002 72 10000 5.7 230 15:38 30.06.2020
1576 Clouds 15 1002 82 10000 4.1 230 15:19 30.06.2020
1577 Rain 16 1002 82 10000 3.6 220 14:43 30.06.2020
1578 Clouds 15 1002 82 10000 5.7 220 14:22 30.06.2020
1579 Rain 15 1002 77 10000 4.1 230 13:57 30.06.2020
1580 Rain 15 1002 77 10000 4.1 230 13:37 30.06.2020
1581 Rain 15 1002 77 10000 4.1 230 13:37 30.06.2020
1582 Clouds 15 1002 77 10000 4.6 220 13:19 30.06.2020
1583 Rain 15 1002 82 10000 5.7 230 12:55 30.06.2020
1584 Rain 14 1002 82 10000 5.7 230 12:37 30.06.2020
1585 Clouds 15 1002 82 10000 5.1 220 12:18 30.06.2020
1586 Clouds 15 1002 82 10000 5.1 220 12:18 30.06.2020
1587 Clouds 14 1001 82 10000 4.1 230 11:56 30.06.2020
1588 Clouds 14 1001 82 10000 4.1 230 11:37 30.06.2020
1589 Clouds 14 1001 82 10000 3.6 230 11:18 30.06.2020
1590 Drizzle 14 993 93 4500 7.2 240 16:46 28.06.2020
1591 Rain 14 993 87 6000 6.7 220 16:28 28.06.2020
1592 Clouds 13 993 93 10000 6.2 210 15:59 28.06.2020
1593 Clouds 13 993 93 10000 6.2 210 15:39 28.06.2020
1594 Rain 13 993 93 4900 9.3 220 15:20 28.06.2020
1595 Haze 13 992 93 5000 10.8 210 14:55 28.06.2020
1596 Haze 13 992 93 5000 10.8 210 14:37 28.06.2020
1597 Clouds 13 992 87 7000 10.8 200 14:19 28.06.2020
1598 Rain 13 992 93 7000 10.3 200 13:39 28.06.2020
1599 Rain 13 992 87 4900 10.3 210 13:21 28.06.2020
1600 Rain 12 992 87 6000 9.8 210 12:57 28.06.2020
1601 Rain 12 992 87 6000 9.8 210 12:38 28.06.2020
1602 Haze 12 992 87 4500 9.8 210 12:19 28.06.2020
1603 Rain 13 992 87 10000 8.7 210 11:58 28.06.2020
1604 Rain 13 992 87 10000 8.7 210 11:39 28.06.2020
1605 Rain 12 992 87 10000 8.2 220 11:20 28.06.2020
1606 Rain 12 991 93 8000 8.7 220 10:56 28.06.2020
1607 Rain 12 991 93 8000 8.7 220 10:38 28.06.2020
1608 Rain 13 991 87 10000 6.7 220 10:19 28.06.2020
1609 Rain 12 991 93 10000 7.2 220 09:40 28.06.2020
1610 Rain 12 990 93 10000 7.2 220 09:21 28.06.2020
1611 Rain 12 990 93 6000 7.7 230 08:48 28.06.2020
1612 Rain 12 990 93 7000 7.2 230 08:28 28.06.2020
1613 Rain 12 990 93 7000 7.7 230 07:50 28.06.2020
1614 Rain 12 989 93 8000 7.7 230 07:30 28.06.2020
1615 Rain 12 989 93 10000 3.6 230 06:44 28.06.2020
1616 Rain 12 989 93 10000 6.7 220 06:24 28.06.2020
1617 Rain 12 989 93 10000 5.7 190 05:26 28.06.2020
1618 Rain 11 990 93 2900 7.2 200 03:33 28.06.2020
1619 Rain 12 991 87 4900 7.7 200 02:40 28.06.2020
1620 Drizzle 12 991 93 3800 5.7 200 01:53 28.06.2020
1621 Drizzle 12 991 93 3600 6.7 200 01:26 28.06.2020
1622 Rain 12 992 93 4200 8.2 200 00:48 28.06.2020
1623 Drizzle 12 992 93 4000 8.7 200 00:24 28.06.2020
1624 Drizzle 12 992 93 3500 6.7 200 23:42 27.06.2020
1625 Haze 12 991 87 4900 7.2 200 23:23 27.06.2020
1626 Rain 13 991 87 10000 6.2 190 22:58 27.06.2020
1627 Rain 14 991 87 10000 6.2 190 22:40 27.06.2020
1628 Rain 14 991 87 10000 5.1 200 22:20 27.06.2020
1629 Rain 15 991 82 10000 5.7 180 21:54 27.06.2020
1630 Rain 15 991 82 10000 5.7 180 21:36 27.06.2020
1631 Rain 15 991 82 10000 5.7 180 21:18 27.06.2020
1632 Rain 16 991 82 10000 4.6 180 20:41 27.06.2020
1633 Rain 16 991 87 10000 3.6 170 20:18 27.06.2020
1634 Rain 17 991 72 10000 5.7 180 19:54 27.06.2020
1635 Rain 17 992 77 10000 4.1 210 19:36 27.06.2020
1636 Rain 17 992 77 10000 4.1 210 19:18 27.06.2020
1637 Rain 18 992 77 10000 5.7 200 18:43 27.06.2020
1638 Rain 18 992 68 10000 5.7 180 18:22 27.06.2020
1639 Rain 17 993 88 10000 3.6 220 17:55 27.06.2020
1640 Rain 17 993 88 10000 3.6 220 17:37 27.06.2020
1641 Rain 18 993 72 10000 4.6 200 17:18 27.06.2020
1642 Rain 19 993 72 10000 5.7 220 16:42 27.06.2020
1643 Rain 18 993 72 10000 5.1 160 16:24 27.06.2020
1644 Rain 18 994 77 10000 5.1 160 15:46 27.06.2020
1645 Rain 18 994 88 10000 3.6 160 15:26 27.06.2020
1646 Rain 17 994 88 10000 3.6 160 15:00 27.06.2020
1647 Rain 17 995 88 10000 3.6 120 14:41 27.06.2020
1648 Rain 16 995 87 10000 3.1 50 14:22 27.06.2020
1649 Rain 16 996 82 4600 4.6 80 13:57 27.06.2020
1650 Rain 17 996 82 4600 4.6 80 13:37 27.06.2020
1651 Clouds 17 996 72 10000 3.6 80 13:19 27.06.2020
1652 Rain 17 997 72 10000 4.1 70 12:43 27.06.2020
1653 Rain 16 997 72 10000 3.1 80 12:22 27.06.2020
1654 Rain 16 998 72 10000 3.1 100 11:59 27.06.2020
1655 Rain 16 998 72 10000 3.1 100 11:40 27.06.2020
1656 Rain 16 998 72 10000 2.1 110 11:22 27.06.2020
1657 Rain 16 998 72 10000 1.5 0 10:42 27.06.2020
1658 Rain 15 999 72 10000 1.5 0 10:20 27.06.2020
1659 Clouds 15 999 77 10000 2.6 110 09:59 27.06.2020
1660 Clouds 15 999 77 10000 2.6 110 09:39 27.06.2020
1661 Clouds 15 1000 77 10000 2.6 110 09:21 27.06.2020
1662 Clouds 14 1000 82 10000 2.1 150 08:44 27.06.2020
1663 Clouds 14 1000 82 10000 1.5 150 08:23 27.06.2020
1664 Clouds 12 1000 87 10000 2.6 220 07:48 27.06.2020
1665 Clouds 12 1000 87 10000 1 0 07:26 27.06.2020
1666 Clouds 12 1001 93 10000 3.1 60 06:52 27.06.2020
1667 Clouds 12 1001 87 10000 0.5 0 06:33 27.06.2020
1668 Clouds 12 1002 87 10000 1.5 0 04:52 27.06.2020
1669 Clouds 12 1003 81 10000 2.6 270 04:18 27.06.2020
1670 Clouds 12 1003 87 10000 2.1 290 03:46 27.06.2020
1671 Clouds 14 1003 82 10000 1 0 02:42 27.06.2020
1672 Clouds 13 1003 87 10000 1.5 0 02:23 27.06.2020
1673 Clouds 15 1004 87 10000 2.6 310 01:28 27.06.2020
1674 Clouds 16 1004 87 10000 2.1 280 00:47 27.06.2020
1675 Clouds 17 1004 88 10000 1.5 280 23:47 26.06.2020
1676 Clouds 18 1004 82 10000 1.5 0 23:27 26.06.2020
1677 Clouds 18 1004 88 10000 1.5 310 22:58 26.06.2020
1678 Clouds 18 1004 88 10000 1.5 310 22:39 26.06.2020
1679 Clouds 18 1004 88 10000 2.1 270 22:21 26.06.2020
1680 Clouds 19 1004 82 10000 3.6 240 21:58 26.06.2020
1681 Clouds 19 1004 82 10000 3.6 240 21:39 26.06.2020
1682 Rain 21 1004 77 10000 4.6 230 21:21 26.06.2020
1683 Clouds 22 1004 77 10000 3.6 200 20:47 26.06.2020
1684 Clouds 22 1003 73 10000 3.6 80 20:27 26.06.2020
1685 Clouds 22 1004 73 10000 3.6 110 19:55 26.06.2020
1686 Clouds 22 1004 73 10000 3.6 80 19:37 26.06.2020
1687 Clouds 22 1004 73 10000 3.6 80 19:18 26.06.2020
1688 Rain 21 1005 77 10000 4.6 70 18:40 26.06.2020
1689 Rain 21 1005 77 10000 4.6 70 18:21 26.06.2020
1690 Clouds 21 1005 77 10000 4.6 70 17:44 26.06.2020
1691 Rain 21 1006 82 10000 4.6 70 17:26 26.06.2020
1692 Rain 19 1006 88 10000 3.6 50 16:55 26.06.2020
1693 Clouds 19 1006 88 10000 3.6 50 16:36 26.06.2020
1694 Clouds 19 1006 88 10000 3.6 50 16:18 26.06.2020
1695 Rain 19 1006 88 10000 2.6 40 15:41 26.06.2020
1696 Rain 19 1007 82 10000 2.6 60 15:21 26.06.2020
1697 Rain 19 1007 82 10000 3.6 70 14:57 26.06.2020
1698 Rain 19 1007 82 10000 3.6 70 14:38 26.06.2020
1699 Clouds 18 1007 88 10000 3.6 70 14:20 26.06.2020
1700 Clouds 18 1007 88 10000 3.6 60 13:44 26.06.2020
1701 Clouds 17 1007 88 10000 3.6 60 13:23 26.06.2020
1702 Rain 17 1007 88 8000 3.1 100 12:56 26.06.2020
1703 Rain 17 1007 88 8000 3.1 100 12:37 26.06.2020
1704 Rain 17 1008 88 8000 5.1 60 12:18 26.06.2020
1705 Rain 16 1008 88 8000 3.1 50 11:55 26.06.2020
1706 Rain 16 1008 88 8000 3.1 50 11:36 26.06.2020
1707 Rain 16 1008 93 7000 3.1 100 11:18 26.06.2020
1708 Drizzle 15 1008 100 4400 4.1 30 10:40 26.06.2020
1709 Rain 15 1010 93 5000 3.1 70 10:20 26.06.2020
1710 Rain 15 1010 93 3600 2.1 70 09:57 26.06.2020
1711 Rain 15 1010 93 3600 2.1 70 09:38 26.06.2020
1712 Rain 15 1010 93 3600 2.1 70 09:38 26.06.2020
1713 Rain 15 1010 93 4300 3.6 100 09:18 26.06.2020
1714 Rain 15 1010 93 6000 3.6 100 08:44 26.06.2020
1715 Rain 15 1010 93 9000 4.1 70 08:25 26.06.2020
1716 Rain 15 1010 93 9000 3.1 80 07:47 26.06.2020
1717 Rain 15 1010 87 9000 2.6 70 07:23 26.06.2020
1718 Rain 15 1010 87 10000 4.6 90 06:49 26.06.2020
1719 Rain 16 1010 87 10000 1.5 0 06:30 26.06.2020
1720 Rain 16 1010 82 10000 2.1 90 05:52 26.06.2020
1721 Clouds 17 1011 77 10000 3.1 70 04:55 26.06.2020
1722 Clouds 18 1011 72 10000 4.1 70 02:29 26.06.2020
1723 Clouds 19 1012 68 10000 5.1 70 01:26 26.06.2020
1724 Clouds 18 1012 72 10000 5.1 70 00:42 26.06.2020
1725 Clouds 20 1012 68 10000 5.1 70 00:22 26.06.2020
1726 Clouds 20 1012 68 10000 4.6 70 23:46 25.06.2020
1727 Clouds 21 1012 68 10000 5.1 60 23:22 25.06.2020
1728 Clouds 21 1012 64 10000 4.6 70 22:57 25.06.2020
1729 Clouds 21 1012 64 10000 4.6 70 22:38 25.06.2020
1730 Clouds 23 1012 60 10000 5.1 70 22:20 25.06.2020
1731 Clouds 24 1012 60 10000 5.1 70 21:57 25.06.2020
1732 Clouds 24 1012 60 10000 5.1 70 21:39 25.06.2020
1733 Rain 24 1012 60 10000 5.7 60 21:20 25.06.2020
1734 Clouds 25 1012 57 10000 4.1 50 20:55 25.06.2020
1735 Clouds 25 1012 57 10000 4.1 50 20:37 25.06.2020
1736 Rain 25 1012 64 10000 5.1 50 20:19 25.06.2020
1737 Rain 25 1012 57 10000 4.6 60 19:41 25.06.2020
1738 Rain 26 1013 54 10000 7.2 70 19:19 25.06.2020
1739 Rain 27 1013 54 10000 7.2 70 18:58 25.06.2020
1740 Rain 27 1013 54 10000 7.2 70 18:38 25.06.2020
1741 Rain 27 1013 54 10000 7.2 60 18:19 25.06.2020
1742 Rain 26 1014 57 10000 6.7 70 17:42 25.06.2020
1743 Clouds 27 1014 57 10000 7.2 60 17:19 25.06.2020
1744 Clouds 27 1014 57 10000 6.7 50 16:57 25.06.2020
1745 Clouds 27 1014 57 10000 6.7 50 16:57 25.06.2020
1746 Clouds 27 1014 57 10000 6.7 50 16:57 25.06.2020
1747 Clouds 27 1014 57 10000 6.7 50 16:37 25.06.2020
1748 Clear 27 1015 57 10000 6.2 50 16:18 25.06.2020
1749 Clear 26 1015 61 10000 6.2 40 15:41 25.06.2020
1750 Clear 26 1016 61 10000 6.7 40 15:21 25.06.2020
1751 Clear 26 1016 65 10000 6.7 70 14:44 25.06.2020
1752 Clouds 24 1017 69 10000 5.7 50 14:25 25.06.2020
1753 Clouds 24 1017 64 10000 5.1 60 13:56 25.06.2020
1754 Clouds 24 1017 64 10000 5.1 60 13:38 25.06.2020
1755 Clouds 24 1017 64 10000 5.1 60 13:38 25.06.2020
1756 Clouds 23 1017 69 10000 4.1 50 13:19 25.06.2020
1757 Clouds 22 1018 68 10000 4.1 70 12:45 25.06.2020
1758 Clouds 19 1018 73 10000 4.1 60 12:21 25.06.2020
1759 Clouds 19 1018 77 10000 4.1 50 11:58 25.06.2020
1760 Clouds 19 1018 77 10000 4.1 50 11:39 25.06.2020
1761 Clouds 18 1018 77 10000 4.1 50 11:20 25.06.2020
1762 Clouds 18 1019 82 10000 4.6 50 10:42 25.06.2020
1763 Rain 17 1019 77 10000 4.1 80 10:23 25.06.2020
1764 Rain 17 1019 82 10000 5.1 70 09:41 25.06.2020
1765 Clouds 17 1019 82 10000 4.6 70 09:23 25.06.2020
1766 Clouds 16 1019 87 10000 3.6 70 08:49 25.06.2020
1767 Rain 15 1019 93 10000 3.1 60 08:21 25.06.2020
1768 Rain 15 1019 93 8000 2.6 60 07:57 25.06.2020
1769 Rain 15 1019 93 8000 2.6 60 07:38 25.06.2020
1770 Rain 15 1019 93 8000 2.6 60 07:38 25.06.2020
1771 Rain 14 1020 100 9000 2.1 40 07:20 25.06.2020
1772 Rain 14 1020 100 10000 1 0 06:30 25.06.2020
1773 Mist 14 1020 93 1300 0.5 0 05:55 25.06.2020
1774 Fog 14 1020 100 700 0.5 0 05:25 25.06.2020
1775 Fog 14 1021 93 750 0.5 250 03:36 25.06.2020
1776 Clouds 14 1021 93 10000 2.1 220 02:44 25.06.2020
1777 Clouds 15 1021 93 10000 1.5 230 02:19 25.06.2020
1778 Clouds 14 1022 93 10000 2.6 250 01:34 25.06.2020
1779 Clouds 15 1022 87 10000 1.5 220 00:47 25.06.2020
1780 Clouds 15 1022 93 10000 1.5 250 00:22 25.06.2020
1781 Clouds 16 1022 82 10000 1 280 23:58 24.06.2020
1782 Clouds 16 1022 82 10000 1 280 23:37 24.06.2020
1783 Clouds 17 1022 77 10000 1.5 290 23:18 24.06.2020
1784 Clouds 17 1022 77 10000 1 0 22:41 24.06.2020
1785 Clouds 18 1021 72 10000 2.6 300 22:20 24.06.2020
1786 Clouds 19 1021 68 10000 2.1 310 21:56 24.06.2020
1787 Clouds 19 1021 68 10000 2.1 310 21:37 24.06.2020
1788 Clouds 19 1021 72 10000 3.1 300 21:19 24.06.2020
1789 Clouds 20 1021 72 10000 3.6 300 20:58 24.06.2020
1790 Clouds 20 1021 72 10000 3.6 300 20:39 24.06.2020
1791 Clouds 21 1021 64 10000 2.6 310 20:20 24.06.2020
1792 Clouds 21 1021 64 10000 2.6 310 19:57 24.06.2020
1793 Clouds 21 1021 64 10000 2.6 310 19:38 24.06.2020
1794 Clouds 21 1021 68 10000 3.1 310 19:18 24.06.2020
1795 Clouds 20 1021 72 10000 3.1 300 18:58 24.06.2020
1796 Clouds 21 1021 72 10000 3.1 300 18:39 24.06.2020
1797 Clouds 21 1021 72 10000 2.1 300 18:39 24.06.2020
1798 Clouds 21 1021 72 10000 2.1 300 18:20 24.06.2020
1799 Clouds 21 1021 72 10000 2.1 300 17:44 24.06.2020
1800 Clouds 21 1021 72 10000 3.1 320 17:21 24.06.2020
1801 Clouds 20 1021 77 10000 4.6 290 17:00 24.06.2020
1802 Clouds 20 1021 77 10000 4.6 290 16:41 24.06.2020
1803 Clouds 21 1021 72 10000 3.6 280 16:23 24.06.2020
1804 Clouds 21 1021 72 10000 5.7 250 15:59 24.06.2020
1805 Clouds 20 1021 72 10000 5.7 250 15:39 24.06.2020
1806 Clouds 20 1021 77 10000 3.6 290 15:20 24.06.2020
1807 Clouds 21 1021 72 10000 5.7 240 14:58 24.06.2020
1808 Clouds 19 1021 72 10000 5.7 240 14:40 24.06.2020
1809 Clouds 19 1021 72 10000 5.7 240 14:40 24.06.2020
1810 Clouds 18 1021 68 10000 6.2 240 14:20 24.06.2020
1811 Clouds 18 1021 68 10000 6.7 240 13:42 24.06.2020
1812 Clouds 18 1020 72 10000 3.6 260 13:21 24.06.2020
1813 Clouds 19 1020 63 10000 3.1 190 12:43 24.06.2020
1814 Clouds 18 1020 68 10000 5.1 220 12:21 24.06.2020
1815 Clouds 18 1020 72 10000 2.1 250 11:57 24.06.2020
1816 Clouds 17 1020 72 10000 2.1 250 11:39 24.06.2020
1817 Clouds 17 1020 77 10000 3.1 240 11:21 24.06.2020
1818 Clouds 17 1020 72 10000 4.6 230 10:45 24.06.2020
1819 Clouds 17 1020 67 10000 3.1 200 10:19 24.06.2020
1820 Clouds 17 1019 67 10000 3.1 220 09:46 24.06.2020
1821 Clouds 17 1019 63 10000 2.6 200 09:24 24.06.2020
1822 Clouds 15 1019 67 10000 2.1 110 08:59 24.06.2020
1823 Clouds 15 1019 67 10000 2.1 110 08:39 24.06.2020
1824 Clouds 16 1019 67 10000 2.1 110 08:18 24.06.2020
1825 Clouds 15 1019 67 10000 2.1 170 07:44 24.06.2020
1826 Clouds 15 1019 72 10000 2.1 190 07:24 24.06.2020
1827 Clouds 15 1019 87 10000 1 0 06:44 24.06.2020
1828 Clouds 14 1019 87 10000 1 0 06:24 24.06.2020
1829 Clouds 14 1019 87 10000 2.1 130 05:38 24.06.2020
1830 Clouds 14 1019 87 10000 3.1 140 04:38 24.06.2020
1831 Clouds 15 1019 82 10000 2.6 120 03:38 24.06.2020
1832 Clouds 15 1019 82 10000 2.1 180 02:54 24.06.2020
1833 Clouds 16 1019 82 10000 3.1 180 02:21 24.06.2020
1834 Rain 16 1019 87 10000 1.5 0 00:52 24.06.2020
1835 Clouds 16 1019 87 10000 2.1 150 00:33 24.06.2020
1836 Clouds 16 1019 87 10000 2.6 140 23:48 23.06.2020
1837 Clouds 16 1019 82 10000 3.1 150 23:21 23.06.2020
1838 Clouds 16 1019 87 10000 3.6 140 22:58 23.06.2020
1839 Clouds 16 1019 87 10000 3.6 140 22:40 23.06.2020
1840 Clouds 16 1019 87 10000 2.1 160 22:18 23.06.2020
1841 Clouds 16 1019 87 10000 3.6 180 21:43 23.06.2020
1842 Clouds 16 1019 82 10000 4.6 170 21:20 23.06.2020
1843 Clouds 16 1019 87 10000 2.1 130 20:57 23.06.2020
1844 Clouds 16 1019 87 10000 3.6 180 20:39 23.06.2020
1845 Clouds 16 1019 87 10000 3.6 180 20:19 23.06.2020
1846 Clouds 16 1019 87 10000 3.6 180 20:19 23.06.2020
1847 Rain 16 1019 87 10000 3.6 180 19:59 23.06.2020
1848 Drizzle 15 1019 93 4600 2.1 120 19:40 23.06.2020
1849 Drizzle 15 1019 93 4600 2.1 120 19:22 23.06.2020
1850 Rain 15 1019 82 5000 1 0 18:38 23.06.2020
1851 Rain 15 1019 82 5000 1 0 18:18 23.06.2020
1852 Rain 15 1019 82 5000 1 0 18:18 23.06.2020
1853 Clouds 15 1019 82 10000 1 250 17:42 23.06.2020
1854 Rain 15 1019 82 10000 2.6 180 17:23 23.06.2020
1855 Rain 15 1019 77 10000 3.1 220 16:57 23.06.2020
1856 Rain 16 1019 77 10000 3.6 200 16:38 23.06.2020
1857 Rain 15 1019 77 10000 3.6 200 16:20 23.06.2020
1858 Clouds 15 1019 77 10000 4.1 210 15:57 23.06.2020
1859 Clouds 16 1019 77 10000 4.1 210 15:38 23.06.2020
1860 Clouds 16 1019 82 10000 4.6 230 15:18 23.06.2020
1861 Clouds 15 1019 77 10000 5.1 200 14:42 23.06.2020
1862 Clouds 16 1019 82 10000 4.6 200 14:19 23.06.2020
1863 Clouds 14 1019 87 10000 3.1 200 13:56 23.06.2020
1864 Rain 15 1018 93 10000 3.6 200 13:38 23.06.2020
1865 Rain 14 1018 93 10000 3.6 200 13:20 23.06.2020
1866 Rain 15 1018 93 10000 3.6 200 12:41 23.06.2020
1867 Rain 14 1018 93 10000 3.6 210 12:22 23.06.2020
1868 Rain 14 1018 93 7000 3.1 220 11:56 23.06.2020
1869 Rain 14 1018 93 7000 3.1 220 11:37 23.06.2020
1870 Drizzle 14 1017 93 3100 1 0 11:19 23.06.2020
1871 Drizzle 14 1017 100 5000 3.1 80 10:55 23.06.2020
1872 Drizzle 14 1017 100 5000 3.1 80 10:37 23.06.2020
1873 Drizzle 14 1017 100 4100 2.1 80 10:19 23.06.2020
1874 Rain 14 1017 93 5000 2.1 100 09:41 23.06.2020
1875 Rain 14 1017 93 7000 2.6 120 09:20 23.06.2020
1876 Rain 14 1017 93 10000 3.1 140 08:47 23.06.2020
1877 Clouds 14 1016 87 10000 2.6 150 08:28 23.06.2020
1878 Rain 14 1016 87 10000 2.6 180 07:59 23.06.2020
1879 Rain 14 1016 87 10000 2.6 180 07:39 23.06.2020
1880 Clouds 14 1016 87 10000 3.1 180 07:21 23.06.2020
1881 Clouds 14 1016 87 10000 3.1 200 06:48 23.06.2020
1882 Rain 13 1016 93 10000 2.6 220 06:30 23.06.2020
1883 Clouds 13 1016 87 10000 3.1 220 05:39 23.06.2020
1884 Clouds 13 1014 93 10000 3.1 240 03:29 23.06.2020
1885 Drizzle 14 1014 93 3800 5.7 210 02:55 23.06.2020
1886 Drizzle 14 1014 93 3800 5.7 210 02:36 23.06.2020
1887 Rain 15 1013 87 4000 7.2 210 01:47 23.06.2020
1888 Clouds 15 1012 82 10000 8.2 190 01:29 23.06.2020
1889 Clouds 15 1012 82 10000 6.7 180 00:56 23.06.2020
1890 Clouds 15 1012 87 10000 7.7 170 00:24 23.06.2020
1891 Clouds 15 1013 87 10000 6.7 170 23:55 22.06.2020
1892 Clouds 15 1013 87 10000 6.7 170 23:55 22.06.2020
1893 Clouds 15 1013 87 10000 6.7 170 23:55 22.06.2020
1894 Clouds 15 1013 87 10000 6.7 170 23:37 22.06.2020
1895 Clouds 15 1012 87 10000 7.7 180 23:19 22.06.2020
1896 Clouds 15 1012 87 10000 6.7 180 22:55 22.06.2020
1897 Clouds 15 1012 87 10000 6.7 180 22:37 22.06.2020
1898 Clouds 15 1012 82 10000 4.6 180 22:19 22.06.2020
1899 Clouds 15 1012 87 10000 3.6 130 21:54 22.06.2020
1900 Drizzle 15 1012 93 5000 4.6 160 21:36 22.06.2020
1901 Drizzle 15 1012 93 5000 4.6 160 21:18 22.06.2020
1902 Rain 15 1012 93 8000 4.6 150 20:41 22.06.2020
1903 Drizzle 16 1013 87 5000 4.6 160 20:22 22.06.2020
1904 Clouds 16 1013 82 10000 8.2 160 19:45 22.06.2020
1905 Clouds 17 1014 82 10000 5.7 170 19:20 22.06.2020
1906 Clouds 17 1014 82 10000 5.7 170 18:59 22.06.2020
1907 Clouds 17 1014 82 10000 5.7 170 18:59 22.06.2020
1908 Rain 17 1014 87 10000 7.7 170 18:39 22.06.2020
1909 Rain 17 1014 87 10000 7.7 170 18:21 22.06.2020
1910 Clouds 17 1014 77 10000 8.7 190 17:56 22.06.2020
1911 Clouds 17 1015 82 10000 7.7 190 17:38 22.06.2020
1912 Clouds 17 1015 82 10000 7.7 190 17:38 22.06.2020
1913 Clouds 15 1015 87 10000 8.7 190 17:19 22.06.2020
1914 Clouds 15 1015 87 10000 8.7 190 17:19 22.06.2020
1915 Clouds 15 1015 87 10000 8.7 190 16:55 22.06.2020
1916 Clouds 15 1015 87 10000 7.7 190 16:37 22.06.2020
1917 Clouds 15 1015 87 10000 7.7 190 16:18 22.06.2020
1918 Rain 14 1015 87 10000 6.2 180 15:42 22.06.2020
1919 Rain 14 1015 87 10000 6.2 180 15:23 22.06.2020
1920 Clouds 14 1015 93 10000 7.2 180 14:54 22.06.2020
1921 Rain 14 1016 87 7000 2.6 200 14:36 22.06.2020
1922 Clouds 13 1016 87 10000 3.1 160 14:18 22.06.2020
1923 Rain 13 1016 87 3200 4.1 180 13:39 22.06.2020
1924 Rain 13 1016 87 3200 4.1 180 13:21 22.06.2020
1925 Drizzle 13 1016 87 4500 7.2 180 12:55 22.06.2020
1926 Drizzle 13 1015 87 5000 5.1 160 12:37 22.06.2020
1927 Drizzle 13 1015 87 5000 5.1 160 12:19 22.06.2020
1928 Clouds 13 1015 76 10000 5.7 170 11:37 22.06.2020
1929 Clouds 14 1015 76 10000 5.7 170 11:19 22.06.2020
1930 Rain 14 1016 76 10000 6.2 160 10:55 22.06.2020
1931 Clouds 14 1016 76 10000 4.6 130 10:37 22.06.2020
1932 Clouds 14 1016 76 10000 4.6 130 10:18 22.06.2020
1933 Rain 13 1016 76 10000 4.6 120 09:56 22.06.2020
1934 Clouds 13 1016 71 10000 3.1 100 09:37 22.06.2020
1935 Clouds 13 1016 81 10000 2.1 60 09:18 22.06.2020
1936 Clouds 11 1016 87 10000 1.5 0 08:40 22.06.2020
1937 Clouds 11 1016 87 10000 1.5 0 08:21 22.06.2020
1938 Clouds 10 1016 87 10000 2.1 80 07:54 22.06.2020
1939 Clouds 9 1016 100 10000 1 0 07:34 22.06.2020
1940 Clouds 9 1016 93 10000 1.5 0 06:56 22.06.2020
1941 Clouds 9 1017 100 10000 1 100 06:37 22.06.2020
1942 Clouds 8 1017 100 10000 1 80 06:19 22.06.2020
1943 Fog 8 1017 100 750 1 90 05:41 22.06.2020
1944 Clouds 10 1017 93 10000 1.5 240 02:59 22.06.2020
1945 Clouds 10 1017 93 10000 1.5 240 02:59 22.06.2020
1946 Clouds 11 1016 93 10000 3.1 210 01:38 22.06.2020
1947 Clouds 11 1016 87 10000 4.6 210 00:41 22.06.2020
1948 Clouds 11 1016 87 10000 4.6 210 00:22 22.06.2020
1949 Clouds 12 1016 87 10000 5.1 210 23:55 21.06.2020
1950 Clear 12 1015 87 10000 4.6 200 23:36 21.06.2020
1951 Clear 12 1015 87 10000 4.6 200 23:18 21.06.2020
1952 Clear 13 1015 87 10000 4.6 210 22:54 21.06.2020
1953 Rain 13 1014 82 10000 7.2 210 22:36 21.06.2020
1954 Rain 14 1014 82 10000 7.2 210 22:18 21.06.2020
1955 Clouds 14 1013 71 10000 6.7 240 21:42 21.06.2020
1956 Clouds 15 1013 71 10000 6.7 240 21:22 21.06.2020
1957 Clouds 15 1013 67 10000 6.7 250 20:59 21.06.2020
1958 Clouds 16 1012 63 10000 6.7 250 20:38 21.06.2020
1959 Clouds 16 1012 63 10000 6.7 250 20:19 21.06.2020
1960 Clouds 16 1012 67 10000 6.7 250 19:57 21.06.2020
1961 Clouds 15 1011 72 10000 5.7 250 19:38 21.06.2020
1962 Clouds 15 1011 72 10000 5.7 250 19:20 21.06.2020
1963 Rain 15 1011 72 10000 6.2 250 18:55 21.06.2020
1964 Clouds 15 1011 77 10000 7.7 240 18:37 21.06.2020
1965 Clouds 16 1011 77 10000 7.7 240 18:18 21.06.2020
1966 Rain 15 1010 87 10000 5.7 230 17:40 21.06.2020
1967 Rain 14 1010 87 10000 5.7 230 17:21 21.06.2020
1968 Rain 14 1010 82 10000 5.1 230 16:56 21.06.2020
1969 Rain 14 1010 82 10000 5.1 230 16:56 21.06.2020
1970 Rain 14 1009 82 10000 5.1 240 16:38 21.06.2020
1971 Rain 14 1009 82 10000 5.1 240 16:19 21.06.2020
1972 Rain 15 1008 72 10000 9.8 240 15:39 21.06.2020
1973 Rain 16 1008 72 10000 9.8 240 15:21 21.06.2020
1974 Rain 16 1007 63 10000 9.8 210 14:55 21.06.2020
1975 Clouds 16 1007 68 10000 9.3 220 14:36 21.06.2020
1976 Clouds 16 1007 68 10000 9.3 220 14:18 21.06.2020
1977 Rain 16 1006 72 10000 10.3 210 13:41 21.06.2020
1978 Rain 15 1006 72 10000 10.3 210 13:22 21.06.2020
1979 Rain 15 1006 77 10000 8.7 210 12:56 21.06.2020
1980 Rain 15 1006 77 10000 10.3 210 12:37 21.06.2020
1981 Rain 15 1006 77 10000 10.3 210 12:19 21.06.2020
1982 Clouds 14 1006 77 10000 6.7 210 11:42 21.06.2020
1983 Clouds 14 1006 77 10000 6.7 210 11:42 21.06.2020
1984 Clouds 14 1006 77 10000 6.7 210 11:23 21.06.2020
1985 Clouds 14 1006 77 10000 6.7 200 10:58 21.06.2020
1986 Clouds 14 1005 77 10000 7.2 200 10:39 21.06.2020
1987 Clouds 14 1005 77 10000 7.2 200 10:21 21.06.2020
1988 Clouds 14 1005 82 10000 4.6 190 09:44 21.06.2020
1989 Clouds 13 1005 82 10000 4.6 190 09:23 21.06.2020
1990 Clouds 13 1005 82 10000 6.2 190 08:57 21.06.2020
1991 Rain 13 1004 87 6000 5.7 150 08:39 21.06.2020
1992 Rain 13 1004 87 6000 5.7 150 08:20 21.06.2020
1993 Rain 13 1004 93 8000 3.1 110 07:42 21.06.2020
1994 Rain 13 1004 93 8000 3.1 110 07:24 21.06.2020
1995 Rain 13 1005 93 10000 3.1 100 06:51 21.06.2020
1996 Rain 13 1005 93 10000 4.1 80 06:28 21.06.2020
1997 Rain 13 1006 93 10000 3.6 90 05:57 21.06.2020
1998 Rain 13 1007 87 10000 4.1 90 04:36 21.06.2020
1999 Rain 13 1008 82 10000 3.1 110 03:19 21.06.2020
2000 Rain 13 1009 76 10000 4.1 130 02:36 21.06.2020
2001 Clouds 14 1010 67 10000 5.1 120 01:39 21.06.2020
2002 Clouds 14 1010 67 10000 5.1 120 01:19 21.06.2020
2003 Clouds 14 1010 62 10000 3.6 110 00:45 21.06.2020
2004 Clouds 15 1010 62 10000 3.6 110 00:25 21.06.2020
2005 Clouds 14 1011 59 10000 3.1 120 23:45 20.06.2020
2006 Clouds 15 1011 59 10000 3.1 120 23:22 20.06.2020
2007 Clouds 15 1011 59 10000 4.6 150 22:57 20.06.2020
2008 Clouds 15 1011 59 10000 3.1 130 22:39 20.06.2020
2009 Clouds 15 1011 59 10000 3.1 130 22:20 20.06.2020
2010 Clouds 15 1012 55 10000 4.6 160 21:58 20.06.2020
2011 Clouds 17 1012 55 10000 6.2 160 21:40 20.06.2020
2012 Clouds 17 1012 55 10000 6.2 160 21:20 20.06.2020
2013 Clouds 17 1012 55 10000 6.2 160 21:20 20.06.2020
2014 Clouds 17 1012 52 10000 6.7 160 20:58 20.06.2020
2015 Clouds 18 1012 48 10000 7.7 170 20:40 20.06.2020
2016 Clouds 18 1012 48 10000 7.7 170 20:20 20.06.2020
2017 Clouds 18 1012 48 10000 7.2 170 19:55 20.06.2020
2018 Clouds 18 1013 48 10000 7.2 170 19:37 20.06.2020
2019 Clouds 18 1013 48 10000 7.2 170 19:19 20.06.2020
2020 Clouds 18 1013 45 10000 8.7 150 18:42 20.06.2020
2021 Clouds 19 1013 45 10000 8.7 150 18:20 20.06.2020
2022 Clouds 19 1013 45 10000 7.7 170 17:57 20.06.2020
2023 Clouds 19 1013 46 10000 7.7 180 17:39 20.06.2020
2024 Clouds 20 1013 46 10000 7.7 180 17:20 20.06.2020
2025 Clouds 19 1013 55 10000 5.7 160 16:42 20.06.2020
2026 Clouds 19 1014 56 10000 5.1 180 16:19 20.06.2020
2027 Clouds 19 1014 56 10000 5.1 180 15:57 20.06.2020
2028 Clouds 19 1014 55 10000 3.1 200 15:39 20.06.2020
2029 Clouds 18 1014 55 10000 3.6 160 15:18 20.06.2020
2030 Clouds 19 1014 52 10000 4.6 170 14:42 20.06.2020
2031 Clouds 19 1014 55 10000 4.6 220 14:21 20.06.2020
2032 Clouds 19 1014 55 10000 5.7 220 13:42 20.06.2020
2033 Clouds 19 1014 55 10000 5.7 220 13:23 20.06.2020
2034 Clouds 18 1014 59 10000 5.1 230 12:57 20.06.2020
2035 Clouds 18 1014 59 10000 5.7 200 12:38 20.06.2020
2036 Clouds 18 1014 59 10000 5.7 200 12:19 20.06.2020
2037 Clouds 17 1014 63 10000 4.6 210 11:55 20.06.2020
2038 Clouds 17 1015 72 10000 3.6 200 11:36 20.06.2020
2039 Clouds 16 1015 77 10000 2.6 200 11:18 20.06.2020
2040 Clouds 16 1014 77 10000 3.1 190 10:42 20.06.2020
2041 Clouds 16 1014 77 10000 3.1 190 10:20 20.06.2020
2042 Clouds 15 1014 82 10000 3.1 220 09:43 20.06.2020
2043 Clouds 14 1014 82 10000 3.1 220 09:25 20.06.2020
2044 Clouds 13 1014 87 10000 2.6 220 08:59 20.06.2020
2045 -273 0 0 0 0 0 08:59 20.06.2020
2046 Clouds 13 1014 87 10000 2.6 240 08:40 20.06.2020
2047 Clouds 13 1014 87 10000 2.6 240 08:22 20.06.2020
2048 Clouds 12 1014 93 10000 2.1 240 07:51 20.06.2020
2049 Clouds 12 1014 93 10000 2.1 240 07:51 20.06.2020
2050 Clouds 12 1014 87 10000 2.1 250 07:26 20.06.2020
2051 Clouds 12 1013 87 10000 2.1 250 06:49 20.06.2020
2052 Clouds 12 1013 87 10000 2.1 250 06:22 20.06.2020
2053 Rain 12 1013 87 10000 4.1 240 05:48 20.06.2020
2054 Clouds 13 1012 87 10000 3.1 250 04:29 20.06.2020
2055 Clouds 14 1011 87 10000 2.1 250 01:58 20.06.2020
2056 Clouds 14 1011 87 10000 3.1 250 01:40 20.06.2020
2057 Clouds 14 1011 87 10000 2.6 240 00:49 20.06.2020
2058 Rain 14 1011 93 10000 2.1 270 00:20 20.06.2020
2059 Rain 15 1010 87 10000 2.1 280 23:46 19.06.2020
2060 Rain 15 1010 87 10000 2.1 280 23:20 19.06.2020
2061 Rain 15 1010 87 10000 2.6 290 22:56 19.06.2020
2062 Rain 15 1009 87 10000 2.6 300 22:38 19.06.2020
2063 Rain 16 1009 87 10000 2.6 300 22:20 19.06.2020
2064 Rain 17 1009 87 10000 2.6 310 21:55 19.06.2020
2065 Rain 16 1009 87 10000 2.1 310 21:37 19.06.2020
2066 Rain 17 1009 87 10000 2.1 310 21:18 19.06.2020
2067 Rain 17 1009 82 10000 1.5 0 20:56 19.06.2020
2068 Rain 17 1009 77 10000 1.5 0 20:38 19.06.2020
2069 Rain 17 1009 77 10000 1.5 0 20:20 19.06.2020
2070 Rain 17 1009 82 10000 2.6 230 19:54 19.06.2020
2071 Rain 17 1009 82 10000 4.6 220 19:36 19.06.2020
2072 Rain 17 1009 87 10000 4.6 220 19:18 19.06.2020
2073 Rain 18 1008 72 5000 2.6 120 18:40 19.06.2020
2074 Rain 18 1008 72 5000 2.6 120 18:21 19.06.2020
2075 Rain 18 1008 63 10000 4.1 60 17:42 19.06.2020
2076 Rain 19 1008 63 10000 4.1 60 17:23 19.06.2020
2077 Clouds 19 1008 68 10000 4.1 60 16:58 19.06.2020
2078 Clouds 19 1008 63 10000 2.1 20 16:40 19.06.2020
2079 Clouds 19 1008 63 10000 2.1 20 16:22 19.06.2020
2080 Clouds 19 1009 64 10000 3.6 40 15:47 19.06.2020
2081 Clouds 19 1009 64 10000 3.6 40 15:27 19.06.2020
2082 Clouds 18 1009 68 10000 3.1 80 14:58 19.06.2020
2083 Clouds 18 1009 68 10000 3.6 70 14:40 19.06.2020
2084 Clouds 18 1009 68 10000 3.6 70 14:21 19.06.2020
2085 Clouds 17 1009 72 10000 4.1 40 13:58 19.06.2020
2086 Clouds 17 1009 77 10000 4.6 50 13:40 19.06.2020
2087 Clouds 17 1009 77 10000 4.6 50 13:22 19.06.2020
2088 Clouds 16 1010 87 10000 3.6 50 12:45 19.06.2020
2089 Clouds 14 1010 87 10000 3.6 50 12:22 19.06.2020
2090 Clouds 14 1010 87 10000 5.1 60 11:56 19.06.2020
2091 Clouds 14 1010 87 10000 4.1 70 11:36 19.06.2020
2092 Clouds 13 1010 87 10000 3.6 70 11:18 19.06.2020
2093 Clouds 13 1010 87 10000 4.6 80 10:41 19.06.2020
2094 Clouds 13 1010 87 10000 4.6 80 10:21 19.06.2020
2095 Clouds 13 1010 87 10000 4.1 80 09:55 19.06.2020
2096 Clouds 12 1010 93 10000 3.6 80 09:37 19.06.2020
2097 Clouds 12 1010 93 10000 3.6 80 09:18 19.06.2020
2098 Clouds 12 1010 93 7000 3.6 80 08:41 19.06.2020
2099 Clouds 12 1010 93 7000 3.6 80 08:23 19.06.2020
2100 Clouds 12 1010 93 10000 4.6 80 07:41 19.06.2020
2101 Clouds 12 1010 93 10000 4.6 80 07:22 19.06.2020
2102 Clouds 12 1010 93 10000 4.6 60 06:52 19.06.2020
2103 Clouds 12 1010 93 10000 5.1 90 06:22 19.06.2020
2104 Rain 12 1011 87 10000 4.6 80 05:32 19.06.2020
2105 Rain 13 1011 87 10000 3.6 60 03:50 19.06.2020
2106 Rain 13 1011 87 10000 5.1 70 02:22 19.06.2020
2107 Clouds 13 1012 76 10000 5.7 70 00:45 19.06.2020
2108 Clouds 13 1012 76 10000 4.6 70 00:22 19.06.2020
2109 Rain 13 1012 76 10000 5.7 70 00:22 19.06.2020
2110 Clouds 14 1012 76 10000 4.6 70 23:58 18.06.2020
2111 Clouds 14 1012 76 10000 4.6 80 23:39 18.06.2020
2112 Clouds 14 1012 76 10000 4.6 80 23:21 18.06.2020
2113 Rain 14 1012 76 10000 4.6 70 22:41 18.06.2020
2114 Clouds 14 1012 76 10000 4.6 70 22:20 18.06.2020
2115 Clouds 14 1012 72 10000 7.2 70 21:57 18.06.2020
2116 Clouds 15 1012 72 10000 7.2 60 21:38 18.06.2020
2117 Clouds 15 1011 72 10000 6.7 70 21:19 18.06.2020
2118 Clouds 16 1011 67 10000 6.2 50 20:41 18.06.2020
2119 Clouds 17 1011 67 10000 6.2 50 20:22 18.06.2020
2120 Clouds 18 1011 63 10000 6.7 70 19:58 18.06.2020
2121 Clouds 18 1011 63 10000 5.7 70 19:40 18.06.2020
2122 Clouds 19 1011 60 10000 5.7 60 19:20 18.06.2020
2123 Clouds 20 1012 56 10000 6.2 90 18:41 18.06.2020
2124 Clouds 20 1012 56 10000 6.2 90 18:23 18.06.2020
2125 Clouds 19 1012 59 10000 6.2 70 17:55 18.06.2020
2126 Clouds 19 1012 56 10000 5.1 80 17:37 18.06.2020
2127 Clouds 19 1012 52 10000 6.2 90 17:19 18.06.2020
2128 Clouds 20 1012 46 10000 6.7 90 16:43 18.06.2020
2129 Clouds 20 1012 46 10000 6.7 90 16:25 18.06.2020
2130 Clouds 20 1012 46 10000 6.7 90 16:25 18.06.2020
2131 Clouds 20 1012 49 10000 6.7 90 15:58 18.06.2020
2132 Clouds 20 1012 52 10000 5.7 100 15:39 18.06.2020
2133 Clouds 20 1012 52 10000 5.7 100 15:20 18.06.2020
2134 Clouds 20 1013 56 10000 5.7 90 14:56 18.06.2020
2135 Clouds 20 1013 56 10000 5.7 70 14:38 18.06.2020
2136 Clouds 20 1013 56 10000 5.7 70 14:20 18.06.2020
2137 Clouds 20 1013 52 10000 5.1 70 13:47 18.06.2020
2138 Clouds 20 1013 56 10000 4.6 70 13:28 18.06.2020
2139 Clouds 19 1013 55 10000 4.1 70 12:57 18.06.2020
2140 Clouds 18 1013 67 10000 5.1 80 12:39 18.06.2020
2141 Clouds 17 1013 67 10000 5.1 80 12:20 18.06.2020
2142 Clouds 17 1014 63 10000 4.6 80 11:57 18.06.2020
2143 Clouds 16 1014 67 10000 4.1 90 11:37 18.06.2020
2144 Clouds 16 1014 67 10000 4.1 90 11:18 18.06.2020
2145 Clouds 14 1014 76 10000 3.6 80 10:39 18.06.2020
2146 Clouds 14 1014 82 10000 4.1 80 10:18 18.06.2020
2147 Clouds 13 1014 87 10000 4.6 90 09:45 18.06.2020
2148 Clouds 12 1014 87 10000 4.6 90 09:27 18.06.2020
2149 Clouds 12 1014 87 7000 4.1 70 08:57 18.06.2020
2150 Clouds 12 1014 87 8000 4.1 70 08:36 18.06.2020
2151 Clouds 11 1014 87 8000 4.1 70 08:18 18.06.2020
2152 Clouds 11 1014 87 9000 4.1 60 07:44 18.06.2020
2153 Clouds 11 1014 87 9000 4.1 60 07:23 18.06.2020
2154 Clouds 11 1014 93 10000 3.6 90 06:37 18.06.2020
2155 Clouds 11 1015 93 8000 3.1 70 04:27 18.06.2020
2156 Clouds 12 1015 82 10000 4.1 80 03:31 18.06.2020
2157 Clouds 14 1015 71 10000 4.1 50 01:43 18.06.2020
2158 Clouds 14 1015 71 10000 4.1 50 01:18 18.06.2020
2159 Clouds 14 1015 71 10000 4.1 50 00:49 18.06.2020
2160 Clouds 15 1015 67 10000 4.1 50 00:25 18.06.2020
2161 Clouds 15 1015 67 10000 3.6 50 23:49 17.06.2020
2162 Clouds 16 1014 63 10000 3.6 60 23:23 17.06.2020
2163 Clouds 17 1014 63 10000 4.1 60 22:59 17.06.2020
2164 Clouds 17 1014 59 10000 5.1 70 22:40 17.06.2020
2165 Clouds 18 1014 59 10000 5.1 70 22:21 17.06.2020
2166 Clouds 19 1014 59 10000 5.1 70 21:58 17.06.2020
2167 Clouds 19 1013 60 10000 5.7 70 21:39 17.06.2020
2168 Rain 19 1013 60 10000 5.7 70 21:20 17.06.2020
2169 Rain 20 1013 56 10000 5.1 60 20:55 17.06.2020
2170 Clouds 20 1013 56 10000 3.1 50 20:36 17.06.2020
2171 Clouds 21 1013 56 10000 3.1 50 20:18 17.06.2020
2172 Rain 21 1013 64 10000 3.1 40 19:41 17.06.2020
2173 Rain 22 1013 64 10000 3.1 40 19:19 17.06.2020
2174 Clouds 21 1014 64 10000 3.1 60 18:46 17.06.2020
2175 Clouds 21 1014 64 10000 3.1 60 18:27 17.06.2020
2176 Rain 21 1014 64 10000 2.6 60 17:47 17.06.2020
2177 Rain 21 1014 68 10000 3.6 50 17:23 17.06.2020
2178 Rain 21 1014 64 10000 3.1 70 16:58 17.06.2020
2179 Clouds 20 1014 64 10000 2.6 80 16:40 17.06.2020
2180 Clouds 20 1014 64 10000 2.6 80 16:21 17.06.2020
2181 Clouds 20 1014 64 10000 4.1 50 15:58 17.06.2020
2182 Clouds 20 1014 64 10000 4.1 70 15:39 17.06.2020
2183 Clouds 20 1014 64 10000 4.1 70 15:20 17.06.2020
2184 Clouds 20 1014 68 10000 4.6 50 14:58 17.06.2020
2185 Clouds 19 1014 72 10000 3.6 50 14:39 17.06.2020
2186 Clouds 19 1014 72 10000 3.6 50 14:19 17.06.2020
2187 Clouds 19 1014 72 10000 3.6 70 13:56 17.06.2020
2188 Clouds 19 1015 72 10000 4.1 50 13:38 17.06.2020
2189 Clouds 18 1015 72 10000 4.1 50 13:19 17.06.2020
2190 Clouds 17 1015 72 10000 5.7 90 12:42 17.06.2020
2191 Clouds 17 1015 72 10000 5.7 90 12:42 17.06.2020
2192 Clouds 17 1015 72 10000 5.7 90 12:23 17.06.2020
2193 Clouds 16 1015 77 10000 6.2 90 11:57 17.06.2020
2194 Clouds 16 1015 77 10000 4.6 90 11:37 17.06.2020
2195 Clouds 16 1015 82 10000 4.1 80 11:18 17.06.2020
2196 Clouds 15 1015 82 10000 3.1 70 10:38 17.06.2020
2197 Clouds 15 1015 82 10000 3.1 70 10:19 17.06.2020
2198 Clouds 15 1015 82 10000 3.1 70 10:19 17.06.2020
2199 Clouds 15 1015 82 10000 3.1 70 09:57 17.06.2020
2200 Clouds 14 1015 82 10000 3.1 60 09:39 17.06.2020
2201 Clouds 14 1015 82 10000 3.1 60 09:20 17.06.2020
2202 Rain 14 1015 87 10000 2.1 60 08:45 17.06.2020
2203 Clouds 14 1015 87 10000 2.1 60 08:20 17.06.2020
2204 Clouds 14 1014 87 10000 1.5 0 07:55 17.06.2020
2205 Clouds 14 1014 87 10000 2.1 80 07:37 17.06.2020
2206 Clouds 14 1014 87 10000 2.6 90 07:18 17.06.2020
2207 Clouds 14 1014 87 10000 3.1 70 06:41 17.06.2020
2208 Clouds 14 1014 87 10000 3.1 70 06:22 17.06.2020
2209 Clouds 14 1014 87 10000 2.6 80 05:56 17.06.2020
2210 Rain 14 1014 93 10000 3.1 60 04:39 17.06.2020
2211 Clouds 15 1014 82 10000 3.1 70 02:41 17.06.2020
2212 Rain 16 1014 87 10000 1.5 0 00:53 17.06.2020
2213 Rain 16 1014 87 10000 1.5 230 00:30 17.06.2020
2214 Rain 16 1014 87 10000 1 0 00:00 17.06.2020
2215 Rain 16 1014 87 10000 1.5 240 23:41 16.06.2020
2216 Rain 16 1014 87 10000 1.5 240 23:22 16.06.2020
2217 Rain 17 1014 88 10000 3.1 230 22:57 16.06.2020
2218 Rain 17 1014 82 10000 3.6 230 22:39 16.06.2020
2219 Clouds 18 1014 82 10000 3.6 230 22:19 16.06.2020
2220 Clouds 18 1014 82 10000 4.6 220 21:58 16.06.2020
2221 Rain 19 1013 77 10000 4.1 230 21:40 16.06.2020
2222 Rain 19 1013 77 10000 4.1 230 21:21 16.06.2020
2223 Clouds 19 1013 64 10000 2.1 310 20:43 16.06.2020
2224 Clouds 19 1013 64 10000 2.1 310 20:23 16.06.2020
2225 Clouds 20 1013 64 10000 2.1 300 19:58 16.06.2020
2226 Clouds 20 1013 64 10000 3.1 310 19:40 16.06.2020
2227 Clouds 20 1013 64 10000 3.1 310 19:22 16.06.2020
2228 Clouds 21 1013 60 10000 1.5 0 18:59 16.06.2020
2229 Clouds 21 1014 60 10000 1.5 0 18:40 16.06.2020
2230 Clouds 21 1014 60 10000 1.5 0 18:21 16.06.2020
2231 Clouds 21 1014 60 10000 1.5 0 17:56 16.06.2020
2232 Clouds 21 1014 60 10000 1 0 17:37 16.06.2020
2233 Clouds 22 1014 60 10000 1 0 17:19 16.06.2020
2234 Clouds 21 1014 60 10000 1.5 0 16:55 16.06.2020
2235 Clouds 21 1014 64 10000 1.5 0 16:37 16.06.2020
2236 Clouds 21 1014 64 10000 1.5 0 16:18 16.06.2020
2237 Clouds 21 1014 64 10000 1.5 0 15:56 16.06.2020
2238 Clouds 21 1015 68 10000 1.5 0 15:37 16.06.2020
2239 Clouds 20 1015 68 10000 1.5 0 15:19 16.06.2020
2240 Clouds 20 1015 72 10000 2.1 90 14:42 16.06.2020
2241 Clouds 19 1015 72 10000 2.1 90 14:23 16.06.2020
2242 Clouds 19 1015 72 10000 2.1 0 13:50 16.06.2020
2243 Clouds 17 1015 77 10000 2.6 90 13:27 16.06.2020
2244 Clouds 17 1015 82 10000 1 0 12:57 16.06.2020
2245 Clouds 16 1016 82 10000 1 0 12:39 16.06.2020
2246 Clouds 16 1016 82 10000 1 0 12:21 16.06.2020
2247 Clouds 16 1016 82 10000 0.5 0 11:55 16.06.2020
2248 Clouds 16 1016 82 10000 1 0 11:37 16.06.2020
2249 Clouds 16 1016 82 10000 1 0 11:19 16.06.2020
2250 Clouds 16 1016 82 10000 2.6 100 10:43 16.06.2020
2251 Clouds 16 1016 82 10000 2.6 100 10:21 16.06.2020
2252 Clouds 15 1016 87 10000 2.1 90 09:58 16.06.2020
2253 Clouds 15 1016 87 10000 2.1 90 09:58 16.06.2020
2254 Clouds 15 1016 87 10000 2.1 90 09:58 16.06.2020
2255 Clouds 15 1016 87 10000 2.1 90 09:58 16.06.2020
2256 Clouds 15 1016 87 10000 2.6 70 09:40 16.06.2020
2257 Clouds 15 1016 87 10000 2.6 70 09:21 16.06.2020
2258 Clouds 15 1016 87 10000 2.6 70 09:21 16.06.2020
2259 Clouds 15 1015 87 10000 2.6 70 08:44 16.06.2020
2260 Clouds 15 1015 87 10000 2.6 70 08:25 16.06.2020
2261 Clouds 15 1015 87 10000 2.1 80 07:50 16.06.2020
2262 Clouds 14 1015 93 10000 2.1 80 07:27 16.06.2020
2263 Clouds 14 1015 93 10000 2.1 80 07:27 16.06.2020
2264 Clouds 14 1015 93 9000 2.6 60 06:48 16.06.2020
2265 Haze 14 1015 93 5000 2.6 40 06:26 16.06.2020
2266 Clouds 14 1015 93 8000 2.1 60 05:38 16.06.2020
2267 Clouds 15 1016 87 10000 1.5 50 04:31 16.06.2020
2268 Clouds 15 1016 87 10000 2.6 90 02:58 16.06.2020
2269 Clouds 14 1016 93 10000 1.5 80 01:58 16.06.2020
2270 Clouds 14 1016 93 10000 3.1 70 01:23 16.06.2020
2271 Clouds 15 1016 87 10000 2.6 60 00:43 16.06.2020
2272 Clouds 15 1016 87 10000 2.6 60 00:19 16.06.2020
2273 Clouds 16 1016 87 10000 4.6 70 23:41 15.06.2020
2274 Clouds 16 1016 87 10000 4.6 70 23:22 15.06.2020
2275 Clouds 17 1016 82 10000 4.6 70 22:55 15.06.2020
2276 Clouds 17 1016 82 10000 4.1 60 22:36 15.06.2020
2277 Rain 17 1016 77 10000 4.1 70 22:18 15.06.2020
2278 Rain 18 1016 77 10000 4.1 70 21:55 15.06.2020
2279 Clouds 18 1015 77 10000 3.6 70 21:36 15.06.2020
2280 Clouds 18 1015 77 10000 3.6 70 21:18 15.06.2020
2281 Clouds 18 1015 77 10000 3.6 70 21:18 15.06.2020
2282 Clouds 19 1015 72 10000 3.6 50 20:54 15.06.2020
2283 Clouds 19 1015 77 10000 3.1 60 20:36 15.06.2020
2284 Clouds 19 1015 77 10000 3.1 60 20:18 15.06.2020
2285 Clouds 19 1016 72 10000 3.6 60 19:41 15.06.2020
2286 Clouds 19 1016 72 10000 3.6 60 19:22 15.06.2020
2287 Clouds 19 1016 72 10000 3.1 80 18:58 15.06.2020
2288 Clouds 19 1016 72 10000 3.1 80 18:58 15.06.2020
2289 Clouds 19 1012 84 0 0.89 47 18:40 15.06.2020
2290 Clouds 20 1016 72 10000 3.6 60 18:21 15.06.2020
2291 Clouds 19 1016 72 10000 4.6 70 17:58 15.06.2020
2292 Clouds 19 1016 72 10000 3.1 90 17:40 15.06.2020
2293 Clouds 19 1016 72 10000 3.1 90 17:19 15.06.2020
2294 Clouds 18 1016 72 10000 4.6 70 16:54 15.06.2020
2295 Clouds 18 1016 72 10000 4.6 50 16:36 15.06.2020
2296 Clouds 19 1016 72 10000 4.1 60 16:18 15.06.2020
2297 Clouds 19 1016 72 10000 3.6 90 15:41 15.06.2020
2298 Clouds 19 1016 72 10000 3.6 90 15:20 15.06.2020
2299 Clouds 19 1016 72 10000 3.6 90 15:20 15.06.2020
2300 Clouds 19 1017 72 10000 3.6 90 14:57 15.06.2020
2301 Clouds 18 1017 72 10000 3.1 70 14:39 15.06.2020
2302 Clouds 18 1017 77 10000 4.1 80 14:19 15.06.2020
2303 Clouds 18 1017 77 10000 4.1 80 13:56 15.06.2020
2304 Clouds 18 1017 77 10000 4.6 80 13:37 15.06.2020
2305 Clouds 18 1017 77 10000 4.1 70 13:18 15.06.2020
2306 Clouds 16 1017 82 10000 5.1 60 12:41 15.06.2020
2307 Clouds 16 1017 82 10000 5.1 60 12:21 15.06.2020
2308 Clouds 16 1017 82 10000 2.6 80 11:46 15.06.2020
2309 Clouds 16 1017 82 10000 2.6 80 11:26 15.06.2020
2310 Clouds 15 1017 87 10000 2.1 90 10:57 15.06.2020
2311 Clouds 15 1017 87 10000 2.1 60 10:38 15.06.2020
2312 Clouds 15 1017 87 10000 2.1 90 10:19 15.06.2020
2313 Clouds 15 1017 87 10000 2.1 80 09:42 15.06.2020
2314 Clouds 15 1017 87 10000 2.1 80 09:22 15.06.2020
2315 Clouds 14 1016 93 10000 2.1 30 08:45 15.06.2020
2316 Clouds 14 1016 93 10000 2.1 30 08:26 15.06.2020
2317 Clouds 14 1016 93 10000 3.1 80 07:52 15.06.2020
2318 Clouds 14 1016 93 10000 3.6 70 07:34 15.06.2020
2319 Clouds 14 1016 93 10000 3.1 60 06:57 15.06.2020
2320 Clouds 14 1016 93 10000 3.1 60 06:57 15.06.2020
2321 Clouds 14 1016 93 10000 3.1 60 06:57 15.06.2020
2322 Clouds 14 1016 87 10000 3.6 80 06:27 15.06.2020
2323 Clouds 14 1016 87 9000 4.1 80 05:50 15.06.2020
2324 Clouds 15 1016 87 9000 4.1 80 05:28 15.06.2020
2325 Clouds 15 1016 87 10000 3.1 80 04:22 15.06.2020
2326 Clouds 15 1016 87 8000 2.6 70 03:48 15.06.2020
2327 Clouds 15 1016 87 8000 2.6 70 03:48 15.06.2020
2328 Clouds 15 1016 93 9000 3.6 70 02:56 15.06.2020
2329 Clouds 15 1016 87 10000 3.1 80 02:20 15.06.2020
2330 Clouds 16 1016 87 10000 3.6 80 01:40 15.06.2020
2331 Clouds 16 1016 87 10000 3.6 80 01:40 15.06.2020
2332 Clouds 16 1016 87 10000 3.6 80 01:40 15.06.2020
2333 Clouds 16 1016 87 10000 3.6 80 01:22 15.06.2020
2334 Clouds 16 1016 87 10000 4.6 50 00:41 15.06.2020
2335 Clouds 16 1016 87 10000 4.6 50 00:22 15.06.2020
2336 Clouds 17 1016 82 10000 4.1 50 23:55 14.06.2020
2337 Clouds 17 1015 88 10000 4.1 60 23:36 14.06.2020
2338 Clouds 17 1015 88 10000 4.1 60 23:18 14.06.2020
2339 Clouds 18 1015 82 10000 4.6 60 22:55 14.06.2020
2340 Clouds 18 1015 72 10000 4.1 70 22:37 14.06.2020
2341 Clouds 19 1015 72 10000 4.1 70 22:18 14.06.2020
2342 Clouds 20 1015 68 10000 5.1 80 21:55 14.06.2020
2343 Clouds 20 1015 64 10000 4.1 70 21:36 14.06.2020
2344 Clouds 21 1015 64 10000 4.1 70 21:18 14.06.2020
2345 Clouds 21 1015 60 10000 4.1 80 20:40 14.06.2020
2346 Clouds 22 1015 60 10000 4.1 80 20:21 14.06.2020
2347 Rain 22 1014 60 10000 3.1 70 19:59 14.06.2020
2348 Rain 22 1014 60 10000 3.1 70 19:59 14.06.2020
2349 Rain 22 1014 60 10000 3.1 70 19:59 14.06.2020
2350 Rain 22 1014 64 10000 3.1 50 19:40 14.06.2020
2351 Clouds 21 1014 64 10000 3.1 50 19:20 14.06.2020
2352 Clouds 21 1015 64 10000 4.1 60 18:58 14.06.2020
2353 Clouds 21 1015 64 10000 3.1 60 18:40 14.06.2020
2354 Clouds 21 1015 64 10000 3.1 60 18:21 14.06.2020
2355 Clouds 21 1015 64 10000 3.6 50 17:58 14.06.2020
2356 Clouds 21 1015 64 10000 3.1 90 17:39 14.06.2020
2357 Clouds 21 1015 64 10000 3.1 90 17:20 14.06.2020
2358 Clouds 20 1016 72 10000 2.6 80 16:57 14.06.2020
2359 Clouds 20 1016 72 10000 2.1 90 16:38 14.06.2020
2360 Clouds 19 1016 77 10000 4.1 100 16:19 14.06.2020
2361 Clouds 18 1016 77 10000 3.6 80 15:41 14.06.2020
2362 Clouds 19 1016 77 10000 3.6 80 15:41 14.06.2020
2363 Clouds 18 1016 77 10000 3.6 90 15:20 14.06.2020
2364 -273 0 0 0 0 0 14:59 14.06.2020
2365 Clouds 18 1016 77 10000 4.6 80 14:41 14.06.2020
2366 Clouds 18 1016 77 10000 4.6 80 14:22 14.06.2020
2367 Clouds 18 1016 77 10000 4.6 100 13:58 14.06.2020
2368 Clouds 17 1017 82 10000 5.7 90 13:39 14.06.2020
2369 Clouds 17 1017 82 10000 5.7 90 13:21 14.06.2020
2370 Clouds 17 1017 82 10000 5.7 90 13:21 14.06.2020
2371 Clouds 17 1017 77 10000 5.1 90 12:57 14.06.2020
2372 Clouds 17 1017 82 10000 5.7 80 12:38 14.06.2020
2373 Clouds 15 1017 82 10000 5.7 80 12:18 14.06.2020
2374 Clouds 15 1016 82 10000 4.6 90 11:56 14.06.2020
2375 Clouds 15 1016 82 10000 4.6 70 11:38 14.06.2020
2376 Clouds 14 1016 87 10000 5.1 70 11:18 14.06.2020
2377 Clouds 14 1016 87 10000 3.6 80 10:42 14.06.2020
2378 Clouds 14 1016 87 10000 3.6 70 10:19 14.06.2020
2379 Clouds 14 1016 87 10000 3.6 70 09:48 14.06.2020
2380 Clouds 13 1016 93 7000 3.1 70 09:25 14.06.2020
2381 Clouds 13 1016 93 10000 2.1 60 08:57 14.06.2020
2382 Mist 13 1016 93 4700 3.1 90 08:39 14.06.2020
2383 Haze 13 1016 93 4000 3.1 90 08:18 14.06.2020
2384 Haze 13 1016 93 4000 3.1 90 07:48 14.06.2020
2385 Clouds 13 1016 93 7000 2.1 80 07:30 14.06.2020
2386 Clouds 13 1015 93 10000 4.1 60 06:26 14.06.2020
2387 Clouds 13 1015 93 8000 3.1 60 05:40 14.06.2020
2388 Haze 13 1016 93 4400 2.6 60 04:53 14.06.2020
2389 Haze 13 1016 93 4300 2.6 70 04:28 14.06.2020
2390 Clouds 13 1015 93 10000 3.1 70 02:56 14.06.2020
2391 Clouds 13 1015 93 10000 4.1 60 02:27 14.06.2020
2392 Clouds 13 1015 93 10000 4.6 70 01:36 14.06.2020
2393 Clouds 14 1015 87 10000 3.6 60 00:55 14.06.2020
2394 Clouds 14 1015 87 10000 4.6 70 00:36 14.06.2020
2395 Clouds 14 1015 87 10000 4.6 70 00:18 14.06.2020
2396 Clouds 14 1015 87 10000 3.6 70 23:41 13.06.2020
2397 Clouds 14 1015 87 10000 3.6 70 23:23 13.06.2020
2398 Clouds 14 1014 87 10000 4.6 60 22:56 13.06.2020
2399 Clouds 14 1014 87 10000 4.1 70 22:36 13.06.2020
2400 Clouds 14 1014 87 10000 4.1 70 22:18 13.06.2020
2401 Clouds 14 1000 10 0 3.45 62 21:43 13.06.2020
2402 Clouds 14 1014 87 10000 5.1 70 21:24 13.06.2020
2403 Clouds 14 1013 87 10000 5.7 70 20:59 13.06.2020
2404 Clouds 15 1013 87 10000 5.1 70 20:41 13.06.2020
2405 Clouds 15 1013 87 10000 5.1 70 20:19 13.06.2020
2406 Rain 15 1013 82 10000 6.2 60 19:42 13.06.2020
2407 Rain 15 1013 87 10000 4.6 60 19:20 13.06.2020
2408 Rain 15 1013 87 10000 4.6 60 18:59 13.06.2020
2409 Rain 15 1013 87 8000 4.1 70 18:40 13.06.2020
2410 Clouds 15 1013 87 8000 4.1 70 18:20 13.06.2020
2411 Rain 14 1013 93 7000 3.6 80 17:57 13.06.2020
2412 Clouds 14 1013 93 10000 4.6 90 17:39 13.06.2020
2413 Clouds 14 1013 93 10000 4.6 90 17:20 13.06.2020
2414 Rain 14 1013 93 9000 5.1 90 16:55 13.06.2020
2415 Rain 14 1013 87 8000 3.6 90 16:37 13.06.2020
2416 Rain 14 1013 87 8000 3.6 90 16:37 13.06.2020
2417 Rain 14 1013 87 8000 3.6 90 16:18 13.06.2020
2418 Rain 14 1013 87 6000 5.1 60 15:42 13.06.2020
2419 Rain 14 1013 87 6000 5.1 60 15:22 13.06.2020
2420 Clouds 14 1013 87 10000 5.7 60 14:45 13.06.2020
2421 Clouds 15 1013 87 10000 5.7 60 14:25 13.06.2020
2422 Rain 15 1013 87 10000 5.7 80 13:58 13.06.2020
2423 Clouds 15 1013 87 10000 6.7 90 13:39 13.06.2020
2424 Clouds 15 1013 87 10000 6.7 90 13:20 13.06.2020
2425 Clouds 15 1012 87 10000 4.6 80 12:43 13.06.2020
2426 Clouds 15 1012 87 10000 4.6 80 12:43 13.06.2020
2427 Clouds 15 1012 87 10000 4.6 80 12:25 13.06.2020
2428 Clouds 14 1012 87 10000 6.2 70 11:57 13.06.2020
2429 Clouds 14 1012 87 10000 6.2 60 11:38 13.06.2020
2430 Clouds 14 1012 87 10000 6.2 60 11:19 13.06.2020
2431 Clouds 13 1012 93 10000 5.1 60 10:55 13.06.2020
2432 Clouds 13 1012 93 10000 4.6 70 10:37 13.06.2020
2433 Rain 13 1012 93 8000 4.6 70 10:18 13.06.2020
2434 Clouds 13 1012 93 10000 5.1 60 09:42 13.06.2020
2435 Clouds 12 1012 93 10000 5.1 60 09:20 13.06.2020
2436 Clouds 12 1011 87 10000 5.7 80 08:47 13.06.2020
2437 Clouds 12 1011 87 10000 5.7 80 08:28 13.06.2020
2438 Clouds 12 1011 87 10000 3.1 80 07:50 13.06.2020
2439 Clouds 12 1011 87 10000 3.1 80 07:27 13.06.2020
2440 Clouds 12 1011 93 10000 5.1 80 06:47 13.06.2020
2441 Clouds 12 1011 93 10000 5.1 80 06:27 13.06.2020
2442 Clouds 12 1011 93 10000 5.7 80 05:36 13.06.2020
2443 Clouds 12 1011 93 10000 4.1 70 04:59 13.06.2020
2444 Clouds 12 1011 93 10000 5.7 70 03:46 13.06.2020
2445 Clouds 12 1011 93 10000 5.7 60 02:53 13.06.2020
2446 Clouds 12 1011 93 10000 5.7 60 02:25 13.06.2020
2447 Clouds 12 1012 93 9000 5.1 60 01:26 13.06.2020
2448 Clouds 12 1011 93 10000 5.7 60 00:58 13.06.2020
2449 Clouds 12 1011 82 10000 7.2 60 00:38 13.06.2020
2450 Clouds 13 1011 82 10000 7.2 60 00:19 13.06.2020
2451 Clouds 13 1012 87 10000 3.6 70 23:40 12.06.2020
2452 Rain 13 1012 87 10000 4.6 50 23:19 12.06.2020
2453 Rain 13 1012 87 10000 5.1 60 22:56 12.06.2020
2454 Rain 13 1012 87 10000 5.1 60 22:37 12.06.2020
2455 Rain 13 1012 87 10000 4.6 70 22:18 12.06.2020
2456 Rain 13 1012 82 10000 5.1 60 21:44 12.06.2020
2457 Rain 13 1012 82 10000 5.1 60 21:24 12.06.2020
2458 Rain 14 1012 82 10000 7.2 80 20:57 12.06.2020
2459 Rain 14 1012 72 10000 6.7 70 20:38 12.06.2020
2460 Rain 14 1012 72 10000 6.7 70 20:20 12.06.2020
2461 Clouds 15 1012 63 10000 7.7 70 19:44 12.06.2020
2462 Rain 16 1012 63 10000 7.7 70 19:22 12.06.2020
2463 Rain 16 1012 59 10000 9.3 60 18:59 12.06.2020
2464 Rain 16 1012 59 10000 8.7 80 18:37 12.06.2020
2465 Rain 17 1013 52 10000 8.7 80 18:18 12.06.2020
2466 Rain 17 1013 55 10000 8.7 90 17:44 12.06.2020
2467 Clouds 17 1013 55 10000 8.7 90 17:26 12.06.2020
2468 Clouds 17 1013 55 10000 8.2 90 16:47 12.06.2020
2469 Clouds 19 1013 52 10000 7.2 100 16:24 12.06.2020
2470 Clouds 19 1013 52 10000 8.2 70 15:56 12.06.2020
2471 Clouds 19 1014 49 10000 7.7 70 15:37 12.06.2020
2472 Clouds 20 1014 49 10000 7.7 70 15:18 12.06.2020
2473 Clouds 19 1014 52 10000 7.7 70 14:41 12.06.2020
2474 Clouds 19 1014 52 10000 7.7 70 14:22 12.06.2020
2475 Clouds 18 1015 52 10000 7.2 80 13:56 12.06.2020
2476 Clouds 18 1015 52 10000 7.2 80 13:56 12.06.2020
2477 Clouds 18 1015 55 10000 7.7 70 13:38 12.06.2020
2478 Clouds 18 1015 55 10000 7.7 70 13:18 12.06.2020
2479 Clouds 17 1016 63 10000 4.1 70 12:39 12.06.2020
2480 Clouds 16 1016 63 10000 7.2 70 12:19 12.06.2020
2481 Clouds 16 1016 63 10000 4.1 70 12:19 12.06.2020
2482 Clouds 15 1017 62 10000 6.7 70 11:44 12.06.2020
2483 Clouds 15 1017 62 10000 6.7 70 11:23 12.06.2020
2484 Clouds 15 1017 62 10000 4.6 70 10:56 12.06.2020
2485 Clouds 14 1017 67 10000 5.7 80 10:38 12.06.2020
2486 Clouds 14 1017 67 10000 5.7 80 10:19 12.06.2020
2487 Clouds 14 1017 71 10000 4.1 70 09:44 12.06.2020
2488 Clouds 13 1017 71 10000 4.1 70 09:20 12.06.2020
2489 Clouds 13 1018 71 10000 4.6 70 08:41 12.06.2020
2490 Clouds 13 1018 71 10000 4.6 70 08:23 12.06.2020
2491 Clouds 13 1018 66 10000 5.1 60 07:42 12.06.2020
2492 Clouds 13 1018 66 10000 5.1 60 07:24 12.06.2020
2493 Clouds 12 1018 62 10000 6.2 50 06:43 12.06.2020
2494 Clouds 13 1018 62 10000 6.2 50 06:22 12.06.2020
2495 Clouds 13 1018 66 10000 4.1 70 05:49 12.06.2020
2496 Clouds 13 1018 66 10000 3.1 70 05:24 12.06.2020
2497 Clouds 12 1020 66 10000 3.6 60 03:55 12.06.2020
2498 Clouds 13 1021 71 10000 4.6 50 02:43 12.06.2020
2499 Clouds 13 1021 76 10000 1.5 0 01:47 12.06.2020
2500 Clouds 13 1021 76 10000 1.5 110 01:19 12.06.2020
2501 Clouds 13 1022 76 10000 1 0 00:39 12.06.2020
2502 Clouds 13 1022 76 10000 1 0 00:39 12.06.2020
2503 Clouds 13 1022 76 10000 1 0 00:20 12.06.2020
2504 Clouds 13 1022 76 10000 2.1 70 23:57 11.06.2020
2505 Clouds 13 1022 76 10000 3.1 70 23:38 11.06.2020
2506 Clouds 13 1022 76 10000 3.1 70 23:19 11.06.2020
2507 Clouds 13 1022 71 10000 2.6 60 22:54 11.06.2020
2508 Clouds 13 1022 71 10000 2.1 50 22:36 11.06.2020
2509 Clouds 13 1022 71 10000 2.1 50 22:18 11.06.2020
2510 Rain 14 1023 67 10000 4.1 90 21:42 11.06.2020
2511 Rain 14 1023 67 10000 4.1 90 21:20 11.06.2020
2512 Rain 14 1023 67 10000 5.1 90 20:56 11.06.2020
2513 Clouds 14 1023 62 10000 6.2 90 20:38 11.06.2020
2514 Clouds 14 1023 62 10000 6.2 90 20:20 11.06.2020
2515 Clouds 15 1022 55 10000 6.7 70 19:42 11.06.2020
2516 Clouds 16 1022 55 10000 6.7 70 19:22 11.06.2020
2517 Clouds 16 1023 55 10000 6.7 80 18:44 11.06.2020
2518 Clouds 17 1023 55 10000 6.2 70 18:26 11.06.2020
2519 Clouds 17 1023 51 10000 8.2 70 17:59 11.06.2020
2520 Clouds 16 1023 51 10000 8.2 70 17:39 11.06.2020
2521 Clouds 16 1023 55 10000 7.2 60 17:20 11.06.2020
2522 Clouds 16 1024 55 10000 7.2 50 16:58 11.06.2020
2523 Clouds 16 1024 55 10000 7.2 50 16:40 11.06.2020
2524 Clouds 15 1024 54 10000 7.2 60 16:22 11.06.2020
2525 Clouds 15 1024 55 10000 7.7 50 15:56 11.06.2020
2526 Clouds 15 1024 55 10000 7.7 50 15:38 11.06.2020
2527 Clouds 15 1024 54 10000 7.2 70 15:19 11.06.2020
2528 Clouds 14 1025 58 10000 6.2 50 14:42 11.06.2020
2529 Clouds 13 1025 58 10000 6.7 70 14:21 11.06.2020
2530 Clouds 13 1025 62 10000 5.7 60 13:56 11.06.2020
2531 Clouds 13 1025 66 10000 6.7 70 13:37 11.06.2020
2532 Clouds 12 1025 66 10000 6.7 70 13:19 11.06.2020
2533 Clouds 12 1025 66 10000 7.2 70 12:55 11.06.2020
2534 Clouds 12 1024 66 10000 7.7 50 12:37 11.06.2020
2535 Clouds 12 1024 66 10000 7.7 50 12:18 11.06.2020
2536 Clouds 12 1024 66 10000 5.7 60 11:56 11.06.2020
2537 Clouds 12 1024 66 10000 5.7 60 11:37 11.06.2020
2538 Clouds 12 1010 75 0 4.02 84 11:18 11.06.2020
2539 Clouds 11 1024 71 10000 7.2 60 10:43 11.06.2020
2540 Clouds 11 1024 81 10000 6.7 60 10:20 11.06.2020
2541 Clouds 11 1024 76 10000 6.7 50 09:56 11.06.2020
2542 Clouds 11 1024 76 10000 6.7 50 09:38 11.06.2020
2543 Clouds 11 1024 76 10000 6.7 50 09:38 11.06.2020
2544 Clouds 10 1023 87 10000 7.2 60 09:20 11.06.2020
2545 Clouds 10 1023 81 10000 8.2 50 08:39 11.06.2020
2546 Clouds 10 1023 81 10000 6.7 60 08:19 11.06.2020
2547 Clouds 10 1023 81 10000 6.7 60 07:42 11.06.2020
2548 Clouds 10 1022 81 10000 5.7 50 07:24 11.06.2020
2549 Clouds 10 1022 81 10000 5.7 40 06:35 11.06.2020
2550 Clouds 9 1022 81 10000 4.6 50 05:57 11.06.2020
2551 Clouds 10 1021 81 10000 6.7 60 04:48 11.06.2020
2552 Clouds 10 1020 87 10000 6.7 60 03:25 11.06.2020
2553 Clouds 10 1019 87 10000 6.2 70 02:49 11.06.2020
2554 Rain 11 1018 81 10000 7.7 70 01:57 11.06.2020
2555 Clouds 11 1018 87 10000 7.7 60 01:35 11.06.2020
2556 Clouds 11 1017 87 10000 7.7 60 00:57 11.06.2020
2557 Clouds 11 1017 93 9000 7.2 60 00:39 11.06.2020
2558 Clouds 11 1017 93 9000 7.2 60 00:19 11.06.2020
2559 Clouds 12 1016 87 10000 7.2 50 23:41 10.06.2020
2560 Clouds 11 1016 87 10000 7.2 50 23:22 10.06.2020
2561 Clouds 11 1015 87 10000 6.7 60 22:54 10.06.2020
2562 Rain 12 1015 87 10000 7.2 60 22:36 10.06.2020
2563 Rain 12 1015 87 10000 7.2 60 22:18 10.06.2020
2564 Clouds 12 1014 87 10000 7.2 60 21:55 10.06.2020
2565 Clouds 12 1014 87 10000 7.2 60 21:37 10.06.2020
2566 Rain 11 1014 93 10000 7.2 50 21:18 10.06.2020
2567 Rain 11 1014 93 5000 6.2 60 20:54 10.06.2020
2568 Rain 12 1013 93 10000 6.2 60 20:36 10.06.2020
2569 Rain 12 1013 93 10000 6.2 60 20:18 10.06.2020
2570 Rain 12 1013 93 10000 5.7 50 19:38 10.06.2020
2571 Rain 12 1013 93 7000 7.2 60 19:18 10.06.2020
2572 Rain 12 1013 93 9000 5.1 50 18:54 10.06.2020
2573 Rain 12 1013 93 10000 5.7 40 18:36 10.06.2020
2574 Rain 12 1013 93 10000 5.7 40 18:36 10.06.2020
2575 Rain 12 1013 93 10000 5.7 40 18:18 10.06.2020
2576 Rain 12 1013 93 6000 5.1 60 17:54 10.06.2020
2577 Rain 12 1013 93 6000 5.1 60 17:36 10.06.2020
2578 Rain 12 1013 93 6000 3.6 60 17:18 10.06.2020
2579 Rain 12 1013 93 4900 5.1 60 16:41 10.06.2020
2580 Rain 12 1013 93 6000 5.1 50 16:22 10.06.2020
2581 Rain 13 1012 87 7000 5.1 60 15:59 10.06.2020
2582 Rain 13 1012 82 10000 3.6 60 15:38 10.06.2020
2583 Rain 13 1012 82 10000 3.6 60 15:20 10.06.2020
2584 Rain 13 1012 87 10000 3.1 30 14:41 10.06.2020
2585 Rain 13 1013 87 9000 2.6 40 14:22 10.06.2020
2586 Rain 13 1013 87 10000 2.1 50 13:58 10.06.2020
2587 Rain 12 1013 87 10000 2.1 50 13:39 10.06.2020
2588 Rain 12 1013 93 10000 2.6 50 13:21 10.06.2020
2589 Drizzle 12 1013 100 5000 2.6 50 12:42 10.06.2020
2590 Rain 11 1013 100 5000 2.6 50 12:20 10.06.2020
2591 Rain 11 1013 93 7000 2.6 60 11:56 10.06.2020
2592 Rain 11 1013 93 7000 2.6 60 11:56 10.06.2020
2593 Rain 11 1013 93 7000 2.6 60 11:38 10.06.2020
2594 Rain 11 1013 93 7000 3.1 50 11:19 10.06.2020
2595 Drizzle 10 1013 100 3700 2.6 50 10:44 10.06.2020
2596 Drizzle 10 1013 100 4500 2.6 60 10:25 10.06.2020
2597 Drizzle 10 1013 93 3600 2.1 60 09:58 10.06.2020
2598 Rain 10 1013 93 3600 2.1 60 09:39 10.06.2020
2599 Rain 10 1013 93 2800 2.6 70 09:20 10.06.2020
2600 Rain 10 1013 93 6000 3.1 80 08:42 10.06.2020
2601 Rain 10 1013 93 6000 3.1 80 08:23 10.06.2020
2602 Rain 9 1013 93 2500 3.1 90 07:43 10.06.2020
2603 Rain 9 1014 100 2600 2.6 90 07:23 10.06.2020
2604 Drizzle 9 1014 100 2300 3.1 80 06:59 10.06.2020
2605 Drizzle 9 1014 100 2700 2.6 80 06:38 10.06.2020
2606 Rain 9 1014 100 2700 2.6 80 06:18 10.06.2020
2607 Rain 9 1014 93 4600 2.1 80 05:49 10.06.2020
2608 Rain 9 1014 93 2700 2.6 100 05:18 10.06.2020
2609 Rain 9 1015 93 3800 2.6 90 04:28 10.06.2020
2610 Rain 9 1016 93 5000 2.6 120 02:34 10.06.2020
2611 Rain 9 1016 87 10000 1.5 0 01:47 10.06.2020
2612 Rain 9 1016 87 10000 0.5 230 01:21 10.06.2020
2613 Rain 9 1017 87 10000 2.6 210 00:38 10.06.2020
2614 Rain 9 1017 93 10000 2.6 220 00:20 10.06.2020
2615 Rain 10 1017 93 9000 1.5 210 23:41 09.06.2020
2616 Rain 10 1017 81 10000 3.1 210 23:23 09.06.2020
2617 Rain 10 1017 81 10000 2.6 230 22:57 09.06.2020
2618 Rain 10 1017 81 10000 2.6 230 22:39 09.06.2020
2619 Rain 10 1017 81 10000 2.1 240 22:20 09.06.2020
2620 Rain 11 1017 76 10000 2.6 230 21:57 09.06.2020
2621 Rain 11 1017 76 10000 2.6 230 21:39 09.06.2020
2622 Rain 11 1017 76 10000 4.1 230 21:21 09.06.2020
2623 Rain 11 1018 76 10000 5.1 230 20:57 09.06.2020
2624 Clouds 11 1018 71 10000 4.6 230 20:39 09.06.2020
2625 Clouds 11 1018 71 10000 4.6 230 20:20 09.06.2020
2626 Clouds 12 1018 66 10000 4.6 230 19:57 09.06.2020
2627 Clouds 12 1018 66 10000 4.6 230 19:39 09.06.2020
2628 Clouds 12 1018 66 10000 4.6 230 19:20 09.06.2020
2629 Clouds 12 1018 66 10000 4.6 230 19:20 09.06.2020
2630 Clouds 12 1018 66 10000 4.6 240 18:57 09.06.2020
2631 Clouds 12 1018 66 10000 4.6 240 18:38 09.06.2020
2632 Clouds 12 1018 66 10000 4.1 250 18:19 09.06.2020
2633 Rain 12 1018 66 10000 3.6 260 17:55 09.06.2020
2634 Rain 12 1018 66 10000 3.6 260 17:55 09.06.2020
2635 Rain 12 1018 66 10000 3.6 260 17:36 09.06.2020
2636 Clouds 12 1018 62 10000 4.6 240 17:18 09.06.2020
2637 Clouds 13 1018 58 10000 4.1 260 16:42 09.06.2020
2638 Clouds 13 1019 58 10000 4.6 220 16:23 09.06.2020
2639 Clouds 13 1019 58 10000 4.1 240 15:55 09.06.2020
2640 Clouds 13 1019 58 10000 4.1 240 15:37 09.06.2020
2641 Clouds 13 1019 58 10000 5.1 240 15:19 09.06.2020
2642 Clouds 13 1019 58 10000 5.1 230 14:41 09.06.2020
2643 Clouds 13 1019 58 10000 4.6 250 14:21 09.06.2020
2644 Clouds 13 1019 58 10000 4.6 250 13:58 09.06.2020
2645 Clouds 13 1019 58 10000 4.6 250 13:40 09.06.2020
2646 Clouds 13 1019 62 10000 3.6 250 13:21 09.06.2020
2647 Clouds 13 1019 62 10000 2.6 200 12:44 09.06.2020
2648 Clouds 13 1019 66 10000 3.1 220 12:21 09.06.2020
2649 Clouds 13 1020 66 10000 2.6 270 11:59 09.06.2020
2650 Clouds 13 1020 66 10000 2.6 270 11:41 09.06.2020
2651 Clouds 13 1020 62 10000 4.1 260 11:20 09.06.2020
2652 Clouds 13 1020 62 10000 4.1 260 11:20 09.06.2020
2653 Clouds 13 1020 62 10000 3.1 200 10:58 09.06.2020
2654 Clouds 13 1020 62 10000 3.1 200 10:40 09.06.2020
2655 Clouds 13 1020 62 10000 1 0 10:22 09.06.2020
2656 Clouds 12 1020 62 10000 1 0 09:44 09.06.2020
2657 Clouds 11 1020 71 10000 1.5 250 09:24 09.06.2020
2658 Clouds 10 1020 76 10000 1.5 260 08:56 09.06.2020
2659 Clouds 10 1020 76 10000 1.5 260 08:38 09.06.2020
2660 Clouds 10 1020 76 10000 1.5 230 08:19 09.06.2020
2661 Clouds 9 1020 81 10000 1 230 07:38 09.06.2020
2662 Clouds 9 1020 81 10000 1 230 07:19 09.06.2020
2663 Clouds 8 1020 93 10000 1.5 220 06:53 09.06.2020
2664 Clouds 8 1020 81 10000 1 0 06:33 09.06.2020
2665 Clouds 8 1020 87 10000 1.5 230 05:34 09.06.2020
2666 Clear 10 1020 81 10000 0.5 0 03:19 09.06.2020
2667 Clouds 8 1020 87 10000 1.5 250 01:42 09.06.2020
2668 Clouds 8 1020 87 10000 3.1 240 01:19 09.06.2020
2669 Clouds 8 1020 87 10000 3.1 240 01:19 09.06.2020
2670 Clouds 9 1020 87 10000 1.5 260 00:45 09.06.2020
2671 Clouds 10 1020 81 10000 1.5 230 00:20 09.06.2020
2672 Clouds 10 1020 81 10000 2.1 260 23:55 08.06.2020
2673 Clouds 10 1020 81 10000 2.1 260 23:37 08.06.2020
2674 Clouds 11 1020 76 10000 2.6 250 23:19 08.06.2020
2675 Clouds 14 1020 58 10000 2.6 270 22:41 08.06.2020
2676 Clouds 14 1020 58 10000 2.6 270 22:22 08.06.2020
2677 Clouds 14 1020 58 10000 2.6 290 21:58 08.06.2020
2678 Clouds 14 1020 58 10000 2.6 290 21:58 08.06.2020
2679 Clouds 14 1020 58 10000 2.6 290 21:40 08.06.2020
2680 Clouds 14 1020 58 10000 2.6 290 21:40 08.06.2020
2681 Clouds 14 1019 54 10000 2.6 300 21:21 08.06.2020
2682 Clouds 15 1019 51 10000 3.1 300 20:57 08.06.2020
2683 Clouds 15 1019 51 10000 3.1 260 20:39 08.06.2020
2684 Clouds 15 1019 51 10000 3.1 260 20:20 08.06.2020
2685 Clouds 16 1019 44 10000 3.6 250 19:44 08.06.2020
2686 Clouds 16 1020 44 10000 3.1 230 19:22 08.06.2020
2687 Clouds 16 1020 44 10000 4.1 250 18:59 08.06.2020
2688 Clouds 16 1020 44 10000 1.5 0 18:40 08.06.2020
2689 Clouds 16 1020 44 10000 1.5 0 18:18 08.06.2020
2690 Clouds 15 1020 44 10000 2.1 240 17:55 08.06.2020
2691 Clouds 15 1020 44 10000 2.1 240 17:37 08.06.2020
2692 Clouds 16 1020 44 10000 2.1 240 17:37 08.06.2020
2693 Clouds 16 1020 44 10000 2.6 300 17:18 08.06.2020
2694 Clouds 16 1020 44 10000 2.1 230 16:44 08.06.2020
2695 Clouds 15 1020 44 10000 2.6 0 16:23 08.06.2020
2696 Clouds 15 1020 44 10000 2.1 290 15:46 08.06.2020
2697 Clouds 15 1020 44 10000 1.5 0 15:23 08.06.2020
2698 Clouds 14 1020 50 10000 2.1 350 14:59 08.06.2020
2699 Clouds 14 1020 50 10000 2.1 350 14:40 08.06.2020
2700 Clouds 14 1020 50 10000 1 0 14:20 08.06.2020
2701 Clouds 14 1020 50 10000 1 0 13:44 08.06.2020
2702 Clouds 13 1020 54 10000 2.1 0 13:26 08.06.2020
2703 Clouds 13 1020 50 10000 1.5 0 12:54 08.06.2020
2704 Clouds 13 1021 54 10000 2.1 20 12:36 08.06.2020
2705 Clouds 13 1021 54 10000 2.1 20 12:18 08.06.2020
2706 Clouds 12 1021 54 10000 2.1 0 11:41 08.06.2020
2707 Clouds 12 1021 53 10000 2.6 110 11:23 08.06.2020
2708 Clouds 11 1021 57 10000 2.6 80 10:58 08.06.2020
2709 Clouds 11 1021 57 10000 2.6 80 10:39 08.06.2020
2710 Clouds 10 1021 61 10000 3.1 50 10:20 08.06.2020
2711 Clouds 10 1020 57 10000 3.6 80 09:58 08.06.2020
2712 Clouds 10 1020 57 10000 3.6 80 09:40 08.06.2020
2713 Clouds 9 1020 61 10000 4.1 80 09:21 08.06.2020
2714 Clouds 9 1020 61 10000 4.1 90 08:46 08.06.2020
2715 Clouds 9 1020 61 10000 4.1 90 08:22 08.06.2020
2716 Clouds 9 1020 57 10000 4.6 80 07:46 08.06.2020
2717 Clouds 8 1020 57 10000 3.6 70 07:23 08.06.2020
2718 Clouds 9 1019 57 10000 3.1 70 06:50 08.06.2020
2719 Clouds 8 1019 61 10000 4.1 80 06:30 08.06.2020
2720 Clouds 8 1019 61 10000 4.6 80 05:51 08.06.2020
2721 Clouds 9 1019 66 10000 4.6 90 04:29 08.06.2020
2722 Clouds 9 1018 66 10000 6.2 100 02:32 08.06.2020
2723 Clouds 10 1018 66 10000 6.2 90 01:49 08.06.2020
2724 Clouds 10 1018 71 10000 5.1 80 01:30 08.06.2020
2725 Clouds 10 1017 71 10000 5.7 70 00:30 08.06.2020
2726 Clouds 11 1017 66 10000 6.7 70 23:42 07.06.2020
2727 Clouds 11 1016 71 10000 5.7 70 23:20 07.06.2020
2728 Clouds 11 1016 66 10000 5.7 60 22:59 07.06.2020
2729 Clouds 11 1016 66 10000 5.7 60 22:39 07.06.2020
2730 Clouds 12 1015 66 10000 6.7 60 22:19 07.06.2020
2731 Clouds 13 1015 62 10000 6.2 70 21:59 07.06.2020
2732 Clouds 13 1015 62 10000 6.2 70 21:38 07.06.2020
2733 Clouds 14 1014 62 10000 6.7 60 21:20 07.06.2020
2734 Clouds 14 1014 62 10000 6.7 60 21:20 07.06.2020
2735 Clouds 15 1014 62 10000 6.7 60 20:56 07.06.2020
2736 Clouds 15 1014 62 10000 6.7 60 20:38 07.06.2020
2737 Clouds 16 1013 51 10000 6.7 60 20:18 07.06.2020
2738 Clouds 16 1013 48 10000 4.6 60 19:55 07.06.2020
2739 Clouds 17 1013 51 10000 4.1 60 19:37 07.06.2020
2740 Clouds 17 1013 51 10000 4.1 60 19:18 07.06.2020
2741 Clouds 18 1012 48 10000 3.1 50 18:42 07.06.2020
2742 Clouds 18 1012 48 10000 4.1 80 18:23 07.06.2020
2743 Clouds 18 1012 45 10000 4.6 70 17:59 07.06.2020
2744 Clouds 18 1012 45 10000 4.6 70 17:40 07.06.2020
2745 Clouds 18 1012 48 10000 2.1 20 17:21 07.06.2020
2746 Clouds 17 1012 51 10000 3.6 40 16:44 07.06.2020
2747 Clouds 18 1011 48 10000 2.6 30 16:22 07.06.2020
2748 Clouds 17 1011 51 10000 3.1 30 15:45 07.06.2020
2749 Clouds 18 1011 48 10000 3.1 360 15:24 07.06.2020
2750 Clouds 17 1011 51 10000 4.1 30 14:59 07.06.2020
2751 Clouds 17 1011 51 10000 4.1 30 14:37 07.06.2020
2752 Clouds 17 1011 51 10000 4.1 40 14:18 07.06.2020
2753 Clouds 17 1011 51 10000 4.1 40 14:18 07.06.2020
2754 Clouds 17 1010 51 10000 4.1 30 13:44 07.06.2020
2755 Clouds 17 1010 51 10000 4.1 30 13:44 07.06.2020
2756 Clouds 17 1010 51 10000 4.1 30 13:44 07.06.2020
2757 Clouds 17 1010 51 10000 4.1 30 13:44 07.06.2020
2758 Clouds 17 1010 51 10000 4.1 360 13:19 07.06.2020
2759 Clouds 17 1010 51 10000 4.1 20 12:44 07.06.2020
2760 Clouds 16 1010 51 10000 3.1 340 12:25 07.06.2020
2761 Clouds 17 1009 51 10000 4.1 20 11:55 07.06.2020
2762 Clouds 16 1009 51 10000 4.1 20 11:37 07.06.2020
2763 Clouds 15 1009 55 10000 5.7 10 11:19 07.06.2020
2764 Clouds 15 1009 58 10000 4.1 10 10:54 07.06.2020
2765 Clouds 15 1009 58 10000 4.1 10 10:36 07.06.2020
2766 Clouds 14 1009 67 10000 1 0 10:18 07.06.2020
2767 Clouds 13 1008 71 10000 2.6 290 09:41 07.06.2020
2768 Clear 13 1008 71 10000 3.6 290 09:22 07.06.2020
2769 Clear 12 1007 76 10000 4.1 290 08:59 07.06.2020
2770 Clear 12 1007 76 10000 4.1 290 08:41 07.06.2020
2771 Clouds 12 1007 81 10000 3.6 290 08:22 07.06.2020
2772 Clouds 10 1006 81 10000 2.6 260 07:43 07.06.2020
2773 Clouds 10 1006 87 10000 3.1 250 07:24 07.06.2020
2774 Clouds 9 1005 87 10000 2.6 0 06:22 07.06.2020
2775 Clouds 9 1005 87 10000 2.6 250 05:28 07.06.2020
2776 Clouds 10 1004 81 10000 3.6 270 04:19 07.06.2020
2777 Clouds 11 1003 81 10000 4.6 290 02:26 07.06.2020
2778 Clouds 11 1003 81 10000 4.6 290 01:40 07.06.2020
2779 Clouds 12 1003 81 10000 4.1 290 01:22 07.06.2020
2780 Clouds 11 1003 87 10000 3.1 260 00:40 07.06.2020
2781 Clouds 12 1003 87 10000 2.6 260 00:18 07.06.2020
2782 Clouds 12 1002 81 10000 2.6 280 23:55 06.06.2020
2783 Clouds 12 1002 81 10000 2.6 280 23:36 06.06.2020
2784 Rain 12 1002 87 10000 2.1 280 23:18 06.06.2020
2785 Rain 13 1002 76 10000 2.1 280 22:55 06.06.2020
2786 Rain 14 1001 67 10000 4.1 310 22:36 06.06.2020
2787 Rain 14 1001 67 10000 4.1 310 22:18 06.06.2020
2788 Rain 15 1001 62 10000 3.1 300 21:42 06.06.2020
2789 Rain 15 1001 62 10000 5.1 290 21:20 06.06.2020
2790 Rain 15 1000 62 10000 4.6 320 20:41 06.06.2020
2791 Rain 15 1000 62 10000 6.2 320 20:21 06.06.2020
2792 Rain 16 999 59 10000 6.7 310 19:58 06.06.2020
2793 Rain 16 999 67 10000 4.1 330 19:40 06.06.2020
2794 Rain 16 999 67 10000 4.1 330 19:22 06.06.2020
2795 Rain 17 999 59 8000 6.7 290 18:56 06.06.2020
2796 Clouds 16 998 51 10000 4.6 290 18:38 06.06.2020
2797 Clouds 17 998 51 10000 4.6 290 18:20 06.06.2020
2798 Clouds 18 998 48 10000 5.7 300 17:43 06.06.2020
2799 Clouds 18 998 48 10000 5.7 310 17:20 06.06.2020
2800 Clouds 19 998 45 10000 4.1 340 16:56 06.06.2020
2801 Clouds 19 998 45 10000 4.1 340 16:38 06.06.2020
2802 Clouds 18 998 42 10000 2.6 360 16:20 06.06.2020
2803 Clouds 17 998 48 10000 4.1 340 15:44 06.06.2020
2804 Clouds 17 997 45 10000 4.6 360 15:20 06.06.2020
2805 Clouds 17 997 45 10000 5.1 350 14:58 06.06.2020
2806 Clouds 17 997 51 10000 4.1 340 14:37 06.06.2020
2807 Clouds 16 997 51 10000 4.1 340 14:19 06.06.2020
2808 Clouds 16 997 42 10000 4.1 10 13:47 06.06.2020
2809 Clouds 17 996 42 10000 5.1 20 13:19 06.06.2020
2810 Clouds 17 996 42 10000 4.1 20 12:56 06.06.2020
2811 Clouds 17 996 48 10000 5.7 20 12:38 06.06.2020
2812 Clouds 16 996 48 10000 5.7 20 12:18 06.06.2020
2813 Clouds 15 995 54 10000 7.2 350 11:40 06.06.2020
2814 Clouds 15 995 58 10000 5.7 350 11:21 06.06.2020
2815 Clouds 15 995 58 10000 5.7 350 11:21 06.06.2020
2816 Clouds 14 995 58 10000 5.7 350 10:59 06.06.2020
2817 Clouds 13 995 76 10000 3.6 270 10:40 06.06.2020
2818 Clouds 13 995 76 10000 3.6 270 10:22 06.06.2020
2819 Clouds 13 994 66 10000 3.6 310 09:59 06.06.2020
2820 Clouds 13 994 66 10000 3.6 310 09:41 06.06.2020
2821 Clouds 12 994 76 10000 2.6 290 09:22 06.06.2020
2822 Clouds 12 993 76 10000 4.1 260 08:45 06.06.2020
2823 Clouds 11 993 66 10000 2.6 310 08:24 06.06.2020
2824 Clouds 11 992 66 10000 4.1 320 07:55 06.06.2020
2825 Clouds 11 992 66 10000 3.6 330 07:36 06.06.2020
2826 Clouds 11 992 76 10000 2.6 280 07:18 06.06.2020
2827 Rain 11 992 76 10000 2.6 280 06:42 06.06.2020
2828 Rain 11 991 81 10000 2.1 280 06:23 06.06.2020
2829 Rain 10 991 81 10000 3.1 280 05:32 06.06.2020
2830 Rain 10 991 76 10000 4.1 270 04:47 06.06.2020
2831 Clouds 10 991 81 10000 5.7 280 03:28 06.06.2020
2832 Rain 9 991 76 10000 5.7 290 01:58 06.06.2020
2833 Rain 9 991 76 10000 7.2 290 01:21 06.06.2020
2834 Rain 8 991 76 10000 9.3 300 00:56 06.06.2020
2835 Rain 8 991 76 10000 9.3 300 00:37 06.06.2020
2836 Rain 8 992 76 10000 8.2 290 00:19 06.06.2020
2837 Rain 8 992 70 10000 9.3 290 23:39 05.06.2020
2838 Rain 8 992 70 10000 9.3 290 23:19 05.06.2020
2839 Rain 8 992 70 10000 7.2 280 22:56 05.06.2020
2840 Rain 8 992 70 10000 7.2 280 22:37 05.06.2020
2841 Rain 8 992 70 10000 7.7 280 22:19 05.06.2020
2842 Rain 9 992 66 10000 7.7 280 21:42 05.06.2020
2843 Clouds 9 993 66 10000 8.2 280 21:22 05.06.2020
2844 Clouds 9 993 66 10000 9.3 290 20:58 05.06.2020
2845 Clouds 9 993 66 10000 9.3 290 20:39 05.06.2020
2846 Rain 10 993 57 10000 10.3 290 20:21 05.06.2020
2847 Rain 10 993 61 10000 9.8 290 19:42 05.06.2020
2848 Rain 11 993 57 10000 10.8 290 19:23 05.06.2020
2849 Rain 11 994 62 10000 10.3 290 18:57 05.06.2020
2850 Rain 11 994 62 10000 10.3 290 18:38 05.06.2020
2851 Rain 12 994 58 10000 11.3 300 18:19 05.06.2020
2852 Rain 12 994 58 10000 9.8 290 17:57 05.06.2020
2853 Rain 12 994 58 10000 9.8 290 17:39 05.06.2020
2854 Clouds 13 994 50 10000 11.3 290 17:18 05.06.2020
2855 Rain 13 994 54 10000 9.8 290 16:39 05.06.2020
2856 Rain 13 994 50 10000 10.8 290 16:20 05.06.2020
2857 Rain 13 994 47 10000 10.8 290 15:43 05.06.2020
2858 Rain 13 995 47 10000 10.3 280 15:23 05.06.2020
2859 Rain 13 995 50 10000 9.3 290 14:59 05.06.2020
2860 Rain 13 995 50 10000 9.3 290 14:40 05.06.2020
2861 Clouds 13 995 50 10000 9.3 290 14:22 05.06.2020
2862 Rain 12 995 57 10000 8.2 290 13:58 05.06.2020
2863 Rain 12 995 57 10000 8.2 290 13:58 05.06.2020
2864 Rain 12 995 57 10000 8.2 290 13:38 05.06.2020
2865 Rain 12 995 58 10000 7.7 280 13:19 05.06.2020
2866 Rain 12 996 58 10000 7.2 290 12:42 05.06.2020
2867 Rain 12 996 58 10000 7.2 290 12:20 05.06.2020
2868 Clouds 11 996 61 10000 8.7 290 11:55 05.06.2020
2869 Clouds 10 996 61 10000 8.7 290 11:37 05.06.2020
2870 Clouds 11 996 62 10000 6.2 290 11:18 05.06.2020
2871 Clouds 10 997 61 10000 6.2 300 10:42 05.06.2020
2872 Clouds 9 997 66 10000 6.2 280 10:21 05.06.2020
2873 Clouds 9 997 70 10000 6.7 300 09:58 05.06.2020
2874 Clouds 9 997 70 10000 6.7 300 09:40 05.06.2020
2875 Clouds 8 997 75 10000 5.7 290 09:21 05.06.2020
2876 Clouds 8 997 75 10000 4.1 290 08:58 05.06.2020
2877 Clouds 8 997 75 10000 4.1 290 08:40 05.06.2020
2878 Clouds 7 997 81 10000 4.1 290 08:19 05.06.2020
2879 Clouds 7 997 81 10000 4.1 290 07:52 05.06.2020
2880 Clouds 7 997 81 10000 4.6 300 07:33 05.06.2020
2881 Clouds 7 997 81 10000 4.1 300 06:50 05.06.2020
2882 Rain 6 997 93 10000 1 240 05:23 05.06.2020
2883 Rain 7 998 87 10000 1.5 280 04:28 05.06.2020
2884 Rain 7 998 93 10000 1 0 03:32 05.06.2020
2885 Rain 8 999 87 10000 1.5 280 02:30 05.06.2020
2886 Rain 8 999 93 10000 1.5 250 01:59 05.06.2020
2887 Rain 8 999 93 10000 1.5 250 01:33 05.06.2020
2888 Clouds 8 1000 87 10000 1 0 00:46 05.06.2020
2889 Rain 8 1000 87 10000 2.1 60 00:22 05.06.2020
2890 Rain 9 1000 81 10000 3.1 70 23:55 04.06.2020
2891 Clouds 9 1000 87 10000 4.6 60 23:37 04.06.2020
2892 Clouds 9 1000 87 10000 4.6 60 23:18 04.06.2020
2893 Clouds 9 1000 87 10000 4.1 60 22:42 04.06.2020
2894 Rain 9 1000 87 10000 6.2 60 22:21 04.06.2020
2895 Rain 9 999 93 10000 7.2 50 21:58 04.06.2020
2896 Rain 9 999 93 10000 7.2 50 21:38 04.06.2020
2897 Rain 9 999 93 10000 7.2 50 21:38 04.06.2020
2898 Rain 10 999 87 10000 2.1 60 21:20 04.06.2020
2899 Rain 11 999 81 10000 3.6 50 20:56 04.06.2020
2900 Rain 11 999 81 10000 3.6 50 20:56 04.06.2020
2901 Rain 12 999 71 10000 3.1 10 20:38 04.06.2020
2902 Rain 12 999 71 10000 3.1 10 20:19 04.06.2020
2903 Rain 12 999 71 10000 3.1 10 20:19 04.06.2020
2904 Rain 13 999 67 10000 4.1 10 19:43 04.06.2020
2905 Rain 13 999 67 10000 4.1 10 19:21 04.06.2020
2906 Rain 13 999 67 10000 2.6 0 18:58 04.06.2020
2907 Rain 13 999 71 10000 3.1 360 18:38 04.06.2020
2908 Rain 13 999 71 10000 3.1 360 18:38 04.06.2020
2909 Rain 12 999 71 10000 3.1 360 18:20 04.06.2020
2910 Rain 13 999 71 10000 3.1 360 18:20 04.06.2020
2911 Rain 12 999 71 10000 3.1 360 18:20 04.06.2020
2912 Rain 14 999 55 10000 6.7 300 17:44 04.06.2020
2913 Rain 14 999 58 10000 7.2 290 17:22 04.06.2020
2914 Rain 14 1000 67 10000 7.2 290 16:58 04.06.2020
2915 Rain 13 1000 67 10000 7.2 290 16:40 04.06.2020
2916 Rain 14 1000 59 10000 5.7 290 16:20 04.06.2020
2917 Rain 13 1000 62 10000 6.2 290 15:44 04.06.2020
2918 Rain 14 1001 62 10000 6.2 280 15:26 04.06.2020
2919 Rain 14 1001 67 10000 5.7 260 14:42 04.06.2020
2920 Rain 14 1001 71 10000 5.1 250 14:22 04.06.2020
2921 Rain 14 1002 67 10000 4.6 300 13:58 04.06.2020
2922 Rain 14 1002 67 10000 4.6 300 13:40 04.06.2020
2923 Rain 14 1002 67 10000 3.6 290 13:20 04.06.2020
2924 Rain 13 1003 76 10000 3.1 300 12:58 04.06.2020
2925 Clouds 13 1003 76 10000 3.1 300 12:40 04.06.2020
2926 Clouds 13 1003 76 10000 3.1 300 12:40 04.06.2020
2927 Rain 13 1003 76 10000 3.1 250 12:21 04.06.2020
2928 Rain 11 1003 81 10000 2.6 240 11:54 04.06.2020
2929 Rain 11 1003 81 10000 2.6 240 11:36 04.06.2020
2930 Rain 11 1004 81 10000 4.1 240 11:18 04.06.2020
2931 Clouds 11 1004 76 10000 3.1 240 10:40 04.06.2020
2932 Rain 11 1005 71 10000 3.1 260 10:22 04.06.2020
2933 Clouds 11 1005 76 10000 3.1 270 09:56 04.06.2020
2934 Clouds 10 1005 76 10000 3.1 270 09:38 04.06.2020
2935 Clouds 10 1005 76 10000 2.1 240 09:19 04.06.2020
2936 Clouds 10 1005 76 10000 2.1 240 09:19 04.06.2020
2937 Rain 10 1006 71 10000 1.5 0 08:41 04.06.2020
2938 Rain 10 1006 76 10000 1.5 0 08:22 04.06.2020
2939 Clouds 9 1007 76 10000 1.5 0 07:33 04.06.2020
2940 Clouds 8 1007 81 10000 1.5 270 06:58 04.06.2020
2941 Clouds 8 1007 81 10000 1.5 270 06:58 04.06.2020
2942 Clouds 8 1007 81 10000 1.5 0 06:39 04.06.2020
2943 Clouds 8 1007 81 10000 1.5 0 06:39 04.06.2020
2944 Clouds 8 1007 81 10000 1.5 0 06:20 04.06.2020
2945 Clouds 8 1008 76 10000 2.1 280 05:33 04.06.2020
2946 Clouds 9 1010 81 10000 1.5 20 03:50 04.06.2020
2947 Clouds 10 1011 81 10000 2.6 40 02:21 04.06.2020
2948 Clouds 10 1011 81 10000 2.6 40 02:21 04.06.2020
2949 Clouds 10 1011 81 10000 2.1 20 01:39 04.06.2020
2950 Clouds 10 1011 76 10000 2.6 20 01:18 04.06.2020
2951 Clouds 11 1012 66 10000 1 0 00:19 04.06.2020
2952 Clouds 11 1012 62 10000 2.1 30 23:38 03.06.2020
2953 Clouds 12 1013 54 10000 1.5 20 23:19 03.06.2020
2954 Clouds 13 1013 50 10000 2.6 40 22:54 03.06.2020
2955 Clouds 13 1013 50 10000 2.6 40 22:36 03.06.2020
2956 Clouds 14 1013 47 10000 3.6 30 22:18 03.06.2020
2957 Clouds 14 1013 47 10000 3.1 20 21:55 03.06.2020
2958 Clouds 14 1013 47 10000 3.1 20 21:36 03.06.2020
2959 Clouds 15 1013 44 10000 3.1 10 21:18 03.06.2020
2960 Clouds 15 1013 41 10000 3.6 20 20:41 03.06.2020
2961 Clouds 15 1013 41 10000 3.1 20 20:21 03.06.2020
2962 Clouds 15 1014 44 10000 5.1 20 19:57 03.06.2020
2963 Clouds 16 1014 48 10000 3.1 60 19:38 03.06.2020
2964 Clouds 16 1014 48 10000 3.1 60 19:20 03.06.2020
2965 Clouds 16 1014 41 10000 4.6 30 18:57 03.06.2020
2966 Clouds 16 1014 44 10000 5.7 60 18:39 03.06.2020
2967 Clouds 15 1014 44 10000 5.7 60 18:19 03.06.2020
2968 Clouds 16 1014 39 10000 5.1 10 17:44 03.06.2020
2969 Clouds 15 1015 41 10000 4.6 10 17:22 03.06.2020
2970 Clouds 15 1015 41 10000 3.1 0 16:58 03.06.2020
2971 Clouds 16 1015 41 10000 3.1 0 16:39 03.06.2020
2972 Clouds 15 1015 47 10000 1.5 0 16:19 03.06.2020
2973 Clouds 14 1015 50 10000 2.6 360 15:42 03.06.2020
2974 Clouds 15 1016 47 10000 4.6 20 15:21 03.06.2020
2975 Clouds 15 1016 51 10000 5.1 30 14:59 03.06.2020
2976 Clouds 15 1016 51 10000 5.1 30 14:40 03.06.2020
2977 Clouds 15 1016 51 10000 5.1 360 14:21 03.06.2020
2978 Clouds 15 1016 51 10000 4.1 10 13:40 03.06.2020
2979 Clouds 13 1016 54 10000 4.6 40 13:20 03.06.2020
2980 Clouds 13 1017 58 10000 3.6 30 12:44 03.06.2020
2981 Clouds 13 1017 58 10000 4.1 40 12:24 03.06.2020
2982 Clouds 12 1017 62 10000 4.6 360 11:59 03.06.2020
2983 Clouds 12 1017 62 10000 4.6 360 11:40 03.06.2020
2984 Clouds 12 1017 62 10000 5.7 30 11:22 03.06.2020
2985 Clouds 12 1017 62 10000 4.6 20 10:42 03.06.2020
2986 Clouds 12 1017 62 10000 3.6 50 10:24 03.06.2020
2987 Clouds 11 1017 62 10000 5.1 50 09:47 03.06.2020
2988 Rain 11 1017 66 10000 4.1 60 09:22 03.06.2020
2989 Rain 10 1017 71 10000 4.1 50 08:59 03.06.2020
2990 Clouds 10 1017 71 10000 4.1 50 08:40 03.06.2020
2991 Clouds 10 1017 76 10000 4.1 30 08:19 03.06.2020
2992 Clouds 9 1017 81 10000 3.6 30 07:43 03.06.2020
2993 Rain 9 1017 87 10000 3.1 50 07:20 03.06.2020
2994 Rain 9 1017 87 10000 3.1 50 06:54 03.06.2020
2995 Rain 9 1017 87 10000 4.6 60 06:32 03.06.2020
2996 Rain 9 1017 87 10000 3.6 70 05:47 03.06.2020
2997 Rain 10 1017 87 10000 3.6 60 04:57 03.06.2020
2998 Rain 10 1017 93 7000 5.1 40 03:51 03.06.2020
2999 Rain 11 1016 87 10000 6.2 70 03:20 03.06.2020
3000 Rain 12 1016 87 10000 6.7 80 01:53 03.06.2020
3001 Rain 13 1016 87 10000 4.6 80 00:44 03.06.2020
3002 Rain 13 1016 93 10000 4.1 90 00:25 03.06.2020
3003 Rain 13 1016 93 6000 0.5 190 23:52 02.06.2020
3004 Rain 13 1017 87 6000 2.1 300 23:28 02.06.2020
3005 Rain 13 1017 87 6000 2.1 300 23:28 02.06.2020
3006 Rain 14 1017 87 10000 3.1 310 22:57 02.06.2020
3007 Rain 15 1017 82 10000 2.1 340 22:38 02.06.2020
3008 Rain 15 1017 82 10000 2.1 340 22:19 02.06.2020
3009 Rain 16 1016 77 10000 3.6 50 21:56 02.06.2020
3010 Rain 16 1016 77 10000 3.6 50 21:37 02.06.2020
3011 Clouds 17 1016 63 10000 3.1 90 21:19 02.06.2020
3012 Clouds 17 1016 59 10000 1 300 20:55 02.06.2020
3013 Clouds 17 1016 59 10000 1 300 20:37 02.06.2020
3014 Clouds 18 1016 59 10000 2.1 50 20:18 02.06.2020
3015 Clouds 18 1016 56 10000 3.6 350 19:42 02.06.2020
3016 Clouds 19 1016 56 10000 3.6 350 19:24 02.06.2020
3017 Clouds 20 1017 56 10000 4.1 300 18:57 02.06.2020
3018 Clouds 20 1017 56 10000 4.1 300 18:39 02.06.2020
3019 Clouds 21 1017 52 10000 4.6 270 18:20 02.06.2020
3020 Clouds 21 1018 56 10000 5.7 260 17:55 02.06.2020
3021 Clouds 21 1018 56 10000 5.7 260 17:37 02.06.2020
3022 Clouds 22 1018 53 10000 4.1 270 17:18 02.06.2020
3023 Clouds 22 1018 53 10000 3.6 280 16:40 02.06.2020
3024 Clouds 22 1018 53 10000 3.6 240 16:21 02.06.2020
3025 Clouds 22 1018 53 10000 3.6 240 16:21 02.06.2020
3026 Clouds 22 1019 53 10000 4.6 230 15:57 02.06.2020
3027 Clouds 22 1019 53 10000 4.6 230 15:37 02.06.2020
3028 Clouds 23 1019 49 10000 3.6 240 15:19 02.06.2020
3029 Clouds 23 1019 46 10000 3.6 250 14:45 02.06.2020
3030 Clouds 22 1019 49 10000 3.6 200 14:26 02.06.2020
3031 Clouds 22 1020 52 10000 2.6 250 13:54 02.06.2020
3032 Clouds 21 1020 52 10000 2.6 250 13:36 02.06.2020
3033 Clouds 21 1020 52 10000 3.1 240 13:18 02.06.2020
3034 Clouds 21 1020 60 10000 2.1 0 12:40 02.06.2020
3035 Clouds 20 1021 63 10000 1.5 0 12:21 02.06.2020
3036 Clouds 18 1021 63 10000 0.5 0 11:59 02.06.2020
3037 Clouds 19 1021 63 10000 0.5 0 11:39 02.06.2020
3038 Clouds 18 1021 63 10000 1 0 11:20 02.06.2020
3039 Clouds 18 1022 63 10000 0.5 0 10:48 02.06.2020
3040 Clouds 17 1022 67 10000 0.5 0 10:28 02.06.2020
3041 Clouds 16 1022 67 10000 0.5 0 09:58 02.06.2020
3042 Clouds 16 1022 67 10000 0.5 0 09:39 02.06.2020
3043 Clouds 14 1022 82 10000 0.5 0 09:20 02.06.2020
3044 Clear 13 1022 93 10000 1.5 230 08:48 02.06.2020
3045 Clouds 13 1022 81 10000 1 260 08:22 02.06.2020
3046 Clouds 13 1023 87 10000 1 230 07:53 02.06.2020
3047 Clouds 12 1023 93 10000 0.5 0 07:28 02.06.2020
3048 Clouds 11 1023 93 10000 0.5 0 06:47 02.06.2020
3049 Clouds 11 1023 93 10000 0.5 0 06:24 02.06.2020
3050 Clouds 11 1023 93 10000 1.5 240 05:21 02.06.2020
3051 Clouds 12 1024 87 10000 0.5 0 03:25 02.06.2020
3052 Clouds 13 1024 81 10000 2.6 240 02:30 02.06.2020
3053 Clouds 13 1024 82 10000 2.1 250 01:25 02.06.2020
3054 Clouds 15 1024 77 10000 3.1 250 00:26 02.06.2020
3055 Clouds 16 1024 55 10000 1.5 0 23:57 01.06.2020
3056 Clouds 17 1024 55 10000 1.5 0 23:37 01.06.2020
3057 Clouds 17 1024 55 10000 2.1 40 23:18 01.06.2020
3058 Clouds 18 1024 52 10000 2.1 360 22:41 01.06.2020
3059 Clouds 19 1024 52 10000 2.1 360 22:21 01.06.2020
3060 Clouds 20 1024 49 10000 2.6 40 21:58 01.06.2020
3061 Clouds 21 1024 38 10000 1.5 0 21:40 01.06.2020
3062 Clouds 22 1024 38 10000 1.5 0 21:19 01.06.2020
3063 Clouds 22 1024 40 10000 2.6 310 20:56 01.06.2020
3064 Clouds 22 1024 40 10000 2.6 310 20:38 01.06.2020
3065 Clouds 23 1024 40 10000 4.1 290 20:19 01.06.2020
3066 Clouds 23 1024 40 10000 4.1 290 19:43 01.06.2020
3067 Clouds 23 1024 43 10000 4.1 300 19:21 01.06.2020
3068 Clouds 24 1024 38 10000 2.1 310 18:59 01.06.2020
3069 Clouds 24 1024 33 10000 1.5 0 18:39 01.06.2020
3070 Clouds 24 1024 33 10000 1.5 0 18:20 01.06.2020
3071 Clouds 24 1025 33 10000 1.5 0 17:58 01.06.2020
3072 Clouds 24 1025 33 10000 1.5 0 17:58 01.06.2020
3073 Clouds 24 1025 33 10000 1.5 0 17:40 01.06.2020
3074 Clouds 25 1025 33 10000 2.6 30 17:19 01.06.2020
3075 Clouds 25 1025 36 10000 2.1 0 16:42 01.06.2020
3076 Clouds 24 1025 36 10000 2.1 310 16:22 01.06.2020
3077 Clouds 24 1026 36 10000 1.5 0 15:56 01.06.2020
3078 Clouds 24 1026 36 10000 1.5 0 15:37 01.06.2020
3079 Clear 23 1026 38 10000 2.6 290 15:19 01.06.2020
3080 Clear 23 1026 38 10000 2.1 20 14:57 01.06.2020
3081 Clear 23 1026 38 10000 2.1 20 14:38 01.06.2020
3082 Clouds 23 1026 38 10000 2.1 360 14:20 01.06.2020
3083 Clouds 22 1027 43 10000 1 0 13:43 01.06.2020
3084 Clouds 22 1027 43 10000 1 0 13:22 01.06.2020
3085 Clouds 21 1027 49 10000 1.5 0 12:59 01.06.2020
3086 Clouds 21 1027 52 10000 1 0 12:40 01.06.2020
3087 Clouds 21 1027 52 10000 1 0 12:40 01.06.2020
3088 Clouds 21 1027 52 10000 1 0 12:40 01.06.2020
3089 Clouds 20 1027 52 10000 1 0 12:21 01.06.2020
3090 Clouds 18 1027 59 10000 1 0 11:58 01.06.2020
3091 Clouds 19 1027 59 10000 1 0 11:37 01.06.2020
3092 Clouds 18 1027 59 10000 1 0 11:18 01.06.2020
3093 Clouds 17 1027 63 10000 2.1 50 10:55 01.06.2020
3094 Clouds 17 1027 63 10000 2.1 40 10:36 01.06.2020
3095 Clouds 16 1027 67 10000 2.1 30 10:18 01.06.2020
3096 Clouds 15 1027 71 10000 2.6 60 09:44 01.06.2020
3097 Clouds 14 1027 71 10000 2.6 60 09:25 01.06.2020
3098 Clouds 13 1028 76 10000 1.26 65 08:55 01.06.2020
3099 Clouds 12 1028 87 10000 1 250 08:33 01.06.2020
3100 Clouds 9 1028 93 10000 1 0 07:58 01.06.2020
3101 Clouds 9 1027 93 10000 0.5 260 07:39 01.06.2020
3102 Clouds 8 1027 93 10000 0.5 260 07:21 01.06.2020
3103 Clouds 9 1027 87 10000 1 300 06:49 01.06.2020
3104 Clouds 10 1027 87 10000 1.5 340 05:56 01.06.2020
3105 Clear 11 1027 81 10000 2.1 80 04:56 01.06.2020
3106 Clear 11 1027 76 10000 2.6 80 03:55 01.06.2020
3107 Clear 10 1027 76 10000 2.6 60 03:35 01.06.2020
3108 Clear 12 1026 71 10000 3.1 70 02:34 01.06.2020
3109 Clouds 13 1026 71 10000 3.1 60 01:35 01.06.2020
3110 Clouds 13 1026 71 10000 3.1 70 00:59 01.06.2020
3111 Clouds 13 1026 67 10000 4.1 40 00:40 01.06.2020
3112 Clouds 13 1026 67 10000 4.1 40 00:21 01.06.2020
3113 Clouds 13 1026 71 10000 3.6 40 23:58 31.05.2020
3114 Clouds 14 1025 62 10000 3.1 50 23:39 31.05.2020
3115 Clouds 14 1025 62 10000 3.1 50 23:39 31.05.2020
3116 Clouds 16 1025 62 10000 3.1 50 23:21 31.05.2020
3117 Clouds 16 1025 59 10000 4.6 60 22:57 31.05.2020
3118 Clouds 17 1025 52 10000 6.2 80 22:38 31.05.2020
3119 Clouds 18 1025 52 10000 6.2 80 22:20 31.05.2020
3120 Clouds 19 1025 45 10000 4.6 60 21:42 31.05.2020
3121 Clouds 19 1025 45 10000 4.6 60 21:24 31.05.2020
3122 Clear 20 1024 42 10000 5.7 60 20:59 31.05.2020
3123 Clear 20 1024 42 10000 5.7 60 20:58 31.05.2020
3124 Clear 20 1024 42 10000 5.7 60 20:58 31.05.2020
3125 Clear 21 1024 43 10000 5.7 70 20:40 31.05.2020
3126 Clear 21 1024 43 10000 5.7 70 20:21 31.05.2020
3127 Clear 21 1024 40 10000 7.2 70 19:56 31.05.2020
3128 Clear 21 1024 40 10000 7.2 70 19:56 31.05.2020
3129 Clear 21 1024 43 10000 6.7 60 19:37 31.05.2020
3130 Clear 20 1024 43 10000 6.7 60 19:19 31.05.2020
3131 Clear 20 1024 43 10000 6.7 60 19:19 31.05.2020
3132 Clear 22 1024 43 10000 7.2 50 18:44 31.05.2020
3133 Clear 22 1024 43 10000 7.2 50 18:44 31.05.2020
3134 Clear 22 1024 43 10000 7.2 50 18:25 31.05.2020
3135 Clear 22 1024 43 10000 6.7 60 17:54 31.05.2020
3136 Clear 21 1025 46 10000 7.7 50 17:36 31.05.2020
3137 Clear 21 1025 46 10000 7.7 50 17:18 31.05.2020
3138 Clear 22 1025 43 10000 5.7 60 16:40 31.05.2020
3139 Clear 22 1025 43 10000 5.7 60 16:21 31.05.2020
3140 Clear 21 1025 43 10000 5.7 50 15:40 31.05.2020
3141 Clear 20 1025 43 10000 5.7 50 15:22 31.05.2020
3142 Clear 21 1025 43 10000 6.2 40 14:56 31.05.2020
3143 Clear 20 1026 45 10000 4.1 70 14:38 31.05.2020
3144 Clear 20 1026 45 10000 4.1 70 14:18 31.05.2020
3145 Clear 20 1026 49 10000 4.1 50 13:54 31.05.2020
3146 Clear 19 1026 52 10000 5.1 50 13:36 31.05.2020
3147 Clear 18 1026 52 10000 5.1 50 13:18 31.05.2020
3148 Clear 18 1026 55 10000 4.6 70 12:41 31.05.2020
3149 Clear 17 1026 55 10000 4.6 70 12:22 31.05.2020
3150 Clear 17 1027 59 10000 5.7 70 11:49 31.05.2020
3151 Clouds 16 1027 63 10000 5.7 90 11:24 31.05.2020
3152 Clouds 16 1027 67 10000 4.6 80 10:58 31.05.2020
3153 Clouds 16 1027 67 10000 4.6 80 10:58 31.05.2020
3154 Clouds 16 1027 67 10000 4.1 70 10:39 31.05.2020
3155 Clouds 15 1027 67 10000 4.1 70 10:21 31.05.2020
3156 Clouds 13 1027 71 10000 5.1 70 09:45 31.05.2020
3157 Clouds 13 1027 71 10000 5.1 70 09:24 31.05.2020
3158 Clouds 12 1027 76 10000 3.6 90 08:59 31.05.2020
3159 Clouds 12 1027 81 10000 4.6 80 08:40 31.05.2020
3160 Clouds 11 1027 81 10000 4.6 80 08:22 31.05.2020
3161 Clouds 11 1026 87 10000 4.1 80 07:46 31.05.2020
3162 Clouds 10 1026 87 10000 4.1 80 07:21 31.05.2020
3163 Clouds 10 1026 81 10000 3.6 80 06:55 31.05.2020
3164 Clouds 10 1026 81 10000 4.1 80 06:34 31.05.2020
3165 Clouds 9 1026 81 10000 2.6 50 05:46 31.05.2020
3166 Clear 9 1026 81 10000 2.6 50 05:27 31.05.2020
3167 Clear 11 1026 76 10000 4.6 70 03:56 31.05.2020
3168 Clear 11 1025 81 10000 5.1 70 02:59 31.05.2020
3169 Clouds 12 1025 76 10000 5.1 70 01:51 31.05.2020
3170 Clouds 12 1025 76 10000 5.7 70 01:30 31.05.2020
3171 Clouds 13 1025 71 10000 6.2 70 00:31 31.05.2020
3172 Clouds 13 1025 71 10000 5.7 70 23:59 30.05.2020
3173 Clouds 13 1024 67 10000 7.2 60 23:41 30.05.2020
3174 Clouds 14 1024 67 10000 7.2 60 23:22 30.05.2020
3175 Clouds 16 1023 55 10000 8.2 70 22:42 30.05.2020
3176 Clouds 17 1023 55 10000 8.2 70 22:23 30.05.2020
3177 Clouds 18 1023 52 10000 8.7 60 21:56 30.05.2020
3178 Clouds 19 1023 48 10000 9.3 60 21:38 30.05.2020
3179 Clouds 19 1023 48 10000 9.3 60 21:20 30.05.2020
3180 Clouds 19 1023 52 10000 8.2 60 20:57 30.05.2020
3181 Clouds 20 1022 49 10000 8.7 60 20:38 30.05.2020
3182 Clouds 20 1022 49 10000 8.7 60 20:20 30.05.2020
3183 Clouds 21 1022 43 10000 9.3 50 19:43 30.05.2020
3184 Clouds 22 1022 43 10000 9.3 50 19:22 30.05.2020
3185 Clouds 21 1023 43 10000 8.2 60 18:54 30.05.2020
3186 Clouds 22 1023 43 10000 8.2 60 18:36 30.05.2020
3187 Clouds 22 1023 43 10000 8.2 60 18:18 30.05.2020
3188 Clouds 23 1023 38 10000 5.1 90 17:38 30.05.2020
3189 Clouds 23 1023 38 10000 5.1 90 17:19 30.05.2020
3190 Clouds 23 1023 43 10000 7.2 50 16:43 30.05.2020
3191 Clouds 23 1023 43 10000 7.2 50 16:23 30.05.2020
3192 Clouds 23 1023 46 10000 6.2 70 15:56 30.05.2020
3193 Clouds 22 1023 49 10000 6.7 70 15:38 30.05.2020
3194 Clear 22 1023 49 10000 6.7 70 15:19 30.05.2020
3195 Clouds 22 1024 53 10000 5.7 90 14:42 30.05.2020
3196 Clouds 22 1024 53 10000 5.7 90 14:21 30.05.2020
3197 Clouds 22 1024 49 10000 3.6 100 13:42 30.05.2020
3198 Clouds 22 1024 49 10000 3.6 100 13:20 30.05.2020
3199 Clouds 21 1025 52 10000 3.6 90 12:40 30.05.2020
3200 Clouds 21 1025 52 10000 3.6 90 12:20 30.05.2020
3201 Clouds 21 1025 52 10000 2.6 80 11:56 30.05.2020
3202 Clouds 20 1025 52 10000 2.6 100 11:38 30.05.2020
3203 Clouds 19 1025 52 10000 2.6 100 11:20 30.05.2020
3204 Clouds 18 1025 63 10000 2.6 60 10:39 30.05.2020
3205 Clouds 18 1025 63 10000 2.6 60 10:39 30.05.2020
3206 Clouds 18 1025 63 10000 2.6 60 10:21 30.05.2020
3207 Clouds 17 1025 72 10000 0.5 0 09:47 30.05.2020
3208 Clouds 16 1025 72 10000 0.5 0 09:29 30.05.2020
3209 Clouds 14 1025 76 10000 0.5 200 08:46 30.05.2020
3210 Clouds 13 1025 87 10000 1 0 08:28 30.05.2020
3211 Clouds 11 1025 87 10000 1.5 250 07:44 30.05.2020
3212 Clouds 11 1025 87 10000 1.5 250 07:20 30.05.2020
3213 Clouds 11 1025 93 10000 1.5 230 06:33 30.05.2020
3214 Clouds 10 1025 87 10000 1.5 250 05:52 30.05.2020
3215 Clouds 12 1025 93 10000 0.5 0 05:30 30.05.2020
3216 Clouds 12 1025 87 10000 1 0 03:38 30.05.2020
3217 Clouds 13 1025 87 10000 1 220 02:29 30.05.2020
3218 Clouds 13 1025 82 10000 0.5 250 01:40 30.05.2020
3219 Clouds 15 1025 58 10000 1 260 00:37 30.05.2020
3220 Clouds 16 1025 48 10000 2.1 250 00:18 30.05.2020
3221 Clouds 17 1024 48 10000 2.6 270 23:42 29.05.2020
3222 Clouds 18 1024 48 10000 2.6 270 23:21 29.05.2020
3223 Clouds 18 1024 48 10000 3.1 270 22:58 29.05.2020
3224 Clouds 19 1024 48 10000 2.6 280 22:39 29.05.2020
3225 Clear 20 1024 48 10000 2.6 280 22:19 29.05.2020
3226 Clouds 21 1024 49 10000 3.1 280 21:41 29.05.2020
3227 Clouds 21 1024 49 10000 3.1 280 21:21 29.05.2020
3228 Clouds 22 1024 46 10000 3.6 260 20:59 29.05.2020
3229 Clouds 23 1024 43 10000 3.1 260 20:40 29.05.2020
3230 Clouds 23 1024 43 10000 3.1 260 20:19 29.05.2020
3231 Clouds 24 1024 38 10000 6.2 210 19:44 29.05.2020
3232 Clouds 24 1024 38 10000 6.2 210 19:26 29.05.2020
3233 Clouds 24 1024 38 10000 5.1 200 18:49 29.05.2020
3234 Clouds 24 1024 38 10000 4.6 180 18:24 29.05.2020
3235 Clouds 24 1025 38 10000 6.2 200 17:59 29.05.2020
3236 Clouds 25 1025 38 10000 5.1 190 17:40 29.05.2020
3237 Clouds 25 1025 38 10000 5.1 190 17:21 29.05.2020
3238 Clouds 25 1025 38 10000 5.1 190 16:55 29.05.2020
3239 Clouds 25 1025 41 10000 5.7 200 16:37 29.05.2020
3240 Clouds 25 1025 41 10000 5.7 200 16:19 29.05.2020
3241 Clouds 25 1026 41 10000 4.6 180 15:42 29.05.2020
3242 Clouds 25 1026 41 10000 4.6 180 15:21 29.05.2020
3243 Clouds 24 1026 41 10000 5.7 180 14:59 29.05.2020
3244 Clouds 24 1026 41 10000 5.1 190 14:39 29.05.2020
3245 Clouds 24 1026 41 10000 5.1 190 14:39 29.05.2020
3246 Clouds 25 1026 41 10000 5.1 190 14:19 29.05.2020
3247 Clouds 24 1027 44 10000 3.6 200 13:43 29.05.2020
3248 Clouds 24 1027 44 10000 3.6 200 13:23 29.05.2020
3249 Clouds 23 1027 53 10000 1.5 0 12:57 29.05.2020
3250 Clouds 22 1027 53 10000 1.5 0 12:39 29.05.2020
3251 Clouds 22 1027 53 10000 1.5 0 12:19 29.05.2020
3252 Clouds 21 1028 52 10000 1 0 11:42 29.05.2020
3253 Clouds 21 1028 52 10000 1 0 11:24 29.05.2020
3254 Clouds 21 1028 56 10000 1 0 10:55 29.05.2020
3255 Clouds 20 1028 63 10000 1 0 10:36 29.05.2020
3256 Clouds 20 1028 63 10000 1 0 10:18 29.05.2020
3257 Clouds 18 1028 72 10000 1 0 09:41 29.05.2020
3258 Clouds 16 1028 72 10000 1 0 09:19 29.05.2020
3259 Clouds 14 1028 93 10000 0.5 230 08:48 29.05.2020
3260 Clouds 13 1028 93 10000 0.5 230 08:25 29.05.2020
3261 Clouds 13 1028 93 10000 1 260 07:48 29.05.2020
3262 Clouds 11 1028 100 10000 0.5 0 07:30 29.05.2020
3263 Clouds 11 1028 93 10000 1 260 06:58 29.05.2020
3264 Clouds 11 1028 100 8000 1 0 06:39 29.05.2020
3265 Clouds 11 1028 100 8000 1 0 06:21 29.05.2020
3266 Fog 11 1029 100 10000 1 270 05:40 29.05.2020
3267 Clouds 13 1029 87 10000 0.5 250 02:18 29.05.2020
3268 Clouds 15 1029 82 10000 1 220 01:27 29.05.2020
3269 Clouds 15 1029 77 10000 1.5 230 00:51 29.05.2020
3270 Clouds 16 1029 77 10000 2.1 240 00:29 29.05.2020
3271 Clouds 17 1029 77 10000 2.1 260 23:56 28.05.2020
3272 Clouds 16 1029 72 10000 3.1 240 23:38 28.05.2020
3273 Clouds 18 1029 63 10000 3.1 250 23:18 28.05.2020
3274 Clouds 19 1029 60 10000 3.1 240 22:41 28.05.2020
3275 Clouds 19 1029 60 10000 3.1 240 22:41 28.05.2020
3276 Clouds 20 1029 60 10000 3.1 240 22:21 28.05.2020
3277 Clouds 20 1029 56 10000 1.5 260 21:55 28.05.2020
3278 Clouds 23 1029 49 10000 1 0 21:37 28.05.2020
3279 Clouds 22 1029 49 10000 1 0 21:18 28.05.2020
3280 Clouds 23 1029 49 10000 1 0 20:55 28.05.2020
3281 Clouds 23 1029 49 10000 1 0 20:55 28.05.2020
3282 Clouds 23 1029 46 10000 1 0 20:36 28.05.2020
3283 Clouds 23 1029 46 10000 1 0 20:18 28.05.2020
3284 Clouds 23 1030 49 10000 1 0 19:43 28.05.2020
3285 Clouds 23 1030 49 10000 1 0 19:20 28.05.2020
3286 Clouds 23 1030 46 10000 1.5 0 18:57 28.05.2020
3287 Clouds 23 1030 46 10000 1.5 0 18:39 28.05.2020
3288 Clouds 23 1030 46 10000 1.5 0 18:39 28.05.2020
3289 Clouds 23 1030 46 10000 1.5 0 18:20 28.05.2020
3290 Clouds 22 1031 49 10000 2.1 230 17:40 28.05.2020
3291 Clouds 22 1031 49 10000 2.1 230 17:22 28.05.2020
3292 Clouds 22 1031 53 10000 2.6 260 16:55 28.05.2020
3293 Clouds 22 1032 49 10000 1.5 0 16:36 28.05.2020
3294 Clear 22 1032 49 10000 1.5 0 16:18 28.05.2020
3295 Clear 22 1032 52 10000 3.6 260 15:40 28.05.2020
3296 Clear 21 1032 52 10000 3.6 260 15:22 28.05.2020
3297 Clear 21 1033 52 10000 3.1 250 14:43 28.05.2020
3298 Clouds 20 1033 52 10000 3.1 250 14:24 28.05.2020
3299 Clouds 20 1033 59 10000 3.6 230 13:48 28.05.2020
3300 Clouds 20 1033 59 10000 3.6 230 13:30 28.05.2020
3301 Clouds 20 1033 55 10000 4.6 240 12:59 28.05.2020
3302 Clouds 19 1033 59 10000 3.6 220 12:38 28.05.2020
3303 Clouds 18 1033 59 10000 3.6 220 12:18 28.05.2020
3304 Clouds 17 1034 67 10000 2.1 240 11:41 28.05.2020
3305 Clouds 16 1034 67 10000 2.1 240 11:23 28.05.2020
3306 Clouds 16 1034 67 10000 0.5 0 10:56 28.05.2020
3307 Clouds 16 1034 71 10000 0.5 0 10:37 28.05.2020
3308 Clouds 15 1034 67 10000 1 0 10:18 28.05.2020
3309 Clouds 14 1035 76 10000 0.5 0 09:39 28.05.2020
3310 Clouds 13 1035 81 10000 1 20 09:19 28.05.2020
3311 Clouds 12 1035 81 10000 0.5 340 08:45 28.05.2020
3312 Clouds 12 1035 81 10000 0.5 340 08:26 28.05.2020
3313 Clouds 11 1035 81 10000 0.5 0 07:45 28.05.2020
3314 Clouds 11 1035 87 10000 1 50 07:25 28.05.2020
3315 Clouds 10 1035 93 10000 0.5 340 06:55 28.05.2020
3316 Clouds 10 1035 93 10000 1.5 260 06:36 28.05.2020
3317 Clouds 10 1035 87 10000 0.5 0 05:40 28.05.2020
3318 Clouds 11 1035 81 10000 0.5 90 04:46 28.05.2020
3319 Clouds 11 1035 81 10000 0.5 90 04:25 28.05.2020
3320 Clouds 12 1035 76 10000 1 0 03:45 28.05.2020
3321 Clouds 12 1036 76 10000 1.5 220 02:45 28.05.2020
3322 Clouds 12 1036 76 10000 1 270 01:49 28.05.2020
3323 Clouds 12 1036 71 10000 1.5 350 00:54 28.05.2020
3324 Clouds 12 1036 62 10000 0.5 0 00:23 28.05.2020
3325 Clouds 12 1036 66 10000 1 0 23:57 27.05.2020
3326 Clouds 13 1036 58 10000 1 0 23:38 27.05.2020
3327 Clouds 14 1036 58 10000 1 0 23:20 27.05.2020
3328 Clouds 14 1036 54 10000 1.5 0 22:43 27.05.2020
3329 Clouds 14 1036 54 10000 1.5 0 22:43 27.05.2020
3330 Clouds 14 1036 54 10000 1.5 0 22:43 27.05.2020
3331 Clouds 15 1036 54 10000 1.5 0 22:24 27.05.2020
3332 Clouds 16 1036 58 10000 3.6 230 21:58 27.05.2020
3333 Clouds 17 1036 55 10000 2.1 260 21:40 27.05.2020
3334 Clouds 18 1036 55 10000 2.6 250 21:21 27.05.2020
3335 Clouds 18 1036 55 10000 2.6 250 20:58 27.05.2020
3336 Clouds 18 1036 55 10000 3.1 250 20:40 27.05.2020
3337 Clouds 18 1036 55 10000 3.1 250 20:40 27.05.2020
3338 Clouds 18 1036 55 10000 3.1 250 20:40 27.05.2020
3339 Clouds 18 1036 55 10000 3.1 250 20:20 27.05.2020
3340 Clouds 19 1036 45 10000 3.1 230 19:46 27.05.2020
3341 Clouds 19 1036 45 10000 3.1 230 19:21 27.05.2020
3342 Clouds 19 1036 34 10000 1 0 18:56 27.05.2020
3343 Clouds 19 1036 39 10000 1.5 0 18:37 27.05.2020
3344 Clouds 19 1036 39 10000 1.5 0 18:18 27.05.2020
3345 Clouds 19 1036 39 10000 1.5 0 17:42 27.05.2020
3346 Clouds 19 1036 39 10000 1.5 0 17:24 27.05.2020
3347 Clouds 19 1037 42 10000 2.1 80 16:57 27.05.2020
3348 Clouds 19 1037 42 10000 1.5 0 16:38 27.05.2020
3349 Clouds 19 1037 42 10000 1.5 0 16:38 27.05.2020
3350 Clouds 18 1037 42 10000 1.5 0 16:20 27.05.2020
3351 Clouds 18 1037 45 10000 2.1 120 15:49 27.05.2020
3352 Clear 18 1037 45 10000 1.5 0 15:23 27.05.2020
3353 Clear 18 1037 48 10000 1.5 0 14:57 27.05.2020
3354 Clear 18 1037 51 10000 1 0 14:39 27.05.2020
3355 Clouds 17 1037 51 10000 1 0 14:19 27.05.2020
3356 Clouds 16 1038 58 10000 2.1 310 13:42 27.05.2020
3357 Clouds 15 1038 58 10000 2.1 310 13:23 27.05.2020
3358 Clouds 15 1038 62 10000 2.1 0 12:42 27.05.2020
3359 Clouds 14 1038 62 10000 2.1 0 12:24 27.05.2020
3360 Clouds 14 1038 62 10000 2.1 0 11:59 27.05.2020
3361 Clouds 14 1038 62 10000 3.1 270 11:37 27.05.2020
3362 Clouds 14 1038 71 10000 3.6 300 11:19 27.05.2020
3363 Clouds 13 1038 76 10000 3.1 290 10:44 27.05.2020
3364 Clouds 12 1038 76 10000 3.1 290 10:24 27.05.2020
3365 Clouds 11 1038 76 10000 2.1 270 09:58 27.05.2020
3366 Clouds 11 1038 81 10000 2.1 250 09:39 27.05.2020
3367 Clouds 10 1038 81 10000 2.1 250 09:20 27.05.2020
3368 Clouds 10 1038 87 10000 2.1 240 08:42 27.05.2020
3369 Clouds 9 1038 87 10000 2.1 240 08:24 27.05.2020
3370 Clouds 9 1038 87 10000 2.1 260 07:53 27.05.2020
3371 Clouds 9 1038 87 10000 1 250 07:35 27.05.2020
3372 Clouds 9 1038 87 10000 1 250 07:35 27.05.2020
3373 Clouds 9 1038 87 10000 1.5 280 06:56 27.05.2020
3374 Clouds 7 1037 87 10000 1.5 240 06:31 27.05.2020
3375 Clouds 8 1037 87 10000 2.1 230 05:50 27.05.2020
3376 Clouds 8 1037 81 10000 1.5 240 05:30 27.05.2020
3377 Clouds 7 1037 87 10000 3.6 230 04:18 27.05.2020
3378 Clouds 7 1037 87 10000 4.1 240 02:30 27.05.2020
3379 Clouds 8 1038 87 10000 2.6 230 01:45 27.05.2020
3380 Clouds 9 1038 81 10000 3.1 220 00:59 27.05.2020
3381 Clouds 9 1038 81 10000 2.1 220 00:41 27.05.2020
3382 Clouds 9 1038 81 10000 2.1 220 00:19 27.05.2020
3383 Clouds 10 1038 71 10000 2.1 240 23:42 26.05.2020
3384 Clouds 11 1038 71 10000 2.1 240 23:23 26.05.2020
3385 Clouds 11 1037 71 10000 2.6 280 22:58 26.05.2020
3386 Clouds 12 1037 58 10000 2.6 270 22:38 26.05.2020
3387 Clouds 13 1037 58 10000 2.6 270 22:19 26.05.2020
3388 Clouds 14 1037 58 10000 4.1 270 21:56 26.05.2020
3389 Clouds 14 1037 58 10000 4.1 270 21:56 26.05.2020
3390 Clouds 14 1037 58 10000 4.1 270 21:56 26.05.2020
3391 Clouds 14 1037 54 10000 4.1 270 21:38 26.05.2020
3392 Clouds 15 1037 54 10000 4.1 270 21:19 26.05.2020
3393 Clouds 15 1036 51 10000 5.7 290 20:42 26.05.2020
3394 Clouds 15 1036 51 10000 5.7 290 20:21 26.05.2020
3395 Clouds 16 1036 54 10000 5.1 290 19:55 26.05.2020
3396 Clouds 16 1036 55 10000 5.1 290 19:37 26.05.2020
3397 Clouds 17 1036 55 10000 6.2 300 19:18 26.05.2020
3398 Clouds 17 1036 55 10000 6.2 300 19:18 26.05.2020
3399 Clouds 17 1036 55 10000 6.2 300 18:41 26.05.2020
3400 Clouds 17 1036 55 10000 6.2 300 18:21 26.05.2020
3401 Clouds 16 1036 58 10000 5.7 310 17:42 26.05.2020
3402 Clouds 16 1036 58 10000 5.7 310 17:24 26.05.2020
3403 Clouds 17 1036 55 10000 5.1 300 16:57 26.05.2020
3404 Clouds 17 1036 55 10000 5.1 300 16:39 26.05.2020
3405 Clouds 17 1036 55 10000 5.1 300 16:19 26.05.2020
3406 Clouds 16 1036 58 10000 4.1 300 15:42 26.05.2020
3407 Clouds 16 1036 58 10000 4.1 300 15:20 26.05.2020
3408 Clouds 15 1036 58 10000 4.1 280 14:56 26.05.2020
3409 Clouds 15 1036 58 10000 4.1 310 14:37 26.05.2020
3410 Clouds 15 1036 58 10000 4.1 310 14:19 26.05.2020
3411 Clouds 15 1036 67 10000 3.6 290 13:41 26.05.2020
3412 Clouds 14 1036 67 10000 3.6 290 13:23 26.05.2020
3413 Clouds 14 1036 62 10000 3.6 290 12:56 26.05.2020
3414 Clouds 14 1035 62 10000 3.6 300 12:37 26.05.2020
3415 Clouds 14 1035 62 10000 3.6 300 12:19 26.05.2020
3416 Clouds 13 1035 62 10000 4.1 260 11:41 26.05.2020
3417 Clouds 14 1035 62 10000 4.1 260 11:21 26.05.2020
3418 Clouds 12 1035 66 10000 5.7 280 10:57 26.05.2020
3419 Clouds 13 1035 66 10000 6.7 260 10:37 26.05.2020
3420 Clouds 13 1035 66 10000 6.7 260 10:18 26.05.2020
3421 Clouds 12 1034 76 10000 4.1 270 09:38 26.05.2020
3422 Clouds 12 1034 76 10000 4.1 270 09:19 26.05.2020
3423 Clouds 11 1034 81 10000 3.6 280 08:41 26.05.2020
3424 Clouds 11 1034 81 10000 3.6 280 08:22 26.05.2020
3425 Clouds 11 1033 87 10000 2.6 270 07:43 26.05.2020
3426 Clouds 11 1033 87 10000 2.6 270 07:23 26.05.2020
3427 Clouds 11 1033 87 10000 3.6 260 06:53 26.05.2020
3428 Clouds 12 1032 87 10000 4.1 260 06:31 26.05.2020
3429 Clouds 12 1032 93 10000 3.1 230 05:43 26.05.2020
3430 Clouds 12 1032 93 10000 3.1 230 05:20 26.05.2020
3431 Haze 12 1032 87 5000 3.1 250 04:48 26.05.2020
3432 Clouds 13 1032 87 10000 4.1 240 04:29 26.05.2020
3433 Clouds 12 1031 87 10000 2.6 220 03:46 26.05.2020
3434 Clouds 12 1031 87 10000 1.5 0 02:35 26.05.2020
3435 Clouds 12 1031 87 10000 1.5 270 01:47 26.05.2020
3436 Clouds 12 1031 87 10000 2.6 250 00:43 26.05.2020
3437 Clouds 13 1031 87 10000 2.6 250 00:23 26.05.2020
3438 Clouds 13 1031 82 10000 2.1 250 23:59 25.05.2020
3439 Clouds 13 1031 82 10000 2.1 240 23:39 25.05.2020
3440 Clouds 13 1031 82 10000 2.1 240 23:20 25.05.2020
3441 Clouds 13 1031 82 10000 2.6 230 22:56 25.05.2020
3442 Clouds 13 1030 76 10000 5.1 220 22:37 25.05.2020
3443 Clouds 13 1030 76 10000 5.1 220 22:37 25.05.2020
3444 Clouds 14 1030 71 10000 5.1 220 22:19 25.05.2020
3445 Clouds 14 1030 71 10000 5.1 220 21:58 25.05.2020
3446 Clouds 14 1030 71 10000 5.1 210 21:38 25.05.2020
3447 Clouds 14 1030 71 10000 5.1 210 21:19 25.05.2020
3448 Clouds 14 1030 71 10000 5.1 230 20:58 25.05.2020
3449 Clouds 14 1030 71 10000 5.7 220 20:40 25.05.2020
3450 Clouds 15 1030 71 10000 5.7 220 20:20 25.05.2020
3451 Clouds 15 1030 62 10000 6.2 240 19:42 25.05.2020
3452 Clouds 15 1030 62 10000 6.2 240 19:20 25.05.2020
3453 Clouds 15 1030 58 10000 7.2 220 18:58 25.05.2020
3454 Clouds 16 1030 55 10000 6.7 210 18:40 25.05.2020
3455 Clouds 16 1030 55 10000 6.7 210 18:21 25.05.2020
3456 Clouds 17 1029 51 10000 7.2 220 17:44 25.05.2020
3457 Clouds 17 1029 51 10000 7.2 220 17:25 25.05.2020
3458 Clouds 17 1030 55 10000 6.7 200 16:58 25.05.2020
3459 Clouds 17 1030 55 10000 6.7 200 16:58 25.05.2020
3460 Clouds 17 1030 59 10000 8.2 220 16:40 25.05.2020
3461 Clouds 17 1030 59 10000 8.2 220 16:21 25.05.2020
3462 Clouds 17 1030 67 10000 6.2 200 15:45 25.05.2020
3463 Clouds 17 1030 67 10000 6.2 200 15:45 25.05.2020
3464 Clouds 17 1030 67 10000 6.2 200 15:21 25.05.2020
3465 Clouds 17 1030 63 10000 5.7 190 14:59 25.05.2020
3466 Clouds 17 1030 63 10000 5.7 190 14:41 25.05.2020
3467 Clouds 17 1030 63 10000 5.7 190 14:23 25.05.2020
3468 Clouds 17 1030 59 10000 4.1 220 13:56 25.05.2020
3469 Clouds 17 1030 55 10000 4.6 210 13:37 25.05.2020
3470 Clouds 17 1030 55 10000 4.6 210 13:37 25.05.2020
3471 Clouds 17 1030 55 10000 4.6 210 13:19 25.05.2020
3472 Clouds 17 1031 55 10000 6.7 220 12:39 25.05.2020
3473 Clouds 16 1031 55 10000 6.7 220 12:21 25.05.2020
3474 Clouds 16 1031 59 10000 4.6 210 11:57 25.05.2020
3475 Clouds 16 1031 67 10000 5.1 220 11:37 25.05.2020
3476 Clouds 16 1031 67 10000 5.1 220 11:18 25.05.2020
3477 Clouds 15 1031 76 10000 1 0 10:41 25.05.2020
3478 Clear 14 1031 76 10000 1 0 10:21 25.05.2020
3479 Clear 14 1032 81 10000 1 0 09:56 25.05.2020
3480 Clear 13 1032 93 10000 1.5 60 09:38 25.05.2020
3481 Clear 10 1032 93 10000 1.5 60 09:19 25.05.2020
3482 Clouds 10 1032 100 10000 1 40 08:43 25.05.2020
3483 Clouds 9 1032 100 10000 1 40 08:24 25.05.2020
3484 Fog 7 1032 100 10000 0.5 0 07:58 25.05.2020
3485 Fog 6 1031 100 900 1.35 193 07:39 25.05.2020
3486 Fog 5 1031 100 900 0.97 181 07:19 25.05.2020
3487 Fog 5 1031 93 900 0.5 350 06:41 25.05.2020
3488 Fog 5 1031 93 900 0.5 350 06:41 25.05.2020
3489 Fog 5 1031 93 900 0.5 350 06:21 25.05.2020
3490 Fog 7 1031 93 600 1 260 03:32 25.05.2020
3491 Haze 7 1031 100 2700 0.5 0 02:57 25.05.2020
3492 Clear 7 1031 93 10000 1 60 02:36 25.05.2020
3493 Clouds 8 1031 93 10000 2.1 240 01:42 25.05.2020
3494 Clear 9 1031 87 10000 2.1 240 00:49 25.05.2020
3495 Clear 10 1031 87 10000 2.1 250 00:31 25.05.2020
3496 Clouds 10 1031 81 10000 1.5 0 23:59 24.05.2020
3497 Clouds 11 1031 76 10000 1 330 23:39 24.05.2020
3498 Clouds 11 1031 76 10000 1 330 23:39 24.05.2020
3499 Clouds 12 1031 76 10000 1 330 23:21 24.05.2020
3500 Clear 12 1030 76 10000 1 110 22:56 24.05.2020
3501 Clear 13 1030 71 10000 1.5 290 22:37 24.05.2020
3502 Clear 13 1030 71 10000 1.5 290 22:18 24.05.2020
3503 Clear 14 1030 71 10000 3.1 290 21:55 24.05.2020
3504 Clear 14 1030 67 10000 3.6 290 21:36 24.05.2020
3505 Clouds 15 1030 67 10000 3.6 290 21:18 24.05.2020
3506 Clouds 15 1030 67 10000 6.7 260 20:43 24.05.2020
3507 Clouds 15 1030 67 10000 6.7 260 20:21 24.05.2020
3508 Clouds 14 1029 67 10000 7.2 260 19:56 24.05.2020
3509 Clouds 14 1030 76 10000 6.7 260 19:38 24.05.2020
3510 Clouds 13 1030 76 10000 6.7 260 19:18 24.05.2020
3511 Clouds 13 1029 81 10000 5.7 230 18:42 24.05.2020
3512 Clouds 13 1029 81 10000 5.7 230 18:23 24.05.2020
3513 Rain 13 1029 76 10000 7.2 270 17:57 24.05.2020
3514 -273 0 0 0 0 0 17:38 24.05.2020
3515 Rain 13 1029 71 10000 6.2 250 17:19 24.05.2020
3516 Rain 14 1028 72 10000 9.8 270 16:56 24.05.2020
3517 Rain 14 1028 76 10000 9.8 250 16:37 24.05.2020
3518 Rain 14 1028 76 10000 9.8 250 16:19 24.05.2020
3519 Rain 14 1027 77 10000 9.3 260 15:55 24.05.2020
3520 Clouds 14 1027 76 10000 8.7 270 15:37 24.05.2020
3521 Clouds 14 1027 76 10000 8.7 270 15:18 24.05.2020
3522 Clouds 13 1026 87 10000 9.3 250 14:41 24.05.2020
3523 Clouds 13 1026 87 10000 9.3 250 14:22 24.05.2020
3524 Clouds 13 1025 87 10000 8.7 260 13:56 24.05.2020
3525 Clouds 13 1025 87 10000 6.7 250 13:38 24.05.2020
3526 Clouds 13 1025 87 10000 6.7 250 13:19 24.05.2020
3527 Rain 13 1024 87 10000 7.7 250 12:57 24.05.2020
3528 Drizzle 12 1024 93 3500 6.2 240 12:38 24.05.2020
3529 Rain 12 1024 93 3500 6.2 240 12:19 24.05.2020
3530 Rain 12 1023 93 4500 6.7 240 11:54 24.05.2020
3531 Rain 12 1022 93 9000 8.2 240 11:36 24.05.2020
3532 Rain 12 1022 93 9000 8.2 240 11:18 24.05.2020
3533 Rain 12 1021 87 6000 7.2 250 10:42 24.05.2020
3534 Rain 12 1021 87 6000 7.2 250 10:23 24.05.2020
3535 Rain 12 1029 98 0 0.89 197 09:57 24.05.2020
3536 Rain 12 1029 98 0 1.34 194 09:39 24.05.2020
3537 Rain 12 1020 87 9000 7.7 250 09:18 24.05.2020
3538 Rain 12 1019 87 10000 7.2 240 08:42 24.05.2020
3539 Rain 12 1019 87 10000 7.2 240 08:24 24.05.2020
3540 Clouds 12 1019 87 10000 7.7 240 07:58 24.05.2020
3541 Clouds 12 1018 87 10000 7.7 240 07:40 24.05.2020
3542 Rain 12 1018 87 10000 7.7 240 07:21 24.05.2020
3543 Rain 11 1017 87 10000 6.7 250 06:39 24.05.2020
3544 Clouds 11 1017 93 10000 7.7 240 05:49 24.05.2020
3545 Rain 11 1016 87 7000 6.7 250 03:56 24.05.2020
3546 Rain 11 1016 87 10000 7.2 240 03:35 24.05.2020
3547 Rain 10 1016 93 10000 7.7 240 02:24 24.05.2020
3548 Clouds 10 1016 81 10000 6.7 240 00:59 24.05.2020
3549 Clouds 10 1016 81 10000 7.2 250 00:36 24.05.2020
3550 Clouds 10 1016 81 10000 7.2 250 00:18 24.05.2020
3551 Clouds 10 1015 81 10000 9.3 240 23:38 23.05.2020
3552 Clouds 10 1015 81 10000 9.3 240 23:19 23.05.2020
3553 Clouds 10 1014 81 10000 10.3 240 22:55 23.05.2020
3554 Clouds 10 1014 81 10000 10.3 250 22:37 23.05.2020
3555 Clouds 10 1014 81 10000 10.3 250 22:18 23.05.2020
3556 Clouds 11 1013 76 10000 11.3 240 21:56 23.05.2020
3557 Clouds 11 1013 76 10000 11.3 240 21:36 23.05.2020
3558 Clouds 11 1013 76 10000 11.3 240 21:18 23.05.2020
3559 Rain 10 1012 87 8000 10.3 240 20:39 23.05.2020
3560 Rain 10 1012 87 8000 10.3 240 20:20 23.05.2020
3561 Rain 11 1011 81 9000 11.8 240 19:59 23.05.2020
3562 Rain 11 1011 81 9000 11.8 240 19:59 23.05.2020
3563 Rain 11 1011 81 7000 12.3 250 19:40 23.05.2020
3564 Rain 11 1011 81 7000 12.3 250 19:19 23.05.2020
3565 Rain 10 1010 87 7000 11.8 250 18:41 23.05.2020
3566 Rain 10 1010 87 7000 11.8 250 18:22 23.05.2020
3567 Rain 11 1010 87 10000 11.3 240 17:58 23.05.2020
3568 Rain 11 1010 87 10000 11.3 240 17:58 23.05.2020
3569 Rain 11 1009 87 4300 11.8 240 17:40 23.05.2020
3570 Rain 11 1009 87 4300 11.8 240 17:20 23.05.2020
3571 Rain 11 1009 87 9000 12.3 240 16:59 23.05.2020
3572 Rain 11 1009 87 9000 12.3 240 16:59 23.05.2020
3573 Rain 11 1008 87 10000 12.9 240 16:40 23.05.2020
3574 Rain 11 1008 87 10000 12.9 240 16:20 23.05.2020
3575 Drizzle 11 1008 87 4500 12.9 240 15:56 23.05.2020
3576 Rain 10 1007 93 4900 13.4 240 15:38 23.05.2020
3577 Drizzle 10 1007 93 4900 13.4 240 15:19 23.05.2020
3578 Rain 10 1006 93 10000 10.3 230 14:41 23.05.2020
3579 Rain 10 1005 87 10000 11.3 230 14:23 23.05.2020
3580 Rain 10 1005 87 5000 12.9 220 13:42 23.05.2020
3581 Rain 10 1005 87 5000 12.9 220 13:19 23.05.2020
3582 Rain 10 1005 87 4600 12.9 230 12:58 23.05.2020
3583 Rain 10 1004 87 6000 13.4 220 12:40 23.05.2020
3584 Rain 10 1004 87 6000 13.4 220 12:19 23.05.2020
3585 Rain 9 1004 87 10000 12.3 220 11:43 23.05.2020
3586 Rain 9 1004 87 10000 12.3 220 11:22 23.05.2020
3587 Rain 9 1003 87 10000 10.8 220 10:58 23.05.2020
3588 Rain 9 1003 87 9000 12.3 220 10:40 23.05.2020
3589 Rain 9 1003 87 9000 12.3 220 10:20 23.05.2020
3590 Rain 9 1002 81 10000 12.9 220 09:59 23.05.2020
3591 Rain 9 1002 81 5000 13.9 220 09:41 23.05.2020
3592 Rain 9 1002 81 5000 13.9 220 09:22 23.05.2020
3593 Rain 9 1002 87 5000 12.9 210 08:44 23.05.2020
3594 Rain 9 1002 87 5000 12.9 210 08:20 23.05.2020
3595 Rain 9 1002 81 4800 14.4 220 07:59 23.05.2020
3596 Rain 9 1002 87 7000 12.3 210 07:39 23.05.2020
3597 Rain 9 1002 87 7000 12.3 210 07:21 23.05.2020
3598 Rain 9 1002 76 10000 13.9 210 06:39 23.05.2020
3599 Clouds 10 1002 71 10000 12.9 210 05:46 23.05.2020
3600 Clouds 10 1003 76 10000 12.9 210 03:48 23.05.2020
3601 Clouds 10 1003 71 10000 13.4 210 03:21 23.05.2020
3602 Clouds 10 1003 71 10000 10.8 220 01:59 23.05.2020
3603 Clouds 10 1003 71 10000 10.8 220 01:59 23.05.2020
3604 Clouds 11 1003 71 10000 11.3 220 01:27 23.05.2020
3605 Rain 11 1002 71 10000 9.8 210 00:47 23.05.2020
3606 Rain 11 1002 71 10000 9.8 210 00:29 23.05.2020
3607 Rain 11 1002 71 10000 10.3 220 23:58 22.05.2020
3608 Rain 11 1002 71 10000 11.8 220 23:39 22.05.2020
3609 Rain 11 1002 71 10000 11.8 220 23:39 22.05.2020
3610 Clouds 11 1002 66 10000 12.3 210 23:19 22.05.2020
3611 Clouds 12 1002 66 10000 12.3 210 22:55 22.05.2020
3612 Clouds 11 1002 76 10000 10.8 220 22:36 22.05.2020
3613 Clouds 11 1002 76 10000 10.8 220 22:18 22.05.2020
3614 Clouds 11 1002 76 10000 10.8 220 22:18 22.05.2020
3615 Rain 12 1002 71 10000 12.9 210 22:18 22.05.2020
3616 Clouds 12 1001 66 10000 10.3 210 21:42 22.05.2020
3617 Clouds 12 1001 66 10000 10.3 210 21:21 22.05.2020
3618 Clouds 13 1000 62 10000 13.4 210 20:46 22.05.2020
3619 Clouds 13 1000 62 10000 13.4 210 20:21 22.05.2020
3620 Rain 13 1000 66 10000 11.8 220 19:59 22.05.2020
3621 Clouds 13 1000 66 10000 12.3 210 19:40 22.05.2020
3622 Clouds 13 1000 66 10000 12.3 210 19:22 22.05.2020
3623 Rain 13 1000 71 10000 12.3 210 18:39 22.05.2020
3624 Rain 13 1000 71 10000 12.3 210 18:21 22.05.2020
3625 Clouds 13 999 71 10000 11.8 210 17:57 22.05.2020
3626 Rain 13 999 81 10000 10.3 210 17:37 22.05.2020
3627 Rain 13 999 81 10000 10.3 210 17:18 22.05.2020
3628 Rain 13 999 81 10000 10.3 210 17:18 22.05.2020
3629 Rain 13 999 71 10000 11.3 200 16:43 22.05.2020
3630 Rain 13 999 71 10000 11.3 200 16:20 22.05.2020
3631 Rain 12 999 76 8000 11.3 210 15:59 22.05.2020
3632 Rain 12 999 76 8000 11.3 210 15:59 22.05.2020
3633 Rain 12 999 81 7000 11.3 200 15:40 22.05.2020
3634 Rain 12 999 81 7000 11.3 200 15:40 22.05.2020
3635 Rain 12 999 81 7000 11.3 200 15:19 22.05.2020
3636 Rain 13 999 81 8000 9.3 200 14:43 22.05.2020
3637 Rain 13 999 81 8000 9.3 200 14:43 22.05.2020
3638 Rain 12 999 81 8000 9.3 200 14:24 22.05.2020
3639 Rain 13 998 71 10000 9.8 190 13:45 22.05.2020
3640 Rain 13 998 71 10000 9.8 190 13:20 22.05.2020
3641 Rain 12 999 76 9000 9.3 190 12:45 22.05.2020
3642 Rain 12 999 76 7000 9.8 190 12:26 22.05.2020
3643 Rain 12 998 76 8000 10.8 190 11:59 22.05.2020
3644 Rain 13 998 66 10000 11.8 190 11:40 22.05.2020
3645 Clouds 13 998 66 10000 11.8 190 11:20 22.05.2020
3646 Clouds 13 999 66 10000 10.3 200 10:55 22.05.2020
3647 Clouds 13 999 66 10000 10.3 200 10:36 22.05.2020
3648 Clouds 13 999 71 10000 10.8 200 10:18 22.05.2020
3649 Clouds 13 999 76 10000 9.8 200 09:41 22.05.2020
3650 Clouds 13 999 76 10000 9.8 200 09:19 22.05.2020
3651 Clouds 13 999 82 10000 9.8 210 08:43 22.05.2020
3652 Clouds 13 999 82 10000 9.8 210 08:21 22.05.2020
3653 Rain 13 998 82 10000 9.8 190 07:56 22.05.2020
3654 Rain 12 998 87 8000 7.7 180 07:27 22.05.2020
3655 Rain 12 998 87 6000 9.3 140 06:57 22.05.2020
3656 Rain 12 999 87 10000 6.2 110 06:36 22.05.2020
3657 Rain 12 1002 81 10000 6.2 100 05:39 22.05.2020
3658 Rain 13 1004 76 10000 5.7 100 04:51 22.05.2020
3659 Rain 13 1005 76 10000 3.6 70 04:24 22.05.2020
3660 Rain 14 1005 62 10000 3.6 80 03:47 22.05.2020
3661 Rain 14 1007 67 10000 3.1 80 02:59 22.05.2020
3662 Rain 14 1009 67 10000 4.1 80 01:56 22.05.2020
3663 Clouds 13 1010 71 10000 3.6 60 01:28 22.05.2020
3664 Clouds 15 1011 62 10000 4.1 90 00:46 22.05.2020
3665 Clouds 14 1012 67 10000 4.1 90 00:27 22.05.2020
3666 Clouds 14 1014 62 10000 3.1 110 23:43 21.05.2020
3667 Clouds 15 1014 62 10000 3.1 110 23:24 21.05.2020
3668 Clouds 15 1014 58 10000 2.6 120 22:58 21.05.2020
3669 Clouds 15 1014 58 10000 2.6 80 22:38 21.05.2020
3670 Clouds 15 1014 58 10000 2.6 80 22:20 21.05.2020
3671 Clouds 15 1014 54 10000 2.1 100 21:56 21.05.2020
3672 Clouds 15 1015 58 10000 2.6 140 21:38 21.05.2020
3673 Clouds 16 1015 55 10000 3.1 140 21:18 21.05.2020
3674 Clouds 16 1015 59 10000 3.1 110 20:42 21.05.2020
3675 Clouds 16 1015 59 10000 3.1 110 20:22 21.05.2020
3676 Clouds 16 1017 55 10000 4.1 220 19:41 21.05.2020
3677 Clouds 16 1017 55 10000 4.1 220 19:20 21.05.2020
3678 Clouds 16 1017 55 10000 3.1 230 18:59 21.05.2020
3679 Clouds 16 1017 59 10000 3.6 220 18:37 21.05.2020
3680 Clouds 16 1017 59 10000 3.6 220 18:19 21.05.2020
3681 Clouds 17 1018 55 10000 4.6 230 17:56 21.05.2020
3682 Clouds 17 1018 55 10000 3.6 250 17:37 21.05.2020
3683 Clouds 16 1018 55 10000 3.6 250 17:19 21.05.2020
3684 Clouds 16 1018 59 10000 3.6 310 16:44 21.05.2020
3685 Clouds 16 1018 59 10000 3.6 310 16:22 21.05.2020
3686 Clouds 15 1019 67 10000 4.1 270 15:44 21.05.2020
3687 Clouds 15 1019 67 10000 4.1 270 15:23 21.05.2020
3688 Clouds 15 1019 76 10000 4.6 300 14:43 21.05.2020
3689 Clouds 15 1019 76 10000 4.6 300 14:23 21.05.2020
3690 Clouds 15 1018 77 10000 2.1 290 13:58 21.05.2020
3691 Rain 14 1018 82 7000 4.1 270 13:38 21.05.2020
3692 Rain 13 1018 82 7000 4.1 270 13:19 21.05.2020
3693 Rain 13 1018 87 10000 2.6 240 12:40 21.05.2020
3694 Rain 12 1018 87 10000 2.6 240 12:22 21.05.2020
3695 Rain 11 1018 93 10000 1.5 10 11:58 21.05.2020
3696 Rain 11 1018 87 10000 0.5 0 11:39 21.05.2020
3697 Rain 11 1018 87 10000 0.5 0 11:21 21.05.2020
3698 Rain 11 1018 81 10000 1 0 10:45 21.05.2020
3699 Clouds 10 1017 87 10000 0.5 0 10:23 21.05.2020
3700 Clouds 10 1017 87 10000 2.1 240 09:59 21.05.2020
3701 Clouds 9 1017 93 10000 1 0 09:40 21.05.2020
3702 Clouds 9 1017 93 10000 1 0 09:22 21.05.2020
3703 Clouds 9 1017 93 10000 1 270 08:56 21.05.2020
3704 Clouds 8 1017 93 10000 0.5 0 08:37 21.05.2020
3705 Clouds 8 1017 93 10000 0.5 0 08:19 21.05.2020
3706 Clouds 7 1016 93 10000 0.5 0 07:41 21.05.2020
3707 Clouds 7 1016 93 10000 0.5 0 07:22 21.05.2020
3708 Clouds 8 1016 100 6000 1 0 06:37 21.05.2020
3709 Clouds 6 1016 100 7000 1 240 05:50 21.05.2020
3710 Fog 7 1016 93 800 1 0 04:18 21.05.2020
3711 Fog 6 1016 100 300 2.1 230 03:21 21.05.2020
3712 Fog 7 1016 100 350 1 0 02:31 21.05.2020
3713 Haze 7 1017 100 5000 1.5 0 01:51 21.05.2020
3714 Clear 8 1017 93 10000 1 0 01:24 21.05.2020
3715 Clear 10 1017 87 9000 0.5 0 00:54 21.05.2020
3716 Clear 10 1017 87 10000 2.6 280 00:27 21.05.2020
3717 Clear 11 1017 87 10000 1 0 23:59 20.05.2020
3718 Clear 11 1017 87 10000 1 0 23:59 20.05.2020
3719 Clear 11 1017 87 10000 2.1 260 23:38 20.05.2020
3720 Clear 11 1017 87 10000 2.1 260 23:18 20.05.2020
3721 Clear 12 1016 82 10000 2.1 280 22:42 20.05.2020
3722 Clear 13 1016 82 10000 2.1 280 22:24 20.05.2020
3723 Clear 14 1016 82 10000 1 0 21:56 20.05.2020
3724 Clear 14 1016 82 10000 1 0 21:56 20.05.2020
3725 Clear 14 1016 82 10000 3.1 260 21:37 20.05.2020
3726 Clouds 14 1016 82 10000 3.1 260 21:19 20.05.2020
3727 Clouds 16 1016 77 10000 4.1 260 20:41 20.05.2020
3728 Clouds 16 1016 77 10000 4.1 260 20:23 20.05.2020
3729 Clouds 16 1016 77 10000 4.1 260 20:23 20.05.2020
3730 Clouds 18 1017 72 10000 4.1 250 19:42 20.05.2020
3731 Clouds 18 1017 72 10000 4.1 250 19:24 20.05.2020
3732 Clouds 19 1017 68 10000 3.6 260 18:59 20.05.2020
3733 Clouds 19 1017 68 10000 3.6 270 18:40 20.05.2020
3734 Clouds 19 1017 68 10000 3.6 270 18:20 20.05.2020
3735 Clouds 19 1017 68 10000 3.6 270 18:20 20.05.2020
3736 Clouds 19 1017 64 10000 3.6 260 17:40 20.05.2020
3737 Clouds 20 1017 64 10000 3.6 260 17:21 20.05.2020
3738 Clouds 20 1017 64 10000 4.6 250 16:55 20.05.2020
3739 Clouds 20 1018 60 10000 3.1 210 16:36 20.05.2020
3740 Clouds 20 1018 60 10000 3.1 210 16:18 20.05.2020
3741 Clouds 20 1018 60 10000 3.1 190 15:42 20.05.2020
3742 Clouds 20 1018 60 10000 3.1 190 15:23 20.05.2020
3743 Clouds 20 1019 63 10000 4.1 200 14:43 20.05.2020
3744 Clouds 19 1019 63 10000 4.1 200 14:21 20.05.2020
3745 Clouds 18 1019 72 10000 4.6 190 13:43 20.05.2020
3746 Clouds 18 1019 72 10000 3.1 170 13:21 20.05.2020
3747 Clouds 18 1019 72 10000 3.1 170 12:59 20.05.2020
3748 Clouds 17 1019 77 10000 4.1 220 12:39 20.05.2020
3749 Clouds 16 1019 77 10000 4.1 220 12:20 20.05.2020
3750 Clouds 16 1020 77 10000 2.6 0 11:37 20.05.2020
3751 Clouds 16 1020 77 10000 2.6 160 11:18 20.05.2020
3752 Clouds 16 1020 77 10000 2.1 130 10:43 20.05.2020
3753 Clouds 16 1020 77 10000 2.1 130 10:21 20.05.2020
3754 Clouds 15 1020 82 10000 2.6 100 09:46 20.05.2020
3755 Clouds 14 1020 82 10000 2.6 110 09:22 20.05.2020
3756 Clouds 14 1020 93 7000 1 80 08:59 20.05.2020
3757 Clouds 14 1020 93 6000 1 60 08:41 20.05.2020
3758 Clouds 14 1020 93 6000 1 60 08:19 20.05.2020
3759 Mist 13 1020 93 4800 1 350 07:49 20.05.2020
3760 Mist 13 1020 93 4800 1 350 07:22 20.05.2020
3761 Mist 13 1020 93 3900 1 0 06:45 20.05.2020
3762 Haze 13 1020 93 4600 1.5 210 05:25 20.05.2020
3763 Haze 13 1020 100 3400 1.5 260 04:34 20.05.2020
3764 Haze 13 1020 100 4400 1 240 03:53 20.05.2020
3765 Clouds 14 1021 93 10000 0.5 80 02:32 20.05.2020
3766 Clouds 14 1021 93 10000 0.5 0 01:31 20.05.2020
3767 Clouds 14 1021 93 10000 1 140 00:45 20.05.2020
3768 Clouds 14 1021 93 10000 1 140 00:24 20.05.2020
3769 Clouds 14 1021 93 10000 2.1 240 23:45 19.05.2020
3770 Clouds 14 1021 93 10000 2.1 240 23:20 19.05.2020
3771 Clouds 14 1021 87 10000 1.5 290 22:56 19.05.2020
3772 Clouds 14 1021 87 10000 2.1 230 22:38 19.05.2020
3773 Clouds 14 1021 87 10000 2.1 230 22:19 19.05.2020
3774 Clouds 15 1021 82 10000 3.1 260 21:58 19.05.2020
3775 Clouds 15 1021 82 10000 2.6 260 21:38 19.05.2020
3776 Clouds 15 1021 82 10000 2.6 260 21:20 19.05.2020
3777 Clouds 15 1021 82 10000 3.6 270 20:57 19.05.2020
3778 Clouds 15 1021 82 10000 3.1 260 20:39 19.05.2020
3779 Clouds 15 1021 82 10000 3.1 260 20:21 19.05.2020
3780 Clouds 15 1021 82 10000 3.1 260 20:21 19.05.2020
3781 Clouds 15 1021 82 10000 4.1 260 19:55 19.05.2020
3782 Clouds 15 1021 82 10000 4.6 250 19:37 19.05.2020
3783 Clouds 15 1021 82 10000 4.6 250 19:18 19.05.2020
3784 Clouds 15 1021 87 10000 4.6 230 18:42 19.05.2020
3785 Clouds 15 1021 87 10000 4.6 230 18:20 19.05.2020
3786 Drizzle 14 1020 93 3800 4.1 260 17:43 19.05.2020
3787 Drizzle 14 1020 93 3800 4.1 260 17:21 19.05.2020
3788 Haze 14 1020 93 4400 4.6 240 16:59 19.05.2020
3789 Rain 14 1020 82 10000 4.6 240 16:38 19.05.2020
3790 Rain 15 1020 82 10000 6.2 230 16:20 19.05.2020
3791 Clouds 15 1020 82 10000 5.1 260 15:47 19.05.2020
3792 Clouds 15 1020 82 10000 5.1 260 15:23 19.05.2020
3793 Clouds 15 1020 82 10000 5.7 260 14:58 19.05.2020
3794 Clouds 15 1020 77 10000 6.2 270 14:39 19.05.2020
3795 Clouds 15 1020 77 10000 6.2 270 14:20 19.05.2020
3796 Clouds 16 1020 72 10000 6.2 270 13:58 19.05.2020
3797 Clouds 16 1019 72 10000 6.7 260 13:39 19.05.2020
3798 Clouds 16 1019 72 10000 6.7 260 13:20 19.05.2020
3799 Clouds 15 1019 82 10000 6.2 260 12:57 19.05.2020
3800 Clouds 14 1019 82 10000 7.2 260 12:38 19.05.2020
3801 Clouds 14 1019 82 10000 7.2 260 12:20 19.05.2020
3802 Clouds 15 1019 82 10000 5.1 260 11:54 19.05.2020
3803 Rain 14 1019 87 10000 4.6 270 11:36 19.05.2020
3804 Rain 14 1019 87 10000 4.6 270 11:36 19.05.2020
3805 Rain 14 1019 87 10000 4.6 270 11:18 19.05.2020
3806 Clouds 14 1018 87 10000 4.1 230 10:42 19.05.2020
3807 Clouds 14 1018 87 10000 4.1 230 10:23 19.05.2020
3808 Clouds 13 1018 93 10000 2.6 230 09:47 19.05.2020
3809 Clouds 13 1018 93 10000 2.6 230 09:25 19.05.2020
3810 Clouds 13 1018 93 10000 2.6 230 09:25 19.05.2020
3811 Clouds 12 1018 93 10000 3.1 240 08:59 19.05.2020
3812 Rain 12 1017 93 10000 2.1 250 08:41 19.05.2020
3813 Rain 12 1017 93 10000 2.1 250 08:23 19.05.2020
3814 Rain 12 1017 93 6000 2.6 230 07:42 19.05.2020
3815 Rain 12 1017 93 6000 2.6 230 07:42 19.05.2020
3816 Rain 12 1017 93 6000 2.6 230 07:24 19.05.2020
3817 Rain 12 1017 93 8000 2.6 230 06:41 19.05.2020
3818 Rain 12 1017 93 8000 2.6 230 06:22 19.05.2020
3819 Rain 12 1017 93 10000 3.1 220 05:39 19.05.2020
3820 Rain 12 1017 93 10000 2.6 220 04:54 19.05.2020
3821 Clouds 11 1017 100 10000 1 0 02:59 19.05.2020
3822 Rain 11 1018 100 8000 1 210 01:21 19.05.2020
3823 Rain 11 1018 100 10000 1 0 00:41 19.05.2020
3824 Rain 11 1018 100 10000 1 0 00:19 19.05.2020
3825 Rain 12 1018 100 10000 1 0 23:40 18.05.2020
3826 Rain 12 1018 100 10000 1 0 23:20 18.05.2020
3827 Drizzle 12 1018 93 2600 1.5 250 22:57 18.05.2020
3828 Drizzle 12 1018 93 5000 1 250 22:39 18.05.2020
3829 Drizzle 12 1018 93 5000 1 250 22:20 18.05.2020
3830 Rain 12 1018 93 10000 4.1 220 21:42 18.05.2020
3831 Rain 12 1018 93 10000 4.1 220 21:22 18.05.2020
3832 Rain 13 1018 87 10000 4.6 220 20:57 18.05.2020
3833 Rain 13 1018 87 10000 4.6 220 20:38 18.05.2020
3834 Clouds 13 1018 87 10000 5.1 220 20:20 18.05.2020
3835 Clouds 13 1018 87 10000 5.1 220 19:55 18.05.2020
3836 Clouds 13 1018 87 10000 5.1 210 19:37 18.05.2020
3837 Clouds 13 1018 87 10000 6.2 220 19:18 18.05.2020
3838 Rain 13 1018 87 7000 6.2 220 18:43 18.05.2020
3839 Rain 13 1018 87 7000 6.2 220 18:21 18.05.2020
3840 Clouds 14 1018 67 10000 6.2 250 17:39 18.05.2020
3841 Clouds 14 1018 67 10000 8.2 240 17:18 18.05.2020
3842 Clouds 14 1018 67 10000 8.2 240 16:56 18.05.2020
3843 Clouds 14 1018 82 10000 7.2 220 16:37 18.05.2020
3844 Clouds 14 1018 82 10000 7.2 220 16:18 18.05.2020
3845 Clouds 14 1018 82 10000 6.7 230 15:54 18.05.2020
3846 Clouds 14 1018 71 10000 7.7 250 15:36 18.05.2020
3847 Clouds 14 1018 71 10000 7.7 250 15:18 18.05.2020
3848 Rain 14 1018 76 10000 7.2 260 14:41 18.05.2020
3849 Rain 14 1018 76 10000 7.2 260 14:23 18.05.2020
3850 Rain 14 1018 82 10000 6.2 250 13:54 18.05.2020
3851 Rain 13 1018 82 10000 5.7 240 13:36 18.05.2020
3852 Rain 13 1018 82 10000 5.7 240 13:18 18.05.2020
3853 Clouds 13 1017 82 10000 6.7 240 12:55 18.05.2020
3854 Clouds 13 1017 76 10000 7.2 250 12:37 18.05.2020
3855 Clouds 14 1017 76 10000 7.2 250 12:18 18.05.2020
3856 Clouds 13 1017 76 10000 6.2 260 11:46 18.05.2020
3857 Clouds 13 1017 82 10000 5.1 240 11:26 18.05.2020
3858 Clouds 13 1016 82 10000 5.7 240 10:47 18.05.2020
3859 Clouds 12 1016 82 10000 4.6 230 10:27 18.05.2020
3860 Clouds 12 1016 87 10000 4.1 210 09:54 18.05.2020
3861 Clouds 12 1016 87 10000 5.7 220 09:36 18.05.2020
3862 Clouds 12 1016 87 10000 5.7 220 09:18 18.05.2020
3863 Clouds 11 1016 93 10000 4.1 220 08:42 18.05.2020
3864 Clouds 11 1016 93 10000 4.1 220 08:42 18.05.2020
3865 Clouds 11 1016 93 10000 4.1 220 08:23 18.05.2020
3866 Clouds 11 1016 93 10000 4.1 220 07:48 18.05.2020
3867 Clouds 11 1015 93 9000 5.1 210 07:26 18.05.2020
3868 Haze 11 1015 93 4900 5.7 210 06:48 18.05.2020
3869 Rain 11 1015 87 7000 5.7 220 06:24 18.05.2020
3870 Rain 11 1016 93 10000 7.7 220 05:45 18.05.2020
3871 Clouds 11 1016 87 10000 3.6 220 03:58 18.05.2020
3872 Clouds 10 1016 93 10000 4.1 220 03:28 18.05.2020
3873 Rain 11 1017 93 6000 7.7 220 01:57 18.05.2020
3874 Rain 11 1017 93 10000 6.7 220 00:50 18.05.2020
3875 Rain 12 1017 93 9000 5.7 220 00:19 18.05.2020
3876 Rain 12 1017 93 9000 5.7 220 23:56 17.05.2020
3877 Rain 12 1017 93 9000 4.1 220 23:38 17.05.2020
3878 Drizzle 12 1017 93 3900 4.1 220 23:19 17.05.2020
3879 Drizzle 12 1017 93 3900 4.1 220 22:54 17.05.2020
3880 Drizzle 12 1017 93 5000 3.1 220 22:36 17.05.2020
3881 Drizzle 12 1017 93 5000 3.1 220 22:18 17.05.2020
3882 Clouds 12 1017 93 10000 3.6 230 21:41 17.05.2020
3883 Clouds 12 1017 93 10000 3.6 230 21:20 17.05.2020
3884 Clouds 12 1017 93 10000 4.6 220 20:56 17.05.2020
3885 Clouds 12 1017 93 9000 2.6 230 20:38 17.05.2020
3886 Rain 12 1017 93 10000 4.1 220 20:19 17.05.2020
3887 Rain 12 1017 93 7000 2.1 220 19:47 17.05.2020
3888 Rain 12 1017 93 7000 2.1 220 19:28 17.05.2020
3889 Haze 12 1017 93 5000 4.6 220 18:57 17.05.2020
3890 Clouds 12 1018 93 9000 4.6 230 18:38 17.05.2020
3891 Clouds 12 1018 93 9000 4.6 230 18:20 17.05.2020
3892 Clouds 12 1018 93 6000 4.1 220 17:41 17.05.2020
3893 Clouds 12 1018 93 6000 4.1 220 17:23 17.05.2020
3894 Clouds 11 1018 93 6000 5.7 210 16:57 17.05.2020
3895 Haze 11 1018 93 3900 3.6 190 16:39 17.05.2020
3896 Haze 11 1018 93 3900 3.6 190 16:20 17.05.2020
3897 Haze 11 1018 93 5000 5.7 190 15:46 17.05.2020
3898 Haze 11 1018 93 5000 5.7 190 15:25 17.05.2020
3899 Rain 11 1018 93 10000 5.7 200 14:58 17.05.2020
3900 Rain 11 1018 93 10000 6.7 210 14:40 17.05.2020
3901 Rain 11 1018 93 10000 6.7 210 14:21 17.05.2020
3902 Rain 11 1018 93 6000 6.7 220 13:43 17.05.2020
3903 Rain 11 1018 93 6000 6.7 220 13:21 17.05.2020
3904 Rain 10 1018 93 10000 7.2 210 10:35 17.05.2020
3905 Clouds 10 1020 81 10000 5.7 220 03:53 17.05.2020
3906 Clouds 10 1020 81 10000 5.1 210 02:27 17.05.2020
3907 Clouds 10 1020 81 10000 4.1 210 01:55 17.05.2020
3908 Clouds 10 1021 81 10000 5.1 240 00:53 17.05.2020
3909 Clouds 10 1021 81 10000 4.1 230 00:31 17.05.2020
3910 Clouds 10 1021 81 10000 3.1 250 23:57 16.05.2020
3911 Clouds 10 1021 81 10000 3.1 230 23:38 16.05.2020
3912 Clouds 11 1021 76 10000 4.1 240 23:19 16.05.2020
3913 Clouds 11 1021 76 10000 3.6 240 22:42 16.05.2020
3914 Clouds 11 1021 76 10000 3.6 240 22:23 16.05.2020
3915 Clouds 11 1021 76 10000 3.6 240 22:23 16.05.2020
3916 Clouds 11 1021 76 10000 4.6 240 21:59 16.05.2020
3917 Clouds 11 1021 71 10000 6.7 240 21:41 16.05.2020
3918 Clouds 12 1021 71 10000 6.7 240 21:21 16.05.2020
3919 Clouds 12 1021 66 10000 6.2 250 20:57 16.05.2020
3920 Clouds 12 1021 66 10000 6.7 240 20:38 16.05.2020
3921 Clouds 12 1021 66 10000 6.7 240 20:20 16.05.2020
3922 Clouds 13 1020 54 10000 6.2 260 19:43 16.05.2020
3923 Clouds 13 1020 54 10000 6.2 260 19:23 16.05.2020
3924 Clouds 13 1020 58 10000 5.1 260 18:59 16.05.2020
3925 Clouds 13 1021 54 10000 6.2 260 18:41 16.05.2020
3926 Clouds 14 1021 54 10000 6.2 260 18:22 16.05.2020
3927 Clouds 14 1021 58 10000 6.2 260 17:42 16.05.2020
3928 Clouds 14 1021 58 10000 6.2 260 17:22 16.05.2020
3929 Clouds 13 1021 62 10000 6.7 260 16:59 16.05.2020
3930 Rain 13 1021 66 10000 6.2 260 16:39 16.05.2020
3931 Rain 13 1021 66 10000 6.2 260 16:19 16.05.2020
3932 Clouds 13 1021 62 10000 7.2 260 15:54 16.05.2020
3933 Clouds 13 1021 58 10000 7.7 250 15:36 16.05.2020
3934 Clouds 14 1021 58 10000 7.7 250 15:18 16.05.2020
3935 Clouds 12 1021 66 10000 6.2 260 14:42 16.05.2020
3936 Clouds 12 1021 66 10000 6.2 260 14:20 16.05.2020
3937 Clouds 12 1021 66 10000 7.7 250 13:56 16.05.2020
3938 Clouds 12 1021 66 10000 7.2 250 13:36 16.05.2020
3939 Clouds 12 1021 66 10000 7.2 260 13:18 16.05.2020
3940 Clouds 11 1021 71 10000 7.2 260 12:43 16.05.2020
3941 Rain 11 1021 71 10000 6.7 270 12:20 16.05.2020
3942 Rain 11 1021 71 10000 7.2 260 12:20 16.05.2020
3943 Clouds 11 1022 71 10000 5.7 260 11:43 16.05.2020
3944 Clouds 11 1022 71 10000 5.7 260 11:24 16.05.2020
3945 Clouds 11 1022 71 10000 5.1 260 10:59 16.05.2020
3946 Clouds 10 1022 76 10000 5.1 250 10:40 16.05.2020
3947 Clouds 10 1022 76 10000 5.1 250 10:22 16.05.2020
3948 Clouds 10 1022 76 10000 3.6 250 09:58 16.05.2020
3949 Clouds 10 1021 76 10000 4.6 260 09:38 16.05.2020
3950 Clouds 9 1021 81 10000 4.6 240 09:18 16.05.2020
3951 Clouds 10 1021 76 10000 4.6 260 09:18 16.05.2020
3952 Clouds 9 1021 76 10000 4.6 250 08:42 16.05.2020
3953 Clouds 9 1021 76 10000 4.6 250 08:19 16.05.2020
3954 Clouds 9 1021 76 10000 6.2 240 07:43 16.05.2020
3955 Clouds 9 1021 76 10000 6.2 240 07:24 16.05.2020
3956 Clouds 8 1021 81 10000 7.2 240 06:49 16.05.2020
3957 Clouds 8 1022 81 10000 6.7 230 06:24 16.05.2020
3958 Clouds 8 1022 81 10000 6.7 230 05:56 16.05.2020
3959 Clouds 8 1022 81 10000 5.7 240 05:29 16.05.2020
3960 Clouds 8 1023 87 10000 3.1 230 03:35 16.05.2020
3961 Clouds 8 1023 81 10000 3.6 240 02:59 16.05.2020
3962 Clouds 8 1023 81 10000 3.6 250 02:20 16.05.2020
3963 Clouds 8 1023 81 10000 3.6 240 01:44 16.05.2020
3964 Clouds 8 1023 81 10000 3.6 250 01:18 16.05.2020
3965 Clouds 8 1023 81 10000 4.1 220 00:42 16.05.2020
3966 Clouds 8 1023 81 10000 4.1 220 00:21 16.05.2020
3967 Rain 8 1023 76 10000 3.6 300 23:40 15.05.2020
3968 Rain 9 1023 76 10000 3.6 300 23:20 15.05.2020
3969 Clouds 9 1023 76 10000 3.6 260 22:56 15.05.2020
3970 Rain 9 1023 70 10000 4.1 260 22:38 15.05.2020
3971 Clouds 10 1024 66 10000 5.7 280 22:18 15.05.2020
3972 Clouds 10 1023 66 10000 5.1 270 21:39 15.05.2020
3973 Clouds 10 1023 66 10000 5.1 270 21:21 15.05.2020
3974 Clouds 11 1024 62 10000 5.1 270 20:58 15.05.2020
3975 Clouds 11 1024 62 10000 4.6 260 20:40 15.05.2020
3976 Clouds 11 1024 62 10000 4.6 260 20:22 15.05.2020
3977 Clouds 11 1024 62 10000 4.6 260 20:22 15.05.2020
3978 Rain 11 1024 71 10000 5.7 290 19:55 15.05.2020
3979 Clouds 11 1023 58 10000 8.2 300 19:36 15.05.2020
3980 Clouds 11 1023 58 10000 8.2 300 19:18 15.05.2020
3981 Clouds 13 1023 50 10000 6.7 290 18:41 15.05.2020
3982 Clouds 14 1023 50 10000 6.7 290 18:23 15.05.2020
3983 Clouds 13 1023 47 10000 6.7 290 17:39 15.05.2020
3984 Clouds 14 1023 47 10000 6.7 290 17:19 15.05.2020
3985 Clouds 14 1023 47 10000 6.2 280 16:57 15.05.2020
3986 Clouds 14 1023 54 10000 5.1 290 16:38 15.05.2020
3987 Clouds 13 1023 54 10000 5.1 290 16:19 15.05.2020
3988 Clouds 13 1023 58 10000 6.2 260 15:42 15.05.2020
3989 Clouds 12 1023 58 10000 6.2 260 15:23 15.05.2020
3990 Clouds 12 1023 62 10000 5.7 270 14:59 15.05.2020
3991 Rain 12 1023 62 10000 6.2 290 14:41 15.05.2020
3992 Rain 12 1023 62 10000 6.2 290 14:23 15.05.2020
3993 Clouds 12 1024 58 10000 6.7 290 13:58 15.05.2020
3994 Clouds 12 1024 62 10000 6.7 300 13:38 15.05.2020
3995 Clouds 12 1024 62 10000 6.7 300 13:19 15.05.2020
3996 Clouds 12 1024 58 10000 5.1 300 12:39 15.05.2020
3997 Clouds 11 1024 62 10000 6.2 300 12:18 15.05.2020
3998 Clouds 11 1024 62 10000 6.2 300 11:56 15.05.2020
3999 Clouds 11 1024 62 10000 5.1 290 11:38 15.05.2020
4000 Clouds 10 1024 62 10000 5.1 290 11:19 15.05.2020
4001 Clouds 10 1024 76 10000 4.1 300 10:56 15.05.2020
4002 Clouds 10 1024 66 10000 3.6 300 10:38 15.05.2020
4003 Clouds 10 1024 66 10000 3.6 300 10:20 15.05.2020
4004 Clouds 9 1024 76 10000 4.1 240 09:41 15.05.2020
4005 Clouds 8 1024 76 10000 4.1 240 09:20 15.05.2020
4006 Clouds 8 1024 81 10000 2.6 230 08:59 15.05.2020
4007 Clouds 8 1024 81 10000 2.6 230 08:38 15.05.2020
4008 Clouds 6 1024 81 10000 2.6 230 08:20 15.05.2020
4009 Clouds 6 1024 87 10000 3.1 230 07:46 15.05.2020
4010 Clouds 5 1024 87 10000 3.1 230 07:28 15.05.2020
4011 Clouds 6 1024 87 10000 2.6 240 06:58 15.05.2020
4012 Clouds 5 1024 81 10000 3.6 270 05:56 15.05.2020
4013 Clouds 4 1024 81 10000 3.1 270 04:38 15.05.2020
4014 Clouds 5 1024 86 10000 1.5 0 03:49 15.05.2020
4015 Clouds 6 1024 86 10000 2.1 280 02:44 15.05.2020
4016 Clouds 7 1024 81 10000 3.1 270 01:32 15.05.2020
4017 Clouds 7 1024 81 10000 4.1 280 00:57 15.05.2020
4018 Clouds 7 1024 81 10000 2.6 280 00:39 15.05.2020
4019 Clouds 7 1024 81 10000 2.6 280 00:20 15.05.2020
4020 Clouds 6 1024 80 10000 3.6 230 23:40 14.05.2020
4021 Clouds 6 1024 80 10000 3.6 230 23:18 14.05.2020
4022 Clouds 9 1023 57 10000 5.7 300 22:42 14.05.2020
4023 Clouds 10 1023 57 10000 5.7 300 22:21 14.05.2020
4024 Clouds 11 1023 57 10000 5.7 290 21:58 14.05.2020
4025 Clouds 11 1023 62 10000 4.1 280 21:40 14.05.2020
4026 Clouds 11 1023 62 10000 4.1 280 21:19 14.05.2020
4027 Clouds 11 1023 62 10000 4.6 270 20:56 14.05.2020
4028 Clouds 11 1023 66 10000 5.7 270 20:38 14.05.2020
4029 Clouds 11 1023 66 10000 5.7 270 20:18 14.05.2020
4030 Clouds 12 1023 58 10000 5.7 280 19:55 14.05.2020
4031 Clouds 12 1023 58 10000 5.7 280 19:36 14.05.2020
4032 Clouds 12 1023 58 10000 5.7 280 19:18 14.05.2020
4033 Clouds 12 1023 54 10000 5.1 290 18:54 14.05.2020
4034 Clouds 12 1023 58 10000 6.2 300 18:36 14.05.2020
4035 Clouds 12 1023 58 10000 5.1 290 18:18 14.05.2020
4036 Clouds 12 1023 58 10000 6.2 300 18:18 14.05.2020
4037 Clouds 13 1023 58 10000 5.1 290 17:55 14.05.2020
4038 Clouds 12 1023 62 10000 6.7 300 17:36 14.05.2020
4039 Clouds 12 1023 62 10000 6.7 300 17:18 14.05.2020
4040 Clouds 12 1023 58 10000 4.1 290 16:39 14.05.2020
4041 Clouds 13 1023 58 10000 4.1 290 16:20 14.05.2020
4042 Clouds 12 1023 62 10000 6.7 300 15:57 14.05.2020
4043 Clouds 12 1023 58 10000 5.7 260 15:39 14.05.2020
4044 Clouds 12 1023 58 10000 5.7 260 15:19 14.05.2020
4045 Clouds 12 1023 62 10000 5.1 260 14:55 14.05.2020
4046 Clouds 11 1023 66 10000 6.2 260 14:37 14.05.2020
4047 Clouds 11 1023 66 10000 6.2 260 14:19 14.05.2020
4048 Clouds 12 1023 58 10000 6.2 280 13:44 14.05.2020
4049 Clouds 12 1023 58 10000 6.2 280 13:20 14.05.2020
4050 Clouds 11 1024 62 10000 5.7 260 12:59 14.05.2020
4051 Clouds 11 1024 62 10000 5.1 260 12:40 14.05.2020
4052 Clouds 11 1024 62 10000 5.1 260 12:21 14.05.2020
4053 Clouds 10 1024 66 10000 4.1 270 11:59 14.05.2020
4054 Clouds 10 1024 66 10000 4.6 260 11:40 14.05.2020
4055 Clouds 9 1024 66 10000 4.6 260 11:22 14.05.2020
4056 Clouds 9 1024 61 10000 3.6 260 10:57 14.05.2020
4057 Clouds 9 1024 61 10000 4.1 230 10:38 14.05.2020
4058 Clouds 9 1024 61 10000 4.1 230 10:20 14.05.2020
4059 Clouds 7 1024 70 10000 3.1 230 09:42 14.05.2020
4060 Clouds 6 1024 70 10000 3.1 230 09:23 14.05.2020
4061 Clouds 3 1024 64 10000 1.5 240 08:43 14.05.2020
4062 Clear 3 1024 74 10000 1.5 240 08:21 14.05.2020
4063 Clear 1 1024 86 10000 2.6 240 07:47 14.05.2020
4064 Clear 0 1024 85 10000 2.1 240 07:25 14.05.2020
4065 Clear 0 1024 85 10000 2.1 260 06:56 14.05.2020
4066 Clear 0 1024 85 10000 1.5 240 06:34 14.05.2020
4067 Clear 1 1024 88 10000 1.5 250 05:58 14.05.2020
4068 Clear 1 1024 88 10000 0.5 270 05:36 14.05.2020
4069 Clear 1 1024 84 10000 2.6 230 04:34 14.05.2020
4070 Clear 1 1024 86 10000 2.1 230 03:30 14.05.2020
4071 Clear 2 1024 80 10000 2.1 230 02:43 14.05.2020
4072 Clear 2 1024 80 10000 2.1 230 02:19 14.05.2020
4073 Clear 2 1023 80 10000 1 300 01:35 14.05.2020
4074 Clear 4 1023 77 10000 2.1 260 00:50 14.05.2020
4075 Clear 5 1023 73 10000 2.1 10 00:25 14.05.2020
4076 Clear 6 1023 60 10000 1.5 30 23:45 13.05.2020
4077 Clear 6 1023 60 10000 1.5 30 23:22 13.05.2020
4078 Clear 7 1022 52 10000 2.6 40 22:56 13.05.2020
4079 Clear 7 1022 52 10000 2.6 40 22:38 13.05.2020
4080 Clear 8 1022 52 10000 2.6 40 22:19 13.05.2020
4081 Clear 10 1022 43 10000 2.6 40 21:57 13.05.2020
4082 Clear 10 1022 37 10000 2.6 40 21:38 13.05.2020
4083 Clear 11 1022 37 10000 2.6 40 21:19 13.05.2020
4084 Clouds 11 1022 37 10000 1.5 0 20:41 13.05.2020
4085 Clouds 11 1022 37 10000 1.5 0 20:23 13.05.2020
4086 Clouds 11 1022 34 10000 1.5 0 19:44 13.05.2020
4087 Clouds 11 1022 34 10000 1.5 0 19:25 13.05.2020
4088 Clouds 11 1022 34 10000 1.5 0 19:25 13.05.2020
4089 Clouds 11 1022 37 10000 1.5 0 18:58 13.05.2020
4090 Clouds 11 1022 37 10000 1.5 0 18:40 13.05.2020
4091 Clouds 11 1022 37 10000 1.5 0 18:21 13.05.2020
4092 Clouds 11 1022 37 10000 1.5 0 17:39 13.05.2020
4093 Clouds 11 1022 37 10000 1.5 0 17:20 13.05.2020
4094 Clouds 10 1022 39 10000 1.5 0 16:56 13.05.2020
4095 Clouds 10 1022 39 10000 2.6 30 16:38 13.05.2020
4096 Clouds 10 1022 39 10000 2.6 30 16:18 13.05.2020
4097 Clouds 10 1022 39 10000 2.1 0 15:42 13.05.2020
4098 Clouds 10 1022 39 10000 2.1 0 15:20 13.05.2020
4099 Clouds 10 1023 37 10000 2.1 360 14:57 13.05.2020
4100 Clouds 10 1023 42 10000 5.1 20 14:39 13.05.2020
4101 Clouds 9 1023 42 10000 3.1 30 14:21 13.05.2020
4102 Clouds 9 1023 42 10000 3.1 30 13:57 13.05.2020
4103 Clouds 9 1023 42 10000 3.1 30 13:57 13.05.2020
4104 Clouds 9 1023 42 10000 2.6 20 13:39 13.05.2020
4105 Clouds 8 1023 42 10000 2.6 20 13:20 13.05.2020
4106 Clouds 8 1023 45 10000 2.6 70 12:43 13.05.2020
4107 Clouds 8 1023 45 10000 2.6 70 12:23 13.05.2020
4108 Clouds 8 1023 49 10000 5.7 10 11:58 13.05.2020
4109 Clouds 7 1023 45 10000 3.6 10 11:40 13.05.2020
4110 Clouds 7 1023 45 10000 3.6 10 11:21 13.05.2020
4111 Clouds 7 1023 52 10000 1.5 0 10:59 13.05.2020
4112 Clouds 6 1023 52 10000 1.5 0 10:40 13.05.2020
4113 Clouds 6 1023 52 10000 1.5 0 10:20 13.05.2020
4114 Clouds 6 1023 52 10000 2.1 360 09:59 13.05.2020
4115 Clouds 6 1023 56 10000 1 0 09:40 13.05.2020
4116 Clouds 5 1023 56 10000 1 0 09:22 13.05.2020
4117 Clouds 3 1022 64 10000 1.5 0 08:42 13.05.2020
4118 Clouds 3 1022 64 10000 1.5 0 08:22 13.05.2020
4119 Clouds 3 1022 59 10000 1.5 0 07:59 13.05.2020
4120 Clouds 3 1022 59 10000 1.5 0 07:59 13.05.2020
4121 Clouds 3 1022 64 10000 2.1 350 07:36 13.05.2020
4122 Clouds 3 1022 64 10000 2.1 10 06:59 13.05.2020
4123 Clouds 3 1022 64 10000 3.1 60 06:41 13.05.2020
4124 Clouds 3 1022 69 10000 2.6 50 05:51 13.05.2020
4125 Clouds 3 1021 90 10000 2.6 70 04:41 13.05.2020
4126 Clouds 4 1020 80 10000 3.6 60 02:59 13.05.2020
4127 Clouds 4 1020 85 10000 2.6 60 02:22 13.05.2020
4128 Rain 5 1020 75 10000 3.1 70 01:21 13.05.2020
4129 Rain 5 1020 86 9000 4.1 90 00:41 13.05.2020
4130 Rain 5 1020 86 9000 4.1 90 00:19 13.05.2020
4131 Rain 6 1019 87 9000 2.6 30 23:40 12.05.2020
4132 Rain 6 1019 87 9000 2.6 30 23:21 12.05.2020
4133 Rain 6 1018 81 10000 3.1 50 22:57 12.05.2020
4134 Rain 6 1018 81 10000 4.1 70 22:38 12.05.2020
4135 Rain 6 1018 81 10000 4.1 70 22:19 12.05.2020
4136 Rain 7 1018 87 10000 1.5 0 21:54 12.05.2020
4137 Rain 7 1018 81 6000 1.5 0 21:36 12.05.2020
4138 Rain 7 1018 81 6000 1.5 0 21:36 12.05.2020
4139 Rain 7 1018 81 6000 1.5 0 21:18 12.05.2020
4140 Rain 7 1017 81 10000 3.6 60 20:55 12.05.2020
4141 Clouds 8 1017 70 10000 5.7 10 20:36 12.05.2020
4142 Clouds 8 1017 70 10000 5.7 10 20:18 12.05.2020
4143 Clouds 10 1017 62 10000 6.2 290 19:41 12.05.2020
4144 Clouds 11 1017 62 10000 6.2 290 19:23 12.05.2020
4145 Clouds 11 1017 57 10000 6.2 290 18:58 12.05.2020
4146 Clouds 11 1017 54 10000 6.7 310 18:40 12.05.2020
4147 Clouds 12 1017 54 10000 6.7 310 18:21 12.05.2020
4148 Rain 11 1017 62 10000 7.2 280 17:43 12.05.2020
4149 Rain 11 1017 62 10000 7.2 280 17:24 12.05.2020
4150 Clouds 12 1018 57 10000 7.7 290 16:47 12.05.2020
4151 Clouds 11 1018 57 10000 7.7 290 16:26 12.05.2020
4152 Clouds 12 1018 46 10000 7.7 280 15:57 12.05.2020
4153 Clouds 12 1018 46 10000 7.7 280 15:39 12.05.2020
4154 Clear 12 1018 46 10000 7.7 280 15:20 12.05.2020
4155 Clear 12 1019 45 10000 8.2 280 14:58 12.05.2020
4156 Clear 12 1019 43 10000 7.2 290 14:39 12.05.2020
4157 Clouds 12 1019 43 10000 7.2 290 14:21 12.05.2020
4158 Clouds 12 1019 46 10000 5.7 290 13:59 12.05.2020
4159 Clouds 11 1020 50 10000 5.7 290 13:41 12.05.2020
4160 Clouds 11 1020 50 10000 5.7 290 13:20 12.05.2020
4161 Clouds 11 1020 50 10000 5.7 300 12:58 12.05.2020
4162 Clouds 11 1020 50 10000 5.7 290 12:39 12.05.2020
4163 Clouds 11 1020 50 10000 5.7 290 12:21 12.05.2020
4164 Clouds 11 1020 50 10000 5.7 310 11:58 12.05.2020
4165 Clouds 10 1021 57 10000 4.6 280 11:39 12.05.2020
4166 Clear 10 1021 57 10000 4.6 280 11:21 12.05.2020
4167 Clear 10 1021 61 10000 3.6 280 10:58 12.05.2020
4168 Clear 9 1021 66 10000 4.1 280 10:40 12.05.2020
4169 Clear 9 1021 66 10000 4.1 280 10:22 12.05.2020
4170 Clear 9 1021 66 10000 4.1 300 09:59 12.05.2020
4171 Clear 9 1021 70 10000 5.7 300 09:39 12.05.2020
4172 Clear 8 1021 70 10000 5.7 300 09:20 12.05.2020
4173 Clear 8 1021 70 10000 3.6 300 08:54 12.05.2020
4174 Clear 7 1022 75 10000 2.6 310 08:36 12.05.2020
4175 Clear 5 1022 80 10000 1.5 0 08:18 12.05.2020
4176 Clear 5 1022 80 10000 4.1 280 07:41 12.05.2020
4177 Clear 5 1022 80 10000 4.1 280 07:22 12.05.2020
4178 Clear 5 1022 80 10000 4.1 250 06:47 12.05.2020
4179 Clear 5 1022 75 10000 5.1 280 06:27 12.05.2020
4180 Clear 5 1022 75 10000 4.6 280 05:50 12.05.2020
4181 Clouds 4 1022 80 10000 3.1 260 05:30 12.05.2020
4182 Clouds 4 1023 93 10000 1.5 0 03:26 12.05.2020
4183 Rain 6 1024 87 7000 3.1 250 02:28 12.05.2020
4184 Clouds 6 1024 75 10000 3.6 250 01:59 12.05.2020
4185 Clouds 6 1024 70 10000 4.1 240 01:24 12.05.2020
4186 Clouds 7 1025 65 10000 4.1 300 00:26 12.05.2020
4187 Clouds 7 1025 65 10000 6.2 300 23:58 11.05.2020
4188 Clouds 7 1025 65 10000 5.1 300 23:40 11.05.2020
4189 Clouds 7 1025 65 10000 5.1 300 23:20 11.05.2020
4190 Clouds 8 1025 69 10000 4.6 290 22:58 11.05.2020
4191 Clouds 9 1025 49 10000 6.2 310 22:40 11.05.2020
4192 Clouds 9 1025 49 10000 6.2 310 22:19 11.05.2020
4193 Clouds 9 1025 49 10000 5.7 310 21:57 11.05.2020
4194 Clouds 9 1025 46 10000 5.7 300 21:38 11.05.2020
4195 Clouds 10 1025 46 10000 5.7 300 21:19 11.05.2020
4196 Clouds 11 1025 43 10000 7.2 300 20:57 11.05.2020
4197 Clouds 11 1025 56 10000 7.2 290 20:38 11.05.2020
4198 Clouds 11 1025 51 10000 7.2 290 20:19 11.05.2020
4199 Clouds 12 1025 40 10000 6.7 290 19:54 11.05.2020
4200 Clouds 12 1025 40 10000 6.2 300 19:36 11.05.2020
4201 Clouds 12 1025 40 10000 6.2 300 19:18 11.05.2020
4202 Clouds 12 1025 37 10000 6.2 300 18:54 11.05.2020
4203 Clouds 12 1025 32 10000 5.7 290 18:36 11.05.2020
4204 Clouds 12 1025 32 10000 5.7 290 18:18 11.05.2020
4205 Clouds 13 1026 32 10000 3.1 0 17:40 11.05.2020
4206 Clouds 12 1026 32 10000 3.1 0 17:22 11.05.2020
4207 Clouds 12 1026 32 10000 4.1 310 16:58 11.05.2020
4208 Clouds 12 1026 32 10000 3.1 300 16:38 11.05.2020
4209 Clear 12 1026 32 10000 3.1 300 16:20 11.05.2020
4210 Clear 11 1027 30 10000 3.1 20 15:54 11.05.2020
4211 Clear 12 1027 30 10000 3.1 20 15:36 11.05.2020
4212 Clear 12 1027 30 10000 3.1 20 15:18 11.05.2020
4213 Clear 11 1028 34 10000 3.1 280 14:41 11.05.2020
4214 Clear 11 1028 34 10000 3.1 280 14:22 11.05.2020
4215 Clear 10 1028 34 10000 3.1 270 13:58 11.05.2020
4216 Clear 10 1028 37 10000 2.1 0 13:39 11.05.2020
4217 Clear 9 1028 36 10000 2.1 310 13:18 11.05.2020
4218 Clear 9 1028 37 10000 2.1 0 13:18 11.05.2020
4219 Clear 9 1028 37 10000 2.1 0 13:18 11.05.2020
4220 Clear 9 1028 36 10000 2.1 310 12:56 11.05.2020
4221 Clear 8 1029 39 10000 2.1 0 12:38 11.05.2020
4222 Clear 8 1029 39 10000 2.1 0 12:19 11.05.2020
4223 Clear 7 1029 42 10000 4.6 30 11:42 11.05.2020
4224 Clear 7 1029 42 10000 4.6 30 11:22 11.05.2020
4225 Clear 7 1029 42 10000 5.1 10 10:59 11.05.2020
4226 Clear 6 1029 45 10000 5.1 360 10:40 11.05.2020
4227 Clear 6 1029 45 10000 5.1 360 10:22 11.05.2020
4228 Clear 5 1029 52 10000 5.7 10 09:59 11.05.2020
4229 Clear 5 1029 52 10000 5.7 10 09:41 11.05.2020
4230 Clear 5 1029 52 10000 5.7 10 09:19 11.05.2020
4231 Clear 4 1029 55 10000 5.1 360 08:56 11.05.2020
4232 Clear 3 1029 59 10000 4.1 350 08:37 11.05.2020
4233 Clear 3 1029 64 10000 4.6 340 08:18 11.05.2020
4234 Clear 2 1029 59 10000 3.1 340 07:42 11.05.2020
4235 Clear 2 1029 59 10000 3.1 340 07:23 11.05.2020
4236 Clear 0 1029 74 10000 0.5 0 06:41 11.05.2020
4237 Clear 0 1028 90 10000 1 0 05:56 11.05.2020
4238 Clear 1 1028 69 10000 3.1 350 05:24 11.05.2020
4239 Clear 1 1029 69 10000 3.6 350 04:24 11.05.2020
4240 Clear 2 1028 64 10000 3.6 10 02:47 11.05.2020
4241 Clouds 2 1028 64 10000 1.5 0 02:29 11.05.2020
4242 Clouds 2 1028 64 10000 2.6 40 01:31 11.05.2020
4243 Clouds 2 1027 64 10000 3.1 40 00:44 11.05.2020
4244 Clouds 3 1027 64 10000 3.1 40 00:19 11.05.2020
4245 Clouds 5 1027 56 10000 5.7 40 23:43 10.05.2020
4246 Clouds 5 1027 56 10000 5.7 40 23:20 10.05.2020
4247 Clouds 6 1026 52 10000 5.7 40 22:55 10.05.2020
4248 Clouds 6 1026 56 10000 5.7 60 22:37 10.05.2020
4249 Clouds 6 1026 56 10000 5.7 60 22:18 10.05.2020
4250 Clouds 6 1025 48 10000 5.7 50 21:43 10.05.2020
4251 Clouds 7 1025 48 10000 5.7 50 21:19 10.05.2020
4252 Clouds 7 1025 48 10000 8.7 50 20:43 10.05.2020
4253 Clouds 7 1025 48 10000 8.7 50 20:25 10.05.2020
4254 Clouds 8 1024 39 10000 6.2 30 19:59 10.05.2020
4255 Clouds 9 1024 36 10000 7.7 50 19:39 10.05.2020
4256 Clouds 9 1024 36 10000 7.7 50 19:21 10.05.2020
4257 Clouds 10 1024 31 10000 5.7 40 18:56 10.05.2020
4258 Clouds 9 1023 36 10000 7.7 40 18:37 10.05.2020
4259 Clouds 9 1023 36 10000 7.7 40 18:18 10.05.2020
4260 Clouds 9 1023 34 10000 7.7 40 17:58 10.05.2020
4261 Clouds 9 1023 34 10000 7.7 50 17:39 10.05.2020
4262 Clouds 10 1023 34 10000 7.7 50 17:20 10.05.2020
4263 Clouds 10 1023 34 10000 7.7 50 17:20 10.05.2020
4264 Clouds 10 1023 34 10000 8.2 40 16:54 10.05.2020
4265 Clouds 10 1023 34 10000 8.2 50 16:36 10.05.2020
4266 Clouds 10 1023 34 10000 8.2 50 16:18 10.05.2020
4267 Clouds 10 1022 37 10000 8.7 60 15:41 10.05.2020
4268 Clouds 9 1022 37 10000 8.7 60 15:22 10.05.2020
4269 Clouds 9 1022 43 10000 8.7 40 14:56 10.05.2020
4270 Clouds 9 1022 45 10000 9.8 40 14:38 10.05.2020
4271 Clouds 9 1022 45 10000 9.8 40 14:19 10.05.2020
4272 Clouds 8 1021 49 10000 8.2 60 13:58 10.05.2020
4273 Clouds 8 1021 52 10000 8.2 70 13:37 10.05.2020
4274 Clouds 8 1021 52 10000 8.2 70 13:19 10.05.2020
4275 Clouds 7 1021 56 10000 8.7 50 12:56 10.05.2020
4276 Clouds 7 1021 56 10000 7.2 60 12:37 10.05.2020
4277 Clouds 7 1021 56 10000 8.2 50 12:19 10.05.2020
4278 Clouds 7 1021 56 10000 7.2 60 12:19 10.05.2020
4279 Clouds 7 1021 56 10000 8.2 50 11:54 10.05.2020
4280 Clouds 6 1020 57 10000 9.3 50 11:36 10.05.2020
4281 Clouds 6 1020 63 10000 9.3 50 11:18 10.05.2020
4282 Clouds 6 1019 70 10000 8.7 60 10:42 10.05.2020
4283 Clouds 6 1019 70 10000 8.7 60 10:24 10.05.2020
4284 Clouds 6 1019 75 10000 5.7 50 09:42 10.05.2020
4285 Clouds 6 1019 75 10000 5.7 50 09:23 10.05.2020
4286 Rain 6 1018 81 10000 8.2 50 08:59 10.05.2020
4287 Rain 6 1017 81 10000 5.7 60 08:40 10.05.2020
4288 Rain 6 1017 81 10000 5.7 60 08:22 10.05.2020
4289 Clouds 6 1016 87 10000 4.6 70 07:42 10.05.2020
4290 Clouds 6 1016 87 10000 4.6 70 07:19 10.05.2020
4291 Clouds 6 1016 87 10000 5.1 60 06:50 10.05.2020
4292 Rain 6 1016 93 10000 5.7 60 06:26 10.05.2020
4293 Rain 7 1015 93 10000 6.2 70 05:46 10.05.2020
4294 Rain 7 1015 93 10000 5.7 70 04:48 10.05.2020
4295 Rain 7 1015 87 10000 6.2 80 04:29 10.05.2020
4296 Rain 7 1014 87 7000 6.7 70 03:51 10.05.2020
4297 Rain 8 1014 87 10000 5.1 90 02:59 10.05.2020
4298 Rain 9 1013 93 10000 7.2 90 02:25 10.05.2020
4299 Rain 11 1012 87 10000 8.2 70 01:58 10.05.2020
4300 Rain 11 1012 81 10000 2.6 320 01:39 10.05.2020
4301 Rain 12 1012 81 10000 2.6 320 01:18 10.05.2020
4302 Rain 13 1012 76 10000 3.6 300 00:52 10.05.2020
4303 Clouds 13 1012 71 10000 3.6 300 00:21 10.05.2020
4304 Clouds 13 1012 67 10000 3.1 280 23:40 09.05.2020
4305 Clouds 13 1012 67 10000 3.1 280 23:40 09.05.2020
4306 Clouds 14 1012 67 10000 3.1 280 23:22 09.05.2020
4307 Clouds 14 1012 71 10000 2.6 280 22:58 09.05.2020
4308 Clouds 15 1011 67 10000 3.6 300 22:39 09.05.2020
4309 Clouds 15 1011 67 10000 3.6 300 22:21 09.05.2020
4310 Clouds 15 1011 67 10000 4.1 300 21:56 09.05.2020
4311 Clouds 15 1011 63 10000 3.6 290 21:37 09.05.2020
4312 Clouds 15 1011 63 10000 3.6 290 21:37 09.05.2020
4313 Clouds 16 1011 63 10000 5.1 300 21:19 09.05.2020
4314 Clouds 16 1011 63 10000 5.1 300 20:56 09.05.2020
4315 Clouds 17 1011 63 10000 5.7 310 20:37 09.05.2020
4316 Clouds 17 1011 63 10000 5.7 310 20:18 09.05.2020
4317 Clouds 18 1011 59 10000 5.7 300 19:40 09.05.2020
4318 Clouds 18 1011 59 10000 5.7 300 19:20 09.05.2020
4319 Clouds 19 1011 49 10000 6.7 250 18:58 09.05.2020
4320 Clouds 19 1011 49 10000 5.7 270 18:40 09.05.2020
4321 Clouds 20 1011 49 10000 5.7 270 18:18 09.05.2020
4322 Clouds 20 1011 49 10000 5.7 270 18:18 09.05.2020
4323 Clouds 19 1012 52 10000 6.2 230 17:42 09.05.2020
4324 Clouds 20 1012 52 10000 6.2 230 17:22 09.05.2020
4325 Clouds 18 1013 59 10000 3.6 270 16:41 09.05.2020
4326 Clouds 18 1013 59 10000 3.6 270 16:20 09.05.2020
4327 Clouds 18 1013 63 10000 2.6 290 15:54 09.05.2020
4328 Clouds 18 1013 63 10000 1 0 15:36 09.05.2020
4329 Clouds 17 1014 72 10000 1.5 0 15:18 09.05.2020
4330 Clouds 17 1014 77 10000 2.1 350 14:42 09.05.2020
4331 Clouds 16 1014 77 10000 2.1 350 14:20 09.05.2020
4332 Rain 17 1014 82 10000 2.1 320 13:58 09.05.2020
4333 Clouds 18 1014 67 10000 1.5 0 13:40 09.05.2020
4334 Clouds 17 1014 67 10000 1.5 0 13:20 09.05.2020
4335 Clouds 17 1015 72 10000 1.5 0 12:44 09.05.2020
4336 Clouds 16 1015 72 10000 1.5 0 12:23 09.05.2020
4337 Clouds 15 1015 77 10000 1.5 0 11:59 09.05.2020
4338 Clouds 15 1015 77 10000 1 0 11:41 09.05.2020
4339 Clouds 15 1015 77 10000 1 0 11:19 09.05.2020
4340 Clouds 14 1015 76 10000 1.5 0 10:47 09.05.2020
4341 Clouds 14 1015 82 10000 0.5 0 10:26 09.05.2020
4342 Clouds 13 1016 82 10000 0.5 0 09:58 09.05.2020
4343 Clouds 13 1016 87 10000 1 0 09:39 09.05.2020
4344 Clouds 12 1016 87 10000 1 0 09:19 09.05.2020
4345 Clouds 12 1016 87 10000 1 0 09:19 09.05.2020
4346 Clouds 11 1016 93 9000 1 210 08:51 09.05.2020
4347 Clouds 11 1016 93 7000 1 0 08:32 09.05.2020
4348 Clouds 11 1016 93 8000 1.5 270 07:50 09.05.2020
4349 Haze 10 1016 93 5000 0.5 0 07:32 09.05.2020
4350 Haze 10 1016 93 5000 1.5 250 06:54 09.05.2020
4351 Clouds 9 1016 93 6000 1.5 230 06:25 09.05.2020
4352 Clouds 9 1016 93 7000 1.5 240 05:46 09.05.2020
4353 Clear 10 1017 93 9000 2.1 250 03:59 09.05.2020
4354 Clear 10 1017 93 9000 2.1 270 03:38 09.05.2020
4355 Clear 11 1017 93 10000 1 0 02:42 09.05.2020
4356 Clouds 10 1017 93 10000 1.5 280 01:54 09.05.2020
4357 Clouds 11 1017 87 10000 1 230 01:24 09.05.2020
4358 Clouds 10 1017 87 10000 2.1 230 00:54 09.05.2020
4359 Clouds 10 1017 87 10000 2.6 230 00:36 09.05.2020
4360 Clear 12 1017 81 10000 0.5 0 23:54 08.05.2020
4361 Clear 12 1017 81 10000 2.6 240 23:36 08.05.2020
4362 Clear 12 1017 81 10000 2.6 240 23:18 08.05.2020
4363 Clear 13 1016 67 10000 2.6 270 22:42 08.05.2020
4364 Clear 15 1016 67 10000 3.1 280 22:19 08.05.2020
4365 Clear 15 1016 67 10000 3.1 280 21:59 08.05.2020
4366 Clear 15 1016 67 10000 3.1 280 21:59 08.05.2020
4367 Clouds 15 1016 63 10000 3.6 280 21:39 08.05.2020
4368 Clouds 16 1016 63 10000 3.6 280 21:18 08.05.2020
4369 Clouds 16 1016 63 10000 4.1 280 20:56 08.05.2020
4370 Clouds 16 1016 63 10000 4.1 300 20:38 08.05.2020
4371 Clouds 16 1016 63 10000 4.1 300 20:20 08.05.2020
4372 Clouds 17 1016 59 10000 3.6 300 19:44 08.05.2020
4373 Clouds 17 1016 59 10000 3.6 300 19:23 08.05.2020
4374 Clouds 17 1016 63 10000 3.6 300 18:50 08.05.2020
4375 Clouds 17 1016 63 10000 4.1 310 18:32 08.05.2020
4376 Clouds 17 1016 63 10000 4.1 300 17:59 08.05.2020
4377 Clouds 18 1017 55 10000 5.1 250 17:40 08.05.2020
4378 Clouds 17 1017 55 10000 5.1 250 17:18 08.05.2020
4379 Clouds 17 1017 63 10000 5.7 280 16:42 08.05.2020
4380 Clouds 16 1017 63 10000 5.7 280 16:24 08.05.2020
4381 Clouds 16 1017 67 10000 5.7 280 15:57 08.05.2020
4382 Clouds 15 1017 67 10000 3.1 300 15:39 08.05.2020
4383 Clouds 15 1017 67 10000 3.1 300 15:18 08.05.2020
4384 Clouds 16 1017 63 10000 3.6 270 14:41 08.05.2020
4385 Clouds 16 1017 63 10000 3.6 270 14:20 08.05.2020
4386 Clouds 16 1017 67 10000 4.1 280 13:58 08.05.2020
4387 Clouds 16 1017 63 10000 3.1 220 13:39 08.05.2020
4388 Clouds 16 1017 63 10000 3.1 220 13:39 08.05.2020
4389 Clouds 16 1017 63 10000 3.1 220 13:19 08.05.2020
4390 Clouds 16 1017 67 10000 4.1 250 12:45 08.05.2020
4391 Clouds 15 1017 67 10000 4.6 240 12:25 08.05.2020
4392 Clouds 15 1017 72 10000 5.1 220 11:55 08.05.2020
4393 Clouds 15 1017 62 10000 3.6 240 11:37 08.05.2020
4394 Clouds 15 1017 62 10000 3.6 240 11:18 08.05.2020
4395 Clouds 14 1017 71 10000 4.6 240 10:45 08.05.2020
4396 Clouds 14 1017 71 10000 4.6 240 10:22 08.05.2020
4397 Clouds 13 1017 76 10000 3.6 260 10:00 08.05.2020
4398 Clouds 13 1017 82 10000 3.1 250 09:40 08.05.2020
4399 Clouds 13 1017 82 10000 3.1 250 09:19 08.05.2020
4400 Clouds 13 1017 82 10000 3.1 250 09:19 08.05.2020
4401 Clouds 12 1017 87 9000 1 0 08:50 08.05.2020
4402 Clouds 12 1017 87 9000 1 0 08:24 08.05.2020
4403 Clouds 12 1017 87 8000 1.5 0 07:46 08.05.2020
4404 Clouds 11 1017 93 7000 2.1 240 07:26 08.05.2020
4405 Clouds 11 1017 93 7000 2.6 240 06:53 08.05.2020
4406 Clouds 11 1017 93 8000 4.6 220 06:25 08.05.2020
4407 Clouds 11 1017 87 10000 3.1 220 05:59 08.05.2020
4408 Clouds 11 1017 87 10000 1 0 04:56 08.05.2020
4409 Clouds 12 1017 76 10000 1 0 02:57 08.05.2020
4410 Clouds 11 1017 81 10000 2.1 260 02:22 08.05.2020
4411 Clouds 11 1017 81 10000 1.5 0 01:37 08.05.2020
4412 Clouds 11 1017 76 10000 1 0 01:18 08.05.2020
4413 Clouds 11 1017 81 10000 1.5 0 00:45 08.05.2020
4414 Clouds 11 1017 81 10000 1.5 0 00:22 08.05.2020
4415 Clouds 11 1018 71 10000 3.1 230 23:44 07.05.2020
4416 Clouds 12 1018 71 10000 3.1 230 23:23 07.05.2020
4417 Clouds 12 1018 66 10000 2.6 250 22:58 07.05.2020
4418 Clouds 12 1017 66 10000 3.1 250 22:39 07.05.2020
4419 Clouds 12 1017 66 10000 3.1 250 22:20 07.05.2020
4420 Clouds 13 1017 66 10000 4.1 250 21:56 07.05.2020
4421 Clouds 13 1017 67 10000 4.6 250 21:37 07.05.2020
4422 Clear 14 1017 67 10000 4.6 250 21:19 07.05.2020
4423 Clear 16 1017 63 10000 3.1 240 20:43 07.05.2020
4424 Clouds 16 1017 63 10000 3.1 240 20:24 07.05.2020
4425 Clouds 17 1017 59 10000 5.7 210 19:59 07.05.2020
4426 Clouds 16 1018 59 10000 4.1 240 19:40 07.05.2020
4427 Clouds 17 1018 59 10000 4.1 240 19:21 07.05.2020
4428 Clouds 16 1018 63 10000 3.6 250 18:46 07.05.2020
4429 Clouds 16 1018 63 10000 3.6 250 18:46 07.05.2020
4430 Clouds 16 1018 63 10000 3.1 240 18:28 07.05.2020
4431 Clouds 16 1018 59 10000 5.1 220 17:57 07.05.2020
4432 Clouds 16 1019 59 10000 5.7 230 17:37 07.05.2020
4433 Clouds 16 1019 55 10000 6.2 220 17:19 07.05.2020
4434 Clouds 16 1019 55 10000 4.1 240 16:41 07.05.2020
4435 Clouds 16 1019 55 10000 4.1 240 16:19 07.05.2020
4436 Clouds 16 1020 55 10000 5.7 230 15:56 07.05.2020
4437 Clouds 16 1020 55 10000 2.1 240 15:37 07.05.2020
4438 Clouds 16 1020 55 10000 2.1 240 15:18 07.05.2020
4439 Clouds 14 1021 71 10000 2.1 230 14:45 07.05.2020
4440 Clouds 14 1021 71 10000 2.1 230 14:22 07.05.2020
4441 Clouds 14 1021 71 10000 2.1 230 14:22 07.05.2020
4442 Clouds 13 1021 66 10000 2.6 240 13:45 07.05.2020
4443 Clouds 13 1021 66 10000 2.6 240 13:45 07.05.2020
4444 Clouds 13 1021 66 10000 2.6 240 13:27 07.05.2020
4445 Clouds 12 1021 58 10000 4.6 240 12:58 07.05.2020
4446 Clouds 13 1021 58 10000 1.5 0 12:39 07.05.2020
4447 Clouds 12 1021 58 10000 1.5 0 12:19 07.05.2020
4448 Clouds 11 1021 62 10000 0.5 0 11:39 07.05.2020
4449 Clouds 11 1021 62 10000 0.5 0 11:21 07.05.2020
4450 Clouds 10 1021 70 10000 1 0 10:44 07.05.2020
4451 Clouds 9 1021 70 10000 1 0 10:26 07.05.2020
4452 Clouds 8 1021 75 10000 1.5 0 09:57 07.05.2020
4453 Clouds 7 1022 81 10000 0.5 0 09:38 07.05.2020
4454 Clouds 7 1022 81 10000 0.5 0 09:38 07.05.2020
4455 Clouds 6 1022 81 10000 0.5 0 09:18 07.05.2020
4456 Clear 4 1022 93 10000 1 0 08:43 07.05.2020
4457 Clear 4 1022 93 10000 1 0 08:22 07.05.2020
4458 Clear 3 1022 64 10000 1.5 220 07:58 07.05.2020
4459 Clear 3 1022 64 10000 1 0 07:39 07.05.2020
4460 Clear 3 1022 69 10000 1 0 07:19 07.05.2020
4461 Clear 3 1022 69 10000 1 0 07:19 07.05.2020
4462 Clear 3 1022 93 10000 0.5 260 06:37 07.05.2020
4463 Clear 3 1023 93 10000 1 0 05:56 07.05.2020
4464 Clear 3 1023 93 10000 1 240 04:27 07.05.2020
4465 Clear 4 1024 86 10000 1 0 03:29 07.05.2020
4466 Clear 5 1024 93 10000 0.5 0 02:59 07.05.2020
4467 Clear 5 1024 93 10000 1 0 02:26 07.05.2020
4468 Clear 7 1024 75 10000 0.5 320 01:25 07.05.2020
4469 Clear 8 1025 70 10000 0.5 0 00:51 07.05.2020
4470 Clear 9 1025 66 10000 1.5 200 00:30 07.05.2020
4471 Clear 9 1025 70 10000 1.5 280 23:58 06.05.2020
4472 Clear 9 1025 66 10000 1.5 240 23:38 06.05.2020
4473 Clear 10 1025 66 10000 1.5 240 23:19 06.05.2020
4474 Clear 10 1025 66 10000 1.5 240 23:19 06.05.2020
4475 Clear 10 1024 66 10000 1.5 230 22:54 06.05.2020
4476 Clear 10 1024 71 10000 3.1 220 22:36 06.05.2020
4477 Clear 10 1024 71 10000 3.1 220 22:18 06.05.2020
4478 Clear 13 1024 62 10000 3.6 230 21:42 06.05.2020
4479 Clear 14 1024 62 10000 3.6 230 21:22 06.05.2020
4480 Clear 16 1024 44 10000 4.1 230 20:56 06.05.2020
4481 Clear 16 1024 39 10000 4.6 240 20:37 06.05.2020
4482 Clear 17 1024 39 10000 4.6 240 20:19 06.05.2020
4483 Clear 17 1024 36 10000 2.6 260 19:56 06.05.2020
4484 Clear 19 1024 42 10000 3.6 280 19:37 06.05.2020
4485 Clear 19 1024 45 10000 4.1 310 19:18 06.05.2020
4486 Clear 19 1024 45 10000 4.1 310 19:18 06.05.2020
4487 Clear 19 1024 45 10000 4.1 310 18:55 06.05.2020
4488 Clear 19 1024 37 10000 2.6 240 18:36 06.05.2020
4489 Clear 19 1024 29 10000 2.1 0 18:18 06.05.2020
4490 Clear 19 1024 29 10000 2.1 0 17:54 06.05.2020
4491 Clear 19 1024 41 10000 1.5 0 17:36 06.05.2020
4492 Clear 19 1025 35 10000 2.1 0 17:18 06.05.2020
4493 Clear 19 1025 35 10000 2.1 0 16:54 06.05.2020
4494 Clear 19 1025 25 10000 2.6 190 16:36 06.05.2020
4495 Clear 18 1025 25 10000 2.6 190 16:18 06.05.2020
4496 Clear 18 1025 32 10000 2.1 0 15:42 06.05.2020
4497 Clear 17 1025 33 10000 2.1 0 15:22 06.05.2020
4498 Clear 16 1026 36 10000 2.1 0 14:56 06.05.2020
4499 Clear 16 1026 36 10000 1.5 0 14:38 06.05.2020
4500 Clear 16 1026 41 10000 1.5 0 14:18 06.05.2020
4501 Clear 16 1026 41 10000 1.5 0 13:56 06.05.2020
4502 Clear 15 1026 44 10000 2.1 70 13:37 06.05.2020
4503 Clear 14 1026 47 10000 1.5 0 13:18 06.05.2020
4504 Clear 14 1026 54 10000 1 0 12:42 06.05.2020
4505 Clear 13 1026 54 10000 1 0 12:24 06.05.2020
4506 Clear 12 1027 62 10000 1 0 11:41 06.05.2020
4507 Clear 11 1027 62 10000 1 0 11:21 06.05.2020
4508 Clear 10 1027 66 10000 0.5 0 10:58 06.05.2020
4509 Clear 10 1027 66 10000 1 0 10:39 06.05.2020
4510 Clear 10 1027 66 10000 1 0 10:19 06.05.2020
4511 Clear 7 1027 81 10000 0.5 0 09:45 06.05.2020
4512 Clear 7 1027 81 10000 0.5 0 09:24 06.05.2020
4513 Clear 5 1027 93 10000 0.5 0 08:55 06.05.2020
4514 Clear 5 1027 93 10000 0.5 0 08:55 06.05.2020
4515 Clear 4 1027 93 10000 1 250 08:36 06.05.2020
4516 Clear 2 1027 100 7000 1 260 08:18 06.05.2020
4517 Clear 3 1027 100 7000 1.5 230 07:40 06.05.2020
4518 Clear 3 1027 100 7000 1.5 230 07:21 06.05.2020
4519 Mist 2 1027 83 3800 1 250 06:56 06.05.2020
4520 Mist 2 1027 83 2500 2.1 230 06:38 06.05.2020
4521 Mist 2 1027 83 2500 2.1 230 06:18 06.05.2020
4522 Clear 2 1026 100 9000 0.5 260 05:37 06.05.2020
4523 Clear 4 1026 93 9000 0.5 0 04:40 06.05.2020
4524 Clear 4 1026 93 10000 0.5 0 03:44 06.05.2020
4525 Clear 4 1026 93 10000 0.5 0 03:22 06.05.2020
4526 Clouds 6 1026 87 10000 1.5 70 02:30 06.05.2020
4527 Clouds 6 1026 87 10000 2.1 40 01:56 06.05.2020
4528 Clouds 7 1026 81 10000 2.1 50 01:33 06.05.2020
4529 Clouds 7 1026 81 10000 2.6 60 00:54 06.05.2020
4530 Clouds 8 1025 75 10000 3.6 60 00:27 06.05.2020
4531 Clouds 7 1025 75 10000 3.6 50 23:57 05.05.2020
4532 Clouds 7 1025 70 10000 4.1 60 23:38 05.05.2020
4533 Clouds 9 1025 66 10000 3.6 60 23:18 05.05.2020
4534 Clouds 11 1024 62 10000 4.1 50 22:42 05.05.2020
4535 Clouds 11 1024 62 10000 4.1 50 22:20 05.05.2020
4536 Clouds 12 1024 58 10000 5.1 50 21:57 05.05.2020
4537 Clouds 12 1024 54 10000 5.1 50 21:39 05.05.2020
4538 Clouds 13 1024 54 10000 5.1 50 21:20 05.05.2020
4539 Clouds 13 1024 58 10000 4.6 40 20:57 05.05.2020
4540 Clouds 14 1024 50 10000 4.1 60 20:39 05.05.2020
4541 Clouds 14 1024 50 10000 4.1 60 20:18 05.05.2020
4542 Clouds 14 1024 38 10000 2.6 110 19:43 05.05.2020
4543 Clouds 15 1024 38 10000 2.6 110 19:25 05.05.2020
4544 Clouds 15 1024 38 10000 3.1 70 18:58 05.05.2020
4545 Clouds 15 1024 41 10000 3.1 80 18:40 05.05.2020
4546 Clear 15 1024 41 10000 3.1 80 18:20 05.05.2020
4547 Clear 15 1024 41 10000 3.1 70 17:58 05.05.2020
4548 Clear 15 1024 41 10000 3.1 70 17:58 05.05.2020
4549 Clear 15 1024 41 10000 3.6 110 17:39 05.05.2020
4550 Clear 15 1024 41 10000 3.6 110 17:21 05.05.2020
4551 Clear 15 1024 41 10000 3.6 100 16:56 05.05.2020
4552 Clear 14 1024 41 10000 4.6 90 16:36 05.05.2020
4553 Clear 14 1024 41 10000 4.6 90 16:18 05.05.2020
4554 Clouds 14 1024 44 10000 3.6 100 15:41 05.05.2020
4555 Clouds 14 1024 44 10000 3.6 100 15:22 05.05.2020
4556 Clouds 14 1024 44 10000 3.6 100 15:22 05.05.2020
4557 Clouds 14 1024 47 10000 4.1 100 14:57 05.05.2020
4558 Clouds 13 1024 50 10000 4.6 80 14:38 05.05.2020
4559 Clouds 13 1024 50 10000 4.6 80 14:20 05.05.2020
4560 Clouds 12 1024 54 10000 4.6 70 13:57 05.05.2020
4561 Clouds 12 1024 50 10000 4.1 100 13:38 05.05.2020
4562 Clouds 12 1024 50 10000 4.1 100 13:19 05.05.2020
4563 Clouds 12 1025 54 10000 4.1 110 12:58 05.05.2020
4564 Clouds 11 1025 61 10000 4.6 70 12:38 05.05.2020
4565 Clouds 10 1025 61 10000 4.6 70 12:19 05.05.2020
4566 Clouds 10 1025 66 10000 4.1 80 11:41 05.05.2020
4567 Clouds 9 1025 66 10000 4.1 80 11:20 05.05.2020
4568 Clouds 9 1025 66 10000 4.6 70 10:56 05.05.2020
4569 Clouds 8 1025 75 10000 4.6 80 10:38 05.05.2020
4570 Clouds 8 1025 81 10000 3.6 70 10:19 05.05.2020
4571 Clouds 7 1025 81 10000 3.6 70 09:55 05.05.2020
4572 Clouds 6 1026 81 10000 1.5 0 09:37 05.05.2020
4573 Clouds 6 1026 81 10000 1.5 0 09:18 05.05.2020
4574 Clouds 5 1026 100 10000 0.5 310 08:41 05.05.2020
4575 Clear 2 1026 100 10000 0.5 310 08:19 05.05.2020
4576 Clear 2 1026 100 10000 1.5 250 07:45 05.05.2020
4577 Fog 1 1026 84 10000 0.5 0 07:23 05.05.2020
4578 Clear 1 1026 100 7000 1 290 06:59 05.05.2020
4579 Clear 2 1026 93 8000 0.5 0 06:40 05.05.2020
4580 Clear 2 1026 93 8000 0.5 0 06:20 05.05.2020
4581 Clear 3 1025 86 10000 2.6 90 05:28 05.05.2020
4582 Clear 5 1026 80 10000 1.5 70 02:57 05.05.2020
4583 Clear 6 1026 81 10000 3.6 70 01:20 05.05.2020
4584 Clear 7 1026 75 10000 4.6 70 00:49 05.05.2020
4585 Clear 8 1025 65 10000 4.6 70 23:56 04.05.2020
4586 Clear 8 1025 65 10000 4.6 70 23:38 04.05.2020
4587 Clear 8 1025 65 10000 4.6 70 23:18 04.05.2020
4588 Clear 9 1025 57 10000 4.6 50 22:54 04.05.2020
4589 Clear 10 1025 53 10000 5.7 70 22:36 04.05.2020
4590 Clear 10 1025 53 10000 5.7 70 22:18 04.05.2020
4591 Clear 10 1024 53 10000 6.2 70 22:18 04.05.2020
4592 Clear 11 1024 50 10000 5.7 80 21:43 04.05.2020
4593 Clear 11 1024 50 10000 5.7 80 21:43 04.05.2020
4594 Clear 12 1024 50 10000 5.7 80 21:21 04.05.2020
4595 Clear 12 1024 50 10000 5.7 80 21:21 04.05.2020
4596 Clear 12 1024 50 10000 5.7 80 21:21 04.05.2020
4597 Clear 12 1024 54 10000 6.2 60 20:42 04.05.2020
4598 Clear 12 1024 54 10000 6.2 60 20:42 04.05.2020
4599 Clouds 12 1024 54 10000 6.2 60 20:21 04.05.2020
4600 Clouds 12 1024 54 10000 6.2 60 20:21 04.05.2020
4601 Clouds 13 1024 43 10000 5.1 80 19:58 04.05.2020
4602 Clouds 13 1024 43 10000 4.6 80 19:40 04.05.2020
4603 Clouds 13 1024 43 10000 4.6 80 19:18 04.05.2020
4604 Clouds 14 1024 44 10000 4.6 70 18:39 04.05.2020
4605 Clouds 14 1024 44 10000 4.6 70 18:21 04.05.2020
4606 Clouds 14 1024 44 10000 5.1 120 17:57 04.05.2020
4607 Clouds 13 1025 50 10000 5.7 60 17:39 04.05.2020
4608 Clouds 13 1025 50 10000 5.7 60 17:21 04.05.2020
4609 Clouds 13 1025 50 10000 5.7 100 16:58 04.05.2020
4610 Clouds 13 1025 54 10000 6.2 70 16:40 04.05.2020
4611 Clouds 12 1025 54 10000 6.2 70 16:19 04.05.2020
4612 Clouds 13 1025 50 10000 5.1 100 15:42 04.05.2020
4613 Clouds 12 1025 47 10000 5.1 100 15:22 04.05.2020
4614 Clouds 12 1025 47 10000 5.1 100 14:53 04.05.2020
4615 Clouds 12 1025 47 10000 5.1 100 14:53 04.05.2020
4616 Clouds 12 1025 47 10000 5.1 100 14:53 04.05.2020
4617 Clouds 12 1025 47 10000 5.1 100 14:53 04.05.2020
4618 Clouds 12 1025 47 10000 5.1 100 14:53 04.05.2020
4619 Clouds 12 1025 58 10000 5.1 70 14:24 04.05.2020
4620 Clouds 12 1025 58 10000 5.1 70 14:24 04.05.2020
4621 Clouds 12 1025 58 10000 5.1 70 14:24 04.05.2020
4622 Clouds 12 1025 58 10000 5.1 70 14:24 04.05.2020
4623 Clouds 11 1025 62 10000 5.7 60 13:22 04.05.2020
4624 Clouds 11 1025 62 10000 5.7 60 13:22 04.05.2020
4625 Clouds 11 1025 62 10000 5.7 60 13:22 04.05.2020
4626 Clouds 11 1025 62 10000 5.7 60 13:22 04.05.2020
4627 Clouds 11 1025 62 10000 5.7 60 13:22 04.05.2020
4628 Clouds 10 1024 61 10000 6.2 70 12:44 04.05.2020
4629 Clouds 10 1024 61 10000 6.2 70 12:44 04.05.2020
4630 Clouds 10 1024 61 10000 6.2 70 12:44 04.05.2020
4631 Clouds 10 1024 61 10000 6.2 70 12:44 04.05.2020
4632 Clouds 10 1024 61 10000 6.2 70 12:44 04.05.2020
4633 Clouds 10 1024 71 10000 6.7 60 11:27 04.05.2020
4634 Clouds 10 1024 71 10000 6.7 60 11:27 04.05.2020
4635 Clouds 10 1024 71 10000 6.7 60 11:27 04.05.2020
4636 Clouds 10 1024 71 10000 6.7 60 11:27 04.05.2020
4637 Clouds 10 1024 71 10000 6.7 60 11:27 04.05.2020
4638 Clouds 8 1023 75 10000 6.2 70 09:29 04.05.2020
4639 Clouds 8 1022 75 10000 4.6 60 07:54 04.05.2020
4640 Clouds 8 1021 81 10000 4.1 60 07:34 04.05.2020
4641 Clouds 8 1021 87 10000 2.6 50 05:52 04.05.2020
4642 Rain 8 1020 87 10000 2.6 40 04:52 04.05.2020
4643 Rain 8 1020 87 10000 2.6 40 04:52 04.05.2020
4644 Clouds 8 1020 87 10000 2.6 40 02:56 04.05.2020
4645 Clouds 9 1019 76 10000 4.6 20 01:45 04.05.2020
4646 Clouds 9 1019 76 10000 4.6 20 01:45 04.05.2020
4647 Rain 8 1018 81 10000 4.6 60 00:18 04.05.2020
4648 Clouds 8 1018 81 10000 1.5 0 23:44 03.05.2020
4649 Clouds 9 1018 81 10000 1.5 0 23:23 03.05.2020
4650 Clouds 10 1017 71 10000 2.1 40 22:44 03.05.2020
4651 Clouds 10 1017 71 10000 2.1 40 22:44 03.05.2020
4652 Clouds 10 1017 71 10000 2.1 40 22:44 03.05.2020
4653 Clouds 11 1017 71 10000 2.1 40 22:25 03.05.2020
4654 Clouds 11 1017 66 10000 3.1 40 21:56 03.05.2020
4655 Clouds 12 1017 62 10000 3.6 60 21:38 03.05.2020
4656 Rain 13 1017 62 10000 4.6 60 21:19 03.05.2020
4657 Rain 13 1017 62 10000 4.6 60 21:19 03.05.2020
4658 Rain 13 1017 62 10000 4.6 60 21:19 03.05.2020
4659 Rain 13 1016 50 10000 2.6 340 20:42 03.05.2020
4660 Rain 13 1016 50 10000 2.6 340 20:42 03.05.2020
4661 Rain 13 1016 50 10000 2.6 340 20:42 03.05.2020
4662 Clouds 14 1016 50 10000 2.6 340 20:20 03.05.2020
4663 Clouds 14 1016 44 10000 4.1 310 19:49 03.05.2020
4664 Clouds 14 1016 44 10000 4.1 290 19:30 03.05.2020
4665 Rain 13 1016 47 10000 3.1 300 18:56 03.05.2020
4666 Rain 13 1016 47 10000 3.1 300 18:56 03.05.2020
4667 Clouds 15 1016 41 10000 2.6 300 18:37 03.05.2020
4668 Rain 14 1016 41 10000 2.6 300 18:37 03.05.2020
4669 Clouds 15 1016 41 10000 2.6 300 18:37 03.05.2020
4670 Clouds 15 1016 41 10000 2.6 300 18:37 03.05.2020
4671 Rain 14 1016 41 10000 2.6 300 18:37 03.05.2020
4672 Clouds 15 1017 36 10000 3.6 270 18:19 03.05.2020
4673 Clouds 15 1017 36 10000 3.6 270 18:19 03.05.2020
4674 Clouds 15 1017 36 10000 3.6 270 18:19 03.05.2020
4675 Clouds 15 1017 36 10000 3.6 270 18:19 03.05.2020
4676 Clouds 15 1017 36 10000 3.6 270 18:19 03.05.2020
4677 Clouds 16 1017 38 10000 4.1 290 17:41 03.05.2020
4678 Clouds 16 1017 38 10000 4.1 290 17:41 03.05.2020
4679 Clouds 16 1017 38 10000 4.1 290 17:21 03.05.2020
4680 Clouds 15 1017 44 10000 3.1 310 16:45 03.05.2020
4681 Clouds 15 1017 44 10000 2.6 290 16:20 03.05.2020
4682 Clouds 14 1017 50 10000 3.6 280 15:58 03.05.2020
4683 Clouds 14 1017 50 10000 3.6 280 15:58 03.05.2020
4684 Clouds 14 1016 47 10000 3.1 320 15:40 03.05.2020
4685 Clouds 14 1016 47 10000 3.1 320 15:20 03.05.2020
4686 Clouds 14 1016 47 10000 3.1 320 15:20 03.05.2020
4687 Clouds 15 1016 47 10000 2.1 0 14:58 03.05.2020
4688 Clouds 14 1016 47 10000 1.5 0 14:40 03.05.2020
4689 Clouds 14 1016 47 10000 1.5 0 14:21 03.05.2020
4690 Clouds 14 1016 47 10000 1.5 0 14:21 03.05.2020
4691 Clouds 14 1017 47 10000 2.1 0 13:51 03.05.2020
4692 Clouds 14 1017 47 10000 2.1 0 13:51 03.05.2020
4693 Clouds 14 1017 47 10000 2.1 0 13:51 03.05.2020
4694 Clouds 14 1017 47 10000 2.1 0 13:51 03.05.2020
4695 Clouds 14 1017 47 10000 2.1 0 13:51 03.05.2020
4696 Clouds 13 1017 62 10000 1.5 0 13:18 03.05.2020
4697 Clouds 13 1017 62 10000 1.5 0 13:18 03.05.2020
4698 Clouds 12 1017 71 10000 1.5 0 12:43 03.05.2020
4699 Clouds 11 1017 71 10000 1.5 0 12:18 03.05.2020
4700 Clouds 11 1017 71 10000 1 0 11:55 03.05.2020
4701 Clouds 10 1017 76 10000 1 0 11:37 03.05.2020
4702 Clouds 10 1017 76 10000 1 0 11:18 03.05.2020
4703 Clouds 9 1017 81 10000 1 0 10:44 03.05.2020
4704 Clouds 9 1017 81 10000 1 0 10:44 03.05.2020
4705 Clouds 9 1017 81 10000 1 0 10:44 03.05.2020
4706 Clouds 9 1017 81 10000 1 0 10:44 03.05.2020
4707 Clouds 9 1017 81 10000 1 0 10:44 03.05.2020
4708 Clouds 7 1017 87 10000 0.5 0 09:57 03.05.2020
4709 Clouds 7 1017 87 10000 0.5 0 09:57 03.05.2020
4710 Clouds 7 1017 87 10000 0.5 0 09:57 03.05.2020
4711 Clouds 7 1017 87 10000 0.5 0 09:57 03.05.2020
4712 Clouds 6 1016 100 10000 0.5 0 09:32 03.05.2020
4713 Clouds 6 1016 100 10000 0.5 0 09:32 03.05.2020
4714 Clouds 6 1016 100 10000 0.5 0 09:32 03.05.2020
4715 Clouds 6 1016 100 10000 0.5 0 09:32 03.05.2020
4716 Clouds 4 1016 93 10000 0.5 210 08:54 03.05.2020
4717 Clouds 4 1016 93 10000 0.5 210 08:54 03.05.2020
4718 Clouds 4 1016 93 10000 0.5 210 08:54 03.05.2020
4719 Clouds 4 1016 93 10000 0.5 210 08:54 03.05.2020
4720 Clouds 4 1016 93 10000 0.5 210 08:54 03.05.2020
4721 Clouds 2 1016 100 10000 1.5 210 08:21 03.05.2020
4722 Clouds 2 1016 100 10000 1.5 210 08:21 03.05.2020
4723 Clouds 2 1016 100 10000 1.5 210 08:21 03.05.2020
4724 Fog 2 1015 100 8000 1.5 230 07:39 03.05.2020
4725 Fog 1 1015 100 500 0.5 0 06:19 03.05.2020
4726 Fog 1 1015 100 500 0.5 0 05:46 03.05.2020
4727 Clouds 2 1015 93 10000 1 220 04:31 03.05.2020
4728 Clouds 2 1015 79 10000 2.1 230 03:59 03.05.2020
4729 Clouds 4 1015 93 10000 1 0 02:53 03.05.2020
4730 Clouds 4 1014 93 10000 1 0 02:22 03.05.2020
4731 Clouds 6 1014 86 10000 1 30 01:42 03.05.2020
4732 Clouds 6 1014 86 10000 1 30 01:24 03.05.2020
4733 Clouds 6 1014 75 10000 2.1 240 00:41 03.05.2020
4734 Clouds 7 1014 75 10000 2.1 240 00:21 03.05.2020
4735 Clouds 7 1014 75 10000 2.1 240 00:21 03.05.2020
4736 Clouds 7 1014 75 10000 1.5 240 23:56 02.05.2020
4737 Clouds 7 1014 81 10000 3.1 220 23:38 02.05.2020
4738 Clouds 7 1014 81 10000 3.1 220 23:19 02.05.2020
4739 Clouds 9 1013 66 10000 3.1 250 22:42 02.05.2020
4740 Clouds 10 1013 66 10000 3.1 250 22:23 02.05.2020
4741 Clouds 11 1013 62 10000 4.1 260 21:56 02.05.2020
4742 Clouds 11 1012 54 10000 4.6 250 21:37 02.05.2020
4743 Clouds 12 1012 54 10000 4.6 250 21:18 02.05.2020
4744 Clouds 13 1012 50 10000 5.7 260 20:55 02.05.2020
4745 Clouds 13 1012 47 10000 5.1 260 20:37 02.05.2020
4746 Clouds 14 1012 47 10000 5.1 260 20:18 02.05.2020
4747 Clouds 14 1011 47 10000 5.7 260 19:55 02.05.2020
4748 Clouds 14 1011 44 10000 5.7 260 19:36 02.05.2020
4749 Clouds 15 1011 44 10000 5.7 260 19:18 02.05.2020
4750 Clouds 15 1011 44 10000 4.6 270 18:40 02.05.2020
4751 Clouds 15 1011 44 10000 4.6 270 18:21 02.05.2020
4752 Clouds 15 1011 44 10000 4.1 280 17:57 02.05.2020
4753 Clouds 15 1011 41 10000 2.1 260 17:39 02.05.2020
4754 Clouds 15 1011 41 10000 2.1 260 17:20 02.05.2020
4755 Clouds 14 1010 44 10000 1.5 0 16:57 02.05.2020
4756 Clouds 14 1010 44 10000 2.1 320 16:38 02.05.2020
4757 Clouds 14 1010 44 10000 2.1 320 16:20 02.05.2020
4758 Clouds 14 1010 47 10000 2.1 320 15:42 02.05.2020
4759 Clouds 13 1010 47 10000 2.1 320 15:20 02.05.2020
4760 Clouds 13 1010 50 10000 4.6 280 14:45 02.05.2020
4761 Clouds 13 1010 50 10000 4.6 280 14:27 02.05.2020
4762 Clouds 14 1009 50 10000 4.1 290 13:59 02.05.2020
4763 Clouds 14 1009 50 10000 4.6 290 13:39 02.05.2020
4764 Clouds 14 1009 50 10000 4.6 290 13:19 02.05.2020
4765 Clouds 13 1008 58 10000 5.1 290 12:42 02.05.2020
4766 Clear 13 1008 58 10000 5.1 290 12:23 02.05.2020
4767 Clear 12 1008 62 10000 5.7 290 11:58 02.05.2020
4768 Clear 12 1008 62 10000 5.1 290 11:39 02.05.2020
4769 Clear 12 1008 62 10000 5.1 290 11:21 02.05.2020
4770 Clear 11 1008 66 10000 4.6 310 10:54 02.05.2020
4771 Clear 10 1007 71 10000 5.1 300 10:36 02.05.2020
4772 Clouds 10 1007 71 10000 5.1 300 10:18 02.05.2020
4773 Clouds 10 1007 71 10000 5.1 300 10:18 02.05.2020
4774 Clouds 9 1007 76 10000 4.6 290 09:54 02.05.2020
4775 Clouds 9 1007 81 10000 3.6 290 09:36 02.05.2020
4776 Clouds 8 1006 87 10000 2.1 260 09:18 02.05.2020
4777 Clouds 6 1006 93 10000 2.1 200 08:41 02.05.2020
4778 Clouds 6 1006 93 10000 2.1 200 08:22 02.05.2020
4779 Clouds 5 1006 86 10000 2.6 230 07:46 02.05.2020
4780 Clouds 3 1005 100 10000 2.6 220 07:27 02.05.2020
4781 Clouds 4 1005 100 10000 1.5 230 06:47 02.05.2020
4782 Clouds 4 1004 93 10000 2.6 240 05:28 02.05.2020
4783 Clouds 4 1003 93 10000 2.6 230 04:37 02.05.2020
4784 Clouds 6 1003 86 10000 2.1 220 03:59 02.05.2020
4785 Clouds 8 1002 81 10000 2.6 250 02:43 02.05.2020
4786 Clouds 8 1002 87 10000 2.1 250 01:59 02.05.2020
4787 Clouds 8 1001 87 10000 2.1 250 01:28 02.05.2020
4788 Clouds 9 1001 81 10000 2.6 250 00:44 02.05.2020
4789 Clouds 9 1001 81 10000 2.6 250 00:24 02.05.2020
4790 Clouds 9 1001 81 10000 1.5 230 23:56 01.05.2020
4791 Clouds 9 1000 81 10000 0.5 320 23:37 01.05.2020
4792 Clouds 9 1000 81 10000 0.5 320 23:19 01.05.2020
4793 Clouds 9 999 76 10000 2.6 240 22:40 01.05.2020
4794 Clouds 9 999 76 10000 2.6 240 22:21 01.05.2020
4795 Clouds 9 999 76 10000 1.5 270 21:59 01.05.2020
4796 Clouds 10 999 71 10000 2.6 270 21:41 01.05.2020
4797 Clouds 11 998 66 10000 4.6 290 21:21 01.05.2020
4798 Rain 11 999 71 10000 2.6 270 21:21 01.05.2020
4799 Clouds 12 998 66 10000 4.6 290 20:58 01.05.2020
4800 Clouds 12 998 66 10000 4.6 290 20:58 01.05.2020
4801 Clouds 12 998 66 10000 5.7 290 20:40 01.05.2020
4802 Clouds 12 998 66 10000 5.7 290 20:20 01.05.2020
4803 Rain 13 998 58 10000 6.2 310 19:58 01.05.2020
4804 Rain 13 997 58 10000 5.1 280 19:40 01.05.2020
4805 Rain 13 997 58 10000 5.1 280 19:20 01.05.2020
4806 Rain 13 997 62 10000 6.7 250 18:55 01.05.2020
4807 Clouds 13 997 66 10000 6.2 260 18:37 01.05.2020
4808 Clouds 12 996 58 10000 4.1 270 18:18 01.05.2020
4809 Rain 13 996 62 10000 3.6 260 17:40 01.05.2020
4810 Rain 12 996 62 10000 3.6 260 17:22 01.05.2020
4811 Clouds 13 996 62 10000 4.1 260 16:57 01.05.2020
4812 Rain 12 996 71 10000 4.6 230 16:39 01.05.2020
4813 Rain 12 996 66 10000 4.1 230 16:20 01.05.2020
4814 Rain 12 996 66 10000 4.1 230 15:57 01.05.2020
4815 Rain 12 996 71 10000 5.1 220 15:39 01.05.2020
4816 Rain 11 996 66 10000 5.7 240 15:19 01.05.2020
4817 Rain 11 996 71 10000 5.1 220 15:19 01.05.2020
4818 Rain 11 996 71 10000 5.1 240 14:43 01.05.2020
4819 Rain 11 996 71 10000 5.1 240 14:24 01.05.2020
4820 Rain 12 995 71 10000 2.1 290 13:55 01.05.2020
4821 Rain 12 995 66 10000 1 0 13:36 01.05.2020
4822 Rain 12 995 71 10000 1 0 13:18 01.05.2020
4823 Rain 12 995 71 10000 1 0 12:54 01.05.2020
4824 Rain 11 995 76 10000 1.5 0 12:36 01.05.2020
4825 Clouds 11 995 76 10000 1.5 0 12:18 01.05.2020
4826 Clouds 11 995 81 10000 0.5 0 11:41 01.05.2020
4827 Clouds 11 995 81 10000 0.5 0 11:41 01.05.2020
4828 Clouds 10 995 81 10000 0.5 0 11:21 01.05.2020
4829 Clouds 8 995 93 10000 1 0 10:56 01.05.2020
4830 Clouds 8 995 100 10000 0.5 0 10:36 01.05.2020
4831 Mist 7 995 100 1300 0.5 0 10:18 01.05.2020
4832 Fog 5 995 100 450 0.5 0 09:42 01.05.2020
4833 Fog 4 995 100 450 0.5 0 09:19 01.05.2020
4834 Fog 2 994 100 150 1 200 08:46 01.05.2020
4835 Fog 2 994 100 150 1 200 08:28 01.05.2020
4836 Fog 1 994 84 300 1 260 07:59 01.05.2020
4837 Fog 1 994 100 500 2.1 250 07:39 01.05.2020
4838 Fog 1 994 100 500 2.1 250 07:18 01.05.2020
4839 Fog 2 993 100 350 1 0 06:27 01.05.2020
4840 Fog 2 993 100 400 1 270 05:21 01.05.2020
4841 Mist 3 992 100 1500 1 0 03:44 01.05.2020
4842 Mist 5 992 100 4900 1 200 02:53 01.05.2020
4843 Clouds 7 992 87 10000 0.5 0 02:34 01.05.2020
4844 Clouds 6 992 93 10000 2.1 10 01:47 01.05.2020
4845 Clouds 6 992 93 10000 2.1 10 01:27 01.05.2020
4846 Clouds 6 991 100 10000 1 0 00:40 01.05.2020
4847 Clouds 6 991 100 10000 1 0 00:21 01.05.2020
4848 Clouds 7 991 93 10000 1 0 23:57 30.04.2020
4849 Clouds 7 991 87 10000 1.5 290 23:38 30.04.2020
4850 Clouds 7 991 87 10000 1.5 290 23:38 30.04.2020
4851 Clouds 8 991 87 10000 1.5 290 23:19 30.04.2020
4852 Clouds 8 991 87 10000 1 0 22:54 30.04.2020
4853 Clouds 9 991 81 10000 1.5 0 22:36 30.04.2020
4854 Clouds 9 991 81 10000 1.5 0 22:18 30.04.2020
4855 Clouds 9 990 81 10000 3.6 330 21:41 30.04.2020
4856 Rain 9 990 81 10000 3.6 330 21:21 30.04.2020
4857 Rain 9 990 81 10000 3.6 320 20:58 30.04.2020
4858 Rain 9 990 81 10000 2.6 340 20:39 30.04.2020
4859 Rain 10 989 81 10000 3.1 330 20:18 30.04.2020
4860 Rain 10 990 81 10000 2.6 340 20:18 30.04.2020
4861 Rain 10 989 81 10000 2.6 320 19:45 30.04.2020
4862 Rain 11 989 81 10000 2.6 320 19:26 30.04.2020
4863 Rain 9 989 87 9000 2.6 360 18:57 30.04.2020
4864 Rain 9 989 81 10000 4.1 360 18:39 30.04.2020
4865 Rain 9 989 81 10000 4.1 360 18:21 30.04.2020
4866 Rain 10 989 71 10000 6.2 60 17:57 30.04.2020
4867 Rain 11 989 71 10000 4.6 50 17:39 30.04.2020
4868 Rain 12 989 71 10000 3.6 30 17:20 30.04.2020
4869 Rain 12 989 71 10000 3.6 30 16:56 30.04.2020
4870 Rain 10 989 81 10000 5.1 40 16:38 30.04.2020
4871 Rain 10 989 71 10000 1.5 0 16:18 30.04.2020
4872 Rain 10 989 76 8000 4.6 130 15:44 30.04.2020
4873 Rain 11 989 76 8000 4.6 130 15:23 30.04.2020
4874 Rain 11 989 71 10000 4.6 50 14:43 30.04.2020
4875 Rain 11 989 71 10000 4.6 50 14:22 30.04.2020
4876 Rain 10 989 71 10000 3.6 60 13:59 30.04.2020
4877 Clouds 10 989 81 10000 4.1 50 13:41 30.04.2020
4878 Clouds 10 989 81 10000 4.1 50 13:23 30.04.2020
4879 Clouds 10 989 76 10000 4.1 50 12:59 30.04.2020
4880 Clouds 10 989 81 10000 4.1 70 12:41 30.04.2020
4881 Clouds 10 989 81 10000 4.1 70 12:19 30.04.2020
4882 Clouds 9 989 87 10000 4.1 80 11:38 30.04.2020
4883 Clouds 9 989 87 10000 4.1 80 11:19 30.04.2020
4884 Clouds 8 989 93 10000 3.6 90 10:58 30.04.2020
4885 Clouds 7 989 93 10000 3.6 70 10:39 30.04.2020
4886 Clouds 7 989 93 10000 3.6 70 10:21 30.04.2020
4887 Clouds 7 989 93 10000 4.6 60 09:56 30.04.2020
4888 Rain 7 989 93 8000 5.7 60 09:37 30.04.2020
4889 Rain 7 989 93 6000 6.2 60 09:18 30.04.2020
4890 Rain 6 990 87 8000 4.1 70 08:44 30.04.2020
4891 Rain 6 990 87 8000 4.1 70 08:24 30.04.2020
4892 Rain 6 990 93 10000 2.6 70 07:43 30.04.2020
4893 Rain 6 990 93 10000 2.6 70 07:25 30.04.2020
4894 Clouds 5 990 93 10000 2.6 80 06:52 30.04.2020
4895 Clouds 5 990 93 10000 2.1 100 06:18 30.04.2020
4896 Clouds 5 990 93 10000 1.5 30 05:44 30.04.2020
4897 Mist 5 991 100 4900 2.6 50 04:36 30.04.2020
4898 Mist 5 991 93 2900 3.1 50 03:57 30.04.2020
4899 Clouds 6 992 93 8000 2.6 40 02:46 30.04.2020
4900 Clouds 6 992 93 10000 1 70 02:24 30.04.2020
4901 Clouds 5 993 100 10000 1 0 01:36 30.04.2020
4902 Clouds 5 993 100 10000 2.6 80 00:42 30.04.2020
4903 Clouds 5 993 100 10000 2.6 80 00:19 30.04.2020
4904 Clouds 6 993 93 10000 3.6 80 23:57 29.04.2020
4905 Clouds 6 993 93 10000 3.6 60 23:37 29.04.2020
4906 Clouds 6 993 93 10000 3.6 60 23:37 29.04.2020
4907 Clouds 6 993 93 10000 3.6 60 23:18 29.04.2020
4908 Rain 6 993 87 10000 5.1 90 22:40 29.04.2020
4909 Rain 7 993 87 10000 5.1 90 22:21 29.04.2020
4910 Rain 7 993 87 10000 5.1 90 22:21 29.04.2020
4911 Rain 7 994 93 10000 5.7 90 21:57 29.04.2020
4912 Rain 7 994 93 10000 5.1 60 21:37 29.04.2020
4913 Rain 7 994 93 10000 5.1 60 21:18 29.04.2020
4914 Rain 7 994 93 10000 4.6 70 20:55 29.04.2020
4915 Rain 7 995 93 9000 5.1 70 20:36 29.04.2020
4916 Rain 7 995 93 9000 5.1 70 20:18 29.04.2020
4917 Rain 8 995 87 10000 3.6 80 19:42 29.04.2020
4918 Rain 8 995 87 10000 3.6 80 19:20 29.04.2020
4919 Rain 8 996 81 10000 4.6 90 18:43 29.04.2020
4920 Rain 8 996 81 10000 4.6 90 18:25 29.04.2020
4921 Rain 9 996 76 10000 5.1 100 17:58 29.04.2020
4922 Rain 9 997 70 10000 4.6 100 17:40 29.04.2020
4923 Rain 9 997 70 10000 4.6 100 17:21 29.04.2020
4924 Clouds 9 998 66 10000 6.2 100 16:39 29.04.2020
4925 Clouds 9 998 66 10000 5.1 110 16:19 29.04.2020
4926 Clouds 9 998 66 10000 5.1 110 15:57 29.04.2020
4927 Clouds 9 998 66 10000 6.2 100 15:39 29.04.2020
4928 Clouds 9 999 61 10000 6.7 120 15:21 29.04.2020
4929 Clouds 9 999 61 10000 6.7 120 14:57 29.04.2020
4930 Clouds 9 999 61 10000 5.1 110 14:38 29.04.2020
4931 Clouds 9 999 61 10000 5.1 110 14:20 29.04.2020
4932 Clouds 9 1000 66 10000 5.7 90 13:42 29.04.2020
4933 Clouds 9 1000 70 10000 5.1 80 13:20 29.04.2020
4934 Clouds 9 1000 70 10000 5.1 80 13:20 29.04.2020
4935 Clouds 9 1000 70 10000 5.1 80 12:59 29.04.2020
4936 Clouds 9 1000 70 10000 4.6 80 12:40 29.04.2020
4937 Clouds 8 1000 70 10000 4.6 80 12:19 29.04.2020
4938 Clouds 8 1001 70 10000 5.1 80 11:58 29.04.2020
4939 Clouds 7 1001 81 10000 4.6 70 11:36 29.04.2020
4940 Clouds 7 1001 81 10000 4.1 70 11:18 29.04.2020
4941 Rain 7 1002 87 10000 3.6 60 10:37 29.04.2020
4942 Rain 7 1002 87 10000 3.6 60 10:19 29.04.2020
4943 Rain 7 1002 81 10000 3.1 90 09:42 29.04.2020
4944 Rain 7 1002 81 10000 3.1 90 09:24 29.04.2020
4945 Rain 7 1003 87 10000 3.1 80 08:59 29.04.2020
4946 -273 0 0 0 0 0 08:59 29.04.2020
4947 Rain 6 1003 93 10000 2.6 70 08:41 29.04.2020
4948 Rain 6 1003 93 10000 2.6 70 08:23 29.04.2020
4949 Rain 6 1003 100 10000 2.1 70 07:47 29.04.2020
4950 Rain 6 1003 100 10000 2.1 70 07:24 29.04.2020
4951 Rain 6 1003 100 10000 2.1 60 06:51 29.04.2020
4952 Rain 6 1004 93 10000 2.1 60 06:31 29.04.2020
4953 Rain 6 1004 100 10000 3.1 60 05:22 29.04.2020
4954 Rain 6 1005 93 10000 2.6 60 04:45 29.04.2020
4955 Rain 7 1005 93 10000 3.1 60 04:18 29.04.2020
4956 Rain 7 1006 93 10000 3.1 60 02:43 29.04.2020
4957 Rain 7 1006 93 10000 2.6 90 01:44 29.04.2020
4958 Rain 7 1006 93 10000 2.6 90 01:26 29.04.2020
4959 Rain 7 1006 93 10000 3.1 100 00:43 29.04.2020
4960 Rain 7 1006 93 10000 3.1 100 00:20 29.04.2020
4961 Rain 8 1006 81 10000 3.1 110 23:51 28.04.2020
4962 Rain 8 1006 81 10000 3.1 120 23:24 28.04.2020
4963 Rain 8 1006 70 10000 4.6 120 22:58 28.04.2020
4964 Rain 9 1006 66 10000 4.1 90 22:37 28.04.2020
4965 Rain 9 1006 66 10000 4.1 90 22:37 28.04.2020
4966 Rain 9 1006 66 10000 4.1 70 22:18 28.04.2020
4967 Rain 9 1006 66 10000 4.1 70 21:57 28.04.2020
4968 Clouds 9 1006 57 10000 4.1 80 21:38 28.04.2020
4969 Clouds 10 1006 57 10000 4.1 80 21:20 28.04.2020
4970 Rain 10 1006 61 10000 4.6 90 20:55 28.04.2020
4971 Rain 10 1006 57 10000 4.6 100 20:37 28.04.2020
4972 Rain 10 1006 57 10000 4.6 100 20:19 28.04.2020
4973 Clouds 10 1006 57 10000 5.1 110 19:43 28.04.2020
4974 Clouds 10 1006 57 10000 5.1 110 19:22 28.04.2020
4975 Rain 10 1006 57 10000 4.1 90 18:59 28.04.2020
4976 Rain 10 1006 66 10000 2.6 80 18:40 28.04.2020
4977 Rain 11 1006 57 10000 4.6 80 18:19 28.04.2020
4978 Rain 10 1006 66 10000 2.6 80 18:19 28.04.2020
4979 Rain 11 1006 57 10000 4.6 80 17:57 28.04.2020
4980 Rain 11 1006 57 10000 4.6 100 17:36 28.04.2020
4981 Clouds 11 1006 50 10000 3.6 100 17:18 28.04.2020
4982 Clouds 12 1006 50 10000 4.6 90 16:42 28.04.2020
4983 Clouds 12 1006 50 10000 4.6 90 16:23 28.04.2020
4984 Rain 12 1007 54 10000 4.1 70 15:58 28.04.2020
4985 Rain 12 1007 54 10000 4.6 80 15:39 28.04.2020
4986 Rain 12 1007 57 10000 4.1 80 15:21 28.04.2020
4987 Rain 11 1007 57 10000 4.1 80 14:58 28.04.2020
4988 Rain 11 1007 57 10000 4.1 90 14:40 28.04.2020
4989 Clouds 11 1007 57 10000 4.1 90 14:21 28.04.2020
4990 Clouds 11 1007 57 10000 4.1 90 14:21 28.04.2020
4991 Clouds 10 1008 66 10000 4.1 110 13:58 28.04.2020
4992 Clouds 9 1008 66 10000 4.6 80 13:38 28.04.2020
4993 Clouds 9 1008 66 10000 4.6 80 13:19 28.04.2020
4994 Clouds 8 1008 70 10000 5.1 80 12:44 28.04.2020
4995 Clouds 8 1008 70 10000 5.1 80 12:24 28.04.2020
4996 Clouds 8 1008 75 10000 4.6 70 11:45 28.04.2020
4997 Clouds 7 1009 75 10000 4.1 70 11:24 28.04.2020
4998 Clouds 7 1009 75 10000 4.1 90 10:59 28.04.2020
4999 Clouds 7 1008 81 10000 3.6 80 10:39 28.04.2020
5000 Clouds 7 1008 81 10000 3.6 80 10:39 28.04.2020
5001 Clouds 7 1008 81 10000 3.6 80 10:19 28.04.2020
5002 Clouds 7 1008 81 10000 4.1 80 09:57 28.04.2020
5003 Rain 6 1008 87 10000 2.6 80 09:39 28.04.2020
5004 Rain 6 1008 87 10000 2.6 80 09:20 28.04.2020
5005 Rain 5 1008 100 10000 1 0 08:45 28.04.2020
5006 Clouds 4 1008 93 10000 1 230 08:26 28.04.2020
5007 Clouds 5 1009 86 10000 1.5 90 07:45 28.04.2020
5008 Clouds 5 1009 86 10000 1.5 90 07:20 28.04.2020
5009 Clouds 5 1009 86 10000 2.1 80 06:50 28.04.2020
5010 Clouds 5 1009 86 10000 2.1 80 06:22 28.04.2020
5011 Clouds 4 1009 86 10000 2.6 60 05:41 28.04.2020
5012 Clouds 4 1009 93 10000 3.6 40 04:56 28.04.2020
5013 Clouds 5 1009 93 10000 3.1 50 02:59 28.04.2020
5014 Clouds 5 1009 86 10000 2.6 70 02:28 28.04.2020
5015 Clouds 6 1010 86 10000 4.1 50 01:23 28.04.2020
5016 Clouds 6 1010 87 10000 3.1 50 00:51 28.04.2020
5017 Clouds 6 1010 87 10000 2.6 60 00:20 28.04.2020
5018 Clouds 7 1010 87 10000 1.5 30 23:44 27.04.2020
5019 Clouds 7 1010 87 10000 1.5 30 23:23 27.04.2020
5020 Clouds 6 1010 81 10000 3.1 40 22:55 27.04.2020
5021 Clouds 7 1010 81 10000 3.1 50 22:37 27.04.2020
5022 Clouds 7 1010 81 10000 3.1 50 22:37 27.04.2020
5023 Rain 7 1010 81 10000 3.1 50 22:18 27.04.2020
5024 Rain 8 1009 81 10000 4.6 60 21:55 27.04.2020
5025 Rain 8 1009 87 10000 5.7 50 21:37 27.04.2020
5026 Rain 8 1009 81 10000 6.2 60 21:18 27.04.2020
5027 Rain 9 1009 76 10000 5.7 70 20:42 27.04.2020
5028 Rain 9 1009 76 10000 5.7 70 20:21 27.04.2020
5029 Rain 10 1009 71 10000 5.1 80 19:57 27.04.2020
5030 Rain 10 1008 62 10000 5.7 90 19:38 27.04.2020
5031 Rain 10 1008 62 10000 5.7 90 19:19 27.04.2020
5032 Rain 11 1008 50 10000 6.2 60 18:56 27.04.2020
5033 Rain 12 1008 50 10000 3.6 40 18:37 27.04.2020
5034 Clouds 12 1008 50 10000 3.6 40 18:18 27.04.2020
5035 Clouds 13 1008 40 10000 1 0 18:18 27.04.2020
5036 Clouds 14 1008 43 10000 1.5 0 17:41 27.04.2020
5037 Clouds 13 1008 43 10000 1.5 0 17:20 27.04.2020
5038 Clouds 14 1008 37 10000 2.6 200 16:56 27.04.2020
5039 Clouds 13 1008 43 10000 3.1 180 16:37 27.04.2020
5040 Clouds 14 1008 43 10000 3.1 180 16:19 27.04.2020
5041 Clouds 14 1008 41 10000 2.1 150 15:56 27.04.2020
5042 Clouds 13 1008 47 10000 2.1 0 15:37 27.04.2020
5043 Clouds 13 1008 47 10000 2.1 0 15:18 27.04.2020
5044 Clouds 13 1008 47 10000 1 0 14:41 27.04.2020
5045 Clouds 13 1009 50 10000 2.1 100 14:20 27.04.2020
5046 Clouds 12 1009 50 10000 2.1 100 13:57 27.04.2020
5047 Clouds 12 1009 50 10000 1 0 13:38 27.04.2020
5048 Clouds 11 1009 46 10000 1.5 0 13:18 27.04.2020
5049 Clouds 11 1009 53 10000 2.1 10 12:43 27.04.2020
5050 Clouds 11 1009 53 10000 2.1 10 12:22 27.04.2020
5051 Clouds 10 1009 61 10000 1 0 11:56 27.04.2020
5052 Clouds 10 1009 61 10000 1.5 0 11:37 27.04.2020
5053 Clouds 10 1009 70 10000 2.1 240 11:18 27.04.2020
5054 Clouds 9 1009 75 10000 2.1 250 10:42 27.04.2020
5055 Clouds 8 1009 75 10000 2.1 250 10:24 27.04.2020
5056 Clouds 8 1009 75 10000 2.1 250 10:24 27.04.2020
5057 Clouds 8 1009 81 10000 1.5 0 09:58 27.04.2020
5058 Clouds 7 1009 93 10000 1 0 09:39 27.04.2020
5059 Clear 6 1009 93 10000 1 0 09:18 27.04.2020
5060 Clear 4 1009 100 10000 1 0 08:48 27.04.2020
5061 Clear 2 1009 100 10000 1.5 0 08:30 27.04.2020
5062 Clear 1 1009 84 10000 2.6 240 07:45 27.04.2020
5063 Clear 1 1009 84 10000 2.6 240 07:25 27.04.2020
5064 Clear 2 1009 93 10000 0.5 0 06:58 27.04.2020
5065 Clear 2 1009 93 10000 2.1 260 06:30 27.04.2020
5066 Clear 3 1009 93 10000 3.1 240 05:55 27.04.2020
5067 Clear 2 1009 88 10000 1 0 04:59 27.04.2020
5068 Clear 2 1009 93 10000 2.6 250 04:37 27.04.2020
5069 Clear 3 1009 93 10000 3.1 230 03:45 27.04.2020
5070 Clear 5 1009 86 10000 4.1 220 01:53 27.04.2020
5071 Clear 5 1009 86 10000 3.6 230 01:20 27.04.2020
5072 Clear 6 1010 81 10000 4.6 260 00:21 27.04.2020
5073 Clear 6 1010 81 10000 4.6 260 00:21 27.04.2020
5074 Clear 7 1010 75 10000 2.1 260 23:59 26.04.2020
5075 Clear 6 1010 75 10000 3.1 230 23:41 26.04.2020
5076 Clear 7 1010 75 10000 3.1 230 23:22 26.04.2020
5077 Clouds 8 1010 65 10000 2.6 250 22:59 26.04.2020
5078 Clear 9 1009 61 10000 3.6 260 22:40 26.04.2020
5079 Clear 9 1009 61 10000 3.6 260 22:21 26.04.2020
5080 Clear 9 1009 61 10000 4.1 270 21:58 26.04.2020
5081 Clear 9 1009 57 10000 4.1 270 21:39 26.04.2020
5082 Clouds 11 1009 57 10000 4.1 270 21:19 26.04.2020
5083 Clouds 11 1009 57 10000 4.1 270 21:19 26.04.2020
5084 Clouds 11 1009 57 10000 5.1 310 20:55 26.04.2020
5085 Clouds 12 1009 50 10000 6.2 270 20:37 26.04.2020
5086 Clouds 12 1009 50 10000 6.2 270 20:37 26.04.2020
5087 Clouds 12 1009 50 10000 6.2 270 20:19 26.04.2020
5088 Clouds 13 1009 47 10000 4.6 270 19:57 26.04.2020
5089 Clouds 13 1009 47 10000 5.7 270 19:36 26.04.2020
5090 Clouds 13 1009 47 10000 5.7 270 19:18 26.04.2020
5091 Clouds 13 1009 43 10000 6.2 280 18:43 26.04.2020
5092 Clouds 13 1009 43 10000 6.2 280 18:24 26.04.2020
5093 Clouds 13 1009 44 10000 5.1 260 17:43 26.04.2020
5094 Clouds 13 1009 44 10000 5.1 260 17:23 26.04.2020
5095 Clouds 13 1009 47 10000 6.2 260 16:57 26.04.2020
5096 Clouds 12 1010 47 10000 6.2 300 16:38 26.04.2020
5097 Clouds 13 1010 47 10000 6.2 300 16:19 26.04.2020
5098 Clouds 13 1010 47 10000 6.2 290 15:57 26.04.2020
5099 Clouds 13 1010 47 10000 5.1 280 15:37 26.04.2020
5100 Clouds 13 1010 47 10000 5.1 280 15:18 26.04.2020
5101 Clouds 12 1010 54 10000 5.7 290 14:41 26.04.2020
5102 Clouds 12 1010 54 10000 5.7 290 14:19 26.04.2020
5103 Clouds 11 1011 50 10000 4.6 290 13:59 26.04.2020
5104 Clouds 12 1011 50 10000 6.2 280 13:40 26.04.2020
5105 Clouds 12 1011 50 10000 6.2 280 13:22 26.04.2020
5106 Clouds 12 1011 50 10000 5.7 280 12:56 26.04.2020
5107 Clouds 11 1011 53 10000 5.1 280 12:37 26.04.2020
5108 Clouds 11 1011 53 10000 5.1 280 12:19 26.04.2020
5109 Clouds 10 1011 57 10000 5.1 280 11:54 26.04.2020
5110 Clouds 11 1011 53 10000 5.1 270 11:36 26.04.2020
5111 Clouds 10 1011 53 10000 5.1 270 11:18 26.04.2020
5112 Clouds 9 1011 61 10000 5.1 300 10:42 26.04.2020
5113 Clouds 9 1011 61 10000 5.1 300 10:24 26.04.2020
5114 Clear 8 1011 70 10000 3.1 280 09:58 26.04.2020
5115 Clouds 8 1011 81 10000 2.1 250 09:38 26.04.2020
5116 Clouds 7 1011 81 10000 2.1 250 09:19 26.04.2020
5117 Clouds 7 1011 81 10000 3.1 240 08:41 26.04.2020
5118 Clouds 6 1011 81 10000 3.1 240 08:22 26.04.2020
5119 Clouds 6 1011 86 10000 3.6 230 07:49 26.04.2020
5120 Clouds 6 1011 86 10000 3.6 220 07:24 26.04.2020
5121 Clouds 7 1011 81 10000 3.6 250 06:50 26.04.2020
5122 Clouds 6 1011 87 10000 3.6 250 06:25 26.04.2020
5123 Clear 6 1011 87 10000 4.1 240 05:51 26.04.2020
5124 Clear 7 1012 81 10000 3.6 250 05:32 26.04.2020
5125 Clear 6 1012 93 10000 2.6 230 04:39 26.04.2020
5126 Clear 6 1012 93 7000 2.6 240 03:40 26.04.2020
5127 Clear 7 1012 93 10000 1.5 240 02:37 26.04.2020
5128 Clear 7 1012 93 10000 1.5 240 02:19 26.04.2020
5129 Clear 8 1012 87 10000 3.6 230 01:36 26.04.2020
5130 Clear 7 1012 87 10000 3.1 240 00:41 26.04.2020
5131 Clear 9 1012 87 10000 3.1 240 00:21 26.04.2020
5132 Clear 9 1012 87 10000 3.1 240 00:21 26.04.2020
5133 Clear 7 1012 87 10000 3.1 230 23:56 25.04.2020
5134 Clear 8 1012 87 10000 4.6 230 23:37 25.04.2020
5135 Clear 8 1012 87 10000 4.6 230 23:18 25.04.2020
5136 Clear 10 1011 76 10000 2.6 250 22:42 25.04.2020
5137 Clear 12 1011 76 10000 2.6 250 22:20 25.04.2020
5138 Clear 13 1011 62 10000 3.1 250 21:58 25.04.2020
5139 Clouds 14 1011 51 10000 4.1 260 21:39 25.04.2020
5140 Clouds 15 1011 51 10000 4.1 260 21:19 25.04.2020
5141 Clouds 16 1011 42 10000 3.6 250 20:43 25.04.2020
5142 Clouds 16 1011 42 10000 3.6 250 20:23 25.04.2020
5143 Clouds 17 1011 42 10000 4.1 260 19:59 25.04.2020
5144 Clouds 17 1011 45 10000 3.6 310 19:39 25.04.2020
5145 Clouds 18 1011 45 10000 3.6 310 19:21 25.04.2020
5146 Clouds 18 1012 45 10000 4.1 310 18:56 25.04.2020
5147 Clouds 18 1012 48 10000 3.6 300 18:37 25.04.2020
5148 Clouds 18 1012 48 10000 3.6 300 18:18 25.04.2020
5149 Clouds 19 1012 48 10000 2.1 0 17:55 25.04.2020
5150 Clouds 19 1012 45 10000 2.1 260 17:36 25.04.2020
5151 Clouds 19 1012 45 10000 2.1 260 17:18 25.04.2020
5152 Clouds 19 1013 48 10000 1.5 0 16:43 25.04.2020
5153 Clouds 19 1013 48 10000 1.5 0 16:25 25.04.2020
5154 Clouds 18 1013 51 10000 1.5 0 15:58 25.04.2020
5155 Clouds 17 1014 55 10000 2.1 220 15:38 25.04.2020
5156 Clouds 17 1014 55 10000 2.1 220 15:19 25.04.2020
5157 Clouds 17 1014 55 10000 2.1 220 15:19 25.04.2020
5158 Clouds 16 1014 62 10000 1 0 14:56 25.04.2020
5159 Clouds 16 1014 62 10000 1 0 14:37 25.04.2020
5160 Clouds 15 1014 62 10000 1 0 14:18 25.04.2020
5161 Clouds 13 1015 66 10000 1 0 13:41 25.04.2020
5162 Clouds 13 1015 66 10000 1 0 13:19 25.04.2020
5163 Clouds 12 1015 71 10000 2.1 10 12:56 25.04.2020
5164 Clouds 11 1015 76 10000 2.6 20 12:38 25.04.2020
5165 Clouds 11 1015 76 10000 2.6 20 12:38 25.04.2020
5166 Clouds 11 1015 76 10000 2.6 20 12:19 25.04.2020
5167 Clouds 9 1016 81 10000 2.1 40 11:43 25.04.2020
5168 Clouds 8 1016 81 10000 2.1 40 11:25 25.04.2020
5169 Clouds 8 1016 81 10000 2.6 30 10:57 25.04.2020
5170 Clouds 8 1016 81 10000 3.1 30 10:38 25.04.2020
5171 Clouds 7 1016 81 10000 3.1 30 10:20 25.04.2020
5172 Clouds 7 1016 87 8000 3.1 50 09:43 25.04.2020
5173 Clouds 7 1016 87 8000 3.1 50 09:22 25.04.2020
5174 Clouds 6 1016 87 9000 2.6 60 08:55 25.04.2020
5175 Clouds 6 1016 87 8000 3.1 50 08:37 25.04.2020
5176 Clouds 6 1016 87 8000 3.1 50 08:19 25.04.2020
5177 Clouds 6 1016 87 9000 3.1 60 07:43 25.04.2020
5178 Clouds 6 1016 87 9000 3.1 60 07:22 25.04.2020
5179 Clouds 6 1016 87 8000 3.6 50 06:42 25.04.2020
5180 Clouds 6 1016 87 8000 3.6 50 06:42 25.04.2020
5181 Clouds 7 1016 87 9000 3.6 60 05:46 25.04.2020
5182 Clouds 7 1016 87 9000 3.6 60 05:27 25.04.2020
5183 Clouds 7 1017 87 9000 4.1 60 04:24 25.04.2020
5184 Clouds 6 1017 93 7000 4.1 70 02:44 25.04.2020
5185 Clouds 6 1017 93 8000 3.6 70 02:19 25.04.2020
5186 Clouds 6 1017 93 8000 3.6 70 01:49 25.04.2020
5187 Clouds 7 1017 87 10000 4.6 70 01:19 25.04.2020
5188 Clouds 7 1017 87 10000 4.6 80 00:46 25.04.2020
5189 Clouds 8 1017 81 10000 5.1 80 00:28 25.04.2020
5190 Clouds 8 1017 76 10000 5.7 70 23:42 24.04.2020
5191 Clouds 9 1017 76 10000 5.7 70 23:21 24.04.2020
5192 Clouds 10 1016 62 10000 6.2 70 22:41 24.04.2020
5193 Clouds 11 1016 62 10000 6.2 70 22:21 24.04.2020
5194 Clouds 12 1015 58 10000 6.7 70 21:59 24.04.2020
5195 Clouds 13 1015 54 10000 6.7 50 21:41 24.04.2020
5196 Clouds 14 1015 54 10000 6.7 50 21:23 24.04.2020
5197 Clouds 17 1014 45 10000 5.7 50 20:59 24.04.2020
5198 Clouds 17 1014 34 10000 3.6 50 20:41 24.04.2020
5199 Clouds 20 1014 30 10000 3.1 70 20:19 24.04.2020
5200 Clouds 19 1014 30 10000 3.1 70 19:57 24.04.2020
5201 Clouds 18 1014 30 10000 2.1 60 19:38 24.04.2020
5202 Clouds 19 1014 30 10000 2.1 60 19:20 24.04.2020
5203 Clouds 20 1015 32 10000 1.5 0 18:40 24.04.2020
5204 Clouds 20 1015 32 10000 1.5 0 18:22 24.04.2020
5205 Clouds 20 1015 30 10000 1 0 17:44 24.04.2020
5206 Clouds 20 1015 30 10000 1 0 17:25 24.04.2020
5207 -273 0 0 0 0 0 16:59 24.04.2020
5208 Clouds 20 1016 30 10000 1.5 0 16:41 24.04.2020
5209 Clouds 20 1016 30 10000 1.5 0 16:22 24.04.2020
5210 Clouds 19 1016 29 10000 1.5 0 15:59 24.04.2020
5211 Clouds 18 1016 31 10000 1.5 0 15:38 24.04.2020
5212 Clouds 18 1017 36 10000 1.5 0 15:18 24.04.2020
5213 Clouds 16 1017 41 10000 1 0 14:40 24.04.2020
5214 Clouds 17 1017 41 10000 1 0 14:21 24.04.2020
5215 Clouds 17 1017 41 10000 1.5 0 13:57 24.04.2020
5216 Clouds 16 1017 47 10000 1.5 0 13:38 24.04.2020
5217 Clouds 15 1017 47 10000 1.5 0 13:19 24.04.2020
5218 Clouds 14 1018 54 10000 2.1 100 12:42 24.04.2020
5219 Clouds 13 1018 54 10000 2.1 100 12:23 24.04.2020
5220 Clouds 11 1018 57 10000 1 0 11:58 24.04.2020
5221 Clouds 10 1018 61 10000 0.5 0 11:38 24.04.2020
5222 Clouds 10 1018 61 10000 0.5 0 11:20 24.04.2020
5223 Clouds 10 1018 66 10000 1 0 10:54 24.04.2020
5224 Clouds 10 1019 66 10000 1 0 10:36 24.04.2020
5225 Clouds 10 1019 66 10000 1 0 10:18 24.04.2020
5226 Clouds 7 1019 93 10000 0.5 80 09:45 24.04.2020
5227 Clouds 5 1019 93 10000 0.5 80 09:24 24.04.2020
5228 Clouds 4 1019 93 10000 1 240 08:57 24.04.2020
5229 Clouds 4 1019 93 10000 1 260 08:37 24.04.2020
5230 Clouds 4 1019 73 10000 1 230 08:18 24.04.2020
5231 Clouds 3 1019 73 10000 1 260 07:44 24.04.2020
5232 Clouds 3 1019 73 10000 1 260 07:26 24.04.2020
5233 Clouds 3 1019 73 10000 1.5 250 06:51 24.04.2020
5234 Clouds 3 1019 93 10000 1 210 06:32 24.04.2020
5235 Clouds 3 1020 74 10000 1 260 05:44 24.04.2020
5236 Clouds 4 1020 86 10000 0.5 290 04:26 24.04.2020
5237 Clouds 7 1020 65 10000 1.5 60 02:58 24.04.2020
5238 Clouds 6 1021 70 10000 1.5 70 02:38 24.04.2020
5239 Clouds 8 1021 61 10000 2.1 40 01:58 24.04.2020
5240 Clouds 9 1021 61 10000 2.6 70 00:58 24.04.2020
5241 Clouds 9 1021 61 10000 2.6 70 00:21 24.04.2020
5242 Clouds 10 1021 57 10000 3.1 70 23:56 23.04.2020
5243 Clouds 10 1021 57 10000 4.1 60 23:37 23.04.2020
5244 Clouds 11 1021 57 10000 2.1 70 23:18 23.04.2020
5245 Clouds 10 1021 57 10000 2.1 70 22:55 23.04.2020
5246 Clouds 11 1021 54 10000 4.6 70 22:36 23.04.2020
5247 Clouds 12 1021 58 10000 3.6 60 22:18 23.04.2020
5248 Clouds 12 1021 58 10000 3.6 60 21:55 23.04.2020
5249 Clouds 12 1021 58 10000 3.6 60 21:55 23.04.2020
5250 Clouds 13 1021 50 10000 5.1 60 21:37 23.04.2020
5251 Clouds 14 1021 50 10000 5.1 60 21:18 23.04.2020
5252 Clouds 15 1021 44 10000 4.6 60 20:41 23.04.2020
5253 Clouds 15 1021 44 10000 4.6 60 20:21 23.04.2020
5254 Clouds 16 1021 44 10000 5.1 60 19:56 23.04.2020
5255 Clouds 16 1021 42 10000 4.1 70 19:38 23.04.2020
5256 Clouds 17 1021 42 10000 4.1 70 19:20 23.04.2020
5257 Clouds 17 1021 45 10000 3.1 70 18:55 23.04.2020
5258 Clouds 17 1022 45 10000 3.1 50 18:36 23.04.2020
5259 Clouds 17 1022 45 10000 3.1 50 18:18 23.04.2020
5260 Clouds 17 1022 42 10000 2.6 60 17:40 23.04.2020
5261 Clouds 17 1022 42 10000 2.6 60 17:22 23.04.2020
5262 Clouds 17 1022 45 10000 3.6 20 16:57 23.04.2020
5263 Clouds 17 1023 45 10000 3.6 50 16:38 23.04.2020
5264 Clouds 17 1023 45 10000 3.6 70 16:18 23.04.2020
5265 Clouds 16 1023 44 10000 3.6 80 15:42 23.04.2020
5266 Clouds 16 1023 44 10000 3.6 80 15:22 23.04.2020
5267 Clouds 16 1023 44 10000 4.6 60 14:56 23.04.2020
5268 Clouds 15 1024 47 10000 4.6 100 14:37 23.04.2020
5269 Clouds 15 1024 47 10000 4.6 100 14:19 23.04.2020
5270 Clouds 14 1024 54 10000 4.6 80 13:55 23.04.2020
5271 Clouds 14 1025 62 10000 4.6 70 13:36 23.04.2020
5272 Clouds 14 1025 62 10000 4.6 70 13:36 23.04.2020
5273 Clouds 14 1025 62 10000 4.6 70 13:18 23.04.2020
5274 Clouds 12 1025 71 10000 4.1 80 12:42 23.04.2020
5275 Clouds 11 1025 71 10000 4.1 80 12:23 23.04.2020
5276 Clouds 10 1025 76 10000 4.6 80 11:55 23.04.2020
5277 Clouds 10 1026 76 10000 4.1 90 11:36 23.04.2020
5278 Clouds 10 1026 76 10000 4.1 90 11:18 23.04.2020
5279 Clouds 9 1026 87 10000 3.6 60 10:41 23.04.2020
5280 Clouds 9 1026 87 10000 3.6 60 10:41 23.04.2020
5281 Clouds 8 1026 87 10000 3.6 60 10:20 23.04.2020
5282 Clouds 8 1026 93 10000 4.6 80 09:41 23.04.2020
5283 Clouds 7 1026 93 9000 4.6 60 09:20 23.04.2020
5284 Clouds 7 1026 93 9000 4.6 60 08:55 23.04.2020
5285 Clouds 7 1026 93 8000 5.1 60 08:37 23.04.2020
5286 Clouds 7 1026 93 8000 5.1 60 08:37 23.04.2020
5287 Clouds 6 1026 93 8000 5.1 60 08:18 23.04.2020
5288 Clouds 6 1026 100 6000 2.6 50 07:41 23.04.2020
5289 Clouds 5 1026 100 6000 2.6 50 07:22 23.04.2020
5290 Clouds 6 1026 93 7000 2.1 20 06:46 23.04.2020
5291 Clouds 6 1027 93 9000 2.6 70 05:56 23.04.2020
5292 Clouds 6 1027 93 9000 2.1 50 05:22 23.04.2020
5293 Clouds 7 1027 93 10000 3.6 70 04:50 23.04.2020
5294 Clouds 7 1027 93 10000 3.6 90 02:24 23.04.2020
5295 Clouds 7 1027 81 10000 2.6 80 01:41 23.04.2020
5296 Clouds 8 1027 87 10000 4.1 80 00:57 23.04.2020
5297 Clouds 8 1027 76 10000 4.6 80 00:29 23.04.2020
5298 Clouds 8 1027 76 10000 6.7 80 23:59 22.04.2020
5299 Clouds 9 1027 71 10000 5.7 80 23:41 22.04.2020
5300 Clouds 9 1027 71 10000 5.7 80 23:22 22.04.2020
5301 Clouds 10 1027 62 10000 5.7 70 22:41 22.04.2020
5302 Clouds 10 1027 62 10000 5.7 70 22:20 22.04.2020
5303 Clouds 10 1027 62 10000 6.7 70 21:59 22.04.2020
5304 Clouds 10 1027 62 10000 6.7 70 21:59 22.04.2020
5305 Clouds 11 1026 58 10000 6.7 80 21:41 22.04.2020
5306 Clouds 11 1026 58 10000 6.7 80 21:22 22.04.2020
5307 Clouds 12 1026 54 10000 5.7 70 20:59 22.04.2020
5308 Clouds 12 1026 54 10000 5.7 70 20:59 22.04.2020
5309 Clouds 13 1026 50 10000 7.2 70 20:41 22.04.2020
5310 Clouds 14 1026 50 10000 7.2 70 20:19 22.04.2020
5311 Clouds 14 1026 50 10000 7.2 70 20:19 22.04.2020
5312 Clouds 14 1026 51 10000 7.2 60 19:57 22.04.2020
5313 Clouds 14 1026 51 10000 7.2 60 19:57 22.04.2020
5314 Clouds 14 1026 51 10000 6.7 60 19:38 22.04.2020
5315 Clouds 15 1026 48 10000 8.2 60 19:18 22.04.2020
5316 Clouds 15 1026 48 10000 8.2 60 18:57 22.04.2020
5317 Clouds 15 1026 48 10000 8.2 60 18:57 22.04.2020
5318 Clouds 15 1026 48 10000 8.2 60 18:57 22.04.2020
5319 Clouds 15 1026 48 10000 8.2 70 18:39 22.04.2020
5320 Clouds 16 1026 45 10000 7.7 70 18:20 22.04.2020
5321 Clouds 17 1026 48 10000 7.7 60 17:43 22.04.2020
5322 Clouds 17 1026 48 10000 7.7 60 17:25 22.04.2020
5323 Clouds 17 1026 48 10000 8.2 60 16:58 22.04.2020
5324 Clouds 16 1027 51 10000 8.2 70 16:39 22.04.2020
5325 Clouds 16 1027 51 10000 8.2 70 16:20 22.04.2020
5326 Clouds 16 1027 51 10000 7.7 80 15:41 22.04.2020
5327 Clouds 16 1027 51 10000 7.7 80 15:22 22.04.2020
5328 Clouds 16 1027 51 10000 8.7 70 14:58 22.04.2020
5329 Clouds 16 1027 51 10000 7.2 60 14:38 22.04.2020
5330 Clouds 16 1027 51 10000 7.2 60 14:19 22.04.2020
5331 Clouds 14 1028 58 10000 8.2 60 13:44 22.04.2020
5332 Clouds 14 1028 58 10000 8.2 60 13:20 22.04.2020
5333 Clouds 14 1028 58 10000 8.7 60 12:57 22.04.2020
5334 Clouds 14 1028 62 10000 8.2 70 12:39 22.04.2020
5335 Clouds 13 1028 62 10000 8.2 70 12:20 22.04.2020
5336 Clouds 11 1028 71 10000 7.7 70 11:40 22.04.2020
5337 Clouds 11 1028 71 10000 7.7 70 11:20 22.04.2020
5338 Clouds 10 1028 71 10000 8.2 70 10:58 22.04.2020
5339 Clouds 10 1028 71 10000 6.2 80 10:38 22.04.2020
5340 Clouds 10 1028 71 10000 6.2 80 10:38 22.04.2020
5341 Clouds 9 1028 76 10000 7.2 70 10:18 22.04.2020
5342 Clouds 9 1028 75 10000 3.6 70 09:39 22.04.2020
5343 Clouds 8 1028 75 10000 3.6 70 09:19 22.04.2020
5344 Clouds 7 1028 81 10000 3.6 60 08:54 22.04.2020
5345 Clouds 6 1028 86 10000 3.1 70 08:36 22.04.2020
5346 Clouds 6 1028 86 10000 3.1 70 08:18 22.04.2020
5347 Clouds 5 1028 86 10000 1.5 70 07:46 22.04.2020
5348 Clouds 5 1028 86 10000 1.5 70 07:22 22.04.2020
5349 Clouds 6 1028 81 10000 4.1 80 06:45 22.04.2020
5350 Clouds 6 1028 87 10000 3.6 70 05:47 22.04.2020
5351 Clouds 6 1028 87 10000 3.6 70 05:23 22.04.2020
5352 Clouds 6 1028 87 10000 4.6 60 03:55 22.04.2020
5353 Clouds 7 1029 81 10000 4.6 60 02:37 22.04.2020
5354 Clear 7 1028 81 10000 3.6 60 01:42 22.04.2020
5355 Clear 7 1028 81 10000 3.6 60 01:23 22.04.2020
5356 Clear 7 1028 75 10000 5.1 70 00:45 22.04.2020
5357 Clear 8 1028 75 10000 5.1 70 00:20 22.04.2020
5358 Clear 8 1028 75 10000 5.7 70 23:45 21.04.2020
5359 Clear 8 1028 75 10000 5.7 70 23:23 21.04.2020
5360 Clear 8 1028 66 10000 6.2 60 22:58 21.04.2020
5361 Clear 9 1027 66 10000 8.7 70 22:39 21.04.2020
5362 Clear 9 1027 66 10000 8.7 70 22:20 21.04.2020
5363 Clear 10 1027 57 10000 7.2 60 21:55 21.04.2020
5364 Clear 10 1026 50 10000 7.2 60 21:37 21.04.2020
5365 Clear 11 1026 50 10000 8.7 60 21:18 21.04.2020
5366 Clear 12 1026 50 10000 8.7 50 20:40 21.04.2020
5367 Clear 12 1026 50 10000 8.7 50 20:22 21.04.2020
5368 Clear 13 1026 50 10000 9.3 50 19:58 21.04.2020
5369 Clear 13 1026 50 10000 10.3 50 19:38 21.04.2020
5370 Clear 14 1026 50 10000 10.3 50 19:18 21.04.2020
5371 Clear 14 1025 50 10000 10.3 60 18:55 21.04.2020
5372 Clear 15 1025 47 10000 9.3 60 18:36 21.04.2020
5373 Clear 15 1025 47 10000 9.3 60 18:18 21.04.2020
5374 Clear 15 1025 47 10000 9.8 60 17:39 21.04.2020
5375 Clear 15 1025 47 10000 9.8 60 17:20 21.04.2020
5376 Clear 15 1026 44 10000 10.3 60 16:56 21.04.2020
5377 Clear 15 1026 44 10000 10.3 60 16:36 21.04.2020
5378 Clear 15 1026 44 10000 10.3 60 16:18 21.04.2020
5379 Clear 15 1026 41 10000 10.3 70 15:55 21.04.2020
5380 Clear 15 1026 41 10000 11.3 80 15:36 21.04.2020
5381 Clear 15 1026 41 10000 11.3 80 15:18 21.04.2020
5382 Clear 15 1026 44 10000 13.9 70 14:44 21.04.2020
5383 Clear 15 1026 44 10000 13.9 70 14:23 21.04.2020
5384 Clear 15 1026 51 10000 9.8 80 13:55 21.04.2020
5385 Clear 14 1026 54 10000 8.7 70 13:37 21.04.2020
5386 Clear 14 1027 54 10000 8.7 70 13:18 21.04.2020
5387 Clear 13 1027 54 10000 7.7 90 12:38 21.04.2020
5388 Clear 13 1027 54 10000 7.7 90 12:19 21.04.2020
5389 Clear 12 1027 58 10000 7.2 70 11:57 21.04.2020
5390 Clear 11 1027 62 10000 8.2 70 11:38 21.04.2020
5391 Clear 11 1027 66 10000 7.2 70 11:19 21.04.2020
5392 Clear 10 1027 66 10000 7.2 70 10:58 21.04.2020
5393 Clear 10 1027 66 10000 7.2 70 10:39 21.04.2020
5394 Clear 10 1027 66 10000 7.2 70 10:39 21.04.2020
5395 Clear 10 1027 66 10000 7.2 70 10:20 21.04.2020
5396 Clear 9 1027 66 10000 7.7 70 09:55 21.04.2020
5397 Clear 9 1027 70 10000 7.2 70 09:36 21.04.2020
5398 Clear 9 1027 70 10000 7.2 70 09:36 21.04.2020
5399 Clear 8 1027 70 10000 7.2 70 09:18 21.04.2020
5400 Clear 5 1027 93 10000 1 0 08:42 21.04.2020
5401 Clear 3 1027 93 10000 1 0 08:23 21.04.2020
5402 Clear 4 1027 86 10000 2.1 360 07:49 21.04.2020
5403 Clear 4 1028 93 10000 2.6 60 07:26 21.04.2020
5404 Clouds 5 1028 93 10000 2.1 60 06:50 21.04.2020
5405 Clouds 5 1028 93 10000 2.1 60 06:24 21.04.2020
5406 Clouds 5 1028 86 10000 2.1 80 05:49 21.04.2020
5407 Clear 5 1027 81 10000 5.7 70 04:54 21.04.2020
5408 Clear 5 1028 81 10000 6.2 60 03:45 21.04.2020
5409 Clear 5 1027 87 10000 7.2 60 01:53 21.04.2020
5410 Clear 6 1027 87 10000 9.3 60 01:29 21.04.2020
5411 Clear 6 1027 81 10000 6.7 60 00:37 21.04.2020
5412 Clear 7 1027 81 10000 7.2 60 23:48 20.04.2020
5413 Clear 7 1027 81 10000 7.2 60 23:25 20.04.2020
5414 Clear 8 1027 70 10000 7.2 60 22:58 20.04.2020
5415 Clear 8 1026 61 10000 7.2 60 22:40 20.04.2020
5416 Clear 8 1026 61 10000 7.2 60 22:21 20.04.2020
5417 Clear 9 1026 57 10000 8.2 60 21:58 20.04.2020
5418 Clear 9 1025 50 10000 9.8 70 21:39 20.04.2020
5419 Clear 10 1025 50 10000 9.8 70 21:19 20.04.2020
5420 Clear 10 1025 50 10000 10.3 70 20:58 20.04.2020
5421 Clear 11 1025 46 10000 8.7 60 20:38 20.04.2020
5422 Clear 12 1025 43 10000 10.3 60 20:18 20.04.2020
5423 Clear 13 1025 43 10000 10.3 60 19:58 20.04.2020
5424 Clear 13 1025 47 10000 10.3 70 19:39 20.04.2020
5425 Clear 13 1025 47 10000 10.3 70 19:19 20.04.2020
5426 Clear 14 1025 41 10000 9.8 60 18:43 20.04.2020
5427 Clear 14 1025 41 10000 9.8 60 18:23 20.04.2020
5428 Clear 14 1025 41 10000 10.8 60 17:56 20.04.2020
5429 Clear 14 1025 41 10000 10.8 60 17:37 20.04.2020
5430 Clear 14 1025 41 10000 10.8 60 17:19 20.04.2020
5431 Clear 14 1025 41 10000 9.8 50 16:58 20.04.2020
5432 Clear 14 1026 41 10000 11.3 70 16:39 20.04.2020
5433 Clear 15 1026 44 10000 9.3 60 16:18 20.04.2020
5434 Clear 15 1026 44 10000 10.3 70 15:43 20.04.2020
5435 Clouds 15 1026 44 10000 10.3 70 15:23 20.04.2020
5436 Clouds 15 1026 44 10000 10.3 70 15:23 20.04.2020
5437 Clouds 14 1026 41 10000 7.2 80 14:56 20.04.2020
5438 Clouds 14 1026 38 10000 8.7 90 14:38 20.04.2020
5439 Clear 14 1026 47 10000 9.3 70 14:18 20.04.2020
5440 Clouds 13 1027 50 10000 5.7 70 13:41 20.04.2020
5441 Clouds 13 1027 50 10000 5.7 70 13:23 20.04.2020
5442 Clouds 12 1027 54 10000 5.7 70 12:58 20.04.2020
5443 Clouds 12 1027 57 10000 6.2 80 12:39 20.04.2020
5444 Clouds 11 1027 57 10000 6.2 80 12:18 20.04.2020
5445 Clear 10 1027 61 10000 6.2 80 11:40 20.04.2020
5446 Clear 9 1027 61 10000 6.2 80 11:21 20.04.2020
5447 Clear 9 1027 66 10000 6.7 80 10:57 20.04.2020
5448 Clear 9 1027 75 10000 6.2 70 10:38 20.04.2020
5449 Clear 8 1027 81 10000 5.7 70 10:19 20.04.2020
5450 Clear 8 1027 81 10000 5.7 70 09:55 20.04.2020
5451 Clear 7 1027 81 10000 7.2 60 09:36 20.04.2020
5452 Clear 7 1027 81 10000 7.2 60 09:18 20.04.2020
5453 Clear 6 1027 81 10000 4.6 80 08:41 20.04.2020
5454 Clear 6 1027 81 10000 4.6 80 08:21 20.04.2020
5455 Clear 5 1027 86 10000 5.1 70 07:52 20.04.2020
5456 Clear 5 1027 86 10000 3.6 70 07:29 20.04.2020
5457 Clear 5 1027 86 10000 3.6 80 06:57 20.04.2020
5458 Clear 5 1027 93 10000 4.6 70 06:36 20.04.2020
5459 Clear 5 1027 86 10000 6.2 70 05:41 20.04.2020
5460 Clear 6 1026 81 10000 5.7 60 03:49 20.04.2020
5461 Clear 6 1026 87 10000 5.7 70 02:44 20.04.2020
5462 Clear 7 1026 87 10000 4.1 80 01:37 20.04.2020
5463 Clear 7 1026 87 10000 4.1 80 01:19 20.04.2020
5464 Clear 7 1026 87 10000 4.6 80 00:35 20.04.2020
5465 Clear 7 1025 87 10000 4.6 70 23:57 19.04.2020
5466 Clear 8 1025 81 10000 6.7 80 23:38 19.04.2020
5467 Clear 8 1025 81 10000 6.7 80 23:19 19.04.2020
5468 Clear 9 1025 70 10000 6.7 70 22:40 19.04.2020
5469 Clear 9 1025 70 10000 6.7 70 22:22 19.04.2020
5470 Clear 10 1024 66 10000 6.7 70 21:58 19.04.2020
5471 Clear 11 1024 62 10000 7.7 60 21:39 19.04.2020
5472 Clear 11 1024 62 10000 7.7 60 21:39 19.04.2020
5473 Clear 11 1024 62 10000 7.7 60 21:20 19.04.2020
5474 Clear 12 1024 50 10000 8.2 60 20:42 19.04.2020
5475 Clear 12 1024 50 10000 8.2 60 20:21 19.04.2020
5476 Clear 12 1024 50 10000 8.2 60 20:21 19.04.2020
5477 Clear 13 1023 47 10000 7.7 70 19:59 19.04.2020
5478 Clear 13 1023 47 10000 8.2 60 19:41 19.04.2020
5479 Clear 14 1023 47 10000 8.2 60 19:22 19.04.2020
5480 Clear 14 1023 50 10000 8.7 50 18:58 19.04.2020
5481 Clear 14 1023 50 10000 9.3 60 18:39 19.04.2020
5482 Clear 14 1023 50 10000 9.3 60 18:20 19.04.2020
5483 Clear 14 1023 50 10000 8.2 50 17:57 19.04.2020
5484 Clear 14 1024 47 10000 8.2 60 17:39 19.04.2020
5485 Clear 15 1024 47 10000 8.2 60 17:21 19.04.2020
5486 Clear 15 1024 47 10000 6.2 80 16:57 19.04.2020
5487 Clear 15 1024 47 10000 7.2 70 16:38 19.04.2020
5488 Clear 15 1024 51 10000 6.7 70 16:19 19.04.2020
5489 Clear 14 1024 51 10000 6.2 60 15:43 19.04.2020
5490 Clear 14 1024 51 10000 6.2 60 15:22 19.04.2020
5491 Clear 14 1025 54 10000 5.1 50 14:55 19.04.2020
5492 Clear 13 1025 54 10000 5.7 60 14:37 19.04.2020
5493 Clear 13 1025 54 10000 5.7 60 14:18 19.04.2020
5494 Clouds 12 1025 62 10000 5.7 70 13:39 19.04.2020
5495 Clear 11 1025 62 10000 7.2 60 13:20 19.04.2020
5496 Clear 11 1025 62 10000 7.2 60 12:50 19.04.2020
5497 Clouds 10 1025 66 10000 6.7 80 12:25 19.04.2020
5498 Clouds 10 1025 66 10000 6.7 70 11:59 19.04.2020
5499 Clouds 9 1025 66 10000 7.2 80 11:37 19.04.2020
5500 Clouds 9 1025 70 10000 6.7 80 11:19 19.04.2020
5501 Clouds 8 1025 70 10000 6.7 80 10:55 19.04.2020
5502 Clouds 8 1025 81 10000 5.7 70 10:37 19.04.2020
5503 Clouds 7 1025 81 10000 5.7 70 10:18 19.04.2020
5504 Clouds 6 1025 81 10000 3.1 80 09:45 19.04.2020
5505 Clear 6 1025 81 10000 3.1 80 09:26 19.04.2020
5506 Clear 4 1025 93 10000 2.6 80 08:41 19.04.2020
5507 Clear 3 1025 93 10000 2.6 80 08:22 19.04.2020
5508 Clear 3 1025 86 10000 1.5 80 07:59 19.04.2020
5509 Clear 2 1025 93 10000 2.1 80 07:41 19.04.2020
5510 Clear 2 1025 100 10000 3.6 70 07:21 19.04.2020
5511 Clouds 1 1025 87 10000 1.5 0 06:28 19.04.2020
5512 Clouds 1 1024 88 10000 0.5 0 05:47 19.04.2020
5513 Clear 3 1024 86 10000 2.1 80 04:28 19.04.2020
5514 Clear 4 1024 86 10000 2.6 70 02:59 19.04.2020
5515 Clear 4 1024 86 10000 3.1 70 02:21 19.04.2020
5516 Clear 5 1024 80 10000 5.7 60 01:37 19.04.2020
5517 Clear 5 1024 80 10000 6.2 70 00:42 19.04.2020
5518 Clear 5 1024 80 10000 6.2 70 00:22 19.04.2020
5519 Clear 5 1024 80 10000 4.6 70 23:47 18.04.2020
5520 Clear 6 1023 75 10000 4.6 60 23:22 18.04.2020
5521 Clear 6 1023 75 10000 5.1 70 22:58 18.04.2020
5522 Clear 6 1023 70 10000 5.7 70 22:38 18.04.2020
5523 Clear 7 1023 70 10000 5.7 70 22:20 18.04.2020
5524 Clear 7 1023 61 10000 7.2 70 21:56 18.04.2020
5525 Clear 8 1022 61 10000 7.2 70 21:37 18.04.2020
5526 Clear 8 1022 61 10000 7.2 60 21:19 18.04.2020
5527 Clear 9 1022 57 10000 7.7 70 20:41 18.04.2020
5528 Clear 10 1022 57 10000 7.7 70 20:22 18.04.2020
5529 Clear 10 1021 57 10000 7.2 80 19:54 18.04.2020
5530 Clear 11 1021 57 10000 8.2 70 19:36 18.04.2020
5531 Clear 11 1021 57 10000 8.2 70 19:18 18.04.2020
5532 Clear 11 1021 57 10000 7.7 60 18:37 18.04.2020
5533 Clear 11 1021 54 10000 7.2 60 18:19 18.04.2020
5534 Clear 11 1021 54 10000 7.2 60 18:19 18.04.2020
5535 Clear 12 1021 54 10000 6.7 50 17:43 18.04.2020
5536 Clear 12 1021 54 10000 6.7 50 17:21 18.04.2020
5537 Clear 12 1021 54 10000 6.7 70 16:57 18.04.2020
5538 Clear 12 1021 54 10000 7.2 70 16:37 18.04.2020
5539 Clear 11 1021 57 10000 6.7 60 16:19 18.04.2020
5540 Clear 11 1022 57 10000 7.7 70 15:39 18.04.2020
5541 Clouds 11 1022 57 10000 7.7 70 15:21 18.04.2020
5542 Clouds 11 1022 53 10000 6.7 70 14:46 18.04.2020
5543 Clouds 11 1022 53 10000 6.7 70 14:27 18.04.2020
5544 Clouds 10 1022 57 10000 6.7 70 13:56 18.04.2020
5545 Clouds 10 1022 57 10000 6.7 70 13:38 18.04.2020
5546 Clouds 10 1022 57 10000 6.7 70 13:19 18.04.2020
5547 Clouds 9 1022 61 10000 7.2 60 12:41 18.04.2020
5548 Clouds 9 1022 61 10000 7.2 60 12:22 18.04.2020
5549 Clouds 8 1022 61 10000 7.2 90 11:55 18.04.2020
5550 Clouds 8 1022 61 10000 7.2 70 11:36 18.04.2020
5551 Clouds 8 1022 61 10000 7.2 70 11:18 18.04.2020
5552 Clouds 6 1022 65 10000 7.2 80 10:40 18.04.2020
5553 Clouds 6 1022 65 10000 7.2 80 10:19 18.04.2020
5554 Clouds 6 1022 65 10000 7.7 80 09:56 18.04.2020
5555 Clouds 6 1022 65 10000 7.2 90 09:37 18.04.2020
5556 Clouds 5 1022 80 10000 7.7 80 09:18 18.04.2020
5557 Clouds 5 1022 80 10000 6.7 80 08:39 18.04.2020
5558 Clouds 5 1022 80 10000 6.7 80 08:20 18.04.2020
5559 Clouds 5 1022 65 10000 6.7 80 07:38 18.04.2020
5560 Clouds 5 1022 65 10000 6.7 80 07:19 18.04.2020
5561 Clouds 5 1022 65 10000 7.2 80 06:29 18.04.2020
5562 Clouds 5 1022 65 10000 7.2 80 05:42 18.04.2020
5563 Clouds 5 1022 65 10000 5.7 80 04:47 18.04.2020
5564 Clouds 5 1022 65 10000 5.7 80 04:27 18.04.2020
5565 Clouds 4 1022 80 10000 5.1 70 02:49 18.04.2020
5566 Clouds 4 1022 80 10000 5.1 60 02:23 18.04.2020
5567 Clouds 4 1022 80 10000 5.1 60 01:53 18.04.2020
5568 Clouds 4 1022 86 10000 5.1 60 01:34 18.04.2020
5569 Clouds 5 1022 81 10000 6.2 70 00:44 18.04.2020
5570 Clouds 6 1022 81 10000 6.2 70 00:22 18.04.2020
5571 Clouds 6 1022 81 10000 5.7 60 23:55 17.04.2020
5572 Clouds 6 1022 75 10000 5.7 60 23:37 17.04.2020
5573 Clouds 6 1022 75 10000 5.7 60 23:18 17.04.2020
5574 Clouds 7 1021 70 10000 6.7 60 22:55 17.04.2020
5575 Clouds 7 1021 70 10000 7.7 50 22:36 17.04.2020
5576 Clouds 8 1021 70 10000 6.7 50 22:18 17.04.2020
5577 Clouds 8 1021 66 10000 7.2 60 21:41 17.04.2020
5578 Clouds 9 1021 66 10000 7.2 60 21:21 17.04.2020
5579 Clouds 9 1021 66 10000 7.2 60 21:21 17.04.2020
5580 Clouds 9 1021 66 10000 7.7 70 20:56 17.04.2020
5581 Clouds 9 1021 61 10000 6.7 60 20:37 17.04.2020
5582 Clouds 10 1021 61 10000 6.7 60 20:18 17.04.2020
5583 Clouds 10 1021 61 10000 6.7 60 20:18 17.04.2020
5584 Clouds 10 1021 66 10000 8.2 60 19:56 17.04.2020
5585 Clouds 10 1020 62 10000 7.7 70 19:38 17.04.2020
5586 Clouds 11 1020 62 10000 7.7 70 19:19 17.04.2020
5587 Clouds 11 1020 62 10000 7.7 60 18:42 17.04.2020
5588 Clouds 11 1020 62 10000 7.7 60 18:22 17.04.2020
5589 Clouds 11 1021 66 10000 8.2 70 17:39 17.04.2020
5590 Clouds 11 1021 66 10000 8.2 70 17:20 17.04.2020
5591 Clouds 12 1021 58 10000 7.7 70 16:59 17.04.2020
5592 Clouds 12 1021 58 10000 7.7 70 16:41 17.04.2020
5593 Clouds 12 1021 58 10000 7.7 70 16:22 17.04.2020
5594 Clouds 11 1021 66 10000 7.2 70 15:40 17.04.2020
5595 Clouds 11 1021 66 10000 7.2 70 15:22 17.04.2020
5596 Clouds 11 1021 66 10000 7.2 60 14:55 17.04.2020
5597 Clouds 11 1021 66 10000 7.2 70 14:36 17.04.2020
5598 Clouds 11 1021 66 10000 7.2 70 14:18 17.04.2020
5599 Clouds 10 1022 71 10000 6.2 70 13:40 17.04.2020
5600 Clouds 11 1022 71 10000 6.7 70 13:20 17.04.2020
5601 Clouds 10 1022 71 10000 6.2 60 12:48 17.04.2020
5602 Clouds 10 1022 71 10000 6.2 60 12:28 17.04.2020
5603 Clouds 9 1022 76 10000 6.2 70 11:59 17.04.2020
5604 Clouds 9 1022 70 10000 6.7 80 11:40 17.04.2020
5605 Clouds 9 1022 70 10000 6.7 80 11:19 17.04.2020
5606 Clouds 9 1022 70 10000 6.7 80 11:19 17.04.2020
5607 Clouds 8 1022 81 10000 5.1 70 10:40 17.04.2020
5608 Clouds 8 1022 81 10000 5.1 70 10:21 17.04.2020
5609 Clouds 8 1022 81 10000 4.6 70 09:57 17.04.2020
5610 Clouds 7 1022 87 10000 3.1 90 09:38 17.04.2020
5611 Clouds 7 1022 87 10000 3.1 90 09:19 17.04.2020
5612 Clouds 6 1022 87 10000 3.1 80 08:47 17.04.2020
5613 Clouds 6 1022 87 10000 3.1 80 08:47 17.04.2020
5614 Clouds 6 1022 87 10000 4.1 70 08:27 17.04.2020
5615 Clouds 5 1022 93 10000 4.6 60 07:57 17.04.2020
5616 Clouds 5 1022 87 10000 4.6 70 07:39 17.04.2020
5617 Clouds 5 1022 87 10000 4.6 70 07:18 17.04.2020
5618 Clouds 5 1022 87 10000 4.1 70 06:43 17.04.2020
5619 Clouds 5 1022 87 10000 4.6 70 05:58 17.04.2020
5620 Clouds 6 1022 81 10000 5.1 60 03:23 17.04.2020
5621 Clouds 6 1022 81 10000 5.7 60 02:50 17.04.2020
5622 Clouds 7 1022 70 10000 5.1 70 01:30 17.04.2020
5623 Clouds 7 1022 70 10000 5.1 80 00:59 17.04.2020
5624 Clouds 8 1022 65 10000 5.7 70 00:21 17.04.2020
5625 Clouds 8 1022 61 10000 5.7 70 23:47 16.04.2020
5626 Clouds 8 1021 61 10000 5.7 70 23:24 16.04.2020
5627 Clouds 8 1021 61 10000 5.7 70 23:24 16.04.2020
5628 Clouds 8 1021 61 10000 6.2 70 22:59 16.04.2020
5629 Clouds 8 1021 61 10000 6.2 70 22:39 16.04.2020
5630 Clouds 9 1021 61 10000 6.7 60 22:21 16.04.2020
5631 Clouds 9 1021 66 10000 6.7 60 21:57 16.04.2020
5632 Clouds 9 1021 66 10000 6.7 60 21:39 16.04.2020
5633 Clouds 9 1020 66 10000 7.2 60 21:19 16.04.2020
5634 Clouds 9 1020 61 10000 7.7 70 20:42 16.04.2020
5635 Clouds 10 1020 66 10000 7.2 60 20:22 16.04.2020
5636 Clouds 10 1020 62 10000 7.7 60 19:58 16.04.2020
5637 Clouds 10 1020 62 10000 7.2 60 19:39 16.04.2020
5638 Clouds 11 1020 62 10000 7.2 60 19:19 16.04.2020
5639 Clouds 10 1020 62 10000 8.7 60 18:46 16.04.2020
5640 Clouds 11 1020 58 10000 9.3 60 18:27 16.04.2020
5641 Clouds 11 1020 58 10000 9.3 50 18:00 16.04.2020
5642 Clouds 11 1020 58 10000 9.3 50 17:41 16.04.2020
5643 Clouds 11 1020 62 10000 8.2 50 17:21 16.04.2020
5644 Clouds 11 1020 58 10000 7.7 60 16:45 16.04.2020
5645 Clouds 11 1020 62 10000 7.7 60 16:26 16.04.2020
5646 Clouds 11 1020 62 10000 8.2 60 15:59 16.04.2020
5647 Clouds 12 1020 62 10000 8.2 60 15:39 16.04.2020
5648 Clouds 12 1020 66 10000 7.2 60 15:19 16.04.2020
5649 Clouds 12 1020 66 10000 7.2 70 14:55 16.04.2020
5650 Clouds 12 1020 66 10000 7.7 70 14:37 16.04.2020
5651 Clouds 11 1020 66 10000 7.7 70 14:18 16.04.2020
5652 Clouds 11 1020 66 10000 8.2 70 13:41 16.04.2020
5653 Clouds 11 1020 71 10000 8.7 80 13:23 16.04.2020
5654 Clouds 11 1020 76 10000 7.7 80 12:58 16.04.2020
5655 Clouds 10 1020 81 10000 7.7 60 12:39 16.04.2020
5656 Clouds 10 1020 76 10000 7.7 80 12:39 16.04.2020
5657 Clouds 10 1020 81 10000 7.7 60 12:20 16.04.2020
5658 Clouds 10 1020 81 10000 7.7 60 12:20 16.04.2020
5659 Clouds 10 1020 81 10000 7.2 60 11:59 16.04.2020
5660 Clouds 10 1020 81 10000 7.2 60 11:40 16.04.2020
5661 Clouds 10 1020 81 10000 4.6 50 11:21 16.04.2020
5662 Clouds 8 1020 93 10000 1.5 0 10:55 16.04.2020
5663 Clouds 7 1020 93 9000 1.5 40 10:37 16.04.2020
5664 Clouds 7 1020 93 9000 1.5 40 10:18 16.04.2020
5665 Clouds 6 1020 93 8000 0.5 0 09:39 16.04.2020
5666 Clouds 5 1020 100 6000 0.5 0 09:20 16.04.2020
5667 Fog 4 1019 100 500 1 230 08:57 16.04.2020
5668 Fog 4 1019 100 500 1 230 08:39 16.04.2020
5669 Mist 3 1019 100 2000 1 250 08:21 16.04.2020
5670 Fog 2 1019 92 150 1.5 250 07:43 16.04.2020
5671 Fog 2 1019 87 300 0.5 0 07:23 16.04.2020
5672 Mist 3 1019 93 2800 1 60 06:42 16.04.2020
5673 Fog 3 1019 93 550 1.5 40 06:23 16.04.2020
5674 Fog 4 1019 93 500 1 60 04:54 16.04.2020
5675 Clouds 4 1020 93 10000 1 290 03:29 16.04.2020
5676 Clouds 4 1020 100 10000 3.6 230 02:59 16.04.2020
5677 Clouds 5 1019 100 10000 2.1 220 02:39 16.04.2020
5678 Clouds 5 1019 93 10000 2.1 210 01:40 16.04.2020
5679 Clouds 6 1020 93 10000 3.1 250 00:57 16.04.2020
5680 Clouds 6 1020 93 10000 3.6 230 00:26 16.04.2020
5681 Clouds 8 1021 87 10000 1.84 268 23:55 15.04.2020
5682 Clouds 8 1021 87 10000 1.84 268 23:37 15.04.2020
5683 Clouds 8 1020 93 10000 2.6 230 23:19 15.04.2020
5684 Clouds 9 1020 87 10000 2.1 240 22:39 15.04.2020
5685 Clouds 9 1020 81 10000 2.6 250 22:21 15.04.2020
5686 Clouds 9 1020 81 10000 4.1 260 21:56 15.04.2020
5687 Clouds 10 1020 81 10000 4.1 260 21:38 15.04.2020
5688 Clouds 11 1020 76 10000 4.6 290 21:20 15.04.2020
5689 Clouds 11 1020 76 10000 5.1 300 20:55 15.04.2020
5690 Clouds 11 1020 76 10000 5.1 300 20:55 15.04.2020
5691 Clouds 11 1020 76 10000 5.1 300 20:37 15.04.2020
5692 Clouds 12 1020 66 10000 5.1 280 20:19 15.04.2020
5693 Clouds 13 1020 71 10000 5.1 280 19:41 15.04.2020
5694 Clouds 13 1020 66 10000 4.6 280 19:20 15.04.2020
5695 Clouds 14 1020 66 10000 5.7 300 18:42 15.04.2020
5696 Clouds 14 1020 66 10000 5.7 300 18:23 15.04.2020
5697 Clouds 14 1020 66 10000 5.7 280 17:58 15.04.2020
5698 Clouds 14 1020 66 10000 5.7 280 17:39 15.04.2020
5699 Clouds 14 1021 66 10000 5.1 300 17:20 15.04.2020
5700 Clouds 14 1021 66 10000 6.7 240 16:56 15.04.2020
5701 Clouds 14 1021 66 10000 6.7 240 16:37 15.04.2020
5702 Clouds 14 1021 66 10000 6.2 250 16:19 15.04.2020
5703 Clouds 14 1021 62 10000 5.7 250 15:57 15.04.2020
5704 Clouds 14 1021 62 10000 5.7 250 15:38 15.04.2020
5705 Clouds 13 1021 62 10000 6.2 250 15:19 15.04.2020
5706 Clouds 13 1022 66 10000 6.2 240 14:56 15.04.2020
5707 Clouds 13 1022 66 10000 6.2 240 14:38 15.04.2020
5708 Clouds 13 1022 66 10000 6.2 240 14:38 15.04.2020
5709 Clouds 13 1022 66 10000 6.7 250 14:20 15.04.2020
5710 Clouds 12 1022 66 10000 5.7 250 13:56 15.04.2020
5711 Clouds 12 1022 66 10000 6.2 250 13:37 15.04.2020
5712 Clouds 11 1022 66 10000 6.2 250 13:18 15.04.2020
5713 Clouds 10 1022 71 10000 5.7 250 12:42 15.04.2020
5714 Clouds 10 1022 76 10000 5.1 240 12:23 15.04.2020
5715 Clouds 10 1022 76 10000 5.1 240 12:23 15.04.2020
5716 Clouds 9 1023 76 10000 5.1 250 11:59 15.04.2020
5717 Clouds 9 1023 76 10000 4.6 260 11:40 15.04.2020
5718 Clouds 9 1023 76 10000 4.6 260 11:21 15.04.2020
5719 Clouds 8 1023 81 10000 6.2 250 10:40 15.04.2020
5720 Clouds 8 1023 81 10000 5.1 230 10:21 15.04.2020
5721 Clouds 7 1023 87 10000 5.7 220 09:58 15.04.2020
5722 Clouds 7 1023 87 10000 5.7 220 09:40 15.04.2020
5723 Clouds 6 1023 87 10000 5.7 220 09:21 15.04.2020
5724 Clouds 5 1023 93 10000 5.1 220 08:58 15.04.2020
5725 Clouds 5 1023 93 10000 5.1 220 08:39 15.04.2020
5726 Clouds 4 1023 93 10000 5.1 220 08:19 15.04.2020
5727 Clouds 4 1023 93 10000 5.1 220 08:19 15.04.2020
5728 Clouds 3 1023 93 10000 5.1 220 07:51 15.04.2020
5729 Clouds 4 1023 93 10000 4.6 230 07:31 15.04.2020
5730 Clouds 4 1023 93 10000 3.6 210 06:33 15.04.2020
5731 Clouds 4 1023 93 10000 4.1 220 05:50 15.04.2020
5732 Clouds 4 1023 86 10000 2.6 240 04:50 15.04.2020
5733 Clouds 4 1023 81 10000 2.1 210 04:26 15.04.2020
5734 Clouds 5 1024 86 10000 3.6 250 03:26 15.04.2020
5735 Clouds 4 1024 86 10000 2.1 260 02:52 15.04.2020
5736 Clouds 5 1024 86 10000 2.1 260 01:54 15.04.2020
5737 Clouds 5 1024 86 10000 3.6 230 01:25 15.04.2020
5738 Clouds 6 1024 93 10000 3.1 210 00:52 15.04.2020
5739 Clouds 6 1025 93 10000 3.1 230 00:31 15.04.2020
5740 Clouds 6 1025 86 10000 2.6 220 23:57 14.04.2020
5741 Clouds 6 1025 86 10000 2.6 220 23:39 14.04.2020
5742 Clouds 7 1025 81 10000 2.6 250 23:21 14.04.2020
5743 Clouds 7 1025 86 10000 2.6 240 22:58 14.04.2020
5744 Clouds 7 1025 86 10000 2.6 240 22:39 14.04.2020
5745 Clouds 7 1025 81 10000 4.6 230 22:21 14.04.2020
5746 Clouds 8 1025 75 10000 3.6 230 21:57 14.04.2020
5747 Clouds 8 1025 75 10000 3.6 230 21:39 14.04.2020
5748 Clouds 9 1025 66 10000 4.6 230 21:20 14.04.2020
5749 Clouds 10 1024 66 10000 5.7 220 20:58 14.04.2020
5750 Clouds 11 1025 57 10000 4.6 250 20:39 14.04.2020
5751 Clouds 11 1025 57 10000 4.6 250 20:21 14.04.2020
5752 Clouds 11 1025 57 10000 4.6 250 20:21 14.04.2020
5753 Clouds 11 1025 54 10000 4.6 250 19:41 14.04.2020
5754 Clouds 12 1025 54 10000 5.1 240 19:23 14.04.2020
5755 Clouds 12 1025 50 10000 5.7 230 18:59 14.04.2020
5756 Clouds 12 1025 50 10000 5.7 230 18:40 14.04.2020
5757 Clouds 12 1025 50 10000 6.2 220 18:21 14.04.2020
5758 Clouds 12 1025 50 10000 6.2 210 17:58 14.04.2020
5759 Clouds 12 1025 50 10000 6.2 210 17:38 14.04.2020
5760 Clouds 12 1025 46 10000 6.7 220 17:19 14.04.2020
5761 Clouds 12 1026 50 10000 6.7 210 16:56 14.04.2020
5762 Clouds 11 1026 62 10000 6.2 220 16:38 14.04.2020
5763 Clouds 11 1026 62 10000 6.2 220 16:19 14.04.2020
5764 Clouds 11 1027 62 10000 7.2 210 15:55 14.04.2020
5765 Clouds 11 1027 62 10000 7.2 210 15:37 14.04.2020
5766 Clouds 11 1027 61 10000 6.7 220 15:18 14.04.2020
5767 Clouds 11 1027 61 10000 6.7 210 14:55 14.04.2020
5768 Clouds 10 1027 61 10000 6.7 210 14:37 14.04.2020
5769 Clouds 11 1027 66 10000 7.7 210 14:18 14.04.2020
5770 Clouds 11 1027 66 10000 7.7 210 14:18 14.04.2020
5771 Clouds 10 1027 66 10000 7.7 220 13:40 14.04.2020
5772 Clouds 10 1027 66 10000 6.7 210 13:22 14.04.2020
5773 Clouds 10 1027 66 10000 6.2 220 12:42 14.04.2020
5774 Clouds 9 1028 66 10000 7.7 220 12:22 14.04.2020
5775 Clouds 9 1028 70 10000 6.7 230 11:57 14.04.2020
5776 Clouds 9 1028 70 10000 6.7 230 11:39 14.04.2020
5777 Clouds 8 1028 75 10000 4.6 240 11:20 14.04.2020
5778 Clouds 7 1028 81 10000 2.6 230 10:47 14.04.2020
5779 Clouds 6 1029 86 10000 1 0 10:28 14.04.2020
5780 Clouds 5 1029 86 10000 1 0 09:58 14.04.2020
5781 Clouds 3 1029 81 0 2.28 231 09:40 14.04.2020
5782 Clouds 3 1029 81 10000 1 0 09:22 14.04.2020
5783 Clouds 2 1029 81 10000 2.1 260 08:44 14.04.2020
5784 Clouds 1 1029 92 10000 0.5 0 08:24 14.04.2020
5785 Clouds 0 1029 81 10000 2.1 260 07:56 14.04.2020
5786 Clouds 2 1029 81 0 2.28 231 07:32 14.04.2020
5787 Clouds 1 1029 81 10000 2.1 250 06:53 14.04.2020
5788 Clouds 1 1029 82 10000 1.5 250 06:27 14.04.2020
5789 Clouds 2 1029 82 0 1.72 233 04:48 14.04.2020
5790 Clouds 1 1030 78 10000 2.1 250 03:00 14.04.2020
5791 Clouds 1 1030 77 10000 2.6 220 02:18 14.04.2020
5792 Clouds 2 1030 80 10000 1.5 250 01:25 14.04.2020
5793 Clouds 3 1031 86 10000 3.6 220 00:39 14.04.2020
5794 Clouds 3 1031 86 10000 3.6 220 00:19 14.04.2020
5795 Clouds 3 1031 86 10000 3.6 220 23:44 13.04.2020
5796 Clouds 4 1031 80 10000 3.1 230 23:26 13.04.2020
5797 Clouds 4 1031 69 10000 1 320 22:59 13.04.2020
5798 Clouds 4 1031 69 10000 1 320 22:41 13.04.2020
5799 Clouds 5 1031 65 10000 1 290 22:22 13.04.2020
5800 Clouds 6 1031 52 10000 1.5 270 21:56 13.04.2020
5801 Clouds 6 1031 52 10000 1.5 270 21:37 13.04.2020
5802 Clouds 6 1031 52 10000 1.5 270 21:37 13.04.2020
5803 Clouds 6 1031 52 10000 1.5 270 21:37 13.04.2020
5804 Clear 7 1031 52 10000 1.5 250 21:19 13.04.2020
5805 Clear 8 1031 42 10000 1.5 260 20:54 13.04.2020
5806 Clear 8 1031 42 10000 1.5 260 20:54 13.04.2020
5807 Clear 9 1031 42 10000 1.5 260 20:36 13.04.2020
5808 Clear 9 1031 45 10000 2.1 260 20:18 13.04.2020
5809 Clear 9 1031 45 10000 2.1 260 20:18 13.04.2020
5810 Clear 9 1031 39 10000 1 0 19:38 13.04.2020
5811 Clear 10 1031 39 10000 1 0 19:20 13.04.2020
5812 Clear 10 1031 42 10000 2.1 140 18:59 13.04.2020
5813 Clear 10 1031 42 10000 2.1 140 18:39 13.04.2020
5814 Clear 10 1031 39 10000 2.1 230 18:20 13.04.2020
5815 Clear 10 1032 39 10000 1 0 17:58 13.04.2020
5816 Clear 10 1032 39 10000 1 0 17:38 13.04.2020
5817 Clear 10 1032 45 10000 2.1 50 17:19 13.04.2020
5818 Clear 9 1032 42 10000 2.1 130 16:58 13.04.2020
5819 Clear 9 1032 42 10000 2.1 130 16:40 13.04.2020
5820 Clear 9 1033 42 10000 1.5 0 16:20 13.04.2020
5821 Clear 9 1033 45 10000 3.6 110 15:57 13.04.2020
5822 Clear 9 1033 45 10000 3.6 110 15:38 13.04.2020
5823 Clear 9 1033 45 10000 3.1 130 15:20 13.04.2020
5824 Clouds 9 1033 49 10000 3.1 60 14:43 13.04.2020
5825 Clouds 8 1034 49 10000 4.6 110 14:24 13.04.2020
5826 Clouds 7 1034 52 10000 3.6 70 13:57 13.04.2020
5827 Clouds 7 1034 52 10000 3.6 70 13:39 13.04.2020
5828 Clouds 7 1034 56 10000 3.6 50 13:21 13.04.2020
5829 Clouds 7 1034 56 10000 2.6 50 12:59 13.04.2020
5830 Clouds 7 1034 56 10000 2.6 50 12:40 13.04.2020
5831 Clouds 6 1033 56 10000 5.1 50 12:20 13.04.2020
5832 Clouds 6 1034 56 10000 4.6 40 11:58 13.04.2020
5833 Clouds 5 1034 56 10000 4.6 40 11:40 13.04.2020
5834 Clouds 5 1034 56 10000 5.1 70 11:18 13.04.2020
5835 Clouds 5 1034 56 10000 5.1 60 10:55 13.04.2020
5836 Clouds 5 1034 56 10000 4.6 40 10:37 13.04.2020
5837 Clouds 5 1034 56 10000 4.6 40 10:18 13.04.2020
5838 Clouds 4 1033 60 10000 4.1 50 09:44 13.04.2020
5839 Clouds 4 1033 59 10000 4.6 40 09:26 13.04.2020
5840 Clouds 3 1033 59 10000 4.6 20 08:47 13.04.2020
5841 Clouds 3 1032 59 10000 4.1 30 08:28 13.04.2020
5842 Clouds 2 1032 64 10000 3.6 40 07:58 13.04.2020
5843 Clouds 2 1032 64 10000 3.6 40 07:38 13.04.2020
5844 Clouds 2 1031 64 10000 4.1 40 07:19 13.04.2020
5845 Clouds 3 1031 59 10000 5.1 40 06:46 13.04.2020
5846 Clouds 3 1030 59 10000 4.6 40 05:53 13.04.2020
5847 Clouds 3 1030 64 10000 2.6 50 05:27 13.04.2020
5848 Clear 3 1030 64 10000 4.1 50 04:50 13.04.2020
5849 Clear 3 1030 59 10000 4.1 70 04:20 13.04.2020
5850 Clear 4 1030 59 10000 5.1 70 03:43 13.04.2020
5851 Clouds 4 1029 64 10000 6.7 50 02:41 13.04.2020
5852 Clouds 5 1028 77 10000 6.2 50 01:48 13.04.2020
5853 Clouds 5 1028 77 10000 4.6 50 01:28 13.04.2020
5854 Clouds 5 1027 77 10000 5.7 60 00:51 13.04.2020
5855 Clouds 6 1027 69 10000 7.7 60 00:25 13.04.2020
5856 Clouds 6 1026 65 10000 8.2 60 23:57 12.04.2020
5857 Clouds 6 1026 65 10000 8.2 60 23:39 12.04.2020
5858 Clouds 6 1025 70 10000 9.3 60 23:20 12.04.2020
5859 Rain 7 1025 75 10000 9.8 70 22:54 12.04.2020
5860 Rain 7 1025 75 10000 9.8 70 22:36 12.04.2020
5861 Clouds 7 1024 70 10000 7.7 60 22:18 12.04.2020
5862 Clouds 8 1023 75 10000 7.7 60 21:38 12.04.2020
5863 Clouds 8 1023 75 10000 7.7 60 21:38 12.04.2020
5864 Clouds 8 1022 70 10000 10.3 60 21:20 12.04.2020
5865 Clouds 9 1021 71 10000 10.3 50 20:43 12.04.2020
5866 Clouds 10 1020 54 10000 8.7 50 20:23 12.04.2020
5867 Clouds 11 1019 50 10000 5.7 60 19:59 12.04.2020
5868 Clouds 11 1019 50 10000 5.7 60 19:40 12.04.2020
5869 Clouds 12 1018 50 10000 5.7 60 19:19 12.04.2020
5870 Clouds 13 1018 47 10000 5.1 70 18:57 12.04.2020
5871 Clouds 13 1018 47 10000 5.1 70 18:57 12.04.2020
5872 Clouds 13 1018 47 10000 5.1 70 18:38 12.04.2020
5873 Clouds 13 1018 47 10000 5.1 70 18:19 12.04.2020
5874 Clouds 13 1017 44 10000 6.2 80 17:42 12.04.2020
5875 Clouds 14 1017 47 10000 5.7 70 17:24 12.04.2020
5876 Clouds 14 1017 44 10000 5.7 70 16:59 12.04.2020
5877 Clouds 14 1017 44 10000 5.7 70 16:40 12.04.2020
5878 Clouds 13 1017 44 10000 6.2 80 16:20 12.04.2020
5879 Clouds 13 1017 50 10000 5.7 30 15:50 12.04.2020
5880 Clouds 13 1017 50 10000 5.1 30 15:31 12.04.2020
5881 Clouds 12 1017 54 10000 4.6 40 14:57 12.04.2020
5882 Clouds 12 1017 54 10000 4.6 40 14:38 12.04.2020
5883 Clouds 12 1017 54 10000 4.1 40 14:19 12.04.2020
5884 Clouds 11 1017 62 10000 3.1 40 13:43 12.04.2020
5885 Clouds 11 1017 62 10000 3.1 40 13:25 12.04.2020
5886 Clouds 11 1017 62 10000 3.1 40 13:25 12.04.2020
5887 Clouds 10 1016 66 10000 2.1 30 12:56 12.04.2020
5888 Clouds 10 1016 71 10000 1.5 0 12:38 12.04.2020
5889 Clouds 10 1016 71 10000 1.5 0 12:19 12.04.2020
5890 Clouds 10 1016 81 10000 1 0 11:57 12.04.2020
5891 Clouds 9 1016 81 10000 1 0 11:36 12.04.2020
5892 Clouds 9 1016 81 10000 1 0 11:18 12.04.2020
5893 Clouds 9 1016 87 10000 1.5 320 10:54 12.04.2020
5894 Clouds 9 1016 87 10000 1.5 320 10:36 12.04.2020
5895 Clouds 8 1016 87 10000 2.1 310 10:18 12.04.2020
5896 Rain 8 1016 93 10000 1.5 0 09:40 12.04.2020
5897 Clouds 8 1015 93 10000 2.1 280 09:21 12.04.2020
5898 Clouds 8 1015 93 10000 1 210 08:56 12.04.2020
5899 Clouds 8 1015 93 10000 1 210 08:38 12.04.2020
5900 Clouds 7 1015 93 10000 1.5 210 08:19 12.04.2020
5901 Clouds 7 1015 93 10000 2.1 210 07:42 12.04.2020
5902 Clouds 8 1015 87 10000 2.6 280 07:18 12.04.2020
5903 Clouds 8 1015 87 10000 2.1 250 06:35 12.04.2020
5904 Clouds 8 1015 87 10000 2.1 230 05:51 12.04.2020
5905 Clouds 9 1015 87 10000 2.1 260 05:29 12.04.2020
5906 Clouds 9 1016 87 10000 3.1 250 03:44 12.04.2020
5907 Clouds 9 1016 87 10000 3.1 250 03:44 12.04.2020
5908 Clouds 9 1016 93 10000 3.6 240 03:22 12.04.2020
5909 Clouds 9 1017 93 10000 2.6 270 02:34 12.04.2020
5910 Clouds 10 1017 93 10000 3.1 240 01:48 12.04.2020
5911 Clouds 10 1017 87 10000 3.1 260 00:58 12.04.2020
5912 Clouds 10 1017 87 10000 3.1 260 00:39 12.04.2020
5913 Clouds 10 1018 87 10000 1 0 00:19 12.04.2020
5914 Clouds 10 1018 81 10000 1.5 0 23:46 11.04.2020
5915 Clouds 10 1018 81 10000 3.1 240 23:25 11.04.2020
5916 Clouds 11 1018 76 10000 3.1 230 22:42 11.04.2020
5917 Clouds 11 1018 76 10000 3.1 230 22:42 11.04.2020
5918 Clouds 11 1018 71 10000 2.6 240 22:23 11.04.2020
5919 Clouds 11 1018 71 10000 2.6 240 22:23 11.04.2020
5920 Rain 11 1019 71 10000 3.6 270 21:57 11.04.2020
5921 Rain 12 1019 71 10000 3.6 270 21:37 11.04.2020
5922 Clouds 12 1019 66 10000 4.1 230 21:19 11.04.2020
5923 Clouds 12 1019 66 10000 4.6 230 20:58 11.04.2020
5924 Clouds 12 1019 66 10000 4.6 230 20:39 11.04.2020
5925 Clouds 13 1019 62 10000 5.1 230 20:20 11.04.2020
5926 Clouds 14 1019 54 10000 5.7 250 19:58 11.04.2020
5927 Clouds 14 1019 54 10000 5.7 250 19:39 11.04.2020
5928 Clouds 14 1019 58 10000 6.2 240 19:19 11.04.2020
5929 Clouds 15 1019 54 10000 7.2 250 18:56 11.04.2020
5930 Clouds 15 1019 54 10000 7.2 250 18:56 11.04.2020
5931 Clouds 15 1019 54 10000 7.2 250 18:38 11.04.2020
5932 Clouds 15 1019 58 10000 7.7 250 18:20 11.04.2020
5933 Clouds 15 1019 58 10000 7.2 250 17:58 11.04.2020
5934 Clouds 15 1019 58 10000 7.2 250 17:40 11.04.2020
5935 Clouds 15 1019 62 10000 4.6 260 17:20 11.04.2020
5936 Clouds 15 1020 62 10000 5.1 260 16:55 11.04.2020
5937 Clouds 15 1020 62 10000 5.1 260 16:37 11.04.2020
5938 Clouds 15 1020 62 10000 5.7 290 16:18 11.04.2020
5939 Clouds 14 1020 62 10000 6.2 270 15:37 11.04.2020
5940 Clouds 14 1021 66 10000 5.1 260 15:19 11.04.2020
5941 Clouds 13 1021 66 10000 5.1 260 14:42 11.04.2020
5942 Clouds 13 1021 66 10000 6.2 260 14:24 11.04.2020
5943 Clouds 12 1021 71 10000 6.2 260 13:59 11.04.2020
5944 Clouds 12 1021 71 10000 6.2 260 13:39 11.04.2020
5945 Clouds 12 1020 76 10000 6.7 260 13:19 11.04.2020
5946 Clouds 12 1020 76 10000 7.7 260 12:42 11.04.2020
5947 Clouds 12 1020 76 10000 7.7 260 12:42 11.04.2020
5948 Rain 12 1021 71 10000 8.7 250 12:20 11.04.2020
5949 Rain 12 1020 76 10000 9.8 250 11:57 11.04.2020
5950 Rain 12 1020 76 10000 9.8 250 11:39 11.04.2020
5951 Clouds 11 1020 81 10000 9.8 260 11:19 11.04.2020
5952 Clouds 11 1020 87 10000 7.7 270 10:43 11.04.2020
5953 Clouds 11 1020 93 10000 5.1 270 10:23 11.04.2020
5954 Clouds 11 1020 93 10000 3.6 260 09:59 11.04.2020
5955 Clouds 11 1020 93 10000 3.6 260 09:40 11.04.2020
5956 Mist 11 1020 93 3600 3.6 230 09:21 11.04.2020
5957 Mist 11 1020 93 3100 3.1 240 08:50 11.04.2020
5958 Rain 11 1019 93 3400 3.1 240 08:28 11.04.2020
5959 Rain 11 1019 93 4700 3.1 240 07:54 11.04.2020
5960 Haze 11 1019 93 4100 2.1 230 07:34 11.04.2020
5961 Haze 11 1019 93 4000 3.6 230 06:55 11.04.2020
5962 Haze 11 1020 93 4100 3.6 240 06:34 11.04.2020
5963 Haze 11 1020 93 4300 2.6 270 05:55 11.04.2020
5964 Mist 10 1020 100 4500 1 0 03:42 11.04.2020
5965 Haze 10 1020 100 5000 1 0 02:37 11.04.2020
5966 Rain 11 1021 93 5000 1.5 260 01:25 11.04.2020
5967 Mist 11 1021 93 3200 2.1 240 00:44 11.04.2020
5968 Haze 11 1021 100 3700 0.5 260 00:20 11.04.2020
5969 Haze 11 1021 93 4500 0.5 300 23:58 10.04.2020
5970 Haze 12 1021 93 4500 0.5 300 23:39 10.04.2020
5971 Rain 12 1020 93 7000 1 70 23:19 10.04.2020
5972 Rain 12 1020 93 7000 1 70 23:19 10.04.2020
5973 Rain 12 1020 93 8000 2.1 40 22:44 10.04.2020
5974 Rain 12 1020 93 8000 2.1 30 22:22 10.04.2020
5975 Rain 12 1020 93 8000 2.1 30 22:22 10.04.2020
5976 Rain 13 1020 87 10000 1.5 40 21:58 10.04.2020
5977 Rain 12 1020 87 10000 1.5 40 21:40 10.04.2020
5978 Rain 13 1020 93 10000 1.5 10 21:20 10.04.2020
5979 Rain 14 1021 87 10000 1.5 350 20:55 10.04.2020
5980 Rain 14 1021 87 10000 1.5 350 20:37 10.04.2020
5981 Rain 15 1021 82 10000 1 320 20:18 10.04.2020
5982 Rain 14 1021 72 10000 1.5 270 19:41 10.04.2020
5983 Rain 15 1021 67 10000 0.5 0 19:21 10.04.2020
5984 Rain 15 1021 67 10000 0.5 0 18:58 10.04.2020
5985 Rain 15 1021 67 10000 0.5 0 18:58 10.04.2020
5986 Rain 15 1021 67 10000 0.5 0 18:58 10.04.2020
5987 Rain 15 1021 67 10000 0.5 0 18:40 10.04.2020
5988 Clouds 15 1021 67 10000 1.5 0 18:21 10.04.2020
5989 Clouds 15 1021 67 10000 1.5 300 17:58 10.04.2020
5990 Clouds 15 1021 67 10000 1.5 300 17:58 10.04.2020
5991 Clouds 15 1021 67 10000 1.5 300 17:40 10.04.2020
5992 Clouds 15 1021 67 10000 1 0 17:21 10.04.2020
5993 Clouds 15 1022 67 10000 0.5 0 16:57 10.04.2020
5994 Clouds 15 1022 67 10000 0.5 0 16:38 10.04.2020
5995 Clouds 16 1022 67 10000 1 0 16:20 10.04.2020
5996 Clouds 15 1022 67 10000 1.5 0 15:56 10.04.2020
5997 Clouds 15 1022 67 10000 1.5 0 15:56 10.04.2020
5998 Clouds 15 1022 67 10000 1.5 0 15:37 10.04.2020
5999 Clouds 15 1023 67 10000 1.5 0 15:19 10.04.2020
6000 Clouds 14 1023 71 10000 1 0 14:57 10.04.2020
6001 Clouds 14 1023 71 10000 1 0 14:38 10.04.2020
6002 Clouds 13 1023 71 10000 1.5 0 14:18 10.04.2020
6003 Clouds 13 1024 71 10000 1.5 0 13:43 10.04.2020
6004 Clouds 13 1024 76 10000 2.1 50 13:22 10.04.2020
6005 Clouds 12 1024 81 10000 2.1 90 12:44 10.04.2020
6006 Clouds 11 1024 81 10000 2.1 90 12:24 10.04.2020
6007 Clouds 10 1024 81 10000 2.1 90 11:58 10.04.2020
6008 Clouds 10 1024 81 10000 2.1 90 11:39 10.04.2020
6009 Clouds 9 1024 87 10000 2.6 80 11:21 10.04.2020
6010 Clouds 9 1025 87 10000 2.6 70 10:46 10.04.2020
6011 Clouds 8 1025 93 10000 2.1 10 10:23 10.04.2020
6012 Clouds 8 1025 100 10000 1 0 09:57 10.04.2020
6013 Clouds 7 1025 100 10000 1 0 09:39 10.04.2020
6014 Clouds 7 1025 100 8000 1 0 09:20 10.04.2020
6015 Clouds 6 1025 100 9000 1 50 08:43 10.04.2020
6016 Clouds 6 1025 100 7000 1.5 350 08:24 10.04.2020
6017 Clouds 6 1025 93 6000 1.5 360 07:46 10.04.2020
6018 Clouds 6 1025 100 7000 1 30 07:24 10.04.2020
6019 Clouds 6 1025 100 6000 1.5 50 06:49 10.04.2020
6020 Clouds 6 1025 93 8000 1 40 06:29 10.04.2020
6021 Clouds 6 1025 93 10000 1.5 30 05:42 10.04.2020
6022 Clouds 7 1025 87 10000 2.1 60 04:59 10.04.2020
6023 Clouds 7 1026 93 10000 3.1 70 03:51 10.04.2020
6024 Clouds 7 1026 87 10000 2.6 70 03:32 10.04.2020
6025 Clouds 7 1026 87 10000 2.6 80 02:49 10.04.2020
6026 Clouds 7 1026 87 10000 2.6 80 02:30 10.04.2020
6027 Clouds 7 1027 87 10000 2.6 90 01:30 10.04.2020
6028 Clouds 8 1027 87 10000 2.1 80 00:52 10.04.2020
6029 Clouds 8 1027 87 10000 3.1 80 00:25 10.04.2020
6030 Clouds 8 1027 87 10000 3.1 70 23:56 09.04.2020
6031 Clouds 8 1027 87 10000 3.1 70 23:38 09.04.2020
6032 Clouds 8 1027 81 10000 4.1 70 23:20 09.04.2020
6033 Clouds 9 1026 87 10000 5.1 70 22:41 09.04.2020
6034 Clouds 9 1026 87 10000 5.1 70 22:23 09.04.2020
6035 Clouds 9 1026 81 10000 5.1 70 21:55 09.04.2020
6036 Clouds 9 1026 81 10000 5.1 70 21:37 09.04.2020
6037 Clouds 9 1026 81 10000 4.6 60 21:18 09.04.2020
6038 Clouds 10 1026 81 10000 5.1 70 20:41 09.04.2020
6039 Clouds 10 1026 81 10000 4.6 60 20:20 09.04.2020
6040 Clouds 10 1026 81 10000 5.1 60 19:57 09.04.2020
6041 Clouds 10 1026 76 10000 5.1 60 19:36 09.04.2020
6042 Clouds 11 1026 76 10000 5.1 60 19:18 09.04.2020
6043 Clouds 10 1027 81 10000 5.1 70 18:41 09.04.2020
6044 Clouds 10 1027 81 10000 4.6 60 18:18 09.04.2020
6045 Clouds 10 1027 87 10000 5.1 70 17:40 09.04.2020
6046 Clouds 10 1027 81 10000 4.1 60 17:22 09.04.2020
6047 Clouds 10 1027 87 10000 4.6 50 16:56 09.04.2020
6048 Clouds 10 1027 87 10000 4.6 50 16:56 09.04.2020
6049 Clouds 10 1027 87 10000 4.6 50 16:37 09.04.2020
6050 Clouds 10 1027 87 10000 4.6 50 16:37 09.04.2020
6051 Clouds 10 1028 87 10000 4.6 50 16:18 09.04.2020
6052 Clouds 10 1028 87 10000 5.1 50 15:54 09.04.2020
6053 Clouds 10 1028 87 10000 5.1 50 15:36 09.04.2020
6054 Clouds 10 1028 93 9000 4.1 50 15:18 09.04.2020
6055 Clouds 9 1028 93 8000 4.1 50 14:39 09.04.2020
6056 Clouds 9 1028 93 7000 5.7 60 14:20 09.04.2020
6057 Clouds 8 1029 93 10000 4.6 60 13:43 09.04.2020
6058 Clouds 8 1029 87 10000 4.1 60 13:25 09.04.2020
6059 Clouds 8 1029 87 9000 5.1 70 12:59 09.04.2020
6060 Clouds 8 1029 87 9000 5.1 70 12:40 09.04.2020
6061 Haze 8 1029 93 4800 5.1 70 12:21 09.04.2020
6062 Clouds 7 1029 93 6000 4.1 60 11:56 09.04.2020
6063 Clouds 7 1029 93 6000 4.1 60 11:37 09.04.2020
6064 Clouds 7 1028 93 8000 5.7 60 11:19 09.04.2020
6065 Clouds 7 1028 93 8000 5.7 60 10:54 09.04.2020
6066 Clouds 7 1028 93 8000 5.7 60 10:36 09.04.2020
6067 Clouds 6 1028 93 9000 4.6 60 10:18 09.04.2020
6068 Clouds 6 1028 93 6000 4.6 60 09:40 09.04.2020
6069 Clouds 6 1028 93 7000 4.6 60 09:21 09.04.2020
6070 Mist 6 1027 100 2500 4.6 60 08:57 09.04.2020
6071 Haze 6 1027 93 2500 4.1 70 08:39 09.04.2020
6072 Haze 6 1027 93 2500 4.1 70 08:21 09.04.2020
6073 Clouds 6 1027 100 8000 4.1 60 07:40 09.04.2020
6074 Clouds 6 1027 100 10000 4.6 60 07:21 09.04.2020
6075 Mist 6 1027 93 2800 4.1 70 06:35 09.04.2020
6076 Mist 6 1027 93 4300 4.6 70 05:49 09.04.2020
6077 Drizzle 6 1026 93 4100 5.1 70 05:24 09.04.2020
6078 Rain 8 1026 87 10000 6.7 60 02:35 09.04.2020
6079 Clouds 8 1025 93 10000 0.5 0 01:46 09.04.2020
6080 Rain 8 1025 93 10000 2.1 260 01:27 09.04.2020
6081 Clouds 9 1025 87 10000 2.1 240 00:45 09.04.2020
6082 Clouds 9 1025 87 10000 2.1 250 00:21 09.04.2020
6083 Clouds 9 1025 87 10000 2.1 250 00:21 09.04.2020
6084 Clouds 9 1025 87 10000 2.1 230 23:59 08.04.2020
6085 Clouds 9 1025 87 10000 2.1 230 23:41 08.04.2020
6086 Clouds 9 1025 87 10000 2.1 230 23:41 08.04.2020
6087 Clouds 9 1025 87 10000 2.1 230 23:41 08.04.2020
6088 Clouds 9 1025 87 10000 2.6 210 23:22 08.04.2020
6089 Clouds 10 1024 87 10000 3.1 220 22:44 08.04.2020
6090 Clouds 11 1024 87 10000 3.1 220 22:24 08.04.2020
6091 Clouds 11 1024 87 10000 2.1 230 21:57 08.04.2020
6092 Clouds 11 1024 87 10000 2.1 230 21:57 08.04.2020
6093 Clouds 11 1024 87 10000 2.6 260 21:39 08.04.2020
6094 Clouds 11 1024 87 10000 2.6 260 21:21 08.04.2020
6095 Clouds 12 1024 87 10000 4.1 260 20:59 08.04.2020
6096 Rain 12 1024 81 10000 2.6 250 20:40 08.04.2020
6097 Rain 12 1024 81 10000 2.6 250 20:20 08.04.2020
6098 Rain 12 1024 81 10000 2.6 260 19:58 08.04.2020
6099 Rain 12 1024 81 10000 2.6 260 19:37 08.04.2020
6100 Rain 12 1024 81 10000 4.1 250 19:19 08.04.2020
6101 Rain 13 1023 71 10000 5.1 280 18:44 08.04.2020
6102 Rain 14 1023 71 10000 5.1 280 18:24 08.04.2020
6103 Clouds 14 1023 67 10000 4.6 240 17:56 08.04.2020
6104 Clouds 14 1023 67 10000 4.6 240 17:38 08.04.2020
6105 Clouds 14 1023 67 10000 4.6 240 17:38 08.04.2020
6106 Clouds 14 1023 67 10000 6.2 230 17:18 08.04.2020
6107 Clouds 15 1023 62 10000 6.7 220 16:42 08.04.2020
6108 Clouds 15 1023 62 10000 6.7 220 16:23 08.04.2020
6109 Clouds 14 1023 62 10000 7.2 220 15:56 08.04.2020
6110 Clouds 15 1023 62 10000 7.2 220 15:37 08.04.2020
6111 Clouds 15 1023 62 10000 5.7 210 15:19 08.04.2020
6112 Clouds 15 1023 62 10000 5.7 210 14:43 08.04.2020
6113 Clouds 14 1023 66 10000 5.7 220 14:25 08.04.2020
6114 Clouds 14 1023 66 10000 5.7 220 14:25 08.04.2020
6115 Clouds 13 1024 66 10000 6.2 220 13:55 08.04.2020
6116 Clouds 13 1024 66 10000 6.2 220 13:37 08.04.2020
6117 Clouds 13 1024 76 10000 8.2 220 13:18 08.04.2020
6118 Clouds 12 1024 71 10000 7.7 220 12:41 08.04.2020
6119 Clouds 12 1024 71 10000 6.2 220 12:18 08.04.2020
6120 Clouds 12 1024 76 10000 5.7 210 11:57 08.04.2020
6121 Clouds 12 1024 76 10000 5.7 210 11:39 08.04.2020
6122 Clouds 11 1024 76 10000 6.7 210 11:21 08.04.2020
6123 Clouds 11 1024 76 10000 5.7 200 10:55 08.04.2020
6124 Clouds 10 1024 76 10000 5.1 210 10:37 08.04.2020
6125 Clouds 10 1024 76 10000 5.1 210 10:18 08.04.2020
6126 Clouds 9 1024 81 10000 4.6 220 09:42 08.04.2020
6127 Clouds 8 1024 81 10000 4.6 220 09:21 08.04.2020
6128 Clouds 8 1023 87 10000 4.1 220 08:59 08.04.2020
6129 Clouds 7 1023 87 10000 4.1 220 08:41 08.04.2020
6130 Clouds 8 1023 87 10000 4.1 220 08:21 08.04.2020
6131 Clouds 7 1023 87 10000 3.6 220 07:43 08.04.2020
6132 Clouds 7 1023 87 10000 2.1 240 07:22 08.04.2020
6133 Clouds 7 1024 87 10000 2.1 250 06:43 08.04.2020
6134 Clouds 7 1024 87 10000 3.6 210 05:49 08.04.2020
6135 Clouds 6 1024 80 10000 1.5 0 03:22 08.04.2020
6136 Clouds 7 1025 75 10000 1.5 260 02:38 08.04.2020
6137 Clouds 7 1024 70 10000 1 0 02:18 08.04.2020
6138 Clouds 7 1024 65 10000 2.6 210 01:30 08.04.2020
6139 Clouds 7 1024 65 10000 1.5 0 00:52 08.04.2020
6140 Clouds 7 1024 65 10000 1.5 0 00:33 08.04.2020
6141 Clouds 8 1024 61 10000 3.1 210 23:58 07.04.2020
6142 Clouds 8 1024 61 10000 3.1 210 23:38 07.04.2020
6143 Clouds 8 1024 61 10000 5.7 200 23:19 07.04.2020
6144 Clouds 8 1024 61 10000 5.1 200 22:56 07.04.2020
6145 Clouds 8 1024 61 10000 5.1 200 22:38 07.04.2020
6146 Clouds 9 1025 65 10000 6.2 210 22:19 07.04.2020
6147 Clouds 9 1025 57 10000 6.2 210 21:54 07.04.2020
6148 Clouds 9 1024 61 10000 3.1 240 21:36 07.04.2020
6149 Clouds 10 1024 61 10000 3.1 240 21:18 07.04.2020
6150 Clouds 11 1024 57 10000 5.7 230 20:41 07.04.2020
6151 Clouds 11 1024 57 10000 5.7 230 20:21 07.04.2020
6152 Clouds 12 1024 54 10000 7.2 220 19:58 07.04.2020
6153 Clouds 12 1024 58 10000 8.7 220 19:38 07.04.2020
6154 Clouds 13 1024 58 10000 8.7 220 19:20 07.04.2020
6155 Clouds 13 1025 58 10000 8.2 210 18:59 07.04.2020
6156 Clouds 13 1025 58 10000 8.2 210 18:40 07.04.2020
6157 Clouds 14 1025 54 10000 8.7 230 18:21 07.04.2020
6158 Clouds 14 1025 58 10000 7.7 200 17:47 07.04.2020
6159 Clouds 13 1025 58 10000 7.7 200 17:25 07.04.2020
6160 Clouds 14 1026 54 10000 7.7 180 16:59 07.04.2020
6161 Clouds 14 1026 54 10000 7.7 180 16:41 07.04.2020
6162 Clouds 14 1026 51 10000 9.3 180 16:22 07.04.2020
6163 Clouds 14 1026 51 10000 9.3 180 15:44 07.04.2020
6164 Clouds 13 1026 58 10000 5.7 210 15:26 07.04.2020
6165 Clouds 13 1026 58 10000 6.7 210 14:55 07.04.2020
6166 Clouds 13 1026 54 10000 5.1 220 14:36 07.04.2020
6167 Clouds 13 1026 58 10000 6.7 210 14:36 07.04.2020
6168 Clouds 13 1026 54 10000 5.1 220 14:18 07.04.2020
6169 Clouds 13 1027 54 10000 6.2 210 13:41 07.04.2020
6170 Clouds 12 1027 58 10000 6.7 210 13:19 07.04.2020
6171 Clouds 12 1027 62 10000 5.7 220 12:56 07.04.2020
6172 Clouds 11 1027 62 10000 4.6 170 12:37 07.04.2020
6173 Clouds 11 1027 66 10000 6.7 210 12:19 07.04.2020
6174 Clouds 10 1027 71 10000 4.6 220 11:46 07.04.2020
6175 Clouds 10 1027 70 10000 3.6 220 11:27 07.04.2020
6176 Clouds 9 1027 81 10000 2.1 90 10:59 07.04.2020
6177 Clouds 7 1027 87 10000 2.1 80 10:39 07.04.2020
6178 Clouds 8 1027 81 10000 2.1 90 10:39 07.04.2020
6179 Clouds 8 1027 81 10000 2.1 90 10:39 07.04.2020
6180 Clouds 7 1027 87 10000 2.1 80 10:20 07.04.2020
6181 Clouds 6 1027 93 10000 1.5 0 09:46 07.04.2020
6182 Clouds 4 1027 93 10000 1.5 80 09:20 07.04.2020
6183 Clouds 3 1027 100 10000 1.5 80 08:59 07.04.2020
6184 Clouds 3 1027 100 10000 1.5 80 08:39 07.04.2020
6185 Clouds 3 1027 100 6000 1.5 50 08:20 07.04.2020
6186 Clouds 3 1026 100 10000 1.5 100 07:44 07.04.2020
6187 Clouds 3 1026 100 10000 2.1 70 07:26 07.04.2020
6188 Clouds 3 1026 93 8000 2.1 60 06:52 07.04.2020
6189 Clear 3 1026 93 10000 1.5 70 06:25 07.04.2020
6190 Clouds 4 1026 93 10000 1.5 30 05:50 07.04.2020
6191 Clouds 4 1025 93 10000 0.5 0 05:24 07.04.2020
6192 Clear 4 1025 93 10000 0.5 0 03:34 07.04.2020
6193 Clouds 5 1024 93 10000 0.5 0 02:59 07.04.2020
6194 Clouds 5 1024 93 10000 0.5 0 02:35 07.04.2020
6195 Clouds 5 1023 93 10000 0.5 0 01:34 07.04.2020
6196 Clouds 6 1022 86 10000 2.6 250 00:52 07.04.2020
6197 Clouds 6 1022 86 10000 2.6 240 00:25 07.04.2020
6198 Clouds 7 1022 81 10000 2.1 240 23:40 06.04.2020
6199 Clouds 7 1021 81 10000 2.1 220 23:21 06.04.2020
6200 Clouds 7 1021 80 10000 3.1 200 22:42 06.04.2020
6201 Clouds 7 1020 75 10000 4.1 220 22:23 06.04.2020
6202 Clouds 8 1020 65 10000 3.6 220 21:59 06.04.2020
6203 Clouds 8 1020 65 10000 3.6 220 21:59 06.04.2020
6204 Clouds 8 1020 65 10000 3.6 220 21:41 06.04.2020
6205 Rain 9 1019 61 10000 4.1 250 21:20 06.04.2020
6206 Rain 10 1018 57 10000 5.1 240 20:56 06.04.2020
6207 Rain 10 1018 57 10000 5.1 240 20:38 06.04.2020
6208 Rain 11 1018 53 10000 5.7 240 20:20 06.04.2020
6209 Rain 11 1017 53 10000 8.2 240 19:56 06.04.2020
6210 Rain 11 1017 53 10000 8.2 260 19:38 06.04.2020
6211 Rain 11 1017 53 10000 8.2 260 19:19 06.04.2020
6212 Rain 11 1017 53 10000 8.2 260 19:19 06.04.2020
6213 Rain 12 1016 50 10000 9.8 260 18:42 06.04.2020
6214 Clouds 12 1016 50 10000 9.8 250 18:23 06.04.2020
6215 Clouds 12 1015 50 10000 10.3 240 17:57 06.04.2020
6216 Clouds 12 1015 50 10000 10.3 240 17:38 06.04.2020
6217 Rain 12 1015 50 10000 9.8 250 17:18 06.04.2020
6218 Clouds 12 1014 54 10000 9.8 250 16:47 06.04.2020
6219 Rain 12 1014 54 10000 9.8 250 16:29 06.04.2020
6220 Rain 11 1011 66 10000 8.2 240 14:46 06.04.2020
6221 Rain 11 1011 66 10000 8.2 240 14:46 06.04.2020
6222 Rain 11 1011 66 10000 8.2 240 14:46 06.04.2020
6223 Rain 11 1011 66 10000 8.2 240 14:46 06.04.2020
6224 Rain 11 1011 66 10000 8.2 240 14:46 06.04.2020
6225 Clouds 11 1010 66 10000 7.7 230 13:44 06.04.2020
6226 Clouds 11 1009 71 10000 9.8 230 13:21 06.04.2020
6227 Clouds 11 1009 71 10000 9.8 230 13:21 06.04.2020
6228 Clouds 11 1008 71 10000 9.3 220 12:41 06.04.2020
6229 Clouds 11 1008 71 10000 9.3 220 12:41 06.04.2020
6230 Clouds 10 1008 71 10000 9.8 220 12:18 06.04.2020
6231 Clouds 10 1008 71 10000 9.8 220 12:18 06.04.2020
6232 Clouds 10 1007 71 10000 10.3 230 11:40 06.04.2020
6233 Clouds 10 1007 71 10000 10.3 230 11:40 06.04.2020
6234 Clouds 10 1007 71 10000 10.3 230 11:40 06.04.2020
6235 Clouds 10 1007 71 10000 10.3 230 11:40 06.04.2020
6236 Clouds 10 1007 71 10000 10.3 230 11:40 06.04.2020
6237 Clouds 10 1005 76 10000 8.2 230 10:53 06.04.2020
6238 Clouds 10 1005 76 10000 8.2 230 10:53 06.04.2020
6239 Clouds 10 1005 76 10000 8.2 230 10:53 06.04.2020
6240 Clouds 10 1004 81 10000 7.2 230 10:23 06.04.2020
6241 Clouds 10 1004 81 10000 7.2 230 10:23 06.04.2020
6242 Clouds 10 1004 81 10000 7.2 230 10:23 06.04.2020
6243 Clouds 10 1004 81 10000 7.2 220 10:03 06.04.2020
6244 Clouds 10 1004 81 10000 7.2 230 10:03 06.04.2020
6245 Clouds 10 1004 81 10000 7.2 230 10:03 06.04.2020
6246 Clouds 10 1004 81 10000 7.2 220 09:26 06.04.2020
6247 Clouds 9 1002 81 10000 8.7 200 08:55 06.04.2020
6248 Clouds 9 1002 81 10000 8.7 200 08:55 06.04.2020
6249 Clouds 9 1002 81 10000 8.7 200 08:36 06.04.2020
6250 Clouds 9 1002 81 10000 8.7 200 08:36 06.04.2020
6251 Clouds 9 1002 81 10000 8.7 200 08:36 06.04.2020
6252 Clouds 10 1001 76 10000 9.3 200 07:55 06.04.2020
6253 Clouds 10 1000 76 10000 8.2 200 07:19 06.04.2020
6254 Clouds 10 1000 81 10000 7.7 210 06:26 06.04.2020
6255 Clouds 11 999 87 10000 10.3 210 05:29 06.04.2020
6256 Clouds 11 999 87 10000 10.3 210 05:28 06.04.2020
6257 Clouds 11 999 87 10000 10.3 210 05:26 06.04.2020
6258 Rain 13 997 82 9000 10.3 190 03:28 06.04.2020
6259 Rain 13 997 82 10000 11.3 180 02:48 06.04.2020
6260 Rain 14 998 67 10000 10.3 170 01:52 06.04.2020
6261 Rain 14 998 71 10000 6.2 140 00:51 06.04.2020
6262 Rain 14 998 71 10000 6.2 140 00:26 06.04.2020
6263 Rain 14 999 71 10000 6.7 160 23:48 05.04.2020
6264 Rain 14 999 71 10000 6.7 160 23:30 05.04.2020
6265 Rain 14 999 71 10000 6.7 160 23:30 05.04.2020
6266 Rain 15 999 55 10000 5.1 150 22:56 05.04.2020
6267 Rain 16 999 55 10000 4.6 140 22:38 05.04.2020
6268 Rain 16 1000 51 10000 6.7 150 22:19 05.04.2020
6269 Rain 16 1000 51 10000 6.7 150 21:57 05.04.2020
6270 Rain 16 1000 51 10000 6.2 160 21:39 05.04.2020
6271 Clouds 16 1000 48 10000 5.7 160 21:21 05.04.2020
6272 Clouds 16 1000 48 10000 5.7 160 21:21 05.04.2020
6273 Clouds 16 1000 48 10000 5.7 160 21:21 05.04.2020
6274 Clouds 16 1000 48 10000 5.7 160 21:21 05.04.2020
6275 Clouds 16 1000 48 10000 5.7 160 21:21 05.04.2020
6276 Clouds 17 1001 45 10000 7.7 170 20:20 05.04.2020
6277 Clouds 17 1001 45 10000 9.3 160 19:40 05.04.2020
6278 Clouds 17 1001 45 10000 10.3 160 19:22 05.04.2020
6279 Clouds 17 1001 42 10000 7.2 160 18:45 05.04.2020
6280 Clouds 17 1001 42 10000 7.2 160 18:45 05.04.2020
6281 Clouds 17 1002 42 10000 6.2 150 17:58 05.04.2020
6282 Clouds 17 1002 42 10000 6.2 150 17:39 05.04.2020
6283 Clouds 17 1003 42 10000 6.2 150 17:20 05.04.2020
6284 Clouds 17 1003 42 10000 5.7 140 16:44 05.04.2020
6285 Clouds 17 1003 42 10000 5.7 140 16:44 05.04.2020
6286 Clouds 17 1003 42 10000 5.7 140 16:44 05.04.2020
6287 Clouds 17 1003 42 10000 5.7 140 16:44 05.04.2020
6288 Clouds 17 1003 42 10000 5.7 140 16:44 05.04.2020
6289 Clouds 17 1004 42 10000 7.7 150 16:18 05.04.2020
6290 Clouds 16 1004 44 10000 7.2 140 15:43 05.04.2020
6291 Clouds 16 1005 44 10000 6.7 130 15:24 05.04.2020
6292 Clouds 15 1005 47 10000 6.2 110 14:47 05.04.2020
6293 Clouds 15 1005 47 10000 6.2 110 14:47 05.04.2020
6294 Clouds 15 1005 47 10000 6.2 110 14:47 05.04.2020
6295 Clouds 15 1005 47 10000 6.2 110 14:47 05.04.2020
6296 Clouds 15 1005 47 10000 6.2 110 14:47 05.04.2020
6297 Clouds 14 1006 54 10000 7.2 130 13:45 05.04.2020
6298 Clouds 13 1008 58 10000 7.2 120 12:56 05.04.2020
6299 Clouds 11 1008 62 10000 7.7 130 11:58 05.04.2020
6300 Clouds 11 1008 66 10000 3.6 100 11:58 05.04.2020
6301 Clouds 11 1008 62 10000 7.7 130 11:58 05.04.2020
6302 Clouds 11 1008 62 10000 7.7 130 11:58 05.04.2020
6303 Clouds 11 1008 62 10000 7.7 130 11:37 05.04.2020
6304 Clouds 10 1009 70 10000 4.6 90 11:18 05.04.2020
6305 Clouds 9 1009 70 10000 4.6 100 10:42 05.04.2020
6306 Clouds 9 1009 70 10000 4.6 100 10:19 05.04.2020
6307 Clouds 9 1009 70 10000 4.6 100 10:19 05.04.2020
6308 Clouds 9 1009 75 10000 3.6 70 09:44 05.04.2020
6309 Clouds 8 1009 75 10000 3.6 70 09:24 05.04.2020
6310 Clouds 8 1009 75 10000 3.6 70 09:24 05.04.2020
6311 Clouds 8 1010 70 10000 3.6 60 09:24 05.04.2020
6312 Clouds 8 1009 75 10000 3.6 70 09:24 05.04.2020
6313 Clouds 8 1009 75 10000 3.6 70 09:24 05.04.2020
6314 Clouds 7 1010 81 10000 3.6 80 07:44 05.04.2020
6315 Clouds 6 1010 81 10000 3.6 80 07:44 05.04.2020
6316 Clouds 7 1011 75 10000 4.1 110 04:40 05.04.2020
6317 Clouds 8 1012 70 10000 3.6 180 03:34 05.04.2020
6318 Clouds 8 1012 70 10000 5.7 190 02:52 05.04.2020
6319 Clouds 8 1013 81 10000 3.6 170 01:48 05.04.2020
6320 Clouds 8 1013 81 10000 3.6 170 01:30 05.04.2020
6321 Clouds 8 1013 81 10000 3.6 170 01:30 05.04.2020
6322 Clouds 9 1013 76 10000 2.1 140 00:46 05.04.2020
6323 Clouds 9 1013 71 10000 3.6 170 00:22 05.04.2020
6324 Clouds 9 1012 71 10000 3.1 160 23:56 04.04.2020
6325 Clouds 9 1012 81 10000 4.6 160 23:37 04.04.2020
6326 Clouds 9 1012 76 10000 3.6 110 23:19 04.04.2020
6327 Clouds 9 1012 76 10000 2.6 110 22:41 04.04.2020
6328 Clouds 9 1012 76 10000 3.1 140 22:22 04.04.2020
6329 Clouds 9 1012 76 10000 3.1 140 21:59 04.04.2020
6330 Clouds 9 1012 76 10000 3.1 140 21:59 04.04.2020
6331 Clouds 9 1012 76 10000 3.6 160 21:40 04.04.2020
6332 Clouds 9 1013 76 10000 3.6 140 21:20 04.04.2020
6333 Clouds 9 1013 76 10000 3.6 140 20:59 04.04.2020
6334 Clouds 9 1013 76 10000 3.1 140 20:40 04.04.2020
6335 Clouds 9 1013 76 10000 4.1 150 20:21 04.04.2020
6336 Clouds 9 1013 76 10000 5.7 170 19:57 04.04.2020
6337 Clouds 9 1013 76 10000 5.7 170 19:37 04.04.2020
6338 Rain 10 1013 71 10000 5.7 170 19:19 04.04.2020
6339 Rain 10 1013 71 10000 5.7 170 18:56 04.04.2020
6340 Clouds 10 1013 66 10000 6.7 180 18:37 04.04.2020
6341 Clouds 10 1013 66 10000 6.7 190 18:19 04.04.2020
6342 Clouds 10 1013 66 10000 8.7 200 17:41 04.04.2020
6343 Clouds 11 1014 62 10000 8.7 200 17:21 04.04.2020
6344 Clouds 11 1014 62 10000 8.7 200 16:59 04.04.2020
6345 Clouds 11 1014 57 10000 7.7 200 16:41 04.04.2020
6346 Clouds 11 1014 62 10000 6.7 210 16:22 04.04.2020
6347 Clouds 11 1014 66 10000 5.7 200 15:42 04.04.2020
6348 Clouds 10 1014 71 10000 6.7 210 15:24 04.04.2020
6349 Clouds 10 1014 71 10000 6.7 210 14:59 04.04.2020
6350 Clouds 10 1014 71 10000 6.2 180 14:41 04.04.2020
6351 Clouds 10 1014 71 10000 5.7 190 14:22 04.04.2020
6352 Clouds 10 1014 71 10000 5.7 190 13:55 04.04.2020
6353 Clouds 9 1014 70 10000 4.6 200 13:37 04.04.2020
6354 Clouds 9 1014 76 10000 5.1 220 13:19 04.04.2020
6355 Clouds 9 1014 76 10000 5.1 200 12:44 04.04.2020
6356 Clouds 9 1014 76 10000 5.1 200 12:44 04.04.2020
6357 Clouds 9 1014 76 10000 5.1 200 12:23 04.04.2020
6358 Clouds 9 1014 76 10000 5.7 200 11:58 04.04.2020
6359 Clouds 9 1014 76 10000 5.7 200 11:38 04.04.2020
6360 Clouds 9 1014 81 10000 4.1 210 11:19 04.04.2020
6361 Clouds 9 1014 81 10000 4.1 210 10:55 04.04.2020
6362 Clouds 8 1014 81 10000 4.6 190 10:37 04.04.2020
6363 Clouds 8 1014 81 10000 5.1 200 10:18 04.04.2020
6364 Clouds 7 1014 87 10000 5.1 210 09:54 04.04.2020
6365 Clouds 7 1014 87 10000 5.1 210 09:36 04.04.2020
6366 Clouds 6 1014 87 10000 5.1 210 09:18 04.04.2020
6367 Clouds 6 1014 87 10000 5.1 220 08:38 04.04.2020
6368 Clouds 6 1014 87 10000 3.6 230 08:20 04.04.2020
6369 Clouds 6 1014 87 10000 4.6 210 07:44 04.04.2020
6370 Clouds 6 1013 87 10000 5.1 220 07:26 04.04.2020
6371 Clouds 6 1013 87 10000 4.6 200 06:47 04.04.2020
6372 Clouds 5 1013 93 10000 3.6 210 06:18 04.04.2020
6373 Clouds 6 1013 93 10000 4.1 210 05:41 04.04.2020
6374 Clouds 6 1014 93 10000 3.6 210 05:23 04.04.2020
6375 Clouds 6 1014 87 10000 4.1 220 04:27 04.04.2020
6376 Clouds 6 1014 87 10000 4.1 220 03:49 04.04.2020
6377 Clouds 6 1014 87 10000 4.1 200 02:50 04.04.2020
6378 Clouds 6 1014 87 10000 4.1 200 02:32 04.04.2020
6379 Rain 6 1014 87 10000 5.7 230 01:53 04.04.2020
6380 Clouds 6 1013 87 10000 5.1 220 01:24 04.04.2020
6381 Clouds 6 1013 87 10000 6.2 220 00:48 04.04.2020
6382 Clouds 6 1013 87 10000 6.2 220 00:28 04.04.2020
6383 Clouds 6 1013 87 10000 5.7 210 23:39 03.04.2020
6384 Clouds 6 1013 93 10000 5.1 220 23:21 03.04.2020
6385 Clouds 6 1013 93 10000 5.1 220 22:57 03.04.2020
6386 Clouds 6 1013 93 10000 4.6 210 22:39 03.04.2020
6387 Clouds 6 1013 93 10000 5.1 220 22:18 03.04.2020
6388 Clouds 7 1013 87 10000 5.1 210 21:43 03.04.2020
6389 Rain 7 1013 81 10000 4.6 220 21:24 03.04.2020
6390 Rain 7 1013 81 10000 4.6 220 20:57 03.04.2020
6391 Rain 7 1013 81 10000 4.6 220 20:57 03.04.2020
6392 Rain 8 1013 81 10000 5.1 230 20:37 03.04.2020
6393 Clouds 8 1013 81 10000 4.1 240 20:19 03.04.2020
6394 Clouds 8 1013 81 10000 4.1 240 19:57 03.04.2020
6395 Clouds 8 1013 87 10000 3.6 230 19:38 03.04.2020
6396 Clouds 8 1013 87 10000 5.1 230 19:20 03.04.2020
6397 Clouds 8 1013 87 10000 4.1 230 18:58 03.04.2020
6398 Clouds 8 1013 87 10000 4.1 230 18:40 03.04.2020
6399 Clouds 8 1013 81 10000 4.6 230 18:22 03.04.2020
6400 Clouds 7 1013 75 10000 6.7 240 17:43 03.04.2020
6401 Rain 8 1013 75 10000 5.7 240 17:22 03.04.2020
6402 Rain 8 1013 75 10000 5.7 240 16:58 03.04.2020
6403 Rain 7 1013 81 10000 6.2 230 16:40 03.04.2020
6404 Rain 8 1013 75 10000 6.7 230 16:21 03.04.2020
6405 Rain 8 1013 75 10000 6.7 230 15:58 03.04.2020
6406 Rain 8 1013 75 10000 5.7 230 15:38 03.04.2020
6407 Clouds 7 1013 75 10000 4.6 240 15:19 03.04.2020
6408 Clouds 7 1013 70 10000 5.7 250 14:41 03.04.2020
6409 Clouds 7 1013 70 10000 5.7 250 14:41 03.04.2020
6410 Clouds 7 1013 70 10000 5.7 250 14:41 03.04.2020
6411 Clouds 7 1013 70 10000 5.7 250 14:22 03.04.2020
6412 Clouds 7 1013 70 10000 5.7 250 13:59 03.04.2020
6413 Clouds 7 1013 70 10000 5.7 250 13:40 03.04.2020
6414 Clouds 7 1013 70 10000 6.2 250 13:22 03.04.2020
6415 Clouds 7 1013 70 10000 5.7 240 12:43 03.04.2020
6416 -273 0 0 0 0 0 12:20 03.04.2020
6417 Clouds 6 1013 81 10000 4.1 230 11:57 03.04.2020
6418 Clouds 6 1013 81 10000 4.1 230 11:38 03.04.2020
6419 Clouds 6 1013 81 10000 4.1 230 11:38 03.04.2020
6420 Clouds 6 1013 81 10000 3.6 230 11:20 03.04.2020
6421 Clouds 6 1013 81 10000 3.6 230 10:58 03.04.2020
6422 Clouds 5 1013 80 10000 2.6 270 10:38 03.04.2020
6423 Clouds 5 1013 86 10000 1 220 10:20 03.04.2020
6424 Clouds 4 1013 93 10000 3.6 240 09:57 03.04.2020
6425 Clouds 4 1013 93 10000 3.6 240 09:39 03.04.2020
6426 Clouds 4 1013 86 10000 2.6 250 09:21 03.04.2020
6427 Rain 3 1013 86 10000 3.1 250 08:55 03.04.2020
6428 Rain 3 1013 86 10000 3.1 250 08:36 03.04.2020
6429 Clouds 2 1013 86 10000 2.6 290 08:18 03.04.2020
6430 Clouds 2 1012 86 10000 1 0 07:42 03.04.2020
6431 Clouds 1 1012 93 10000 1.5 80 07:23 03.04.2020
6432 Clouds 2 1013 93 10000 1 0 06:40 03.04.2020
6433 Clouds 2 1013 93 10000 2.1 360 06:21 03.04.2020
6434 Clouds 2 1013 93 10000 1.5 0 05:34 03.04.2020
6435 Clouds 2 1013 88 10000 2.1 250 03:40 03.04.2020
6436 Clouds 3 1013 88 10000 3.6 240 02:55 03.04.2020
6437 Clouds 3 1013 87 10000 3.6 230 01:53 03.04.2020
6438 Clouds 3 1013 87 10000 4.1 250 01:18 03.04.2020
6439 Clouds 4 1013 87 10000 3.6 250 00:34 03.04.2020
6440 Clouds 3 1013 69 10000 5.1 250 23:57 02.04.2020
6441 Clouds 4 1013 69 10000 5.1 250 23:39 02.04.2020
6442 Clouds 4 1013 69 10000 4.1 250 23:19 02.04.2020
6443 Clouds 4 1013 69 10000 4.1 250 23:19 02.04.2020
6444 Clouds 4 1013 69 10000 4.1 250 22:43 02.04.2020
6445 Clouds 4 1013 56 10000 5.1 280 22:25 02.04.2020
6446 Clouds 5 1013 56 10000 5.1 280 21:59 02.04.2020
6447 Clouds 5 1013 56 10000 5.1 280 21:59 02.04.2020
6448 Clouds 5 1012 65 10000 4.1 290 21:37 02.04.2020
6449 Clouds 5 1012 56 10000 5.7 300 21:19 02.04.2020
6450 Clouds 6 1012 56 10000 5.7 300 20:54 02.04.2020
6451 Clouds 6 1012 56 10000 5.7 300 20:54 02.04.2020
6452 Clouds 6 1012 56 10000 5.7 300 20:36 02.04.2020
6453 Clouds 6 1012 56 10000 6.7 300 20:18 02.04.2020
6454 Clouds 7 1011 56 10000 7.7 300 19:42 02.04.2020
6455 Clouds 7 1011 56 10000 7.2 280 19:20 02.04.2020
6456 Clouds 7 1011 56 10000 8.7 280 18:56 02.04.2020
6457 Clouds 7 1011 56 10000 8.7 280 18:38 02.04.2020
6458 Clouds 8 1011 58 10000 8.2 280 18:18 02.04.2020
6459 Clouds 7 1011 58 10000 8.2 290 17:43 02.04.2020
6460 Clouds 7 1011 58 10000 8.2 290 17:24 02.04.2020
6461 Clouds 8 1011 58 10000 9.8 290 16:58 02.04.2020
6462 Clouds 8 1011 65 10000 8.7 280 16:40 02.04.2020
6463 Clouds 8 1010 65 10000 8.2 300 16:22 02.04.2020
6464 Clouds 8 1010 65 10000 8.2 300 15:57 02.04.2020
6465 Clouds 9 1010 61 10000 6.7 300 15:39 02.04.2020
6466 Clouds 8 1010 61 10000 8.7 290 15:18 02.04.2020
6467 Clouds 9 1010 61 10000 8.7 290 14:57 02.04.2020
6468 Clouds 9 1010 59 10000 8.7 300 14:38 02.04.2020
6469 Clouds 9 1010 61 10000 10.3 300 14:18 02.04.2020
6470 Clouds 9 1010 61 10000 10.3 300 14:18 02.04.2020
6471 Clouds 9 1009 65 10000 7.2 290 13:54 02.04.2020
6472 Clouds 9 1009 65 10000 7.2 290 13:54 02.04.2020
6473 Clouds 9 1009 65 10000 7.2 290 13:36 02.04.2020
6474 Rain 9 1009 75 10000 8.2 280 13:18 02.04.2020
6475 Clouds 8 1009 70 10000 7.7 290 12:44 02.04.2020
6476 Clouds 8 1009 70 10000 8.7 270 12:19 02.04.2020
6477 Clouds 9 1009 70 10000 8.7 270 11:57 02.04.2020
6478 Clouds 8 1009 75 10000 8.2 260 11:39 02.04.2020
6479 Clouds 8 1009 75 10000 6.7 260 11:20 02.04.2020
6480 Clouds 8 1009 75 10000 6.7 260 10:56 02.04.2020
6481 Clouds 8 1009 75 10000 5.1 260 10:37 02.04.2020
6482 Clouds 9 1009 75 10000 8.7 240 10:19 02.04.2020
6483 Clouds 9 1009 75 10000 8.7 240 10:19 02.04.2020
6484 Clouds 8 1009 75 10000 8.7 240 09:58 02.04.2020
6485 Clouds 8 1009 81 10000 9.3 240 09:39 02.04.2020
6486 Clouds 8 1009 81 10000 8.2 250 09:19 02.04.2020
6487 Rain 8 1009 93 6000 9.3 250 08:47 02.04.2020
6488 Rain 8 1009 93 6000 9.3 250 08:27 02.04.2020
6489 Rain 8 1009 93 9000 7.2 250 07:45 02.04.2020
6490 Rain 8 1010 93 8000 7.7 260 07:21 02.04.2020
6491 Rain 8 1010 87 10000 7.7 240 06:59 02.04.2020
6492 Clouds 7 1011 81 10000 5.7 230 06:22 02.04.2020
6493 Clouds 7 1012 87 10000 7.2 230 05:45 02.04.2020
6494 Clouds 7 1013 87 10000 3.6 220 04:46 02.04.2020
6495 Clouds 7 1016 75 10000 7.2 260 01:54 02.04.2020
6496 Clouds 7 1016 75 10000 6.2 250 00:51 02.04.2020
6497 Clouds 8 1017 81 10000 7.2 260 00:29 02.04.2020
6498 Clouds 8 1017 81 10000 7.2 260 23:57 01.04.2020
6499 Clouds 8 1017 81 10000 6.2 260 23:37 01.04.2020
6500 Clouds 8 1017 87 10000 6.2 250 23:18 01.04.2020
6501 Clouds 8 1017 87 10000 5.1 240 22:41 01.04.2020
6502 Clouds 8 1017 93 10000 4.6 240 22:22 01.04.2020
6503 Clouds 8 1017 93 10000 4.6 240 21:58 01.04.2020
6504 Clouds 8 1017 93 10000 4.6 240 21:58 01.04.2020
6505 Clouds 8 1017 87 10000 4.6 250 21:39 01.04.2020
6506 Clouds 8 1018 93 10000 5.7 240 21:19 01.04.2020
6507 Clouds 8 1018 93 10000 5.7 240 20:55 01.04.2020
6508 Clouds 8 1018 87 10000 5.1 240 20:55 01.04.2020
6509 Clouds 9 1018 87 10000 5.1 240 20:37 01.04.2020
6510 Clouds 9 1018 87 10000 6.2 240 20:18 01.04.2020
6511 Clouds 9 1018 87 10000 6.2 240 20:18 01.04.2020
6512 Clouds 9 1018 87 10000 6.2 240 19:43 01.04.2020
6513 Clouds 9 1019 81 10000 6.2 240 19:22 01.04.2020
6514 Clouds 9 1019 81 10000 6.2 240 18:59 01.04.2020
6515 Clouds 9 1019 81 10000 7.7 250 18:59 01.04.2020
6516 Clouds 9 1019 81 10000 6.2 240 18:59 01.04.2020
6517 Clouds 9 1019 81 10000 7.7 250 18:40 01.04.2020
6518 Clouds 9 1019 81 10000 7.7 260 18:21 01.04.2020
6519 Clouds 9 1020 81 10000 6.7 250 17:56 01.04.2020
6520 Clouds 9 1020 81 10000 6.7 250 17:36 01.04.2020
6521 Clouds 9 1020 81 10000 6.7 250 17:36 01.04.2020
6522 Clouds 9 1020 76 10000 6.7 260 17:18 01.04.2020
6523 Clouds 10 1020 61 10000 7.7 260 16:43 01.04.2020
6524 Clouds 10 1020 61 10000 7.2 290 16:24 01.04.2020
6525 Clouds 10 1020 61 10000 7.2 290 15:59 01.04.2020
6526 Clouds 9 1021 66 10000 8.2 280 15:41 01.04.2020
6527 Clouds 10 1021 66 10000 7.7 280 15:22 01.04.2020
6528 Clouds 10 1021 66 10000 7.7 280 14:58 01.04.2020
6529 Clouds 10 1021 66 10000 5.7 290 14:38 01.04.2020
6530 Clouds 10 1021 66 10000 5.7 290 14:38 01.04.2020
6531 Clouds 10 1021 61 10000 6.2 300 14:19 01.04.2020
6532 Clouds 10 1021 61 10000 6.2 300 13:58 01.04.2020
6533 Clouds 10 1022 66 10000 6.2 290 13:38 01.04.2020
6534 Clouds 9 1022 70 10000 6.7 290 13:19 01.04.2020
6535 Clouds 9 1022 61 10000 7.2 280 12:55 01.04.2020
6536 Clouds 9 1022 61 10000 7.2 280 12:36 01.04.2020
6537 Clouds 9 1022 66 10000 5.7 290 12:18 01.04.2020
6538 Clouds 8 1023 70 10000 5.1 280 11:42 01.04.2020
6539 Rain 8 1023 75 10000 4.6 280 11:23 01.04.2020
6540 Rain 8 1023 75 10000 4.6 280 10:58 01.04.2020
6541 Clouds 7 1023 70 10000 5.7 270 10:38 01.04.2020
6542 Clouds 7 1023 87 10000 3.1 240 10:19 01.04.2020
6543 Clouds 6 1023 87 10000 3.1 240 09:57 01.04.2020
6544 Clouds 6 1024 81 10000 3.6 250 09:38 01.04.2020
6545 Clouds 5 1024 80 10000 4.1 250 09:18 01.04.2020
6546 Clouds 5 1024 93 10000 3.1 250 08:40 01.04.2020
6547 Clouds 5 1024 86 10000 2.1 240 08:18 01.04.2020
6548 Rain 5 1025 86 10000 3.1 240 07:43 01.04.2020
6549 Clouds 6 1025 81 10000 3.1 260 07:21 01.04.2020
6550 Clouds 5 1025 86 10000 2.6 240 06:48 01.04.2020
6551 Rain 6 1026 86 9000 2.6 250 06:24 01.04.2020
6552 Rain 6 1026 86 9000 2.6 250 05:56 01.04.2020
6553 Clouds 6 1027 75 10000 2.1 260 04:30 01.04.2020
6554 Clouds 6 1028 75 10000 2.6 250 03:30 01.04.2020
6555 Clouds 7 1028 75 10000 5.1 290 02:49 01.04.2020
6556 Clouds 7 1028 75 10000 5.7 300 01:57 01.04.2020
6557 Clouds 7 1029 75 10000 3.6 290 01:38 01.04.2020
6558 Clouds 7 1029 75 10000 3.1 290 01:18 01.04.2020
6559 Clouds 7 1030 75 10000 2.1 200 00:45 01.04.2020
6560 Clouds 7 1030 75 10000 3.6 280 00:19 01.04.2020
6561 Clouds 7 1030 75 10000 4.1 300 23:42 31.03.2020
6562 Clouds 7 1031 75 10000 4.6 300 23:23 31.03.2020
6563 Clouds 7 1031 75 10000 3.6 300 22:58 31.03.2020
6564 Clouds 8 1031 75 10000 3.6 300 22:37 31.03.2020
6565 Clouds 8 1031 75 10000 3.6 300 22:19 31.03.2020
6566 Clouds 8 1031 70 10000 5.1 300 21:55 31.03.2020
6567 Clouds 8 1031 70 10000 5.1 300 21:55 31.03.2020
6568 Clouds 8 1031 70 10000 5.1 300 21:55 31.03.2020
6569 Clouds 8 1031 70 10000 5.1 300 21:37 31.03.2020
6570 Rain 8 1031 70 10000 4.6 300 21:19 31.03.2020
6571 Rain 8 1031 70 10000 4.6 300 20:54 31.03.2020
6572 Clouds 9 1031 66 10000 5.7 300 20:36 31.03.2020
6573 Clouds 9 1031 66 10000 5.7 300 20:36 31.03.2020
6574 Clouds 9 1031 66 10000 5.7 300 20:18 31.03.2020
6575 Clouds 10 1031 61 10000 6.2 300 19:41 31.03.2020
6576 Clouds 10 1031 61 10000 6.2 290 19:22 31.03.2020
6577 Clouds 10 1032 57 10000 6.2 290 18:55 31.03.2020
6578 Clouds 10 1032 57 10000 6.2 290 18:37 31.03.2020
6579 Clouds 10 1032 57 10000 6.2 290 18:18 31.03.2020
6580 Clouds 10 1032 57 10000 5.7 290 17:54 31.03.2020
6581 Clouds 10 1032 57 10000 5.7 290 17:36 31.03.2020
6582 Clouds 10 1033 61 10000 3.6 290 17:18 31.03.2020
6583 Clouds 10 1033 61 10000 6.7 290 16:38 31.03.2020
6584 Clouds 11 1034 57 10000 4.6 280 16:19 31.03.2020
6585 Clouds 11 1034 57 10000 4.6 280 15:57 31.03.2020
6586 Clouds 10 1034 61 10000 5.1 300 15:38 31.03.2020
6587 Clouds 10 1034 57 10000 5.1 300 15:19 31.03.2020
6588 Clouds 10 1034 53 10000 3.6 300 14:56 31.03.2020
6589 Clouds 10 1034 53 10000 3.6 300 14:56 31.03.2020
6590 Clouds 10 1034 53 10000 3.6 300 14:38 31.03.2020
6591 Clouds 10 1035 57 10000 3.6 270 14:18 31.03.2020
6592 Clouds 10 1035 57 10000 3.6 270 13:42 31.03.2020
6593 Clouds 9 1035 57 10000 2.6 290 13:19 31.03.2020
6594 Clouds 9 1036 65 10000 3.1 300 12:55 31.03.2020
6595 Clouds 9 1036 65 10000 3.1 300 12:37 31.03.2020
6596 Clouds 8 1036 65 10000 3.1 290 12:18 31.03.2020
6597 Clouds 8 1036 65 10000 3.1 290 11:38 31.03.2020
6598 Clouds 7 1037 75 10000 2.6 300 11:19 31.03.2020
6599 Clouds 7 1037 75 10000 2.6 300 10:57 31.03.2020
6600 Clouds 7 1037 81 10000 3.1 280 10:39 31.03.2020
6601 Clouds 6 1037 87 10000 2.6 280 10:20 31.03.2020
6602 Clouds 6 1037 87 10000 2.6 280 09:55 31.03.2020
6603 Clouds 6 1037 93 10000 1.5 260 09:37 31.03.2020
6604 Clouds 5 1037 86 10000 2.1 240 09:19 31.03.2020
6605 Clouds 5 1037 93 10000 2.1 240 08:54 31.03.2020
6606 Clouds 5 1037 93 10000 2.1 240 08:36 31.03.2020
6607 Clouds 5 1037 93 10000 1.5 230 08:18 31.03.2020
6608 Clouds 5 1037 93 10000 1 300 07:43 31.03.2020
6609 Clouds 5 1037 93 10000 1 0 07:23 31.03.2020
6610 Clouds 5 1037 86 10000 1 270 06:55 31.03.2020
6611 Clouds 5 1037 86 10000 1 270 06:36 31.03.2020
6612 Clouds 5 1037 86 10000 1 0 05:42 31.03.2020
6613 Clouds 6 1037 86 10000 1.5 280 05:20 31.03.2020
6614 Clouds 6 1038 80 10000 2.1 270 02:40 31.03.2020
6615 Clouds 6 1038 80 10000 1 0 01:47 31.03.2020
6616 Clouds 6 1038 75 10000 1 0 01:19 31.03.2020
6617 Clouds 6 1038 75 10000 2.1 330 00:42 31.03.2020
6618 Clouds 6 1038 75 10000 3.1 330 00:19 31.03.2020
6619 Clouds 6 1038 80 10000 2.1 320 23:39 30.03.2020
6620 Clouds 6 1038 80 10000 1.5 340 23:20 30.03.2020
6621 Clouds 6 1038 80 10000 1.5 340 22:57 30.03.2020
6622 Clouds 6 1038 73 10000 1 0 22:38 30.03.2020
6623 Clouds 7 1038 75 10000 1 0 22:18 30.03.2020
6624 Clouds 7 1038 75 10000 1 0 21:57 30.03.2020
6625 Clouds 8 1037 70 10000 2.1 70 21:37 30.03.2020
6626 Clouds 8 1037 65 10000 3.1 10 21:19 30.03.2020
6627 Clouds 9 1037 66 10000 2.6 360 20:56 30.03.2020
6628 Clouds 9 1037 66 10000 2.6 360 20:37 30.03.2020
6629 Rain 10 1037 61 10000 2.1 320 20:19 30.03.2020
6630 Clouds 10 1037 53 10000 2.6 320 19:41 30.03.2020
6631 Clouds 10 1037 53 10000 2.6 320 19:41 30.03.2020
6632 Clouds 11 1037 53 10000 3.6 300 19:22 30.03.2020
6633 Clouds 11 1037 50 10000 3.1 360 18:57 30.03.2020
6634 Clouds 11 1037 50 10000 3.1 360 18:39 30.03.2020
6635 Clouds 11 1037 50 10000 3.1 350 18:21 30.03.2020
6636 Clouds 11 1037 53 10000 2.6 320 17:57 30.03.2020
6637 Clouds 11 1037 53 10000 2.6 320 17:38 30.03.2020
6638 Clouds 12 1037 46 10000 2.1 330 17:19 30.03.2020
6639 Clouds 12 1037 46 10000 2.1 330 16:56 30.03.2020
6640 Clouds 11 1038 50 10000 2.6 20 16:37 30.03.2020
6641 Clouds 11 1038 53 10000 3.1 360 16:19 30.03.2020
6642 Clouds 11 1038 53 10000 3.1 360 15:54 30.03.2020
6643 Clouds 11 1038 53 10000 3.1 360 15:36 30.03.2020
6644 Clouds 11 1039 53 10000 2.6 10 15:18 30.03.2020
6645 Clouds 11 1039 57 10000 3.1 310 14:39 30.03.2020
6646 Clouds 11 1039 61 10000 3.1 300 14:19 30.03.2020
6647 Clouds 11 1039 61 10000 3.1 300 13:59 30.03.2020
6648 Clouds 10 1039 61 10000 3.6 290 13:40 30.03.2020
6649 Clouds 10 1039 61 10000 4.1 290 13:21 30.03.2020
6650 Clouds 10 1040 66 10000 3.6 290 12:56 30.03.2020
6651 Clouds 10 1040 66 10000 3.6 290 12:37 30.03.2020
6652 Clouds 9 1040 66 10000 4.1 300 12:19 30.03.2020
6653 Clouds 9 1040 66 10000 4.6 300 11:55 30.03.2020
6654 Clouds 8 1040 66 10000 4.6 300 11:37 30.03.2020
6655 Clouds 8 1040 75 10000 3.6 290 11:18 30.03.2020
6656 Clouds 7 1041 81 10000 3.1 290 10:39 30.03.2020
6657 Clouds 7 1041 81 10000 2.1 280 10:21 30.03.2020
6658 Clouds 5 1040 86 10000 3.1 300 09:54 30.03.2020
6659 Clouds 5 1040 86 10000 3.1 300 09:36 30.03.2020
6660 Clouds 3 1040 93 10000 3.1 280 09:18 30.03.2020
6661 Clouds 2 1041 93 10000 1 0 08:40 30.03.2020
6662 Clouds 2 1041 93 10000 1 0 08:21 30.03.2020
6663 Clouds 2 1041 93 10000 2.1 240 07:48 30.03.2020
6664 Clouds 2 1041 86 10000 2.6 260 07:25 30.03.2020
6665 Clouds 2 1041 86 10000 2.6 260 06:47 30.03.2020
6666 Clouds 3 1041 86 10000 3.1 260 06:29 30.03.2020
6667 Clouds 3 1041 93 10000 3.1 280 05:46 30.03.2020
6668 Clouds 3 1042 93 10000 3.1 230 04:40 30.03.2020
6669 Clouds 2 1042 89 10000 2.6 230 04:20 30.03.2020
6670 Clouds 3 1043 86 10000 3.6 250 02:52 30.03.2020
6671 Clouds 4 1043 80 10000 3.6 260 01:58 30.03.2020
6672 Clouds 5 1044 80 10000 4.1 260 01:18 30.03.2020
6673 Clouds 4 1044 86 10000 3.1 240 00:29 30.03.2020
6674 Clouds 5 1045 75 10000 3.1 270 23:57 29.03.2020
6675 Clouds 5 1045 75 10000 3.1 270 23:57 29.03.2020
6676 Clouds 5 1045 75 10000 3.1 270 23:39 29.03.2020
6677 Clouds 5 1045 82 10000 4.1 270 23:20 29.03.2020
6678 Clouds 6 1045 82 10000 3.6 260 22:55 29.03.2020
6679 Clouds 5 1045 82 10000 4.1 270 22:55 29.03.2020
6680 Clouds 6 1045 82 10000 3.6 260 22:37 29.03.2020
6681 Clouds 6 1045 82 10000 3.6 260 22:37 29.03.2020
6682 Clouds 6 1045 82 10000 4.1 290 22:18 29.03.2020
6683 Clouds 6 1046 60 10000 3.1 270 21:38 29.03.2020
6684 Clouds 6 1046 60 10000 3.1 270 21:20 29.03.2020
6685 Clear 7 1046 56 10000 5.7 310 20:56 29.03.2020
6686 Clear 7 1046 56 10000 5.7 310 20:37 29.03.2020
6687 Clear 7 1046 56 10000 5.7 310 20:37 29.03.2020
6688 Clear 7 1046 49 10000 5.7 290 20:19 29.03.2020
6689 Clear 7 1046 49 10000 5.7 290 20:19 29.03.2020
6690 Clear 8 1046 49 10000 5.1 280 19:57 29.03.2020
6691 Clear 8 1046 49 10000 5.1 280 19:57 29.03.2020
6692 Clear 8 1046 49 10000 5.1 280 19:39 29.03.2020
6693 Clear 8 1046 49 10000 5.1 280 19:39 29.03.2020
6694 Clear 8 1046 42</